<?xml version="1.0" encoding="UTF-8" standalone="no" ?>
<gpx xmlns="http://www.topografix.com/GPX/1/1" xmlns:xsi="http://www.w3.org/2001/XMLSchema-instance" xsi:schemaLocation="http://www.topografix.com/GPX/1/1 http://www.topografix.com/GPX/1/1/gpx.xsd" version="1.1" creator="VisuGPX - https://www.visugpx.com">
  <metadata>
    <name>Col des Quirlies, par le Glacier de Saint Sorlin </name>
  </metadata>
  <trk>
    <name><![CDATA[Col des Quirlies, par le Glacier de Saint Sorlin _1]]></name>
    <trkseg>
      <trkpt lat="45.22033" lon="6.22326">
        <ele>1612</ele>
        <time>2020-07-19T14:07:56.000Z</time>
      </trkpt>
      <trkpt lat="45.22035" lon="6.22328">
        <ele>1611.9</ele>
        <time>2020-07-19T14:07:57.000Z</time>
      </trkpt>
      <trkpt lat="45.22038" lon="6.22329">
        <ele>1611</ele>
        <time>2020-07-19T14:07:59.000Z</time>
      </trkpt>
      <trkpt lat="45.2204" lon="6.22329">
        <ele>1611</ele>
        <time>2020-07-19T14:08:01.000Z</time>
      </trkpt>
      <trkpt lat="45.22042" lon="6.22329">
        <ele>1610</ele>
        <time>2020-07-19T14:08:19.000Z</time>
      </trkpt>
      <trkpt lat="45.22045" lon="6.22331">
        <ele>1610</ele>
        <time>2020-07-19T14:08:21.000Z</time>
      </trkpt>
      <trkpt lat="45.22047" lon="6.22333">
        <ele>1610.1</ele>
        <time>2020-07-19T14:08:23.000Z</time>
      </trkpt>
      <trkpt lat="45.22049" lon="6.22334">
        <ele>1611</ele>
        <time>2020-07-19T14:08:24.000Z</time>
      </trkpt>
      <trkpt lat="45.22051" lon="6.22334">
        <ele>1611</ele>
        <time>2020-07-19T14:08:25.000Z</time>
      </trkpt>
      <trkpt lat="45.22053" lon="6.22335">
        <ele>1611</ele>
        <time>2020-07-19T14:08:26.000Z</time>
      </trkpt>
      <trkpt lat="45.22055" lon="6.22334">
        <ele>1611</ele>
        <time>2020-07-19T14:08:27.000Z</time>
      </trkpt>
      <trkpt lat="45.22058" lon="6.22334">
        <ele>1611</ele>
        <time>2020-07-19T14:08:28.000Z</time>
      </trkpt>
      <trkpt lat="45.2206" lon="6.22334">
        <ele>1611</ele>
        <time>2020-07-19T14:08:30.000Z</time>
      </trkpt>
      <trkpt lat="45.22062" lon="6.22334">
        <ele>1611</ele>
        <time>2020-07-19T14:08:32.000Z</time>
      </trkpt>
      <trkpt lat="45.22065" lon="6.22333">
        <ele>1612</ele>
        <time>2020-07-19T14:08:43.000Z</time>
      </trkpt>
      <trkpt lat="45.22067" lon="6.22333">
        <ele>1612</ele>
        <time>2020-07-19T14:08:44.000Z</time>
      </trkpt>
      <trkpt lat="45.2207" lon="6.22331">
        <ele>1612.9</ele>
        <time>2020-07-19T14:08:46.000Z</time>
      </trkpt>
      <trkpt lat="45.22072" lon="6.2233">
        <ele>1612</ele>
        <time>2020-07-19T14:08:47.000Z</time>
      </trkpt>
      <trkpt lat="45.22075" lon="6.22328">
        <ele>1612</ele>
        <time>2020-07-19T14:08:49.000Z</time>
      </trkpt>
      <trkpt lat="45.22077" lon="6.22327">
        <ele>1612</ele>
        <time>2020-07-19T14:08:50.000Z</time>
      </trkpt>
      <trkpt lat="45.22079" lon="6.22326">
        <ele>1613</ele>
        <time>2020-07-19T14:08:51.000Z</time>
      </trkpt>
      <trkpt lat="45.2208" lon="6.22325">
        <ele>1613</ele>
        <time>2020-07-19T14:08:52.000Z</time>
      </trkpt>
      <trkpt lat="45.22082" lon="6.22324">
        <ele>1613</ele>
        <time>2020-07-19T14:08:53.000Z</time>
      </trkpt>
      <trkpt lat="45.22084" lon="6.22323">
        <ele>1613</ele>
        <time>2020-07-19T14:08:54.000Z</time>
      </trkpt>
      <trkpt lat="45.22086" lon="6.22322">
        <ele>1613</ele>
        <time>2020-07-19T14:08:55.000Z</time>
      </trkpt>
      <trkpt lat="45.22088" lon="6.22321">
        <ele>1613</ele>
        <time>2020-07-19T14:08:56.000Z</time>
      </trkpt>
      <trkpt lat="45.2209" lon="6.2232">
        <ele>1613</ele>
        <time>2020-07-19T14:08:57.000Z</time>
      </trkpt>
      <trkpt lat="45.22092" lon="6.22319">
        <ele>1613</ele>
        <time>2020-07-19T14:08:58.000Z</time>
      </trkpt>
      <trkpt lat="45.22093" lon="6.22319">
        <ele>1613</ele>
        <time>2020-07-19T14:08:59.000Z</time>
      </trkpt>
      <trkpt lat="45.22095" lon="6.22317">
        <ele>1613</ele>
        <time>2020-07-19T14:09:00.000Z</time>
      </trkpt>
      <trkpt lat="45.22097" lon="6.22316">
        <ele>1613</ele>
        <time>2020-07-19T14:09:01.000Z</time>
      </trkpt>
      <trkpt lat="45.22098" lon="6.22315">
        <ele>1613</ele>
        <time>2020-07-19T14:09:02.000Z</time>
      </trkpt>
      <trkpt lat="45.221" lon="6.22313">
        <ele>1613</ele>
        <time>2020-07-19T14:09:03.000Z</time>
      </trkpt>
      <trkpt lat="45.22102" lon="6.22312">
        <ele>1613</ele>
        <time>2020-07-19T14:09:04.000Z</time>
      </trkpt>
      <trkpt lat="45.22104" lon="6.22311">
        <ele>1613</ele>
        <time>2020-07-19T14:09:05.000Z</time>
      </trkpt>
      <trkpt lat="45.22106" lon="6.22309">
        <ele>1613</ele>
        <time>2020-07-19T14:09:06.000Z</time>
      </trkpt>
      <trkpt lat="45.22108" lon="6.22308">
        <ele>1613</ele>
        <time>2020-07-19T14:09:07.000Z</time>
      </trkpt>
      <trkpt lat="45.22109" lon="6.22307">
        <ele>1613</ele>
        <time>2020-07-19T14:09:08.000Z</time>
      </trkpt>
      <trkpt lat="45.22111" lon="6.22305">
        <ele>1613</ele>
        <time>2020-07-19T14:09:09.000Z</time>
      </trkpt>
      <trkpt lat="45.22112" lon="6.22303">
        <ele>1612.1</ele>
        <time>2020-07-19T14:09:10.000Z</time>
      </trkpt>
      <trkpt lat="45.22114" lon="6.22302">
        <ele>1613</ele>
        <time>2020-07-19T14:09:11.000Z</time>
      </trkpt>
      <trkpt lat="45.22115" lon="6.223">
        <ele>1613</ele>
        <time>2020-07-19T14:09:12.000Z</time>
      </trkpt>
      <trkpt lat="45.22117" lon="6.22299">
        <ele>1613</ele>
        <time>2020-07-19T14:09:13.000Z</time>
      </trkpt>
      <trkpt lat="45.22119" lon="6.22298">
        <ele>1613</ele>
        <time>2020-07-19T14:09:14.000Z</time>
      </trkpt>
      <trkpt lat="45.2212" lon="6.22296">
        <ele>1613</ele>
        <time>2020-07-19T14:09:15.000Z</time>
      </trkpt>
      <trkpt lat="45.22122" lon="6.22295">
        <ele>1613.1</ele>
        <time>2020-07-19T14:09:16.000Z</time>
      </trkpt>
      <trkpt lat="45.22124" lon="6.22294">
        <ele>1613.9</ele>
        <time>2020-07-19T14:09:17.000Z</time>
      </trkpt>
      <trkpt lat="45.22126" lon="6.22294">
        <ele>1613</ele>
        <time>2020-07-19T14:09:18.000Z</time>
      </trkpt>
      <trkpt lat="45.22129" lon="6.22292">
        <ele>1613.1</ele>
        <time>2020-07-19T14:09:20.000Z</time>
      </trkpt>
      <trkpt lat="45.22132" lon="6.2229">
        <ele>1614</ele>
        <time>2020-07-19T14:09:22.000Z</time>
      </trkpt>
      <trkpt lat="45.22135" lon="6.22289">
        <ele>1614</ele>
        <time>2020-07-19T14:09:24.000Z</time>
      </trkpt>
      <trkpt lat="45.22138" lon="6.22288">
        <ele>1613</ele>
        <time>2020-07-19T14:09:26.000Z</time>
      </trkpt>
      <trkpt lat="45.22142" lon="6.22287">
        <ele>1613</ele>
        <time>2020-07-19T14:09:28.000Z</time>
      </trkpt>
      <trkpt lat="45.22143" lon="6.22286">
        <ele>1614.1</ele>
        <time>2020-07-19T14:09:29.000Z</time>
      </trkpt>
      <trkpt lat="45.22145" lon="6.22285">
        <ele>1615</ele>
        <time>2020-07-19T14:09:30.000Z</time>
      </trkpt>
      <trkpt lat="45.22147" lon="6.22285">
        <ele>1615</ele>
        <time>2020-07-19T14:09:31.000Z</time>
      </trkpt>
      <trkpt lat="45.22149" lon="6.22284">
        <ele>1615</ele>
        <time>2020-07-19T14:09:32.000Z</time>
      </trkpt>
      <trkpt lat="45.2215" lon="6.22284">
        <ele>1614.9</ele>
        <time>2020-07-19T14:09:33.000Z</time>
      </trkpt>
      <trkpt lat="45.22154" lon="6.22283">
        <ele>1615</ele>
        <time>2020-07-19T14:09:35.000Z</time>
      </trkpt>
      <trkpt lat="45.22157" lon="6.22282">
        <ele>1615</ele>
        <time>2020-07-19T14:09:37.000Z</time>
      </trkpt>
      <trkpt lat="45.22161" lon="6.22281">
        <ele>1615</ele>
        <time>2020-07-19T14:09:39.000Z</time>
      </trkpt>
      <trkpt lat="45.22164" lon="6.22281">
        <ele>1615.1</ele>
        <time>2020-07-19T14:09:41.000Z</time>
      </trkpt>
      <trkpt lat="45.22166" lon="6.22281">
        <ele>1615.9</ele>
        <time>2020-07-19T14:09:42.000Z</time>
      </trkpt>
      <trkpt lat="45.22168" lon="6.22282">
        <ele>1614.9</ele>
        <time>2020-07-19T14:09:43.000Z</time>
      </trkpt>
      <trkpt lat="45.2217" lon="6.22283">
        <ele>1614.2</ele>
        <time>2020-07-19T14:09:44.000Z</time>
      </trkpt>
      <trkpt lat="45.22172" lon="6.22283">
        <ele>1614.1</ele>
        <time>2020-07-19T14:09:45.000Z</time>
      </trkpt>
      <trkpt lat="45.22174" lon="6.22284">
        <ele>1615</ele>
        <time>2020-07-19T14:09:46.000Z</time>
      </trkpt>
      <trkpt lat="45.22176" lon="6.22285">
        <ele>1615</ele>
        <time>2020-07-19T14:09:47.000Z</time>
      </trkpt>
      <trkpt lat="45.22178" lon="6.22286">
        <ele>1615</ele>
        <time>2020-07-19T14:09:48.000Z</time>
      </trkpt>
      <trkpt lat="45.2218" lon="6.22288">
        <ele>1615.1</ele>
        <time>2020-07-19T14:09:49.000Z</time>
      </trkpt>
      <trkpt lat="45.22182" lon="6.2229">
        <ele>1616</ele>
        <time>2020-07-19T14:09:50.000Z</time>
      </trkpt>
      <trkpt lat="45.22183" lon="6.22292">
        <ele>1616</ele>
        <time>2020-07-19T14:09:51.000Z</time>
      </trkpt>
      <trkpt lat="45.22185" lon="6.22294">
        <ele>1616</ele>
        <time>2020-07-19T14:09:52.000Z</time>
      </trkpt>
      <trkpt lat="45.22187" lon="6.22296">
        <ele>1616</ele>
        <time>2020-07-19T14:09:53.000Z</time>
      </trkpt>
      <trkpt lat="45.22188" lon="6.22299">
        <ele>1616</ele>
        <time>2020-07-19T14:09:54.000Z</time>
      </trkpt>
      <trkpt lat="45.22189" lon="6.22301">
        <ele>1616</ele>
        <time>2020-07-19T14:09:55.000Z</time>
      </trkpt>
      <trkpt lat="45.22191" lon="6.22304">
        <ele>1616</ele>
        <time>2020-07-19T14:09:56.000Z</time>
      </trkpt>
      <trkpt lat="45.22192" lon="6.22308">
        <ele>1616</ele>
        <time>2020-07-19T14:09:57.000Z</time>
      </trkpt>
      <trkpt lat="45.22192" lon="6.22311">
        <ele>1616.1</ele>
        <time>2020-07-19T14:09:58.000Z</time>
      </trkpt>
      <trkpt lat="45.22192" lon="6.22314">
        <ele>1617</ele>
        <time>2020-07-19T14:09:59.000Z</time>
      </trkpt>
      <trkpt lat="45.22193" lon="6.22317">
        <ele>1617</ele>
        <time>2020-07-19T14:10:00.000Z</time>
      </trkpt>
      <trkpt lat="45.22193" lon="6.22321">
        <ele>1617</ele>
        <time>2020-07-19T14:10:01.000Z</time>
      </trkpt>
      <trkpt lat="45.22193" lon="6.22324">
        <ele>1617</ele>
        <time>2020-07-19T14:10:02.000Z</time>
      </trkpt>
      <trkpt lat="45.22193" lon="6.22328">
        <ele>1617.1</ele>
        <time>2020-07-19T14:10:03.000Z</time>
      </trkpt>
      <trkpt lat="45.22193" lon="6.22332">
        <ele>1618</ele>
        <time>2020-07-19T14:10:04.000Z</time>
      </trkpt>
      <trkpt lat="45.22193" lon="6.22336">
        <ele>1618</ele>
        <time>2020-07-19T14:10:05.000Z</time>
      </trkpt>
      <trkpt lat="45.22194" lon="6.2234">
        <ele>1618</ele>
        <time>2020-07-19T14:10:06.000Z</time>
      </trkpt>
      <trkpt lat="45.22194" lon="6.22343">
        <ele>1617</ele>
        <time>2020-07-19T14:10:07.000Z</time>
      </trkpt>
      <trkpt lat="45.22194" lon="6.22346">
        <ele>1617</ele>
        <time>2020-07-19T14:10:08.000Z</time>
      </trkpt>
      <trkpt lat="45.22194" lon="6.2235">
        <ele>1617</ele>
        <time>2020-07-19T14:10:09.000Z</time>
      </trkpt>
      <trkpt lat="45.22194" lon="6.22353">
        <ele>1617.1</ele>
        <time>2020-07-19T14:10:10.000Z</time>
      </trkpt>
      <trkpt lat="45.22194" lon="6.22356">
        <ele>1618</ele>
        <time>2020-07-19T14:10:11.000Z</time>
      </trkpt>
      <trkpt lat="45.22195" lon="6.2236">
        <ele>1618</ele>
        <time>2020-07-19T14:10:12.000Z</time>
      </trkpt>
      <trkpt lat="45.22195" lon="6.22363">
        <ele>1618</ele>
        <time>2020-07-19T14:10:13.000Z</time>
      </trkpt>
      <trkpt lat="45.22195" lon="6.22366">
        <ele>1618</ele>
        <time>2020-07-19T14:10:14.000Z</time>
      </trkpt>
      <trkpt lat="45.22196" lon="6.2237">
        <ele>1618</ele>
        <time>2020-07-19T14:10:15.000Z</time>
      </trkpt>
      <trkpt lat="45.22196" lon="6.22373">
        <ele>1618</ele>
        <time>2020-07-19T14:10:16.000Z</time>
      </trkpt>
      <trkpt lat="45.22197" lon="6.22376">
        <ele>1618.1</ele>
        <time>2020-07-19T14:10:17.000Z</time>
      </trkpt>
      <trkpt lat="45.22198" lon="6.22379">
        <ele>1618.9</ele>
        <time>2020-07-19T14:10:18.000Z</time>
      </trkpt>
      <trkpt lat="45.22199" lon="6.22381">
        <ele>1618</ele>
        <time>2020-07-19T14:10:19.000Z</time>
      </trkpt>
      <trkpt lat="45.22201" lon="6.22383">
        <ele>1618</ele>
        <time>2020-07-19T14:10:20.000Z</time>
      </trkpt>
      <trkpt lat="45.22203" lon="6.22384">
        <ele>1618</ele>
        <time>2020-07-19T14:10:21.000Z</time>
      </trkpt>
      <trkpt lat="45.22206" lon="6.22385">
        <ele>1618</ele>
        <time>2020-07-19T14:10:22.000Z</time>
      </trkpt>
      <trkpt lat="45.22208" lon="6.22384">
        <ele>1618</ele>
        <time>2020-07-19T14:10:23.000Z</time>
      </trkpt>
      <trkpt lat="45.2221" lon="6.22383">
        <ele>1618</ele>
        <time>2020-07-19T14:10:24.000Z</time>
      </trkpt>
      <trkpt lat="45.22212" lon="6.22381">
        <ele>1618</ele>
        <time>2020-07-19T14:10:25.000Z</time>
      </trkpt>
      <trkpt lat="45.22214" lon="6.22379">
        <ele>1618</ele>
        <time>2020-07-19T14:10:26.000Z</time>
      </trkpt>
      <trkpt lat="45.22215" lon="6.22376">
        <ele>1618.1</ele>
        <time>2020-07-19T14:10:27.000Z</time>
      </trkpt>
      <trkpt lat="45.22216" lon="6.22373">
        <ele>1619</ele>
        <time>2020-07-19T14:10:28.000Z</time>
      </trkpt>
      <trkpt lat="45.22216" lon="6.2237">
        <ele>1619</ele>
        <time>2020-07-19T14:10:29.000Z</time>
      </trkpt>
      <trkpt lat="45.22216" lon="6.22366">
        <ele>1618.9</ele>
        <time>2020-07-19T14:10:30.000Z</time>
      </trkpt>
      <trkpt lat="45.22216" lon="6.22363">
        <ele>1618.1</ele>
        <time>2020-07-19T14:10:31.000Z</time>
      </trkpt>
      <trkpt lat="45.22216" lon="6.22359">
        <ele>1619</ele>
        <time>2020-07-19T14:10:32.000Z</time>
      </trkpt>
      <trkpt lat="45.22216" lon="6.22356">
        <ele>1619</ele>
        <time>2020-07-19T14:10:33.000Z</time>
      </trkpt>
      <trkpt lat="45.22216" lon="6.22352">
        <ele>1619</ele>
        <time>2020-07-19T14:10:34.000Z</time>
      </trkpt>
      <trkpt lat="45.22217" lon="6.22348">
        <ele>1619</ele>
        <time>2020-07-19T14:10:35.000Z</time>
      </trkpt>
      <trkpt lat="45.22217" lon="6.22344">
        <ele>1619</ele>
        <time>2020-07-19T14:10:36.000Z</time>
      </trkpt>
      <trkpt lat="45.22217" lon="6.2234">
        <ele>1619</ele>
        <time>2020-07-19T14:10:37.000Z</time>
      </trkpt>
      <trkpt lat="45.22217" lon="6.22336">
        <ele>1619</ele>
        <time>2020-07-19T14:10:38.000Z</time>
      </trkpt>
      <trkpt lat="45.22217" lon="6.22332">
        <ele>1619</ele>
        <time>2020-07-19T14:10:39.000Z</time>
      </trkpt>
      <trkpt lat="45.22217" lon="6.22328">
        <ele>1619</ele>
        <time>2020-07-19T14:10:40.000Z</time>
      </trkpt>
      <trkpt lat="45.22217" lon="6.22325">
        <ele>1619</ele>
        <time>2020-07-19T14:10:41.000Z</time>
      </trkpt>
      <trkpt lat="45.22217" lon="6.22321">
        <ele>1619</ele>
        <time>2020-07-19T14:10:42.000Z</time>
      </trkpt>
      <trkpt lat="45.22217" lon="6.22317">
        <ele>1619</ele>
        <time>2020-07-19T14:10:43.000Z</time>
      </trkpt>
      <trkpt lat="45.22217" lon="6.22313">
        <ele>1619</ele>
        <time>2020-07-19T14:10:44.000Z</time>
      </trkpt>
      <trkpt lat="45.22217" lon="6.22308">
        <ele>1619</ele>
        <time>2020-07-19T14:10:45.000Z</time>
      </trkpt>
      <trkpt lat="45.22216" lon="6.22303">
        <ele>1619.1</ele>
        <time>2020-07-19T14:10:46.000Z</time>
      </trkpt>
      <trkpt lat="45.22216" lon="6.22296">
        <ele>1620</ele>
        <time>2020-07-19T14:10:47.000Z</time>
      </trkpt>
      <trkpt lat="45.22216" lon="6.2229">
        <ele>1620.1</ele>
        <time>2020-07-19T14:10:48.000Z</time>
      </trkpt>
      <trkpt lat="45.22215" lon="6.22284">
        <ele>1621.1</ele>
        <time>2020-07-19T14:10:49.000Z</time>
      </trkpt>
      <trkpt lat="45.22214" lon="6.22277">
        <ele>1622</ele>
        <time>2020-07-19T14:10:50.000Z</time>
      </trkpt>
      <trkpt lat="45.22213" lon="6.2227">
        <ele>1622</ele>
        <time>2020-07-19T14:10:51.000Z</time>
      </trkpt>
      <trkpt lat="45.22213" lon="6.22263">
        <ele>1622</ele>
        <time>2020-07-19T14:10:52.000Z</time>
      </trkpt>
      <trkpt lat="45.22212" lon="6.22256">
        <ele>1622</ele>
        <time>2020-07-19T14:10:53.000Z</time>
      </trkpt>
      <trkpt lat="45.22211" lon="6.22249">
        <ele>1622.1</ele>
        <time>2020-07-19T14:10:54.000Z</time>
      </trkpt>
      <trkpt lat="45.2221" lon="6.22243">
        <ele>1622.9</ele>
        <time>2020-07-19T14:10:55.000Z</time>
      </trkpt>
      <trkpt lat="45.22209" lon="6.22236">
        <ele>1622.2</ele>
        <time>2020-07-19T14:10:56.000Z</time>
      </trkpt>
      <trkpt lat="45.22208" lon="6.22231">
        <ele>1623</ele>
        <time>2020-07-19T14:10:57.000Z</time>
      </trkpt>
      <trkpt lat="45.22207" lon="6.22226">
        <ele>1623</ele>
        <time>2020-07-19T14:10:58.000Z</time>
      </trkpt>
      <trkpt lat="45.22205" lon="6.22221">
        <ele>1623</ele>
        <time>2020-07-19T14:10:59.000Z</time>
      </trkpt>
      <trkpt lat="45.22204" lon="6.22217">
        <ele>1623.1</ele>
        <time>2020-07-19T14:11:00.000Z</time>
      </trkpt>
      <trkpt lat="45.22202" lon="6.22214">
        <ele>1624</ele>
        <time>2020-07-19T14:11:01.000Z</time>
      </trkpt>
      <trkpt lat="45.22201" lon="6.22211">
        <ele>1624</ele>
        <time>2020-07-19T14:11:02.000Z</time>
      </trkpt>
      <trkpt lat="45.22199" lon="6.22208">
        <ele>1624</ele>
        <time>2020-07-19T14:11:03.000Z</time>
      </trkpt>
      <trkpt lat="45.22198" lon="6.22206">
        <ele>1624.1</ele>
        <time>2020-07-19T14:11:04.000Z</time>
      </trkpt>
      <trkpt lat="45.22196" lon="6.22204">
        <ele>1625</ele>
        <time>2020-07-19T14:11:05.000Z</time>
      </trkpt>
      <trkpt lat="45.22195" lon="6.22201">
        <ele>1624.9</ele>
        <time>2020-07-19T14:11:06.000Z</time>
      </trkpt>
      <trkpt lat="45.22194" lon="6.22199">
        <ele>1624</ele>
        <time>2020-07-19T14:11:07.000Z</time>
      </trkpt>
      <trkpt lat="45.22192" lon="6.22197">
        <ele>1624.1</ele>
        <time>2020-07-19T14:11:08.000Z</time>
      </trkpt>
      <trkpt lat="45.22191" lon="6.22195">
        <ele>1625</ele>
        <time>2020-07-19T14:11:09.000Z</time>
      </trkpt>
      <trkpt lat="45.2219" lon="6.22192">
        <ele>1625</ele>
        <time>2020-07-19T14:11:10.000Z</time>
      </trkpt>
      <trkpt lat="45.22189" lon="6.2219">
        <ele>1625</ele>
        <time>2020-07-19T14:11:11.000Z</time>
      </trkpt>
      <trkpt lat="45.22188" lon="6.22188">
        <ele>1625.1</ele>
        <time>2020-07-19T14:11:12.000Z</time>
      </trkpt>
      <trkpt lat="45.22187" lon="6.22186">
        <ele>1626</ele>
        <time>2020-07-19T14:11:13.000Z</time>
      </trkpt>
      <trkpt lat="45.22186" lon="6.22184">
        <ele>1626</ele>
        <time>2020-07-19T14:11:14.000Z</time>
      </trkpt>
      <trkpt lat="45.22184" lon="6.22182">
        <ele>1626</ele>
        <time>2020-07-19T14:11:15.000Z</time>
      </trkpt>
      <trkpt lat="45.22182" lon="6.22178">
        <ele>1626</ele>
        <time>2020-07-19T14:11:17.000Z</time>
      </trkpt>
      <trkpt lat="45.22181" lon="6.22174">
        <ele>1626</ele>
        <time>2020-07-19T14:11:19.000Z</time>
      </trkpt>
      <trkpt lat="45.22178" lon="6.2217">
        <ele>1625.1</ele>
        <time>2020-07-19T14:11:21.000Z</time>
      </trkpt>
      <trkpt lat="45.22176" lon="6.22167">
        <ele>1626</ele>
        <time>2020-07-19T14:11:23.000Z</time>
      </trkpt>
      <trkpt lat="45.22173" lon="6.22163">
        <ele>1626</ele>
        <time>2020-07-19T14:11:25.000Z</time>
      </trkpt>
      <trkpt lat="45.22171" lon="6.2216">
        <ele>1626</ele>
        <time>2020-07-19T14:11:27.000Z</time>
      </trkpt>
      <trkpt lat="45.2217" lon="6.22158">
        <ele>1626</ele>
        <time>2020-07-19T14:11:28.000Z</time>
      </trkpt>
      <trkpt lat="45.22169" lon="6.22155">
        <ele>1626</ele>
        <time>2020-07-19T14:11:29.000Z</time>
      </trkpt>
      <trkpt lat="45.22168" lon="6.22151">
        <ele>1626.1</ele>
        <time>2020-07-19T14:11:31.000Z</time>
      </trkpt>
      <trkpt lat="45.22166" lon="6.22146">
        <ele>1627</ele>
        <time>2020-07-19T14:11:33.000Z</time>
      </trkpt>
      <trkpt lat="45.22164" lon="6.22143">
        <ele>1626.9</ele>
        <time>2020-07-19T14:11:35.000Z</time>
      </trkpt>
      <trkpt lat="45.22163" lon="6.2214">
        <ele>1626</ele>
        <time>2020-07-19T14:11:36.000Z</time>
      </trkpt>
      <trkpt lat="45.22161" lon="6.22138">
        <ele>1626.1</ele>
        <time>2020-07-19T14:11:37.000Z</time>
      </trkpt>
      <trkpt lat="45.2216" lon="6.22136">
        <ele>1627</ele>
        <time>2020-07-19T14:11:38.000Z</time>
      </trkpt>
      <trkpt lat="45.22159" lon="6.22134">
        <ele>1627.1</ele>
        <time>2020-07-19T14:11:39.000Z</time>
      </trkpt>
      <trkpt lat="45.22158" lon="6.22132">
        <ele>1628</ele>
        <time>2020-07-19T14:11:40.000Z</time>
      </trkpt>
      <trkpt lat="45.22157" lon="6.2213">
        <ele>1628</ele>
        <time>2020-07-19T14:11:41.000Z</time>
      </trkpt>
      <trkpt lat="45.22156" lon="6.22127">
        <ele>1628</ele>
        <time>2020-07-19T14:11:42.000Z</time>
      </trkpt>
      <trkpt lat="45.22155" lon="6.22125">
        <ele>1628.1</ele>
        <time>2020-07-19T14:11:43.000Z</time>
      </trkpt>
      <trkpt lat="45.22154" lon="6.22123">
        <ele>1629</ele>
        <time>2020-07-19T14:11:44.000Z</time>
      </trkpt>
      <trkpt lat="45.22153" lon="6.22121">
        <ele>1629</ele>
        <time>2020-07-19T14:11:45.000Z</time>
      </trkpt>
      <trkpt lat="45.22153" lon="6.22118">
        <ele>1629</ele>
        <time>2020-07-19T14:11:46.000Z</time>
      </trkpt>
      <trkpt lat="45.22152" lon="6.22116">
        <ele>1629</ele>
        <time>2020-07-19T14:11:47.000Z</time>
      </trkpt>
      <trkpt lat="45.22151" lon="6.22111">
        <ele>1629</ele>
        <time>2020-07-19T14:11:49.000Z</time>
      </trkpt>
      <trkpt lat="45.2215" lon="6.22106">
        <ele>1629</ele>
        <time>2020-07-19T14:11:51.000Z</time>
      </trkpt>
      <trkpt lat="45.2215" lon="6.22104">
        <ele>1629</ele>
        <time>2020-07-19T14:11:52.000Z</time>
      </trkpt>
      <trkpt lat="45.2215" lon="6.22101">
        <ele>1629</ele>
        <time>2020-07-19T14:11:53.000Z</time>
      </trkpt>
      <trkpt lat="45.22149" lon="6.22098">
        <ele>1629</ele>
        <time>2020-07-19T14:11:54.000Z</time>
      </trkpt>
      <trkpt lat="45.22149" lon="6.22095">
        <ele>1629</ele>
        <time>2020-07-19T14:11:55.000Z</time>
      </trkpt>
      <trkpt lat="45.22149" lon="6.22092">
        <ele>1629.1</ele>
        <time>2020-07-19T14:11:56.000Z</time>
      </trkpt>
      <trkpt lat="45.22149" lon="6.22089">
        <ele>1630</ele>
        <time>2020-07-19T14:11:57.000Z</time>
      </trkpt>
      <trkpt lat="45.22149" lon="6.22086">
        <ele>1630</ele>
        <time>2020-07-19T14:11:58.000Z</time>
      </trkpt>
      <trkpt lat="45.22149" lon="6.22084">
        <ele>1630.1</ele>
        <time>2020-07-19T14:11:59.000Z</time>
      </trkpt>
      <trkpt lat="45.22149" lon="6.22079">
        <ele>1631</ele>
        <time>2020-07-19T14:12:01.000Z</time>
      </trkpt>
      <trkpt lat="45.22149" lon="6.22076">
        <ele>1631.1</ele>
        <time>2020-07-19T14:12:02.000Z</time>
      </trkpt>
      <trkpt lat="45.22149" lon="6.22073">
        <ele>1632</ele>
        <time>2020-07-19T14:12:03.000Z</time>
      </trkpt>
      <trkpt lat="45.22149" lon="6.22071">
        <ele>1632</ele>
        <time>2020-07-19T14:12:04.000Z</time>
      </trkpt>
      <trkpt lat="45.22149" lon="6.22068">
        <ele>1632</ele>
        <time>2020-07-19T14:12:05.000Z</time>
      </trkpt>
      <trkpt lat="45.22149" lon="6.22065">
        <ele>1632</ele>
        <time>2020-07-19T14:12:06.000Z</time>
      </trkpt>
      <trkpt lat="45.22149" lon="6.22063">
        <ele>1631.9</ele>
        <time>2020-07-19T14:12:07.000Z</time>
      </trkpt>
      <trkpt lat="45.22149" lon="6.22058">
        <ele>1631</ele>
        <time>2020-07-19T14:12:09.000Z</time>
      </trkpt>
      <trkpt lat="45.22147" lon="6.22053">
        <ele>1631.1</ele>
        <time>2020-07-19T14:12:11.000Z</time>
      </trkpt>
      <trkpt lat="45.22146" lon="6.22051">
        <ele>1631.8</ele>
        <time>2020-07-19T14:12:12.000Z</time>
      </trkpt>
      <trkpt lat="45.22145" lon="6.22049">
        <ele>1632</ele>
        <time>2020-07-19T14:12:13.000Z</time>
      </trkpt>
      <trkpt lat="45.22143" lon="6.22047">
        <ele>1632</ele>
        <time>2020-07-19T14:12:14.000Z</time>
      </trkpt>
      <trkpt lat="45.22142" lon="6.22045">
        <ele>1632</ele>
        <time>2020-07-19T14:12:15.000Z</time>
      </trkpt>
      <trkpt lat="45.2214" lon="6.22041">
        <ele>1633</ele>
        <time>2020-07-19T14:12:17.000Z</time>
      </trkpt>
      <trkpt lat="45.22137" lon="6.22038">
        <ele>1633</ele>
        <time>2020-07-19T14:12:19.000Z</time>
      </trkpt>
      <trkpt lat="45.22135" lon="6.22035">
        <ele>1634</ele>
        <time>2020-07-19T14:12:21.000Z</time>
      </trkpt>
      <trkpt lat="45.22132" lon="6.22032">
        <ele>1634.1</ele>
        <time>2020-07-19T14:12:23.000Z</time>
      </trkpt>
      <trkpt lat="45.2213" lon="6.2203">
        <ele>1635</ele>
        <time>2020-07-19T14:12:24.000Z</time>
      </trkpt>
      <trkpt lat="45.22129" lon="6.22028">
        <ele>1635</ele>
        <time>2020-07-19T14:12:25.000Z</time>
      </trkpt>
      <trkpt lat="45.22126" lon="6.22026">
        <ele>1635</ele>
        <time>2020-07-19T14:12:27.000Z</time>
      </trkpt>
      <trkpt lat="45.22125" lon="6.22024">
        <ele>1635</ele>
        <time>2020-07-19T14:12:28.000Z</time>
      </trkpt>
      <trkpt lat="45.22122" lon="6.22021">
        <ele>1635</ele>
        <time>2020-07-19T14:12:30.000Z</time>
      </trkpt>
      <trkpt lat="45.22119" lon="6.22019">
        <ele>1635</ele>
        <time>2020-07-19T14:12:32.000Z</time>
      </trkpt>
      <trkpt lat="45.22116" lon="6.22017">
        <ele>1635</ele>
        <time>2020-07-19T14:12:34.000Z</time>
      </trkpt>
      <trkpt lat="45.22113" lon="6.22015">
        <ele>1636</ele>
        <time>2020-07-19T14:12:36.000Z</time>
      </trkpt>
      <trkpt lat="45.2211" lon="6.22013">
        <ele>1636</ele>
        <time>2020-07-19T14:12:38.000Z</time>
      </trkpt>
      <trkpt lat="45.22108" lon="6.22012">
        <ele>1636</ele>
        <time>2020-07-19T14:12:39.000Z</time>
      </trkpt>
      <trkpt lat="45.22107" lon="6.2201">
        <ele>1636</ele>
        <time>2020-07-19T14:12:40.000Z</time>
      </trkpt>
      <trkpt lat="45.22104" lon="6.22007">
        <ele>1636.1</ele>
        <time>2020-07-19T14:12:42.000Z</time>
      </trkpt>
      <trkpt lat="45.22102" lon="6.22006">
        <ele>1637</ele>
        <time>2020-07-19T14:12:43.000Z</time>
      </trkpt>
      <trkpt lat="45.22099" lon="6.22003">
        <ele>1637.1</ele>
        <time>2020-07-19T14:12:45.000Z</time>
      </trkpt>
      <trkpt lat="45.22097" lon="6.21999">
        <ele>1638</ele>
        <time>2020-07-19T14:12:47.000Z</time>
      </trkpt>
      <trkpt lat="45.22096" lon="6.21997">
        <ele>1638</ele>
        <time>2020-07-19T14:12:48.000Z</time>
      </trkpt>
      <trkpt lat="45.22095" lon="6.21995">
        <ele>1638</ele>
        <time>2020-07-19T14:12:49.000Z</time>
      </trkpt>
      <trkpt lat="45.22093" lon="6.21993">
        <ele>1638</ele>
        <time>2020-07-19T14:12:50.000Z</time>
      </trkpt>
      <trkpt lat="45.22092" lon="6.21991">
        <ele>1638</ele>
        <time>2020-07-19T14:12:51.000Z</time>
      </trkpt>
      <trkpt lat="45.22091" lon="6.21989">
        <ele>1638</ele>
        <time>2020-07-19T14:12:52.000Z</time>
      </trkpt>
      <trkpt lat="45.2209" lon="6.21987">
        <ele>1638</ele>
        <time>2020-07-19T14:12:53.000Z</time>
      </trkpt>
      <trkpt lat="45.22089" lon="6.21985">
        <ele>1638.1</ele>
        <time>2020-07-19T14:12:54.000Z</time>
      </trkpt>
      <trkpt lat="45.22088" lon="6.21983">
        <ele>1639</ele>
        <time>2020-07-19T14:12:55.000Z</time>
      </trkpt>
      <trkpt lat="45.22087" lon="6.21978">
        <ele>1639</ele>
        <time>2020-07-19T14:12:57.000Z</time>
      </trkpt>
      <trkpt lat="45.22086" lon="6.21973">
        <ele>1639</ele>
        <time>2020-07-19T14:12:59.000Z</time>
      </trkpt>
      <trkpt lat="45.22085" lon="6.21971">
        <ele>1639.1</ele>
        <time>2020-07-19T14:13:00.000Z</time>
      </trkpt>
      <trkpt lat="45.22085" lon="6.21968">
        <ele>1640</ele>
        <time>2020-07-19T14:13:01.000Z</time>
      </trkpt>
      <trkpt lat="45.22084" lon="6.21966">
        <ele>1640</ele>
        <time>2020-07-19T14:13:02.000Z</time>
      </trkpt>
      <trkpt lat="45.22083" lon="6.21963">
        <ele>1640</ele>
        <time>2020-07-19T14:13:03.000Z</time>
      </trkpt>
      <trkpt lat="45.22083" lon="6.21961">
        <ele>1640.1</ele>
        <time>2020-07-19T14:13:04.000Z</time>
      </trkpt>
      <trkpt lat="45.22082" lon="6.21958">
        <ele>1641</ele>
        <time>2020-07-19T14:13:05.000Z</time>
      </trkpt>
      <trkpt lat="45.22082" lon="6.21955">
        <ele>1641</ele>
        <time>2020-07-19T14:13:06.000Z</time>
      </trkpt>
      <trkpt lat="45.22081" lon="6.21953">
        <ele>1641</ele>
        <time>2020-07-19T14:13:07.000Z</time>
      </trkpt>
      <trkpt lat="45.2208" lon="6.2195">
        <ele>1641</ele>
        <time>2020-07-19T14:13:08.000Z</time>
      </trkpt>
      <trkpt lat="45.2208" lon="6.21948">
        <ele>1642</ele>
        <time>2020-07-19T14:13:09.000Z</time>
      </trkpt>
      <trkpt lat="45.22079" lon="6.21945">
        <ele>1642</ele>
        <time>2020-07-19T14:13:10.000Z</time>
      </trkpt>
      <trkpt lat="45.22079" lon="6.21943">
        <ele>1642.1</ele>
        <time>2020-07-19T14:13:11.000Z</time>
      </trkpt>
      <trkpt lat="45.22078" lon="6.21938">
        <ele>1643</ele>
        <time>2020-07-19T14:13:13.000Z</time>
      </trkpt>
      <trkpt lat="45.22077" lon="6.21933">
        <ele>1643</ele>
        <time>2020-07-19T14:13:15.000Z</time>
      </trkpt>
      <trkpt lat="45.22076" lon="6.21929">
        <ele>1644</ele>
        <time>2020-07-19T14:13:17.000Z</time>
      </trkpt>
      <trkpt lat="45.22074" lon="6.21924">
        <ele>1644</ele>
        <time>2020-07-19T14:13:19.000Z</time>
      </trkpt>
      <trkpt lat="45.22074" lon="6.21921">
        <ele>1644</ele>
        <time>2020-07-19T14:13:20.000Z</time>
      </trkpt>
      <trkpt lat="45.22073" lon="6.21919">
        <ele>1643.9</ele>
        <time>2020-07-19T14:13:21.000Z</time>
      </trkpt>
      <trkpt lat="45.22073" lon="6.21916">
        <ele>1643.1</ele>
        <time>2020-07-19T14:13:22.000Z</time>
      </trkpt>
      <trkpt lat="45.22072" lon="6.21914">
        <ele>1644</ele>
        <time>2020-07-19T14:13:23.000Z</time>
      </trkpt>
      <trkpt lat="45.22071" lon="6.21911">
        <ele>1644</ele>
        <time>2020-07-19T14:13:24.000Z</time>
      </trkpt>
      <trkpt lat="45.22071" lon="6.21909">
        <ele>1644</ele>
        <time>2020-07-19T14:13:25.000Z</time>
      </trkpt>
      <trkpt lat="45.2207" lon="6.21906">
        <ele>1644</ele>
        <time>2020-07-19T14:13:26.000Z</time>
      </trkpt>
      <trkpt lat="45.22069" lon="6.21903">
        <ele>1644.1</ele>
        <time>2020-07-19T14:13:27.000Z</time>
      </trkpt>
      <trkpt lat="45.22069" lon="6.21901">
        <ele>1645</ele>
        <time>2020-07-19T14:13:28.000Z</time>
      </trkpt>
      <trkpt lat="45.22068" lon="6.21898">
        <ele>1645</ele>
        <time>2020-07-19T14:13:29.000Z</time>
      </trkpt>
      <trkpt lat="45.22068" lon="6.21895">
        <ele>1645</ele>
        <time>2020-07-19T14:13:30.000Z</time>
      </trkpt>
      <trkpt lat="45.22068" lon="6.21893">
        <ele>1645</ele>
        <time>2020-07-19T14:13:31.000Z</time>
      </trkpt>
      <trkpt lat="45.22067" lon="6.2189">
        <ele>1645.1</ele>
        <time>2020-07-19T14:13:32.000Z</time>
      </trkpt>
      <trkpt lat="45.22067" lon="6.21888">
        <ele>1646</ele>
        <time>2020-07-19T14:13:33.000Z</time>
      </trkpt>
      <trkpt lat="45.22066" lon="6.21885">
        <ele>1646</ele>
        <time>2020-07-19T14:13:34.000Z</time>
      </trkpt>
      <trkpt lat="45.22065" lon="6.21882">
        <ele>1646.8</ele>
        <time>2020-07-19T14:13:35.000Z</time>
      </trkpt>
      <trkpt lat="45.22065" lon="6.21879">
        <ele>1647</ele>
        <time>2020-07-19T14:13:36.000Z</time>
      </trkpt>
      <trkpt lat="45.22064" lon="6.21876">
        <ele>1647.1</ele>
        <time>2020-07-19T14:13:37.000Z</time>
      </trkpt>
      <trkpt lat="45.22063" lon="6.21874">
        <ele>1648</ele>
        <time>2020-07-19T14:13:38.000Z</time>
      </trkpt>
      <trkpt lat="45.22063" lon="6.21871">
        <ele>1648</ele>
        <time>2020-07-19T14:13:39.000Z</time>
      </trkpt>
      <trkpt lat="45.22062" lon="6.21867">
        <ele>1648</ele>
        <time>2020-07-19T14:13:40.000Z</time>
      </trkpt>
      <trkpt lat="45.22062" lon="6.21865">
        <ele>1648</ele>
        <time>2020-07-19T14:13:41.000Z</time>
      </trkpt>
      <trkpt lat="45.22061" lon="6.21862">
        <ele>1648</ele>
        <time>2020-07-19T14:13:42.000Z</time>
      </trkpt>
      <trkpt lat="45.22061" lon="6.21859">
        <ele>1648.1</ele>
        <time>2020-07-19T14:13:43.000Z</time>
      </trkpt>
      <trkpt lat="45.2206" lon="6.21857">
        <ele>1649</ele>
        <time>2020-07-19T14:13:44.000Z</time>
      </trkpt>
      <trkpt lat="45.22059" lon="6.21854">
        <ele>1649</ele>
        <time>2020-07-19T14:13:45.000Z</time>
      </trkpt>
      <trkpt lat="45.22058" lon="6.21852">
        <ele>1648.9</ele>
        <time>2020-07-19T14:13:46.000Z</time>
      </trkpt>
      <trkpt lat="45.22057" lon="6.21849">
        <ele>1648</ele>
        <time>2020-07-19T14:13:47.000Z</time>
      </trkpt>
      <trkpt lat="45.22056" lon="6.21847">
        <ele>1648.1</ele>
        <time>2020-07-19T14:13:48.000Z</time>
      </trkpt>
      <trkpt lat="45.22054" lon="6.21844">
        <ele>1649</ele>
        <time>2020-07-19T14:13:49.000Z</time>
      </trkpt>
      <trkpt lat="45.22053" lon="6.21842">
        <ele>1649</ele>
        <time>2020-07-19T14:13:50.000Z</time>
      </trkpt>
      <trkpt lat="45.22052" lon="6.21839">
        <ele>1649.1</ele>
        <time>2020-07-19T14:13:51.000Z</time>
      </trkpt>
      <trkpt lat="45.22051" lon="6.21836">
        <ele>1650</ele>
        <time>2020-07-19T14:13:52.000Z</time>
      </trkpt>
      <trkpt lat="45.2205" lon="6.21833">
        <ele>1650.1</ele>
        <time>2020-07-19T14:13:53.000Z</time>
      </trkpt>
      <trkpt lat="45.22048" lon="6.2183">
        <ele>1650.8</ele>
        <time>2020-07-19T14:13:54.000Z</time>
      </trkpt>
      <trkpt lat="45.22047" lon="6.21828">
        <ele>1651.1</ele>
        <time>2020-07-19T14:13:55.000Z</time>
      </trkpt>
      <trkpt lat="45.22045" lon="6.21826">
        <ele>1652</ele>
        <time>2020-07-19T14:13:56.000Z</time>
      </trkpt>
      <trkpt lat="45.22043" lon="6.21825">
        <ele>1652</ele>
        <time>2020-07-19T14:13:57.000Z</time>
      </trkpt>
      <trkpt lat="45.22041" lon="6.21824">
        <ele>1652.1</ele>
        <time>2020-07-19T14:13:58.000Z</time>
      </trkpt>
      <trkpt lat="45.22038" lon="6.21822">
        <ele>1653</ele>
        <time>2020-07-19T14:13:59.000Z</time>
      </trkpt>
      <trkpt lat="45.22036" lon="6.2182">
        <ele>1653</ele>
        <time>2020-07-19T14:14:00.000Z</time>
      </trkpt>
      <trkpt lat="45.22034" lon="6.21818">
        <ele>1653</ele>
        <time>2020-07-19T14:14:01.000Z</time>
      </trkpt>
      <trkpt lat="45.22032" lon="6.21816">
        <ele>1653</ele>
        <time>2020-07-19T14:14:02.000Z</time>
      </trkpt>
      <trkpt lat="45.2203" lon="6.21813">
        <ele>1653</ele>
        <time>2020-07-19T14:14:03.000Z</time>
      </trkpt>
      <trkpt lat="45.22028" lon="6.2181">
        <ele>1653</ele>
        <time>2020-07-19T14:14:04.000Z</time>
      </trkpt>
      <trkpt lat="45.22027" lon="6.21808">
        <ele>1653</ele>
        <time>2020-07-19T14:14:05.000Z</time>
      </trkpt>
      <trkpt lat="45.22026" lon="6.21806">
        <ele>1653.1</ele>
        <time>2020-07-19T14:14:06.000Z</time>
      </trkpt>
      <trkpt lat="45.22024" lon="6.21804">
        <ele>1654</ele>
        <time>2020-07-19T14:14:07.000Z</time>
      </trkpt>
      <trkpt lat="45.22022" lon="6.21802">
        <ele>1654</ele>
        <time>2020-07-19T14:14:12.000Z</time>
      </trkpt>
      <trkpt lat="45.22023" lon="6.218">
        <ele>1653.2</ele>
        <time>2020-07-19T14:14:20.000Z</time>
      </trkpt>
      <trkpt lat="45.2202" lon="6.21797">
        <ele>1653.1</ele>
        <time>2020-07-19T08:09:25.000Z</time>
      </trkpt>
      <trkpt lat="45.2202" lon="6.21797">
        <ele>1653.1</ele>
        <time>2020-07-19T08:09:25.000Z</time>
      </trkpt>
      <trkpt lat="45.22021" lon="6.21798">
        <ele>1643</ele>
        <time>2020-07-19T08:09:33.000Z</time>
      </trkpt>
      <trkpt lat="45.22024" lon="6.21797">
        <ele>1643</ele>
        <time>2020-07-19T08:09:35.000Z</time>
      </trkpt>
      <trkpt lat="45.22025" lon="6.21793">
        <ele>1643</ele>
        <time>2020-07-19T08:09:37.000Z</time>
      </trkpt>
      <trkpt lat="45.22025" lon="6.21789">
        <ele>1643.1</ele>
        <time>2020-07-19T08:09:39.000Z</time>
      </trkpt>
      <trkpt lat="45.22024" lon="6.21786">
        <ele>1644</ele>
        <time>2020-07-19T08:09:40.000Z</time>
      </trkpt>
      <trkpt lat="45.22024" lon="6.21783">
        <ele>1644</ele>
        <time>2020-07-19T08:09:41.000Z</time>
      </trkpt>
      <trkpt lat="45.22024" lon="6.2178">
        <ele>1644</ele>
        <time>2020-07-19T08:09:42.000Z</time>
      </trkpt>
      <trkpt lat="45.22025" lon="6.21777">
        <ele>1644</ele>
        <time>2020-07-19T08:09:43.000Z</time>
      </trkpt>
      <trkpt lat="45.22026" lon="6.21775">
        <ele>1644</ele>
        <time>2020-07-19T08:09:44.000Z</time>
      </trkpt>
      <trkpt lat="45.22027" lon="6.21773">
        <ele>1644</ele>
        <time>2020-07-19T08:09:45.000Z</time>
      </trkpt>
      <trkpt lat="45.22029" lon="6.2177">
        <ele>1644.1</ele>
        <time>2020-07-19T08:09:46.000Z</time>
      </trkpt>
      <trkpt lat="45.22029" lon="6.21767">
        <ele>1645</ele>
        <time>2020-07-19T08:09:47.000Z</time>
      </trkpt>
      <trkpt lat="45.22029" lon="6.21765">
        <ele>1645</ele>
        <time>2020-07-19T08:09:48.000Z</time>
      </trkpt>
      <trkpt lat="45.22028" lon="6.21761">
        <ele>1645</ele>
        <time>2020-07-19T08:09:50.000Z</time>
      </trkpt>
      <trkpt lat="45.22025" lon="6.21758">
        <ele>1645</ele>
        <time>2020-07-19T08:09:52.000Z</time>
      </trkpt>
      <trkpt lat="45.22024" lon="6.21754">
        <ele>1645.1</ele>
        <time>2020-07-19T08:09:54.000Z</time>
      </trkpt>
      <trkpt lat="45.22023" lon="6.2175">
        <ele>1646</ele>
        <time>2020-07-19T08:09:56.000Z</time>
      </trkpt>
      <trkpt lat="45.2202" lon="6.21746">
        <ele>1647</ele>
        <time>2020-07-19T08:09:58.000Z</time>
      </trkpt>
      <trkpt lat="45.22019" lon="6.21744">
        <ele>1647</ele>
        <time>2020-07-19T08:09:59.000Z</time>
      </trkpt>
      <trkpt lat="45.22017" lon="6.21743">
        <ele>1647</ele>
        <time>2020-07-19T08:10:00.000Z</time>
      </trkpt>
      <trkpt lat="45.22016" lon="6.21741">
        <ele>1647</ele>
        <time>2020-07-19T08:10:01.000Z</time>
      </trkpt>
      <trkpt lat="45.22014" lon="6.2174">
        <ele>1647</ele>
        <time>2020-07-19T08:10:02.000Z</time>
      </trkpt>
      <trkpt lat="45.22013" lon="6.21738">
        <ele>1647</ele>
        <time>2020-07-19T08:10:03.000Z</time>
      </trkpt>
      <trkpt lat="45.2201" lon="6.21736">
        <ele>1648</ele>
        <time>2020-07-19T08:10:05.000Z</time>
      </trkpt>
      <trkpt lat="45.22008" lon="6.21735">
        <ele>1648</ele>
        <time>2020-07-19T08:10:06.000Z</time>
      </trkpt>
      <trkpt lat="45.22006" lon="6.21734">
        <ele>1648</ele>
        <time>2020-07-19T08:10:07.000Z</time>
      </trkpt>
      <trkpt lat="45.22003" lon="6.21733">
        <ele>1648</ele>
        <time>2020-07-19T08:10:09.000Z</time>
      </trkpt>
      <trkpt lat="45.22001" lon="6.21733">
        <ele>1648.1</ele>
        <time>2020-07-19T08:10:10.000Z</time>
      </trkpt>
      <trkpt lat="45.21999" lon="6.21733">
        <ele>1649</ele>
        <time>2020-07-19T08:10:11.000Z</time>
      </trkpt>
      <trkpt lat="45.21997" lon="6.21733">
        <ele>1649</ele>
        <time>2020-07-19T08:10:12.000Z</time>
      </trkpt>
      <trkpt lat="45.21995" lon="6.21733">
        <ele>1649</ele>
        <time>2020-07-19T08:10:13.000Z</time>
      </trkpt>
      <trkpt lat="45.21993" lon="6.21733">
        <ele>1649</ele>
        <time>2020-07-19T08:10:14.000Z</time>
      </trkpt>
      <trkpt lat="45.21991" lon="6.21732">
        <ele>1649</ele>
        <time>2020-07-19T08:10:15.000Z</time>
      </trkpt>
      <trkpt lat="45.2199" lon="6.21731">
        <ele>1649</ele>
        <time>2020-07-19T08:10:16.000Z</time>
      </trkpt>
      <trkpt lat="45.21988" lon="6.2173">
        <ele>1649</ele>
        <time>2020-07-19T08:10:17.000Z</time>
      </trkpt>
      <trkpt lat="45.21986" lon="6.21729">
        <ele>1649.1</ele>
        <time>2020-07-19T08:10:18.000Z</time>
      </trkpt>
      <trkpt lat="45.21985" lon="6.21728">
        <ele>1650</ele>
        <time>2020-07-19T08:10:19.000Z</time>
      </trkpt>
      <trkpt lat="45.21983" lon="6.21727">
        <ele>1650</ele>
        <time>2020-07-19T08:10:20.000Z</time>
      </trkpt>
      <trkpt lat="45.21981" lon="6.21723">
        <ele>1650</ele>
        <time>2020-07-19T08:10:22.000Z</time>
      </trkpt>
      <trkpt lat="45.2198" lon="6.21719">
        <ele>1651</ele>
        <time>2020-07-19T08:10:24.000Z</time>
      </trkpt>
      <trkpt lat="45.21981" lon="6.21714">
        <ele>1651</ele>
        <time>2020-07-19T08:10:26.000Z</time>
      </trkpt>
      <trkpt lat="45.21983" lon="6.21711">
        <ele>1651</ele>
        <time>2020-07-19T08:10:28.000Z</time>
      </trkpt>
      <trkpt lat="45.21986" lon="6.21709">
        <ele>1651</ele>
        <time>2020-07-19T08:10:30.000Z</time>
      </trkpt>
      <trkpt lat="45.21989" lon="6.21708">
        <ele>1651</ele>
        <time>2020-07-19T08:10:32.000Z</time>
      </trkpt>
      <trkpt lat="45.21991" lon="6.21708">
        <ele>1651.1</ele>
        <time>2020-07-19T08:10:33.000Z</time>
      </trkpt>
      <trkpt lat="45.21995" lon="6.21708">
        <ele>1652</ele>
        <time>2020-07-19T08:10:35.000Z</time>
      </trkpt>
      <trkpt lat="45.21998" lon="6.21708">
        <ele>1652</ele>
        <time>2020-07-19T08:10:37.000Z</time>
      </trkpt>
      <trkpt lat="45.22001" lon="6.2171">
        <ele>1652</ele>
        <time>2020-07-19T08:10:39.000Z</time>
      </trkpt>
      <trkpt lat="45.22003" lon="6.2171">
        <ele>1652.1</ele>
        <time>2020-07-19T08:10:40.000Z</time>
      </trkpt>
      <trkpt lat="45.22005" lon="6.2171">
        <ele>1652.8</ele>
        <time>2020-07-19T08:10:41.000Z</time>
      </trkpt>
      <trkpt lat="45.22007" lon="6.2171">
        <ele>1653</ele>
        <time>2020-07-19T08:10:42.000Z</time>
      </trkpt>
      <trkpt lat="45.22009" lon="6.2171">
        <ele>1653.1</ele>
        <time>2020-07-19T08:10:43.000Z</time>
      </trkpt>
      <trkpt lat="45.2201" lon="6.21711">
        <ele>1654</ele>
        <time>2020-07-19T08:10:44.000Z</time>
      </trkpt>
      <trkpt lat="45.22012" lon="6.21711">
        <ele>1654</ele>
        <time>2020-07-19T08:10:45.000Z</time>
      </trkpt>
      <trkpt lat="45.22014" lon="6.21711">
        <ele>1654</ele>
        <time>2020-07-19T08:10:46.000Z</time>
      </trkpt>
      <trkpt lat="45.22016" lon="6.21711">
        <ele>1654</ele>
        <time>2020-07-19T08:10:47.000Z</time>
      </trkpt>
      <trkpt lat="45.2202" lon="6.21712">
        <ele>1655</ele>
        <time>2020-07-19T08:10:49.000Z</time>
      </trkpt>
      <trkpt lat="45.22023" lon="6.21713">
        <ele>1655</ele>
        <time>2020-07-19T08:10:51.000Z</time>
      </trkpt>
      <trkpt lat="45.22025" lon="6.21714">
        <ele>1655</ele>
        <time>2020-07-19T08:10:52.000Z</time>
      </trkpt>
      <trkpt lat="45.22027" lon="6.21715">
        <ele>1655.1</ele>
        <time>2020-07-19T08:10:53.000Z</time>
      </trkpt>
      <trkpt lat="45.2203" lon="6.21716">
        <ele>1656</ele>
        <time>2020-07-19T08:10:55.000Z</time>
      </trkpt>
      <trkpt lat="45.22034" lon="6.21717">
        <ele>1656</ele>
        <time>2020-07-19T08:10:57.000Z</time>
      </trkpt>
      <trkpt lat="45.22037" lon="6.21718">
        <ele>1656.1</ele>
        <time>2020-07-19T08:10:59.000Z</time>
      </trkpt>
      <trkpt lat="45.2204" lon="6.21719">
        <ele>1657</ele>
        <time>2020-07-19T08:11:01.000Z</time>
      </trkpt>
      <trkpt lat="45.22043" lon="6.2172">
        <ele>1657.1</ele>
        <time>2020-07-19T08:11:03.000Z</time>
      </trkpt>
      <trkpt lat="45.22046" lon="6.21721">
        <ele>1658</ele>
        <time>2020-07-19T08:11:05.000Z</time>
      </trkpt>
      <trkpt lat="45.22049" lon="6.21723">
        <ele>1658</ele>
        <time>2020-07-19T08:11:07.000Z</time>
      </trkpt>
      <trkpt lat="45.22051" lon="6.21724">
        <ele>1658</ele>
        <time>2020-07-19T08:11:09.000Z</time>
      </trkpt>
      <trkpt lat="45.22054" lon="6.21726">
        <ele>1659</ele>
        <time>2020-07-19T08:11:11.000Z</time>
      </trkpt>
      <trkpt lat="45.22057" lon="6.21728">
        <ele>1659</ele>
        <time>2020-07-19T08:11:13.000Z</time>
      </trkpt>
      <trkpt lat="45.22059" lon="6.2173">
        <ele>1659</ele>
        <time>2020-07-19T08:11:15.000Z</time>
      </trkpt>
      <trkpt lat="45.22062" lon="6.21731">
        <ele>1659</ele>
        <time>2020-07-19T08:11:17.000Z</time>
      </trkpt>
      <trkpt lat="45.22065" lon="6.21733">
        <ele>1659</ele>
        <time>2020-07-19T08:11:19.000Z</time>
      </trkpt>
      <trkpt lat="45.22068" lon="6.21733">
        <ele>1660</ele>
        <time>2020-07-19T08:11:21.000Z</time>
      </trkpt>
      <trkpt lat="45.22071" lon="6.21734">
        <ele>1660</ele>
        <time>2020-07-19T08:11:23.000Z</time>
      </trkpt>
      <trkpt lat="45.22073" lon="6.21733">
        <ele>1661</ele>
        <time>2020-07-19T08:11:25.000Z</time>
      </trkpt>
      <trkpt lat="45.22076" lon="6.21732">
        <ele>1661</ele>
        <time>2020-07-19T08:11:27.000Z</time>
      </trkpt>
      <trkpt lat="45.2208" lon="6.21732">
        <ele>1661.1</ele>
        <time>2020-07-19T08:11:29.000Z</time>
      </trkpt>
      <trkpt lat="45.22083" lon="6.21732">
        <ele>1662</ele>
        <time>2020-07-19T08:11:31.000Z</time>
      </trkpt>
      <trkpt lat="45.22086" lon="6.21731">
        <ele>1662</ele>
        <time>2020-07-19T08:11:33.000Z</time>
      </trkpt>
      <trkpt lat="45.22089" lon="6.2173">
        <ele>1662.1</ele>
        <time>2020-07-19T08:11:35.000Z</time>
      </trkpt>
      <trkpt lat="45.22092" lon="6.2173">
        <ele>1663</ele>
        <time>2020-07-19T08:11:37.000Z</time>
      </trkpt>
      <trkpt lat="45.22095" lon="6.21729">
        <ele>1663</ele>
        <time>2020-07-19T08:11:39.000Z</time>
      </trkpt>
      <trkpt lat="45.22098" lon="6.21727">
        <ele>1663</ele>
        <time>2020-07-19T08:11:41.000Z</time>
      </trkpt>
      <trkpt lat="45.221" lon="6.21725">
        <ele>1664</ele>
        <time>2020-07-19T08:11:43.000Z</time>
      </trkpt>
      <trkpt lat="45.22103" lon="6.21723">
        <ele>1665</ele>
        <time>2020-07-19T08:11:45.000Z</time>
      </trkpt>
      <trkpt lat="45.22106" lon="6.21721">
        <ele>1665</ele>
        <time>2020-07-19T08:11:47.000Z</time>
      </trkpt>
      <trkpt lat="45.22108" lon="6.21718">
        <ele>1665</ele>
        <time>2020-07-19T08:11:49.000Z</time>
      </trkpt>
      <trkpt lat="45.2211" lon="6.21715">
        <ele>1665</ele>
        <time>2020-07-19T08:11:51.000Z</time>
      </trkpt>
      <trkpt lat="45.22112" lon="6.21711">
        <ele>1665</ele>
        <time>2020-07-19T08:11:53.000Z</time>
      </trkpt>
      <trkpt lat="45.22114" lon="6.21708">
        <ele>1665.1</ele>
        <time>2020-07-19T08:11:55.000Z</time>
      </trkpt>
      <trkpt lat="45.22116" lon="6.21705">
        <ele>1666</ele>
        <time>2020-07-19T08:11:57.000Z</time>
      </trkpt>
      <trkpt lat="45.22118" lon="6.21701">
        <ele>1667</ele>
        <time>2020-07-19T08:11:59.000Z</time>
      </trkpt>
      <trkpt lat="45.2212" lon="6.21698">
        <ele>1667</ele>
        <time>2020-07-19T08:12:01.000Z</time>
      </trkpt>
      <trkpt lat="45.22122" lon="6.21694">
        <ele>1668</ele>
        <time>2020-07-19T08:12:03.000Z</time>
      </trkpt>
      <trkpt lat="45.22123" lon="6.21691">
        <ele>1668</ele>
        <time>2020-07-19T08:12:05.000Z</time>
      </trkpt>
      <trkpt lat="45.22126" lon="6.21688">
        <ele>1668</ele>
        <time>2020-07-19T08:12:07.000Z</time>
      </trkpt>
      <trkpt lat="45.22128" lon="6.21686">
        <ele>1669</ele>
        <time>2020-07-19T08:12:09.000Z</time>
      </trkpt>
      <trkpt lat="45.22131" lon="6.21683">
        <ele>1669</ele>
        <time>2020-07-19T08:12:11.000Z</time>
      </trkpt>
      <trkpt lat="45.22134" lon="6.21681">
        <ele>1669</ele>
        <time>2020-07-19T08:12:13.000Z</time>
      </trkpt>
      <trkpt lat="45.22136" lon="6.21679">
        <ele>1669</ele>
        <time>2020-07-19T08:12:15.000Z</time>
      </trkpt>
      <trkpt lat="45.22139" lon="6.21677">
        <ele>1670</ele>
        <time>2020-07-19T08:12:17.000Z</time>
      </trkpt>
      <trkpt lat="45.22142" lon="6.21675">
        <ele>1670</ele>
        <time>2020-07-19T08:12:19.000Z</time>
      </trkpt>
      <trkpt lat="45.22145" lon="6.21673">
        <ele>1670</ele>
        <time>2020-07-19T08:12:21.000Z</time>
      </trkpt>
      <trkpt lat="45.22148" lon="6.21672">
        <ele>1671.1</ele>
        <time>2020-07-19T08:12:23.000Z</time>
      </trkpt>
      <trkpt lat="45.2215" lon="6.2167">
        <ele>1672</ele>
        <time>2020-07-19T08:12:25.000Z</time>
      </trkpt>
      <trkpt lat="45.22153" lon="6.21669">
        <ele>1672</ele>
        <time>2020-07-19T08:12:27.000Z</time>
      </trkpt>
      <trkpt lat="45.22156" lon="6.21668">
        <ele>1672</ele>
        <time>2020-07-19T08:12:29.000Z</time>
      </trkpt>
      <trkpt lat="45.22159" lon="6.21666">
        <ele>1672</ele>
        <time>2020-07-19T08:12:31.000Z</time>
      </trkpt>
      <trkpt lat="45.22162" lon="6.21664">
        <ele>1673</ele>
        <time>2020-07-19T08:12:33.000Z</time>
      </trkpt>
      <trkpt lat="45.22165" lon="6.21662">
        <ele>1673</ele>
        <time>2020-07-19T08:12:35.000Z</time>
      </trkpt>
      <trkpt lat="45.22167" lon="6.2166">
        <ele>1674</ele>
        <time>2020-07-19T08:12:37.000Z</time>
      </trkpt>
      <trkpt lat="45.2217" lon="6.21659">
        <ele>1674</ele>
        <time>2020-07-19T08:12:39.000Z</time>
      </trkpt>
      <trkpt lat="45.22173" lon="6.21658">
        <ele>1674</ele>
        <time>2020-07-19T08:12:41.000Z</time>
      </trkpt>
      <trkpt lat="45.22176" lon="6.21656">
        <ele>1674</ele>
        <time>2020-07-19T08:12:43.000Z</time>
      </trkpt>
      <trkpt lat="45.22179" lon="6.21655">
        <ele>1674</ele>
        <time>2020-07-19T08:12:45.000Z</time>
      </trkpt>
      <trkpt lat="45.22182" lon="6.21653">
        <ele>1674</ele>
        <time>2020-07-19T08:12:47.000Z</time>
      </trkpt>
      <trkpt lat="45.22185" lon="6.21652">
        <ele>1675.1</ele>
        <time>2020-07-19T08:12:49.000Z</time>
      </trkpt>
      <trkpt lat="45.22188" lon="6.21651">
        <ele>1676</ele>
        <time>2020-07-19T08:12:51.000Z</time>
      </trkpt>
      <trkpt lat="45.2219" lon="6.21649">
        <ele>1676</ele>
        <time>2020-07-19T08:12:53.000Z</time>
      </trkpt>
      <trkpt lat="45.22193" lon="6.21648">
        <ele>1676</ele>
        <time>2020-07-19T08:12:55.000Z</time>
      </trkpt>
      <trkpt lat="45.22196" lon="6.21646">
        <ele>1676.1</ele>
        <time>2020-07-19T08:12:57.000Z</time>
      </trkpt>
      <trkpt lat="45.22198" lon="6.21644">
        <ele>1677</ele>
        <time>2020-07-19T08:12:59.000Z</time>
      </trkpt>
      <trkpt lat="45.22201" lon="6.21643">
        <ele>1677.1</ele>
        <time>2020-07-19T08:13:01.000Z</time>
      </trkpt>
      <trkpt lat="45.22204" lon="6.21641">
        <ele>1678</ele>
        <time>2020-07-19T08:13:03.000Z</time>
      </trkpt>
      <trkpt lat="45.22207" lon="6.21639">
        <ele>1678</ele>
        <time>2020-07-19T08:13:05.000Z</time>
      </trkpt>
      <trkpt lat="45.2221" lon="6.21637">
        <ele>1678.1</ele>
        <time>2020-07-19T08:13:07.000Z</time>
      </trkpt>
      <trkpt lat="45.22212" lon="6.21635">
        <ele>1679</ele>
        <time>2020-07-19T08:13:09.000Z</time>
      </trkpt>
      <trkpt lat="45.22215" lon="6.21633">
        <ele>1679</ele>
        <time>2020-07-19T08:13:11.000Z</time>
      </trkpt>
      <trkpt lat="45.22217" lon="6.21631">
        <ele>1679</ele>
        <time>2020-07-19T08:13:13.000Z</time>
      </trkpt>
      <trkpt lat="45.22219" lon="6.21628">
        <ele>1679.1</ele>
        <time>2020-07-19T08:13:15.000Z</time>
      </trkpt>
      <trkpt lat="45.22222" lon="6.21626">
        <ele>1680</ele>
        <time>2020-07-19T08:13:17.000Z</time>
      </trkpt>
      <trkpt lat="45.22225" lon="6.21625">
        <ele>1680</ele>
        <time>2020-07-19T08:13:19.000Z</time>
      </trkpt>
      <trkpt lat="45.22227" lon="6.21622">
        <ele>1680</ele>
        <time>2020-07-19T08:13:21.000Z</time>
      </trkpt>
      <trkpt lat="45.2223" lon="6.21619">
        <ele>1681</ele>
        <time>2020-07-19T08:13:23.000Z</time>
      </trkpt>
      <trkpt lat="45.22232" lon="6.21617">
        <ele>1681</ele>
        <time>2020-07-19T08:13:25.000Z</time>
      </trkpt>
      <trkpt lat="45.22235" lon="6.21614">
        <ele>1681</ele>
        <time>2020-07-19T08:13:27.000Z</time>
      </trkpt>
      <trkpt lat="45.22237" lon="6.21611">
        <ele>1682</ele>
        <time>2020-07-19T08:13:29.000Z</time>
      </trkpt>
      <trkpt lat="45.2224" lon="6.21609">
        <ele>1683</ele>
        <time>2020-07-19T08:13:31.000Z</time>
      </trkpt>
      <trkpt lat="45.22243" lon="6.21607">
        <ele>1683</ele>
        <time>2020-07-19T08:13:33.000Z</time>
      </trkpt>
      <trkpt lat="45.22246" lon="6.21605">
        <ele>1684</ele>
        <time>2020-07-19T08:13:35.000Z</time>
      </trkpt>
      <trkpt lat="45.22248" lon="6.21602">
        <ele>1684</ele>
        <time>2020-07-19T08:13:37.000Z</time>
      </trkpt>
      <trkpt lat="45.22251" lon="6.216">
        <ele>1684</ele>
        <time>2020-07-19T08:13:39.000Z</time>
      </trkpt>
      <trkpt lat="45.22253" lon="6.21598">
        <ele>1685</ele>
        <time>2020-07-19T08:13:41.000Z</time>
      </trkpt>
      <trkpt lat="45.22256" lon="6.21596">
        <ele>1685</ele>
        <time>2020-07-19T08:13:43.000Z</time>
      </trkpt>
      <trkpt lat="45.22259" lon="6.21595">
        <ele>1685</ele>
        <time>2020-07-19T08:13:45.000Z</time>
      </trkpt>
      <trkpt lat="45.22262" lon="6.21593">
        <ele>1685.1</ele>
        <time>2020-07-19T08:13:47.000Z</time>
      </trkpt>
      <trkpt lat="45.22265" lon="6.21591">
        <ele>1686</ele>
        <time>2020-07-19T08:13:49.000Z</time>
      </trkpt>
      <trkpt lat="45.22268" lon="6.21589">
        <ele>1686</ele>
        <time>2020-07-19T08:13:51.000Z</time>
      </trkpt>
      <trkpt lat="45.22271" lon="6.21588">
        <ele>1686</ele>
        <time>2020-07-19T08:13:53.000Z</time>
      </trkpt>
      <trkpt lat="45.22274" lon="6.21587">
        <ele>1687</ele>
        <time>2020-07-19T08:13:55.000Z</time>
      </trkpt>
      <trkpt lat="45.22277" lon="6.21585">
        <ele>1687</ele>
        <time>2020-07-19T08:13:57.000Z</time>
      </trkpt>
      <trkpt lat="45.2228" lon="6.21585">
        <ele>1687</ele>
        <time>2020-07-19T08:13:59.000Z</time>
      </trkpt>
      <trkpt lat="45.22284" lon="6.21584">
        <ele>1687</ele>
        <time>2020-07-19T08:14:01.000Z</time>
      </trkpt>
      <trkpt lat="45.22287" lon="6.21584">
        <ele>1687</ele>
        <time>2020-07-19T08:14:03.000Z</time>
      </trkpt>
      <trkpt lat="45.2229" lon="6.21584">
        <ele>1687.1</ele>
        <time>2020-07-19T08:14:05.000Z</time>
      </trkpt>
      <trkpt lat="45.22293" lon="6.21585">
        <ele>1688</ele>
        <time>2020-07-19T08:14:07.000Z</time>
      </trkpt>
      <trkpt lat="45.22297" lon="6.21585">
        <ele>1688</ele>
        <time>2020-07-19T08:14:09.000Z</time>
      </trkpt>
      <trkpt lat="45.223" lon="6.21586">
        <ele>1688</ele>
        <time>2020-07-19T08:14:11.000Z</time>
      </trkpt>
      <trkpt lat="45.22303" lon="6.21587">
        <ele>1688</ele>
        <time>2020-07-19T08:14:13.000Z</time>
      </trkpt>
      <trkpt lat="45.22307" lon="6.21588">
        <ele>1688</ele>
        <time>2020-07-19T08:14:15.000Z</time>
      </trkpt>
      <trkpt lat="45.2231" lon="6.2159">
        <ele>1689</ele>
        <time>2020-07-19T08:14:17.000Z</time>
      </trkpt>
      <trkpt lat="45.22313" lon="6.21593">
        <ele>1689</ele>
        <time>2020-07-19T08:14:19.000Z</time>
      </trkpt>
      <trkpt lat="45.22316" lon="6.21596">
        <ele>1689.1</ele>
        <time>2020-07-19T08:14:21.000Z</time>
      </trkpt>
      <trkpt lat="45.22318" lon="6.21599">
        <ele>1690</ele>
        <time>2020-07-19T08:14:23.000Z</time>
      </trkpt>
      <trkpt lat="45.2232" lon="6.21602">
        <ele>1690</ele>
        <time>2020-07-19T08:14:25.000Z</time>
      </trkpt>
      <trkpt lat="45.22322" lon="6.21604">
        <ele>1690.1</ele>
        <time>2020-07-19T08:14:27.000Z</time>
      </trkpt>
      <trkpt lat="45.22325" lon="6.21606">
        <ele>1691</ele>
        <time>2020-07-19T08:14:29.000Z</time>
      </trkpt>
      <trkpt lat="45.22328" lon="6.21607">
        <ele>1691</ele>
        <time>2020-07-19T08:14:31.000Z</time>
      </trkpt>
      <trkpt lat="45.22332" lon="6.21607">
        <ele>1691.1</ele>
        <time>2020-07-19T08:14:33.000Z</time>
      </trkpt>
      <trkpt lat="45.22335" lon="6.21608">
        <ele>1692</ele>
        <time>2020-07-19T08:14:35.000Z</time>
      </trkpt>
      <trkpt lat="45.22338" lon="6.21607">
        <ele>1692</ele>
        <time>2020-07-19T08:14:37.000Z</time>
      </trkpt>
      <trkpt lat="45.22341" lon="6.21607">
        <ele>1692.1</ele>
        <time>2020-07-19T08:14:39.000Z</time>
      </trkpt>
      <trkpt lat="45.22344" lon="6.21607">
        <ele>1693</ele>
        <time>2020-07-19T08:14:41.000Z</time>
      </trkpt>
      <trkpt lat="45.22347" lon="6.21607">
        <ele>1693</ele>
        <time>2020-07-19T08:14:43.000Z</time>
      </trkpt>
      <trkpt lat="45.22349" lon="6.21607">
        <ele>1693</ele>
        <time>2020-07-19T08:14:45.000Z</time>
      </trkpt>
      <trkpt lat="45.22352" lon="6.21609">
        <ele>1694</ele>
        <time>2020-07-19T08:14:47.000Z</time>
      </trkpt>
      <trkpt lat="45.22355" lon="6.2161">
        <ele>1694</ele>
        <time>2020-07-19T08:14:49.000Z</time>
      </trkpt>
      <trkpt lat="45.22358" lon="6.21611">
        <ele>1694</ele>
        <time>2020-07-19T08:14:51.000Z</time>
      </trkpt>
      <trkpt lat="45.22362" lon="6.21611">
        <ele>1694.1</ele>
        <time>2020-07-19T08:14:53.000Z</time>
      </trkpt>
      <trkpt lat="45.22363" lon="6.21611">
        <ele>1695</ele>
        <time>2020-07-19T08:14:54.000Z</time>
      </trkpt>
      <trkpt lat="45.22365" lon="6.21611">
        <ele>1695</ele>
        <time>2020-07-19T08:14:55.000Z</time>
      </trkpt>
      <trkpt lat="45.22368" lon="6.21613">
        <ele>1695</ele>
        <time>2020-07-19T08:14:57.000Z</time>
      </trkpt>
      <trkpt lat="45.22371" lon="6.21614">
        <ele>1696</ele>
        <time>2020-07-19T08:14:59.000Z</time>
      </trkpt>
      <trkpt lat="45.22374" lon="6.21615">
        <ele>1696</ele>
        <time>2020-07-19T08:15:01.000Z</time>
      </trkpt>
      <trkpt lat="45.22378" lon="6.21617">
        <ele>1696.1</ele>
        <time>2020-07-19T08:15:03.000Z</time>
      </trkpt>
      <trkpt lat="45.22381" lon="6.21618">
        <ele>1697</ele>
        <time>2020-07-19T08:15:05.000Z</time>
      </trkpt>
      <trkpt lat="45.22384" lon="6.2162">
        <ele>1697</ele>
        <time>2020-07-19T08:15:07.000Z</time>
      </trkpt>
      <trkpt lat="45.22387" lon="6.21621">
        <ele>1697</ele>
        <time>2020-07-19T08:15:09.000Z</time>
      </trkpt>
      <trkpt lat="45.22391" lon="6.21622">
        <ele>1698</ele>
        <time>2020-07-19T08:15:11.000Z</time>
      </trkpt>
      <trkpt lat="45.22394" lon="6.21624">
        <ele>1699</ele>
        <time>2020-07-19T08:15:13.000Z</time>
      </trkpt>
      <trkpt lat="45.22397" lon="6.21626">
        <ele>1699</ele>
        <time>2020-07-19T08:15:15.000Z</time>
      </trkpt>
      <trkpt lat="45.224" lon="6.21627">
        <ele>1699</ele>
        <time>2020-07-19T08:15:17.000Z</time>
      </trkpt>
      <trkpt lat="45.22403" lon="6.21629">
        <ele>1699.1</ele>
        <time>2020-07-19T08:15:19.000Z</time>
      </trkpt>
      <trkpt lat="45.22406" lon="6.21631">
        <ele>1700</ele>
        <time>2020-07-19T08:15:21.000Z</time>
      </trkpt>
      <trkpt lat="45.22409" lon="6.21633">
        <ele>1700</ele>
        <time>2020-07-19T08:15:23.000Z</time>
      </trkpt>
      <trkpt lat="45.22412" lon="6.21635">
        <ele>1700</ele>
        <time>2020-07-19T08:15:25.000Z</time>
      </trkpt>
      <trkpt lat="45.22415" lon="6.21638">
        <ele>1700</ele>
        <time>2020-07-19T08:15:27.000Z</time>
      </trkpt>
      <trkpt lat="45.22417" lon="6.2164">
        <ele>1701.1</ele>
        <time>2020-07-19T08:15:29.000Z</time>
      </trkpt>
      <trkpt lat="45.2242" lon="6.21642">
        <ele>1702</ele>
        <time>2020-07-19T08:15:31.000Z</time>
      </trkpt>
      <trkpt lat="45.22423" lon="6.21644">
        <ele>1702</ele>
        <time>2020-07-19T08:15:33.000Z</time>
      </trkpt>
      <trkpt lat="45.22426" lon="6.21646">
        <ele>1702.1</ele>
        <time>2020-07-19T08:15:35.000Z</time>
      </trkpt>
      <trkpt lat="45.22428" lon="6.21648">
        <ele>1703</ele>
        <time>2020-07-19T08:15:37.000Z</time>
      </trkpt>
      <trkpt lat="45.22431" lon="6.2165">
        <ele>1703</ele>
        <time>2020-07-19T08:15:39.000Z</time>
      </trkpt>
      <trkpt lat="45.22434" lon="6.21653">
        <ele>1703</ele>
        <time>2020-07-19T08:15:41.000Z</time>
      </trkpt>
      <trkpt lat="45.22436" lon="6.21655">
        <ele>1703</ele>
        <time>2020-07-19T08:15:43.000Z</time>
      </trkpt>
      <trkpt lat="45.22439" lon="6.21657">
        <ele>1703.8</ele>
        <time>2020-07-19T08:15:45.000Z</time>
      </trkpt>
      <trkpt lat="45.22442" lon="6.21658">
        <ele>1704</ele>
        <time>2020-07-19T08:15:47.000Z</time>
      </trkpt>
      <trkpt lat="45.22445" lon="6.2166">
        <ele>1705</ele>
        <time>2020-07-19T08:15:49.000Z</time>
      </trkpt>
      <trkpt lat="45.22448" lon="6.21661">
        <ele>1705</ele>
        <time>2020-07-19T08:15:51.000Z</time>
      </trkpt>
      <trkpt lat="45.22451" lon="6.21663">
        <ele>1705</ele>
        <time>2020-07-19T08:15:53.000Z</time>
      </trkpt>
      <trkpt lat="45.22454" lon="6.21665">
        <ele>1705</ele>
        <time>2020-07-19T08:15:55.000Z</time>
      </trkpt>
      <trkpt lat="45.22457" lon="6.21667">
        <ele>1706</ele>
        <time>2020-07-19T08:15:57.000Z</time>
      </trkpt>
      <trkpt lat="45.22459" lon="6.21668">
        <ele>1707</ele>
        <time>2020-07-19T08:15:59.000Z</time>
      </trkpt>
      <trkpt lat="45.22463" lon="6.2167">
        <ele>1707</ele>
        <time>2020-07-19T08:16:01.000Z</time>
      </trkpt>
      <trkpt lat="45.22465" lon="6.21672">
        <ele>1707</ele>
        <time>2020-07-19T08:16:03.000Z</time>
      </trkpt>
      <trkpt lat="45.22468" lon="6.21674">
        <ele>1708</ele>
        <time>2020-07-19T08:16:05.000Z</time>
      </trkpt>
      <trkpt lat="45.22471" lon="6.21676">
        <ele>1708</ele>
        <time>2020-07-19T08:16:07.000Z</time>
      </trkpt>
      <trkpt lat="45.22474" lon="6.21678">
        <ele>1708</ele>
        <time>2020-07-19T08:16:09.000Z</time>
      </trkpt>
      <trkpt lat="45.22477" lon="6.2168">
        <ele>1708</ele>
        <time>2020-07-19T08:16:11.000Z</time>
      </trkpt>
      <trkpt lat="45.2248" lon="6.21682">
        <ele>1708.1</ele>
        <time>2020-07-19T08:16:13.000Z</time>
      </trkpt>
      <trkpt lat="45.22482" lon="6.21684">
        <ele>1709</ele>
        <time>2020-07-19T08:16:15.000Z</time>
      </trkpt>
      <trkpt lat="45.22486" lon="6.21685">
        <ele>1709</ele>
        <time>2020-07-19T08:16:17.000Z</time>
      </trkpt>
      <trkpt lat="45.22489" lon="6.21687">
        <ele>1709</ele>
        <time>2020-07-19T08:16:19.000Z</time>
      </trkpt>
      <trkpt lat="45.2249" lon="6.21689">
        <ele>1709</ele>
        <time>2020-07-19T08:16:20.000Z</time>
      </trkpt>
      <trkpt lat="45.22493" lon="6.21691">
        <ele>1709</ele>
        <time>2020-07-19T08:16:22.000Z</time>
      </trkpt>
      <trkpt lat="45.22496" lon="6.21695">
        <ele>1709.1</ele>
        <time>2020-07-19T08:16:24.000Z</time>
      </trkpt>
      <trkpt lat="45.22498" lon="6.21698">
        <ele>1710.1</ele>
        <time>2020-07-19T08:16:26.000Z</time>
      </trkpt>
      <trkpt lat="45.22501" lon="6.21701">
        <ele>1711</ele>
        <time>2020-07-19T08:16:28.000Z</time>
      </trkpt>
      <trkpt lat="45.22503" lon="6.21705">
        <ele>1711</ele>
        <time>2020-07-19T08:16:30.000Z</time>
      </trkpt>
      <trkpt lat="45.22506" lon="6.21708">
        <ele>1711</ele>
        <time>2020-07-19T08:16:32.000Z</time>
      </trkpt>
      <trkpt lat="45.22507" lon="6.2171">
        <ele>1711</ele>
        <time>2020-07-19T08:16:33.000Z</time>
      </trkpt>
      <trkpt lat="45.22509" lon="6.21714">
        <ele>1711</ele>
        <time>2020-07-19T08:16:35.000Z</time>
      </trkpt>
      <trkpt lat="45.22511" lon="6.21717">
        <ele>1711</ele>
        <time>2020-07-19T08:16:37.000Z</time>
      </trkpt>
      <trkpt lat="45.22513" lon="6.2172">
        <ele>1712</ele>
        <time>2020-07-19T08:16:39.000Z</time>
      </trkpt>
      <trkpt lat="45.22516" lon="6.21723">
        <ele>1712</ele>
        <time>2020-07-19T08:16:41.000Z</time>
      </trkpt>
      <trkpt lat="45.22519" lon="6.21726">
        <ele>1713</ele>
        <time>2020-07-19T08:16:43.000Z</time>
      </trkpt>
      <trkpt lat="45.22522" lon="6.21727">
        <ele>1713</ele>
        <time>2020-07-19T08:16:45.000Z</time>
      </trkpt>
      <trkpt lat="45.22525" lon="6.21726">
        <ele>1713</ele>
        <time>2020-07-19T08:16:47.000Z</time>
      </trkpt>
      <trkpt lat="45.22527" lon="6.21723">
        <ele>1713</ele>
        <time>2020-07-19T08:16:49.000Z</time>
      </trkpt>
      <trkpt lat="45.22528" lon="6.2172">
        <ele>1713</ele>
        <time>2020-07-19T08:16:50.000Z</time>
      </trkpt>
      <trkpt lat="45.22528" lon="6.21718">
        <ele>1713</ele>
        <time>2020-07-19T08:16:51.000Z</time>
      </trkpt>
      <trkpt lat="45.22528" lon="6.21713">
        <ele>1713.1</ele>
        <time>2020-07-19T08:16:53.000Z</time>
      </trkpt>
      <trkpt lat="45.22527" lon="6.2171">
        <ele>1714</ele>
        <time>2020-07-19T08:16:54.000Z</time>
      </trkpt>
      <trkpt lat="45.22526" lon="6.21707">
        <ele>1714</ele>
        <time>2020-07-19T08:16:55.000Z</time>
      </trkpt>
      <trkpt lat="45.22525" lon="6.21705">
        <ele>1714</ele>
        <time>2020-07-19T08:16:56.000Z</time>
      </trkpt>
      <trkpt lat="45.22524" lon="6.21703">
        <ele>1714</ele>
        <time>2020-07-19T08:16:57.000Z</time>
      </trkpt>
      <trkpt lat="45.22522" lon="6.21701">
        <ele>1714</ele>
        <time>2020-07-19T08:16:58.000Z</time>
      </trkpt>
      <trkpt lat="45.22521" lon="6.21699">
        <ele>1714</ele>
        <time>2020-07-19T08:16:59.000Z</time>
      </trkpt>
      <trkpt lat="45.2252" lon="6.21697">
        <ele>1714</ele>
        <time>2020-07-19T08:17:00.000Z</time>
      </trkpt>
      <trkpt lat="45.22519" lon="6.21695">
        <ele>1714</ele>
        <time>2020-07-19T08:17:01.000Z</time>
      </trkpt>
      <trkpt lat="45.22517" lon="6.21693">
        <ele>1714.1</ele>
        <time>2020-07-19T08:17:02.000Z</time>
      </trkpt>
      <trkpt lat="45.22516" lon="6.21691">
        <ele>1715</ele>
        <time>2020-07-19T08:17:03.000Z</time>
      </trkpt>
      <trkpt lat="45.22514" lon="6.21689">
        <ele>1715</ele>
        <time>2020-07-19T08:17:04.000Z</time>
      </trkpt>
      <trkpt lat="45.22513" lon="6.21687">
        <ele>1715</ele>
        <time>2020-07-19T08:17:05.000Z</time>
      </trkpt>
      <trkpt lat="45.22512" lon="6.21685">
        <ele>1715</ele>
        <time>2020-07-19T08:17:06.000Z</time>
      </trkpt>
      <trkpt lat="45.2251" lon="6.21684">
        <ele>1715</ele>
        <time>2020-07-19T08:17:07.000Z</time>
      </trkpt>
      <trkpt lat="45.22509" lon="6.21681">
        <ele>1715</ele>
        <time>2020-07-19T08:17:08.000Z</time>
      </trkpt>
      <trkpt lat="45.22507" lon="6.21679">
        <ele>1715.1</ele>
        <time>2020-07-19T08:17:09.000Z</time>
      </trkpt>
      <trkpt lat="45.22506" lon="6.21677">
        <ele>1716</ele>
        <time>2020-07-19T08:17:10.000Z</time>
      </trkpt>
      <trkpt lat="45.22505" lon="6.21675">
        <ele>1716</ele>
        <time>2020-07-19T08:17:11.000Z</time>
      </trkpt>
      <trkpt lat="45.22504" lon="6.21673">
        <ele>1716</ele>
        <time>2020-07-19T08:17:12.000Z</time>
      </trkpt>
      <trkpt lat="45.22502" lon="6.2167">
        <ele>1716</ele>
        <time>2020-07-19T08:17:13.000Z</time>
      </trkpt>
      <trkpt lat="45.22501" lon="6.21668">
        <ele>1716</ele>
        <time>2020-07-19T08:17:14.000Z</time>
      </trkpt>
      <trkpt lat="45.225" lon="6.21666">
        <ele>1716.1</ele>
        <time>2020-07-19T08:17:15.000Z</time>
      </trkpt>
      <trkpt lat="45.22499" lon="6.21664">
        <ele>1717</ele>
        <time>2020-07-19T08:17:16.000Z</time>
      </trkpt>
      <trkpt lat="45.22497" lon="6.21662">
        <ele>1717</ele>
        <time>2020-07-19T08:17:17.000Z</time>
      </trkpt>
      <trkpt lat="45.22496" lon="6.2166">
        <ele>1717</ele>
        <time>2020-07-19T08:17:18.000Z</time>
      </trkpt>
      <trkpt lat="45.22495" lon="6.21659">
        <ele>1717</ele>
        <time>2020-07-19T08:17:19.000Z</time>
      </trkpt>
      <trkpt lat="45.22492" lon="6.21655">
        <ele>1717</ele>
        <time>2020-07-19T08:17:21.000Z</time>
      </trkpt>
      <trkpt lat="45.2249" lon="6.21651">
        <ele>1717</ele>
        <time>2020-07-19T08:17:23.000Z</time>
      </trkpt>
      <trkpt lat="45.22488" lon="6.21647">
        <ele>1718</ele>
        <time>2020-07-19T08:17:25.000Z</time>
      </trkpt>
      <trkpt lat="45.22486" lon="6.21644">
        <ele>1718</ele>
        <time>2020-07-19T08:17:27.000Z</time>
      </trkpt>
      <trkpt lat="45.22484" lon="6.21643">
        <ele>1718</ele>
        <time>2020-07-19T08:17:28.000Z</time>
      </trkpt>
      <trkpt lat="45.22483" lon="6.21641">
        <ele>1718.1</ele>
        <time>2020-07-19T08:17:29.000Z</time>
      </trkpt>
      <trkpt lat="45.22481" lon="6.21639">
        <ele>1719</ele>
        <time>2020-07-19T08:17:30.000Z</time>
      </trkpt>
      <trkpt lat="45.2248" lon="6.21635">
        <ele>1719</ele>
        <time>2020-07-19T08:17:32.000Z</time>
      </trkpt>
      <trkpt lat="45.22478" lon="6.21631">
        <ele>1719</ele>
        <time>2020-07-19T08:17:34.000Z</time>
      </trkpt>
      <trkpt lat="45.22475" lon="6.21628">
        <ele>1719.1</ele>
        <time>2020-07-19T08:17:36.000Z</time>
      </trkpt>
      <trkpt lat="45.22474" lon="6.21625">
        <ele>1720</ele>
        <time>2020-07-19T08:17:37.000Z</time>
      </trkpt>
      <trkpt lat="45.22473" lon="6.21623">
        <ele>1720</ele>
        <time>2020-07-19T08:17:38.000Z</time>
      </trkpt>
      <trkpt lat="45.22472" lon="6.21621">
        <ele>1720</ele>
        <time>2020-07-19T08:17:39.000Z</time>
      </trkpt>
      <trkpt lat="45.2247" lon="6.21619">
        <ele>1720</ele>
        <time>2020-07-19T08:17:40.000Z</time>
      </trkpt>
      <trkpt lat="45.22469" lon="6.21617">
        <ele>1720</ele>
        <time>2020-07-19T08:17:41.000Z</time>
      </trkpt>
      <trkpt lat="45.22468" lon="6.21615">
        <ele>1720.1</ele>
        <time>2020-07-19T08:17:42.000Z</time>
      </trkpt>
      <trkpt lat="45.22467" lon="6.21613">
        <ele>1721</ele>
        <time>2020-07-19T08:17:43.000Z</time>
      </trkpt>
      <trkpt lat="45.22465" lon="6.2161">
        <ele>1721</ele>
        <time>2020-07-19T08:17:44.000Z</time>
      </trkpt>
      <trkpt lat="45.22464" lon="6.21608">
        <ele>1721</ele>
        <time>2020-07-19T08:17:45.000Z</time>
      </trkpt>
      <trkpt lat="45.22463" lon="6.21606">
        <ele>1721</ele>
        <time>2020-07-19T08:17:46.000Z</time>
      </trkpt>
      <trkpt lat="45.22462" lon="6.21604">
        <ele>1721</ele>
        <time>2020-07-19T08:17:47.000Z</time>
      </trkpt>
      <trkpt lat="45.2246" lon="6.21603">
        <ele>1721</ele>
        <time>2020-07-19T08:17:48.000Z</time>
      </trkpt>
      <trkpt lat="45.22459" lon="6.21601">
        <ele>1721</ele>
        <time>2020-07-19T08:17:49.000Z</time>
      </trkpt>
      <trkpt lat="45.22457" lon="6.21599">
        <ele>1721</ele>
        <time>2020-07-19T08:17:50.000Z</time>
      </trkpt>
      <trkpt lat="45.22455" lon="6.21598">
        <ele>1721</ele>
        <time>2020-07-19T08:17:51.000Z</time>
      </trkpt>
      <trkpt lat="45.22454" lon="6.21596">
        <ele>1721.1</ele>
        <time>2020-07-19T08:17:52.000Z</time>
      </trkpt>
      <trkpt lat="45.22453" lon="6.21594">
        <ele>1722</ele>
        <time>2020-07-19T08:17:53.000Z</time>
      </trkpt>
      <trkpt lat="45.22452" lon="6.21592">
        <ele>1722</ele>
        <time>2020-07-19T08:17:54.000Z</time>
      </trkpt>
      <trkpt lat="45.2245" lon="6.2159">
        <ele>1722</ele>
        <time>2020-07-19T08:17:55.000Z</time>
      </trkpt>
      <trkpt lat="45.22449" lon="6.21587">
        <ele>1722</ele>
        <time>2020-07-19T08:17:56.000Z</time>
      </trkpt>
      <trkpt lat="45.22448" lon="6.21586">
        <ele>1722</ele>
        <time>2020-07-19T08:17:57.000Z</time>
      </trkpt>
      <trkpt lat="45.22446" lon="6.21584">
        <ele>1722</ele>
        <time>2020-07-19T08:17:58.000Z</time>
      </trkpt>
      <trkpt lat="45.22445" lon="6.21582">
        <ele>1723</ele>
        <time>2020-07-19T08:17:59.000Z</time>
      </trkpt>
      <trkpt lat="45.22444" lon="6.2158">
        <ele>1723</ele>
        <time>2020-07-19T08:18:00.000Z</time>
      </trkpt>
      <trkpt lat="45.22442" lon="6.21578">
        <ele>1723</ele>
        <time>2020-07-19T08:18:01.000Z</time>
      </trkpt>
      <trkpt lat="45.22441" lon="6.21577">
        <ele>1723</ele>
        <time>2020-07-19T08:18:02.000Z</time>
      </trkpt>
      <trkpt lat="45.22439" lon="6.21575">
        <ele>1723</ele>
        <time>2020-07-19T08:18:03.000Z</time>
      </trkpt>
      <trkpt lat="45.22438" lon="6.21573">
        <ele>1723.1</ele>
        <time>2020-07-19T08:18:04.000Z</time>
      </trkpt>
      <trkpt lat="45.22437" lon="6.21571">
        <ele>1724</ele>
        <time>2020-07-19T08:18:05.000Z</time>
      </trkpt>
      <trkpt lat="45.22435" lon="6.21569">
        <ele>1724</ele>
        <time>2020-07-19T08:18:06.000Z</time>
      </trkpt>
      <trkpt lat="45.22434" lon="6.21567">
        <ele>1724</ele>
        <time>2020-07-19T08:18:07.000Z</time>
      </trkpt>
      <trkpt lat="45.22433" lon="6.21566">
        <ele>1724.1</ele>
        <time>2020-07-19T08:18:08.000Z</time>
      </trkpt>
      <trkpt lat="45.22432" lon="6.21564">
        <ele>1725</ele>
        <time>2020-07-19T08:18:09.000Z</time>
      </trkpt>
      <trkpt lat="45.2243" lon="6.21562">
        <ele>1725</ele>
        <time>2020-07-19T08:18:10.000Z</time>
      </trkpt>
      <trkpt lat="45.22429" lon="6.2156">
        <ele>1725</ele>
        <time>2020-07-19T08:18:11.000Z</time>
      </trkpt>
      <trkpt lat="45.22428" lon="6.21558">
        <ele>1725</ele>
        <time>2020-07-19T08:18:12.000Z</time>
      </trkpt>
      <trkpt lat="45.22426" lon="6.21556">
        <ele>1725</ele>
        <time>2020-07-19T08:18:13.000Z</time>
      </trkpt>
      <trkpt lat="45.22425" lon="6.21554">
        <ele>1725.1</ele>
        <time>2020-07-19T08:18:14.000Z</time>
      </trkpt>
      <trkpt lat="45.22423" lon="6.2155">
        <ele>1726</ele>
        <time>2020-07-19T08:18:16.000Z</time>
      </trkpt>
      <trkpt lat="45.2242" lon="6.21548">
        <ele>1726</ele>
        <time>2020-07-19T08:18:18.000Z</time>
      </trkpt>
      <trkpt lat="45.22419" lon="6.21546">
        <ele>1726</ele>
        <time>2020-07-19T08:18:19.000Z</time>
      </trkpt>
      <trkpt lat="45.22417" lon="6.21544">
        <ele>1726</ele>
        <time>2020-07-19T08:18:20.000Z</time>
      </trkpt>
      <trkpt lat="45.22416" lon="6.21542">
        <ele>1726</ele>
        <time>2020-07-19T08:18:21.000Z</time>
      </trkpt>
      <trkpt lat="45.22415" lon="6.21539">
        <ele>1726.1</ele>
        <time>2020-07-19T08:18:22.000Z</time>
      </trkpt>
      <trkpt lat="45.22414" lon="6.21537">
        <ele>1727</ele>
        <time>2020-07-19T08:18:23.000Z</time>
      </trkpt>
      <trkpt lat="45.22413" lon="6.21535">
        <ele>1727</ele>
        <time>2020-07-19T08:18:24.000Z</time>
      </trkpt>
      <trkpt lat="45.22413" lon="6.21533">
        <ele>1727</ele>
        <time>2020-07-19T08:18:25.000Z</time>
      </trkpt>
      <trkpt lat="45.22411" lon="6.21528">
        <ele>1727</ele>
        <time>2020-07-19T08:18:27.000Z</time>
      </trkpt>
      <trkpt lat="45.22411" lon="6.21525">
        <ele>1727</ele>
        <time>2020-07-19T08:18:28.000Z</time>
      </trkpt>
      <trkpt lat="45.2241" lon="6.2152">
        <ele>1727.1</ele>
        <time>2020-07-19T08:18:30.000Z</time>
      </trkpt>
      <trkpt lat="45.2241" lon="6.21517">
        <ele>1728</ele>
        <time>2020-07-19T08:18:31.000Z</time>
      </trkpt>
      <trkpt lat="45.2241" lon="6.21515">
        <ele>1728</ele>
        <time>2020-07-19T08:18:32.000Z</time>
      </trkpt>
      <trkpt lat="45.2241" lon="6.21512">
        <ele>1728</ele>
        <time>2020-07-19T08:18:33.000Z</time>
      </trkpt>
      <trkpt lat="45.2241" lon="6.21509">
        <ele>1728</ele>
        <time>2020-07-19T08:18:34.000Z</time>
      </trkpt>
      <trkpt lat="45.22409" lon="6.21507">
        <ele>1728.1</ele>
        <time>2020-07-19T08:18:35.000Z</time>
      </trkpt>
      <trkpt lat="45.22409" lon="6.21504">
        <ele>1728.8</ele>
        <time>2020-07-19T08:18:36.000Z</time>
      </trkpt>
      <trkpt lat="45.22409" lon="6.21501">
        <ele>1729</ele>
        <time>2020-07-19T08:18:37.000Z</time>
      </trkpt>
      <trkpt lat="45.22409" lon="6.21499">
        <ele>1729</ele>
        <time>2020-07-19T08:18:38.000Z</time>
      </trkpt>
      <trkpt lat="45.22409" lon="6.21496">
        <ele>1729</ele>
        <time>2020-07-19T08:18:39.000Z</time>
      </trkpt>
      <trkpt lat="45.22409" lon="6.21494">
        <ele>1729</ele>
        <time>2020-07-19T08:18:40.000Z</time>
      </trkpt>
      <trkpt lat="45.22409" lon="6.21489">
        <ele>1729</ele>
        <time>2020-07-19T08:18:42.000Z</time>
      </trkpt>
      <trkpt lat="45.22409" lon="6.21486">
        <ele>1729.1</ele>
        <time>2020-07-19T08:18:43.000Z</time>
      </trkpt>
      <trkpt lat="45.22409" lon="6.21483">
        <ele>1730</ele>
        <time>2020-07-19T08:18:44.000Z</time>
      </trkpt>
      <trkpt lat="45.22409" lon="6.21481">
        <ele>1730</ele>
        <time>2020-07-19T08:18:45.000Z</time>
      </trkpt>
      <trkpt lat="45.22409" lon="6.21478">
        <ele>1730</ele>
        <time>2020-07-19T08:18:46.000Z</time>
      </trkpt>
      <trkpt lat="45.22409" lon="6.21475">
        <ele>1730</ele>
        <time>2020-07-19T08:18:47.000Z</time>
      </trkpt>
      <trkpt lat="45.22409" lon="6.21472">
        <ele>1730.1</ele>
        <time>2020-07-19T08:18:48.000Z</time>
      </trkpt>
      <trkpt lat="45.22409" lon="6.21469">
        <ele>1731</ele>
        <time>2020-07-19T08:18:49.000Z</time>
      </trkpt>
      <trkpt lat="45.22408" lon="6.21467">
        <ele>1731</ele>
        <time>2020-07-19T08:18:50.000Z</time>
      </trkpt>
      <trkpt lat="45.22408" lon="6.21464">
        <ele>1731</ele>
        <time>2020-07-19T08:18:51.000Z</time>
      </trkpt>
      <trkpt lat="45.22407" lon="6.21461">
        <ele>1731</ele>
        <time>2020-07-19T08:18:52.000Z</time>
      </trkpt>
      <trkpt lat="45.22407" lon="6.21459">
        <ele>1731.1</ele>
        <time>2020-07-19T08:18:53.000Z</time>
      </trkpt>
      <trkpt lat="45.22406" lon="6.21456">
        <ele>1732</ele>
        <time>2020-07-19T08:18:54.000Z</time>
      </trkpt>
      <trkpt lat="45.22405" lon="6.21454">
        <ele>1732</ele>
        <time>2020-07-19T08:18:55.000Z</time>
      </trkpt>
      <trkpt lat="45.22404" lon="6.21452">
        <ele>1732</ele>
        <time>2020-07-19T08:18:56.000Z</time>
      </trkpt>
      <trkpt lat="45.22404" lon="6.21449">
        <ele>1732.1</ele>
        <time>2020-07-19T08:18:57.000Z</time>
      </trkpt>
      <trkpt lat="45.22403" lon="6.21447">
        <ele>1733</ele>
        <time>2020-07-19T08:18:58.000Z</time>
      </trkpt>
      <trkpt lat="45.22402" lon="6.21445">
        <ele>1733</ele>
        <time>2020-07-19T08:18:59.000Z</time>
      </trkpt>
      <trkpt lat="45.22401" lon="6.21443">
        <ele>1733</ele>
        <time>2020-07-19T08:19:00.000Z</time>
      </trkpt>
      <trkpt lat="45.224" lon="6.2144">
        <ele>1733</ele>
        <time>2020-07-19T08:19:01.000Z</time>
      </trkpt>
      <trkpt lat="45.22398" lon="6.21436">
        <ele>1733</ele>
        <time>2020-07-19T08:19:03.000Z</time>
      </trkpt>
      <trkpt lat="45.22396" lon="6.21432">
        <ele>1733</ele>
        <time>2020-07-19T08:19:05.000Z</time>
      </trkpt>
      <trkpt lat="45.22394" lon="6.2143">
        <ele>1733.1</ele>
        <time>2020-07-19T08:19:06.000Z</time>
      </trkpt>
      <trkpt lat="45.22393" lon="6.21428">
        <ele>1734</ele>
        <time>2020-07-19T08:19:07.000Z</time>
      </trkpt>
      <trkpt lat="45.22392" lon="6.21426">
        <ele>1734</ele>
        <time>2020-07-19T08:19:08.000Z</time>
      </trkpt>
      <trkpt lat="45.22391" lon="6.21424">
        <ele>1734</ele>
        <time>2020-07-19T08:19:09.000Z</time>
      </trkpt>
      <trkpt lat="45.2239" lon="6.21422">
        <ele>1734</ele>
        <time>2020-07-19T08:19:10.000Z</time>
      </trkpt>
      <trkpt lat="45.22389" lon="6.2142">
        <ele>1734.1</ele>
        <time>2020-07-19T08:19:11.000Z</time>
      </trkpt>
      <trkpt lat="45.22387" lon="6.21418">
        <ele>1735</ele>
        <time>2020-07-19T08:19:12.000Z</time>
      </trkpt>
      <trkpt lat="45.22386" lon="6.21416">
        <ele>1735</ele>
        <time>2020-07-19T08:19:13.000Z</time>
      </trkpt>
      <trkpt lat="45.22385" lon="6.21414">
        <ele>1735</ele>
        <time>2020-07-19T08:19:14.000Z</time>
      </trkpt>
      <trkpt lat="45.22383" lon="6.21412">
        <ele>1735.1</ele>
        <time>2020-07-19T08:19:15.000Z</time>
      </trkpt>
      <trkpt lat="45.22382" lon="6.2141">
        <ele>1736</ele>
        <time>2020-07-19T08:19:16.000Z</time>
      </trkpt>
      <trkpt lat="45.22381" lon="6.21408">
        <ele>1736</ele>
        <time>2020-07-19T08:19:17.000Z</time>
      </trkpt>
      <trkpt lat="45.22379" lon="6.21406">
        <ele>1736</ele>
        <time>2020-07-19T08:19:18.000Z</time>
      </trkpt>
      <trkpt lat="45.22378" lon="6.21404">
        <ele>1736</ele>
        <time>2020-07-19T08:19:19.000Z</time>
      </trkpt>
      <trkpt lat="45.22377" lon="6.21403">
        <ele>1736</ele>
        <time>2020-07-19T08:19:20.000Z</time>
      </trkpt>
      <trkpt lat="45.22376" lon="6.21401">
        <ele>1736</ele>
        <time>2020-07-19T08:19:21.000Z</time>
      </trkpt>
      <trkpt lat="45.22373" lon="6.21397">
        <ele>1737</ele>
        <time>2020-07-19T08:19:23.000Z</time>
      </trkpt>
      <trkpt lat="45.2237" lon="6.21394">
        <ele>1737</ele>
        <time>2020-07-19T08:19:25.000Z</time>
      </trkpt>
      <trkpt lat="45.22369" lon="6.21392">
        <ele>1737</ele>
        <time>2020-07-19T08:19:26.000Z</time>
      </trkpt>
      <trkpt lat="45.22368" lon="6.2139">
        <ele>1737</ele>
        <time>2020-07-19T08:19:27.000Z</time>
      </trkpt>
      <trkpt lat="45.22367" lon="6.21388">
        <ele>1737</ele>
        <time>2020-07-19T08:19:28.000Z</time>
      </trkpt>
      <trkpt lat="45.22365" lon="6.21386">
        <ele>1737.1</ele>
        <time>2020-07-19T08:19:29.000Z</time>
      </trkpt>
      <trkpt lat="45.22363" lon="6.21383">
        <ele>1738</ele>
        <time>2020-07-19T08:19:31.000Z</time>
      </trkpt>
      <trkpt lat="45.2236" lon="6.2138">
        <ele>1738</ele>
        <time>2020-07-19T08:19:33.000Z</time>
      </trkpt>
      <trkpt lat="45.22358" lon="6.21379">
        <ele>1738.1</ele>
        <time>2020-07-19T08:19:34.000Z</time>
      </trkpt>
      <trkpt lat="45.22357" lon="6.21377">
        <ele>1739</ele>
        <time>2020-07-19T08:19:35.000Z</time>
      </trkpt>
      <trkpt lat="45.22356" lon="6.21375">
        <ele>1739</ele>
        <time>2020-07-19T08:19:36.000Z</time>
      </trkpt>
      <trkpt lat="45.22354" lon="6.21373">
        <ele>1739</ele>
        <time>2020-07-19T08:19:37.000Z</time>
      </trkpt>
      <trkpt lat="45.22353" lon="6.21372">
        <ele>1739</ele>
        <time>2020-07-19T08:19:38.000Z</time>
      </trkpt>
      <trkpt lat="45.22352" lon="6.2137">
        <ele>1739</ele>
        <time>2020-07-19T08:19:39.000Z</time>
      </trkpt>
      <trkpt lat="45.2235" lon="6.21368">
        <ele>1739.1</ele>
        <time>2020-07-19T08:19:40.000Z</time>
      </trkpt>
      <trkpt lat="45.22349" lon="6.21366">
        <ele>1740</ele>
        <time>2020-07-19T08:19:41.000Z</time>
      </trkpt>
      <trkpt lat="45.22348" lon="6.21364">
        <ele>1740</ele>
        <time>2020-07-19T08:19:42.000Z</time>
      </trkpt>
      <trkpt lat="45.22345" lon="6.21361">
        <ele>1740.1</ele>
        <time>2020-07-19T08:19:44.000Z</time>
      </trkpt>
      <trkpt lat="45.22342" lon="6.21359">
        <ele>1741</ele>
        <time>2020-07-19T08:19:46.000Z</time>
      </trkpt>
      <trkpt lat="45.2234" lon="6.21355">
        <ele>1741</ele>
        <time>2020-07-19T08:19:48.000Z</time>
      </trkpt>
      <trkpt lat="45.22338" lon="6.21352">
        <ele>1741</ele>
        <time>2020-07-19T08:19:50.000Z</time>
      </trkpt>
      <trkpt lat="45.22336" lon="6.2135">
        <ele>1741</ele>
        <time>2020-07-19T08:19:51.000Z</time>
      </trkpt>
      <trkpt lat="45.22334" lon="6.21349">
        <ele>1741</ele>
        <time>2020-07-19T08:19:52.000Z</time>
      </trkpt>
      <trkpt lat="45.22333" lon="6.21347">
        <ele>1741.1</ele>
        <time>2020-07-19T08:19:53.000Z</time>
      </trkpt>
      <trkpt lat="45.22331" lon="6.21346">
        <ele>1741.8</ele>
        <time>2020-07-19T08:19:54.000Z</time>
      </trkpt>
      <trkpt lat="45.2233" lon="6.21344">
        <ele>1742</ele>
        <time>2020-07-19T08:19:55.000Z</time>
      </trkpt>
      <trkpt lat="45.22328" lon="6.21342">
        <ele>1742</ele>
        <time>2020-07-19T08:19:56.000Z</time>
      </trkpt>
      <trkpt lat="45.22327" lon="6.21341">
        <ele>1742</ele>
        <time>2020-07-19T08:19:57.000Z</time>
      </trkpt>
      <trkpt lat="45.22326" lon="6.21339">
        <ele>1742.1</ele>
        <time>2020-07-19T08:19:58.000Z</time>
      </trkpt>
      <trkpt lat="45.22324" lon="6.21337">
        <ele>1743</ele>
        <time>2020-07-19T08:19:59.000Z</time>
      </trkpt>
      <trkpt lat="45.22323" lon="6.21336">
        <ele>1743</ele>
        <time>2020-07-19T08:20:00.000Z</time>
      </trkpt>
      <trkpt lat="45.22321" lon="6.21334">
        <ele>1743</ele>
        <time>2020-07-19T08:20:01.000Z</time>
      </trkpt>
      <trkpt lat="45.22319" lon="6.21333">
        <ele>1743</ele>
        <time>2020-07-19T08:20:02.000Z</time>
      </trkpt>
      <trkpt lat="45.22318" lon="6.21331">
        <ele>1743</ele>
        <time>2020-07-19T08:20:03.000Z</time>
      </trkpt>
      <trkpt lat="45.22316" lon="6.2133">
        <ele>1743</ele>
        <time>2020-07-19T08:20:04.000Z</time>
      </trkpt>
      <trkpt lat="45.22315" lon="6.21328">
        <ele>1743</ele>
        <time>2020-07-19T08:20:05.000Z</time>
      </trkpt>
      <trkpt lat="45.22313" lon="6.21327">
        <ele>1743</ele>
        <time>2020-07-19T08:20:06.000Z</time>
      </trkpt>
      <trkpt lat="45.22312" lon="6.21325">
        <ele>1743.1</ele>
        <time>2020-07-19T08:20:07.000Z</time>
      </trkpt>
      <trkpt lat="45.2231" lon="6.21324">
        <ele>1744</ele>
        <time>2020-07-19T08:20:08.000Z</time>
      </trkpt>
      <trkpt lat="45.22309" lon="6.21322">
        <ele>1744</ele>
        <time>2020-07-19T08:20:09.000Z</time>
      </trkpt>
      <trkpt lat="45.22307" lon="6.21321">
        <ele>1744</ele>
        <time>2020-07-19T08:20:10.000Z</time>
      </trkpt>
      <trkpt lat="45.22306" lon="6.21319">
        <ele>1744</ele>
        <time>2020-07-19T08:20:11.000Z</time>
      </trkpt>
      <trkpt lat="45.22304" lon="6.21317">
        <ele>1744</ele>
        <time>2020-07-19T08:20:12.000Z</time>
      </trkpt>
      <trkpt lat="45.22303" lon="6.21316">
        <ele>1744</ele>
        <time>2020-07-19T08:20:13.000Z</time>
      </trkpt>
      <trkpt lat="45.22301" lon="6.21314">
        <ele>1744</ele>
        <time>2020-07-19T08:20:14.000Z</time>
      </trkpt>
      <trkpt lat="45.223" lon="6.21313">
        <ele>1744.1</ele>
        <time>2020-07-19T08:20:15.000Z</time>
      </trkpt>
      <trkpt lat="45.22298" lon="6.21311">
        <ele>1745</ele>
        <time>2020-07-19T08:20:16.000Z</time>
      </trkpt>
      <trkpt lat="45.22297" lon="6.21309">
        <ele>1745.1</ele>
        <time>2020-07-19T08:20:17.000Z</time>
      </trkpt>
      <trkpt lat="45.22294" lon="6.21307">
        <ele>1746</ele>
        <time>2020-07-19T08:20:19.000Z</time>
      </trkpt>
      <trkpt lat="45.22292" lon="6.21305">
        <ele>1746</ele>
        <time>2020-07-19T08:20:20.000Z</time>
      </trkpt>
      <trkpt lat="45.22291" lon="6.21304">
        <ele>1746</ele>
        <time>2020-07-19T08:20:21.000Z</time>
      </trkpt>
      <trkpt lat="45.22288" lon="6.21301">
        <ele>1746.1</ele>
        <time>2020-07-19T08:20:23.000Z</time>
      </trkpt>
      <trkpt lat="45.22285" lon="6.21298">
        <ele>1747</ele>
        <time>2020-07-19T08:20:25.000Z</time>
      </trkpt>
      <trkpt lat="45.22284" lon="6.21296">
        <ele>1747</ele>
        <time>2020-07-19T08:20:26.000Z</time>
      </trkpt>
      <trkpt lat="45.22281" lon="6.21293">
        <ele>1747</ele>
        <time>2020-07-19T08:20:28.000Z</time>
      </trkpt>
      <trkpt lat="45.22279" lon="6.21291">
        <ele>1747</ele>
        <time>2020-07-19T08:20:30.000Z</time>
      </trkpt>
      <trkpt lat="45.22276" lon="6.21288">
        <ele>1747</ele>
        <time>2020-07-19T08:20:32.000Z</time>
      </trkpt>
      <trkpt lat="45.22274" lon="6.21285">
        <ele>1748</ele>
        <time>2020-07-19T08:20:34.000Z</time>
      </trkpt>
      <trkpt lat="45.22271" lon="6.21282">
        <ele>1748</ele>
        <time>2020-07-19T08:20:36.000Z</time>
      </trkpt>
      <trkpt lat="45.22269" lon="6.21279">
        <ele>1748.1</ele>
        <time>2020-07-19T08:20:38.000Z</time>
      </trkpt>
      <trkpt lat="45.22266" lon="6.21277">
        <ele>1749</ele>
        <time>2020-07-19T08:20:40.000Z</time>
      </trkpt>
      <trkpt lat="45.22262" lon="6.21275">
        <ele>1749</ele>
        <time>2020-07-19T08:20:42.000Z</time>
      </trkpt>
      <trkpt lat="45.22259" lon="6.21273">
        <ele>1749</ele>
        <time>2020-07-19T08:20:44.000Z</time>
      </trkpt>
      <trkpt lat="45.22256" lon="6.21271">
        <ele>1750</ele>
        <time>2020-07-19T08:20:46.000Z</time>
      </trkpt>
      <trkpt lat="45.22253" lon="6.21268">
        <ele>1750</ele>
        <time>2020-07-19T08:20:48.000Z</time>
      </trkpt>
      <trkpt lat="45.2225" lon="6.21266">
        <ele>1751</ele>
        <time>2020-07-19T08:20:50.000Z</time>
      </trkpt>
      <trkpt lat="45.22247" lon="6.21263">
        <ele>1751</ele>
        <time>2020-07-19T08:20:52.000Z</time>
      </trkpt>
      <trkpt lat="45.22244" lon="6.2126">
        <ele>1751</ele>
        <time>2020-07-19T08:20:54.000Z</time>
      </trkpt>
      <trkpt lat="45.22241" lon="6.21258">
        <ele>1751</ele>
        <time>2020-07-19T08:20:56.000Z</time>
      </trkpt>
      <trkpt lat="45.22238" lon="6.21256">
        <ele>1751</ele>
        <time>2020-07-19T08:20:58.000Z</time>
      </trkpt>
      <trkpt lat="45.22235" lon="6.21255">
        <ele>1751</ele>
        <time>2020-07-19T08:21:00.000Z</time>
      </trkpt>
      <trkpt lat="45.22232" lon="6.21253">
        <ele>1751</ele>
        <time>2020-07-19T08:21:02.000Z</time>
      </trkpt>
      <trkpt lat="45.22229" lon="6.21251">
        <ele>1751.1</ele>
        <time>2020-07-19T08:21:04.000Z</time>
      </trkpt>
      <trkpt lat="45.22225" lon="6.21249">
        <ele>1752</ele>
        <time>2020-07-19T08:21:06.000Z</time>
      </trkpt>
      <trkpt lat="45.22222" lon="6.21247">
        <ele>1752</ele>
        <time>2020-07-19T08:21:08.000Z</time>
      </trkpt>
      <trkpt lat="45.22219" lon="6.21246">
        <ele>1753</ele>
        <time>2020-07-19T08:21:10.000Z</time>
      </trkpt>
      <trkpt lat="45.22216" lon="6.21245">
        <ele>1753</ele>
        <time>2020-07-19T08:21:12.000Z</time>
      </trkpt>
      <trkpt lat="45.22212" lon="6.21243">
        <ele>1753.1</ele>
        <time>2020-07-19T08:21:14.000Z</time>
      </trkpt>
      <trkpt lat="45.2221" lon="6.21242">
        <ele>1754</ele>
        <time>2020-07-19T08:21:15.000Z</time>
      </trkpt>
      <trkpt lat="45.22207" lon="6.21241">
        <ele>1754</ele>
        <time>2020-07-19T08:21:17.000Z</time>
      </trkpt>
      <trkpt lat="45.22204" lon="6.2124">
        <ele>1754</ele>
        <time>2020-07-19T08:21:19.000Z</time>
      </trkpt>
      <trkpt lat="45.22201" lon="6.21239">
        <ele>1755</ele>
        <time>2020-07-19T08:21:21.000Z</time>
      </trkpt>
      <trkpt lat="45.22198" lon="6.21238">
        <ele>1755</ele>
        <time>2020-07-19T08:21:23.000Z</time>
      </trkpt>
      <trkpt lat="45.22194" lon="6.21237">
        <ele>1755</ele>
        <time>2020-07-19T08:21:25.000Z</time>
      </trkpt>
      <trkpt lat="45.22191" lon="6.21236">
        <ele>1755</ele>
        <time>2020-07-19T08:21:27.000Z</time>
      </trkpt>
      <trkpt lat="45.22189" lon="6.21236">
        <ele>1755</ele>
        <time>2020-07-19T08:21:28.000Z</time>
      </trkpt>
      <trkpt lat="45.22187" lon="6.21236">
        <ele>1755</ele>
        <time>2020-07-19T08:21:29.000Z</time>
      </trkpt>
      <trkpt lat="45.22184" lon="6.21235">
        <ele>1755.1</ele>
        <time>2020-07-19T08:21:31.000Z</time>
      </trkpt>
      <trkpt lat="45.2218" lon="6.21234">
        <ele>1756</ele>
        <time>2020-07-19T08:21:33.000Z</time>
      </trkpt>
      <trkpt lat="45.22177" lon="6.21234">
        <ele>1756.1</ele>
        <time>2020-07-19T08:21:35.000Z</time>
      </trkpt>
      <trkpt lat="45.22173" lon="6.21234">
        <ele>1757</ele>
        <time>2020-07-19T08:21:37.000Z</time>
      </trkpt>
      <trkpt lat="45.22171" lon="6.21234">
        <ele>1757</ele>
        <time>2020-07-19T08:21:38.000Z</time>
      </trkpt>
      <trkpt lat="45.22169" lon="6.21234">
        <ele>1757</ele>
        <time>2020-07-19T08:21:39.000Z</time>
      </trkpt>
      <trkpt lat="45.22166" lon="6.21234">
        <ele>1757</ele>
        <time>2020-07-19T08:21:41.000Z</time>
      </trkpt>
      <trkpt lat="45.22164" lon="6.21234">
        <ele>1757.1</ele>
        <time>2020-07-19T08:21:42.000Z</time>
      </trkpt>
      <trkpt lat="45.22162" lon="6.21234">
        <ele>1758</ele>
        <time>2020-07-19T08:21:43.000Z</time>
      </trkpt>
      <trkpt lat="45.2216" lon="6.21234">
        <ele>1758</ele>
        <time>2020-07-19T08:21:44.000Z</time>
      </trkpt>
      <trkpt lat="45.22158" lon="6.21235">
        <ele>1758</ele>
        <time>2020-07-19T08:21:45.000Z</time>
      </trkpt>
      <trkpt lat="45.22156" lon="6.21235">
        <ele>1758</ele>
        <time>2020-07-19T08:21:46.000Z</time>
      </trkpt>
      <trkpt lat="45.22155" lon="6.21236">
        <ele>1758</ele>
        <time>2020-07-19T08:21:47.000Z</time>
      </trkpt>
      <trkpt lat="45.22153" lon="6.21236">
        <ele>1758</ele>
        <time>2020-07-19T08:21:48.000Z</time>
      </trkpt>
      <trkpt lat="45.22151" lon="6.21237">
        <ele>1758</ele>
        <time>2020-07-19T08:21:49.000Z</time>
      </trkpt>
      <trkpt lat="45.22149" lon="6.21238">
        <ele>1758</ele>
        <time>2020-07-19T08:21:50.000Z</time>
      </trkpt>
      <trkpt lat="45.22147" lon="6.21239">
        <ele>1758.1</ele>
        <time>2020-07-19T08:21:51.000Z</time>
      </trkpt>
      <trkpt lat="45.22146" lon="6.2124">
        <ele>1759</ele>
        <time>2020-07-19T08:21:52.000Z</time>
      </trkpt>
      <trkpt lat="45.22144" lon="6.21241">
        <ele>1759</ele>
        <time>2020-07-19T08:21:53.000Z</time>
      </trkpt>
      <trkpt lat="45.22142" lon="6.21242">
        <ele>1759</ele>
        <time>2020-07-19T08:21:54.000Z</time>
      </trkpt>
      <trkpt lat="45.22141" lon="6.21244">
        <ele>1759</ele>
        <time>2020-07-19T08:21:55.000Z</time>
      </trkpt>
      <trkpt lat="45.22139" lon="6.21245">
        <ele>1759.1</ele>
        <time>2020-07-19T08:21:56.000Z</time>
      </trkpt>
      <trkpt lat="45.22137" lon="6.21246">
        <ele>1760</ele>
        <time>2020-07-19T08:21:57.000Z</time>
      </trkpt>
      <trkpt lat="45.22135" lon="6.21246">
        <ele>1760.1</ele>
        <time>2020-07-19T08:21:58.000Z</time>
      </trkpt>
      <trkpt lat="45.22133" lon="6.21247">
        <ele>1761</ele>
        <time>2020-07-19T08:21:59.000Z</time>
      </trkpt>
      <trkpt lat="45.22132" lon="6.21247">
        <ele>1761</ele>
        <time>2020-07-19T08:22:00.000Z</time>
      </trkpt>
      <trkpt lat="45.2213" lon="6.21246">
        <ele>1761.1</ele>
        <time>2020-07-19T08:22:01.000Z</time>
      </trkpt>
      <trkpt lat="45.22127" lon="6.21242">
        <ele>1762</ele>
        <time>2020-07-19T08:22:03.000Z</time>
      </trkpt>
      <trkpt lat="45.22127" lon="6.21237">
        <ele>1762</ele>
        <time>2020-07-19T08:22:05.000Z</time>
      </trkpt>
      <trkpt lat="45.22127" lon="6.21235">
        <ele>1762</ele>
        <time>2020-07-19T08:22:06.000Z</time>
      </trkpt>
      <trkpt lat="45.22129" lon="6.21231">
        <ele>1762</ele>
        <time>2020-07-19T08:22:08.000Z</time>
      </trkpt>
      <trkpt lat="45.22131" lon="6.21227">
        <ele>1762</ele>
        <time>2020-07-19T08:22:10.000Z</time>
      </trkpt>
      <trkpt lat="45.22134" lon="6.21225">
        <ele>1762</ele>
        <time>2020-07-19T08:22:12.000Z</time>
      </trkpt>
      <trkpt lat="45.22136" lon="6.21224">
        <ele>1762</ele>
        <time>2020-07-19T08:22:13.000Z</time>
      </trkpt>
      <trkpt lat="45.22138" lon="6.21223">
        <ele>1762</ele>
        <time>2020-07-19T08:22:14.000Z</time>
      </trkpt>
      <trkpt lat="45.22139" lon="6.21222">
        <ele>1762</ele>
        <time>2020-07-19T08:22:15.000Z</time>
      </trkpt>
      <trkpt lat="45.22141" lon="6.21221">
        <ele>1763</ele>
        <time>2020-07-19T08:22:16.000Z</time>
      </trkpt>
      <trkpt lat="45.22143" lon="6.2122">
        <ele>1763.1</ele>
        <time>2020-07-19T08:22:17.000Z</time>
      </trkpt>
      <trkpt lat="45.22146" lon="6.21218">
        <ele>1764</ele>
        <time>2020-07-19T08:22:19.000Z</time>
      </trkpt>
      <trkpt lat="45.22147" lon="6.21216">
        <ele>1764</ele>
        <time>2020-07-19T08:22:20.000Z</time>
      </trkpt>
      <trkpt lat="45.2215" lon="6.21214">
        <ele>1764</ele>
        <time>2020-07-19T08:22:22.000Z</time>
      </trkpt>
      <trkpt lat="45.22152" lon="6.21213">
        <ele>1764</ele>
        <time>2020-07-19T08:22:23.000Z</time>
      </trkpt>
      <trkpt lat="45.22154" lon="6.21212">
        <ele>1764</ele>
        <time>2020-07-19T08:22:24.000Z</time>
      </trkpt>
      <trkpt lat="45.22156" lon="6.21211">
        <ele>1764</ele>
        <time>2020-07-19T08:22:25.000Z</time>
      </trkpt>
      <trkpt lat="45.22157" lon="6.2121">
        <ele>1764.1</ele>
        <time>2020-07-19T08:22:26.000Z</time>
      </trkpt>
      <trkpt lat="45.22159" lon="6.21209">
        <ele>1765</ele>
        <time>2020-07-19T08:22:27.000Z</time>
      </trkpt>
      <trkpt lat="45.22161" lon="6.21208">
        <ele>1765</ele>
        <time>2020-07-19T08:22:28.000Z</time>
      </trkpt>
      <trkpt lat="45.22163" lon="6.21206">
        <ele>1765</ele>
        <time>2020-07-19T08:22:29.000Z</time>
      </trkpt>
      <trkpt lat="45.22164" lon="6.21205">
        <ele>1765</ele>
        <time>2020-07-19T08:22:30.000Z</time>
      </trkpt>
      <trkpt lat="45.22166" lon="6.21204">
        <ele>1765.1</ele>
        <time>2020-07-19T08:22:31.000Z</time>
      </trkpt>
      <trkpt lat="45.22168" lon="6.21203">
        <ele>1766</ele>
        <time>2020-07-19T08:22:32.000Z</time>
      </trkpt>
      <trkpt lat="45.22171" lon="6.21201">
        <ele>1767</ele>
        <time>2020-07-19T08:22:34.000Z</time>
      </trkpt>
      <trkpt lat="45.22174" lon="6.21199">
        <ele>1767</ele>
        <time>2020-07-19T08:22:36.000Z</time>
      </trkpt>
      <trkpt lat="45.22177" lon="6.21197">
        <ele>1767</ele>
        <time>2020-07-19T08:22:38.000Z</time>
      </trkpt>
      <trkpt lat="45.22179" lon="6.21195">
        <ele>1767</ele>
        <time>2020-07-19T08:22:39.000Z</time>
      </trkpt>
      <trkpt lat="45.22182" lon="6.21193">
        <ele>1767</ele>
        <time>2020-07-19T08:22:41.000Z</time>
      </trkpt>
      <trkpt lat="45.22184" lon="6.21192">
        <ele>1767</ele>
        <time>2020-07-19T08:22:42.000Z</time>
      </trkpt>
      <trkpt lat="45.22186" lon="6.21191">
        <ele>1767.7</ele>
        <time>2020-07-19T08:22:43.000Z</time>
      </trkpt>
      <trkpt lat="45.22187" lon="6.2119">
        <ele>1768</ele>
        <time>2020-07-19T08:22:44.000Z</time>
      </trkpt>
      <trkpt lat="45.22189" lon="6.21189">
        <ele>1768</ele>
        <time>2020-07-19T08:22:45.000Z</time>
      </trkpt>
      <trkpt lat="45.22191" lon="6.21188">
        <ele>1768</ele>
        <time>2020-07-19T08:22:46.000Z</time>
      </trkpt>
      <trkpt lat="45.22192" lon="6.21187">
        <ele>1768</ele>
        <time>2020-07-19T08:22:47.000Z</time>
      </trkpt>
      <trkpt lat="45.22194" lon="6.21186">
        <ele>1768.1</ele>
        <time>2020-07-19T08:22:48.000Z</time>
      </trkpt>
      <trkpt lat="45.22196" lon="6.21185">
        <ele>1769</ele>
        <time>2020-07-19T08:22:49.000Z</time>
      </trkpt>
      <trkpt lat="45.22198" lon="6.21184">
        <ele>1769</ele>
        <time>2020-07-19T08:22:50.000Z</time>
      </trkpt>
      <trkpt lat="45.22199" lon="6.21183">
        <ele>1769</ele>
        <time>2020-07-19T08:22:51.000Z</time>
      </trkpt>
      <trkpt lat="45.22201" lon="6.21182">
        <ele>1769</ele>
        <time>2020-07-19T08:22:52.000Z</time>
      </trkpt>
      <trkpt lat="45.22203" lon="6.21181">
        <ele>1769</ele>
        <time>2020-07-19T08:22:53.000Z</time>
      </trkpt>
      <trkpt lat="45.22205" lon="6.21181">
        <ele>1769</ele>
        <time>2020-07-19T08:22:54.000Z</time>
      </trkpt>
      <trkpt lat="45.22207" lon="6.2118">
        <ele>1769</ele>
        <time>2020-07-19T08:22:55.000Z</time>
      </trkpt>
      <trkpt lat="45.22208" lon="6.2118">
        <ele>1769</ele>
        <time>2020-07-19T08:22:56.000Z</time>
      </trkpt>
      <trkpt lat="45.2221" lon="6.21179">
        <ele>1769.1</ele>
        <time>2020-07-19T08:22:57.000Z</time>
      </trkpt>
      <trkpt lat="45.22212" lon="6.21179">
        <ele>1770</ele>
        <time>2020-07-19T08:22:58.000Z</time>
      </trkpt>
      <trkpt lat="45.22216" lon="6.21178">
        <ele>1770</ele>
        <time>2020-07-19T08:23:00.000Z</time>
      </trkpt>
      <trkpt lat="45.22218" lon="6.21177">
        <ele>1770.1</ele>
        <time>2020-07-19T08:23:01.000Z</time>
      </trkpt>
      <trkpt lat="45.2222" lon="6.21177">
        <ele>1770.8</ele>
        <time>2020-07-19T08:23:02.000Z</time>
      </trkpt>
      <trkpt lat="45.22222" lon="6.21176">
        <ele>1771</ele>
        <time>2020-07-19T08:23:03.000Z</time>
      </trkpt>
      <trkpt lat="45.22223" lon="6.21176">
        <ele>1771</ele>
        <time>2020-07-19T08:23:04.000Z</time>
      </trkpt>
      <trkpt lat="45.22225" lon="6.21175">
        <ele>1771</ele>
        <time>2020-07-19T08:23:05.000Z</time>
      </trkpt>
      <trkpt lat="45.22227" lon="6.21175">
        <ele>1771</ele>
        <time>2020-07-19T08:23:06.000Z</time>
      </trkpt>
      <trkpt lat="45.22229" lon="6.21175">
        <ele>1771</ele>
        <time>2020-07-19T08:23:07.000Z</time>
      </trkpt>
      <trkpt lat="45.22231" lon="6.21174">
        <ele>1771</ele>
        <time>2020-07-19T08:23:08.000Z</time>
      </trkpt>
      <trkpt lat="45.22233" lon="6.21174">
        <ele>1771</ele>
        <time>2020-07-19T08:23:09.000Z</time>
      </trkpt>
      <trkpt lat="45.22235" lon="6.21174">
        <ele>1771</ele>
        <time>2020-07-19T08:23:10.000Z</time>
      </trkpt>
      <trkpt lat="45.22237" lon="6.21174">
        <ele>1771.1</ele>
        <time>2020-07-19T08:23:11.000Z</time>
      </trkpt>
      <trkpt lat="45.22239" lon="6.21173">
        <ele>1772</ele>
        <time>2020-07-19T08:23:12.000Z</time>
      </trkpt>
      <trkpt lat="45.22241" lon="6.21173">
        <ele>1772</ele>
        <time>2020-07-19T08:23:13.000Z</time>
      </trkpt>
      <trkpt lat="45.22243" lon="6.21172">
        <ele>1772</ele>
        <time>2020-07-19T08:23:14.000Z</time>
      </trkpt>
      <trkpt lat="45.22245" lon="6.21172">
        <ele>1772</ele>
        <time>2020-07-19T08:23:15.000Z</time>
      </trkpt>
      <trkpt lat="45.22247" lon="6.21172">
        <ele>1772.1</ele>
        <time>2020-07-19T08:23:16.000Z</time>
      </trkpt>
      <trkpt lat="45.22249" lon="6.21171">
        <ele>1773</ele>
        <time>2020-07-19T08:23:17.000Z</time>
      </trkpt>
      <trkpt lat="45.22251" lon="6.21171">
        <ele>1773</ele>
        <time>2020-07-19T08:23:18.000Z</time>
      </trkpt>
      <trkpt lat="45.22252" lon="6.21171">
        <ele>1773</ele>
        <time>2020-07-19T08:23:19.000Z</time>
      </trkpt>
      <trkpt lat="45.22254" lon="6.2117">
        <ele>1773.1</ele>
        <time>2020-07-19T08:23:20.000Z</time>
      </trkpt>
      <trkpt lat="45.22256" lon="6.21169">
        <ele>1773.8</ele>
        <time>2020-07-19T08:23:21.000Z</time>
      </trkpt>
      <trkpt lat="45.22258" lon="6.21169">
        <ele>1774</ele>
        <time>2020-07-19T08:23:22.000Z</time>
      </trkpt>
      <trkpt lat="45.2226" lon="6.21169">
        <ele>1774</ele>
        <time>2020-07-19T08:23:23.000Z</time>
      </trkpt>
      <trkpt lat="45.22262" lon="6.21168">
        <ele>1774</ele>
        <time>2020-07-19T08:23:24.000Z</time>
      </trkpt>
      <trkpt lat="45.22264" lon="6.21168">
        <ele>1774</ele>
        <time>2020-07-19T08:23:25.000Z</time>
      </trkpt>
      <trkpt lat="45.22266" lon="6.21168">
        <ele>1774.1</ele>
        <time>2020-07-19T08:23:26.000Z</time>
      </trkpt>
      <trkpt lat="45.22268" lon="6.21167">
        <ele>1775</ele>
        <time>2020-07-19T08:23:27.000Z</time>
      </trkpt>
      <trkpt lat="45.2227" lon="6.21167">
        <ele>1775</ele>
        <time>2020-07-19T08:23:28.000Z</time>
      </trkpt>
      <trkpt lat="45.22272" lon="6.21167">
        <ele>1775</ele>
        <time>2020-07-19T08:23:29.000Z</time>
      </trkpt>
      <trkpt lat="45.22274" lon="6.21167">
        <ele>1775</ele>
        <time>2020-07-19T08:23:30.000Z</time>
      </trkpt>
      <trkpt lat="45.22276" lon="6.21166">
        <ele>1775</ele>
        <time>2020-07-19T08:23:31.000Z</time>
      </trkpt>
      <trkpt lat="45.22278" lon="6.21166">
        <ele>1775</ele>
        <time>2020-07-19T08:23:32.000Z</time>
      </trkpt>
      <trkpt lat="45.2228" lon="6.21166">
        <ele>1775</ele>
        <time>2020-07-19T08:23:33.000Z</time>
      </trkpt>
      <trkpt lat="45.22282" lon="6.21166">
        <ele>1775.1</ele>
        <time>2020-07-19T08:23:34.000Z</time>
      </trkpt>
      <trkpt lat="45.22284" lon="6.21166">
        <ele>1775.8</ele>
        <time>2020-07-19T08:23:35.000Z</time>
      </trkpt>
      <trkpt lat="45.22286" lon="6.21166">
        <ele>1776</ele>
        <time>2020-07-19T08:23:36.000Z</time>
      </trkpt>
      <trkpt lat="45.22288" lon="6.21166">
        <ele>1776</ele>
        <time>2020-07-19T08:23:37.000Z</time>
      </trkpt>
      <trkpt lat="45.2229" lon="6.21166">
        <ele>1776</ele>
        <time>2020-07-19T08:23:38.000Z</time>
      </trkpt>
      <trkpt lat="45.22292" lon="6.21166">
        <ele>1776</ele>
        <time>2020-07-19T08:23:39.000Z</time>
      </trkpt>
      <trkpt lat="45.22294" lon="6.21166">
        <ele>1776</ele>
        <time>2020-07-19T08:23:40.000Z</time>
      </trkpt>
      <trkpt lat="45.22296" lon="6.21167">
        <ele>1776</ele>
        <time>2020-07-19T08:23:41.000Z</time>
      </trkpt>
      <trkpt lat="45.22298" lon="6.21167">
        <ele>1776</ele>
        <time>2020-07-19T08:23:42.000Z</time>
      </trkpt>
      <trkpt lat="45.223" lon="6.21168">
        <ele>1776</ele>
        <time>2020-07-19T08:23:43.000Z</time>
      </trkpt>
      <trkpt lat="45.22302" lon="6.21168">
        <ele>1776.1</ele>
        <time>2020-07-19T08:23:44.000Z</time>
      </trkpt>
      <trkpt lat="45.22304" lon="6.21169">
        <ele>1777</ele>
        <time>2020-07-19T08:23:45.000Z</time>
      </trkpt>
      <trkpt lat="45.22306" lon="6.21169">
        <ele>1777</ele>
        <time>2020-07-19T08:23:46.000Z</time>
      </trkpt>
      <trkpt lat="45.22308" lon="6.2117">
        <ele>1777</ele>
        <time>2020-07-19T08:23:47.000Z</time>
      </trkpt>
      <trkpt lat="45.2231" lon="6.2117">
        <ele>1777</ele>
        <time>2020-07-19T08:23:48.000Z</time>
      </trkpt>
      <trkpt lat="45.22312" lon="6.21171">
        <ele>1777</ele>
        <time>2020-07-19T08:23:49.000Z</time>
      </trkpt>
      <trkpt lat="45.22314" lon="6.21171">
        <ele>1777.1</ele>
        <time>2020-07-19T08:23:50.000Z</time>
      </trkpt>
      <trkpt lat="45.22316" lon="6.21172">
        <ele>1778</ele>
        <time>2020-07-19T08:23:51.000Z</time>
      </trkpt>
      <trkpt lat="45.22318" lon="6.21172">
        <ele>1778</ele>
        <time>2020-07-19T08:23:52.000Z</time>
      </trkpt>
      <trkpt lat="45.2232" lon="6.21173">
        <ele>1778</ele>
        <time>2020-07-19T08:23:53.000Z</time>
      </trkpt>
      <trkpt lat="45.22322" lon="6.21173">
        <ele>1778</ele>
        <time>2020-07-19T08:23:54.000Z</time>
      </trkpt>
      <trkpt lat="45.22323" lon="6.21174">
        <ele>1778</ele>
        <time>2020-07-19T08:23:55.000Z</time>
      </trkpt>
      <trkpt lat="45.22325" lon="6.21174">
        <ele>1778.1</ele>
        <time>2020-07-19T08:23:56.000Z</time>
      </trkpt>
      <trkpt lat="45.22327" lon="6.21175">
        <ele>1779</ele>
        <time>2020-07-19T08:23:57.000Z</time>
      </trkpt>
      <trkpt lat="45.22329" lon="6.21176">
        <ele>1779</ele>
        <time>2020-07-19T08:23:58.000Z</time>
      </trkpt>
      <trkpt lat="45.22331" lon="6.21176">
        <ele>1779</ele>
        <time>2020-07-19T08:23:59.000Z</time>
      </trkpt>
      <trkpt lat="45.22332" lon="6.21177">
        <ele>1779</ele>
        <time>2020-07-19T08:24:00.000Z</time>
      </trkpt>
      <trkpt lat="45.22336" lon="6.21178">
        <ele>1779.1</ele>
        <time>2020-07-19T08:24:02.000Z</time>
      </trkpt>
      <trkpt lat="45.22339" lon="6.2118">
        <ele>1780</ele>
        <time>2020-07-19T08:24:04.000Z</time>
      </trkpt>
      <trkpt lat="45.22343" lon="6.21181">
        <ele>1780</ele>
        <time>2020-07-19T08:24:06.000Z</time>
      </trkpt>
      <trkpt lat="45.22346" lon="6.21181">
        <ele>1780</ele>
        <time>2020-07-19T08:24:08.000Z</time>
      </trkpt>
      <trkpt lat="45.22349" lon="6.21183">
        <ele>1780</ele>
        <time>2020-07-19T08:24:10.000Z</time>
      </trkpt>
      <trkpt lat="45.22352" lon="6.21184">
        <ele>1781</ele>
        <time>2020-07-19T08:24:12.000Z</time>
      </trkpt>
      <trkpt lat="45.22356" lon="6.21186">
        <ele>1781</ele>
        <time>2020-07-19T08:24:14.000Z</time>
      </trkpt>
      <trkpt lat="45.22357" lon="6.21188">
        <ele>1781.1</ele>
        <time>2020-07-19T08:24:15.000Z</time>
      </trkpt>
      <trkpt lat="45.22358" lon="6.21189">
        <ele>1782</ele>
        <time>2020-07-19T08:24:16.000Z</time>
      </trkpt>
      <trkpt lat="45.2236" lon="6.21191">
        <ele>1782</ele>
        <time>2020-07-19T08:24:17.000Z</time>
      </trkpt>
      <trkpt lat="45.22361" lon="6.21193">
        <ele>1782</ele>
        <time>2020-07-19T08:24:18.000Z</time>
      </trkpt>
      <trkpt lat="45.22363" lon="6.21194">
        <ele>1782</ele>
        <time>2020-07-19T08:24:19.000Z</time>
      </trkpt>
      <trkpt lat="45.22366" lon="6.21196">
        <ele>1782</ele>
        <time>2020-07-19T08:24:21.000Z</time>
      </trkpt>
      <trkpt lat="45.22368" lon="6.21198">
        <ele>1782</ele>
        <time>2020-07-19T08:24:22.000Z</time>
      </trkpt>
      <trkpt lat="45.22369" lon="6.21199">
        <ele>1782</ele>
        <time>2020-07-19T08:24:23.000Z</time>
      </trkpt>
      <trkpt lat="45.22372" lon="6.21202">
        <ele>1782.1</ele>
        <time>2020-07-19T08:24:25.000Z</time>
      </trkpt>
      <trkpt lat="45.22373" lon="6.21204">
        <ele>1783</ele>
        <time>2020-07-19T08:24:26.000Z</time>
      </trkpt>
      <trkpt lat="45.22376" lon="6.21206">
        <ele>1783</ele>
        <time>2020-07-19T08:24:28.000Z</time>
      </trkpt>
      <trkpt lat="45.22378" lon="6.21208">
        <ele>1784</ele>
        <time>2020-07-19T08:24:29.000Z</time>
      </trkpt>
      <trkpt lat="45.22379" lon="6.21209">
        <ele>1784</ele>
        <time>2020-07-19T08:24:30.000Z</time>
      </trkpt>
      <trkpt lat="45.22381" lon="6.2121">
        <ele>1784</ele>
        <time>2020-07-19T08:24:31.000Z</time>
      </trkpt>
      <trkpt lat="45.22382" lon="6.21212">
        <ele>1784.1</ele>
        <time>2020-07-19T08:24:32.000Z</time>
      </trkpt>
      <trkpt lat="45.22384" lon="6.21214">
        <ele>1785</ele>
        <time>2020-07-19T08:24:33.000Z</time>
      </trkpt>
      <trkpt lat="45.22385" lon="6.21215">
        <ele>1785</ele>
        <time>2020-07-19T08:24:34.000Z</time>
      </trkpt>
      <trkpt lat="45.22387" lon="6.21217">
        <ele>1785</ele>
        <time>2020-07-19T08:24:35.000Z</time>
      </trkpt>
      <trkpt lat="45.22388" lon="6.21219">
        <ele>1785.1</ele>
        <time>2020-07-19T08:24:36.000Z</time>
      </trkpt>
      <trkpt lat="45.2239" lon="6.2122">
        <ele>1785.8</ele>
        <time>2020-07-19T08:24:37.000Z</time>
      </trkpt>
      <trkpt lat="45.22391" lon="6.21222">
        <ele>1786</ele>
        <time>2020-07-19T08:24:38.000Z</time>
      </trkpt>
      <trkpt lat="45.22393" lon="6.21224">
        <ele>1786</ele>
        <time>2020-07-19T08:24:39.000Z</time>
      </trkpt>
      <trkpt lat="45.22394" lon="6.21225">
        <ele>1786</ele>
        <time>2020-07-19T08:24:40.000Z</time>
      </trkpt>
      <trkpt lat="45.22396" lon="6.21227">
        <ele>1786</ele>
        <time>2020-07-19T08:24:41.000Z</time>
      </trkpt>
      <trkpt lat="45.22397" lon="6.21229">
        <ele>1786</ele>
        <time>2020-07-19T08:24:42.000Z</time>
      </trkpt>
      <trkpt lat="45.224" lon="6.21232">
        <ele>1786.1</ele>
        <time>2020-07-19T08:24:44.000Z</time>
      </trkpt>
      <trkpt lat="45.22402" lon="6.21234">
        <ele>1787</ele>
        <time>2020-07-19T08:24:45.000Z</time>
      </trkpt>
      <trkpt lat="45.22403" lon="6.21235">
        <ele>1787</ele>
        <time>2020-07-19T08:24:46.000Z</time>
      </trkpt>
      <trkpt lat="45.22406" lon="6.21239">
        <ele>1787</ele>
        <time>2020-07-19T08:24:48.000Z</time>
      </trkpt>
      <trkpt lat="45.22408" lon="6.21242">
        <ele>1787</ele>
        <time>2020-07-19T08:24:50.000Z</time>
      </trkpt>
      <trkpt lat="45.2241" lon="6.21245">
        <ele>1787</ele>
        <time>2020-07-19T08:24:52.000Z</time>
      </trkpt>
      <trkpt lat="45.22412" lon="6.21248">
        <ele>1787</ele>
        <time>2020-07-19T08:24:54.000Z</time>
      </trkpt>
      <trkpt lat="45.22414" lon="6.21252">
        <ele>1787</ele>
        <time>2020-07-19T08:24:56.000Z</time>
      </trkpt>
      <trkpt lat="45.22415" lon="6.21254">
        <ele>1788</ele>
        <time>2020-07-19T08:24:57.000Z</time>
      </trkpt>
      <trkpt lat="45.22418" lon="6.21258">
        <ele>1788</ele>
        <time>2020-07-19T08:24:59.000Z</time>
      </trkpt>
      <trkpt lat="45.2242" lon="6.21261">
        <ele>1788</ele>
        <time>2020-07-19T08:25:01.000Z</time>
      </trkpt>
      <trkpt lat="45.22423" lon="6.21265">
        <ele>1789</ele>
        <time>2020-07-19T08:25:03.000Z</time>
      </trkpt>
      <trkpt lat="45.22425" lon="6.21268">
        <ele>1789</ele>
        <time>2020-07-19T08:25:05.000Z</time>
      </trkpt>
      <trkpt lat="45.22427" lon="6.21272">
        <ele>1789.1</ele>
        <time>2020-07-19T08:25:07.000Z</time>
      </trkpt>
      <trkpt lat="45.2243" lon="6.21276">
        <ele>1790</ele>
        <time>2020-07-19T08:25:09.000Z</time>
      </trkpt>
      <trkpt lat="45.22431" lon="6.21278">
        <ele>1790</ele>
        <time>2020-07-19T08:25:10.000Z</time>
      </trkpt>
      <trkpt lat="45.22432" lon="6.2128">
        <ele>1790</ele>
        <time>2020-07-19T08:25:11.000Z</time>
      </trkpt>
      <trkpt lat="45.22434" lon="6.21283">
        <ele>1790</ele>
        <time>2020-07-19T08:25:13.000Z</time>
      </trkpt>
      <trkpt lat="45.22435" lon="6.21286">
        <ele>1790</ele>
        <time>2020-07-19T08:25:14.000Z</time>
      </trkpt>
      <trkpt lat="45.22437" lon="6.21288">
        <ele>1791</ele>
        <time>2020-07-19T08:25:16.000Z</time>
      </trkpt>
      <trkpt lat="45.2244" lon="6.21291">
        <ele>1791</ele>
        <time>2020-07-19T08:25:18.000Z</time>
      </trkpt>
      <trkpt lat="45.22441" lon="6.21295">
        <ele>1791</ele>
        <time>2020-07-19T08:25:20.000Z</time>
      </trkpt>
      <trkpt lat="45.22444" lon="6.21299">
        <ele>1791</ele>
        <time>2020-07-19T08:25:22.000Z</time>
      </trkpt>
      <trkpt lat="45.22445" lon="6.213">
        <ele>1791</ele>
        <time>2020-07-19T08:25:23.000Z</time>
      </trkpt>
      <trkpt lat="45.22448" lon="6.21303">
        <ele>1792</ele>
        <time>2020-07-19T08:25:25.000Z</time>
      </trkpt>
      <trkpt lat="45.2245" lon="6.21304">
        <ele>1792</ele>
        <time>2020-07-19T08:25:26.000Z</time>
      </trkpt>
      <trkpt lat="45.22451" lon="6.21305">
        <ele>1792</ele>
        <time>2020-07-19T08:25:27.000Z</time>
      </trkpt>
      <trkpt lat="45.22453" lon="6.21306">
        <ele>1792</ele>
        <time>2020-07-19T08:25:28.000Z</time>
      </trkpt>
      <trkpt lat="45.22455" lon="6.21308">
        <ele>1792</ele>
        <time>2020-07-19T08:25:29.000Z</time>
      </trkpt>
      <trkpt lat="45.22456" lon="6.21309">
        <ele>1792.1</ele>
        <time>2020-07-19T08:25:30.000Z</time>
      </trkpt>
      <trkpt lat="45.22458" lon="6.21311">
        <ele>1793</ele>
        <time>2020-07-19T08:25:31.000Z</time>
      </trkpt>
      <trkpt lat="45.22461" lon="6.21313">
        <ele>1793.1</ele>
        <time>2020-07-19T08:25:33.000Z</time>
      </trkpt>
      <trkpt lat="45.22463" lon="6.21315">
        <ele>1793.8</ele>
        <time>2020-07-19T08:25:34.000Z</time>
      </trkpt>
      <trkpt lat="45.22464" lon="6.21316">
        <ele>1794</ele>
        <time>2020-07-19T08:25:35.000Z</time>
      </trkpt>
      <trkpt lat="45.22465" lon="6.21318">
        <ele>1794</ele>
        <time>2020-07-19T08:25:36.000Z</time>
      </trkpt>
      <trkpt lat="45.22467" lon="6.21319">
        <ele>1794</ele>
        <time>2020-07-19T08:25:37.000Z</time>
      </trkpt>
      <trkpt lat="45.22468" lon="6.21321">
        <ele>1794</ele>
        <time>2020-07-19T08:25:38.000Z</time>
      </trkpt>
      <trkpt lat="45.22471" lon="6.21324">
        <ele>1794</ele>
        <time>2020-07-19T08:25:40.000Z</time>
      </trkpt>
      <trkpt lat="45.22473" lon="6.21325">
        <ele>1794.1</ele>
        <time>2020-07-19T08:25:41.000Z</time>
      </trkpt>
      <trkpt lat="45.22475" lon="6.21326">
        <ele>1795</ele>
        <time>2020-07-19T08:25:42.000Z</time>
      </trkpt>
      <trkpt lat="45.22476" lon="6.21327">
        <ele>1795</ele>
        <time>2020-07-19T08:25:43.000Z</time>
      </trkpt>
      <trkpt lat="45.22478" lon="6.21329">
        <ele>1795</ele>
        <time>2020-07-19T08:25:44.000Z</time>
      </trkpt>
      <trkpt lat="45.22479" lon="6.2133">
        <ele>1795.1</ele>
        <time>2020-07-19T08:25:45.000Z</time>
      </trkpt>
      <trkpt lat="45.22481" lon="6.21332">
        <ele>1796</ele>
        <time>2020-07-19T08:25:46.000Z</time>
      </trkpt>
      <trkpt lat="45.22483" lon="6.21333">
        <ele>1796</ele>
        <time>2020-07-19T08:25:47.000Z</time>
      </trkpt>
      <trkpt lat="45.22484" lon="6.21334">
        <ele>1796</ele>
        <time>2020-07-19T08:25:48.000Z</time>
      </trkpt>
      <trkpt lat="45.22487" lon="6.21337">
        <ele>1796</ele>
        <time>2020-07-19T08:25:50.000Z</time>
      </trkpt>
      <trkpt lat="45.22489" lon="6.21338">
        <ele>1796</ele>
        <time>2020-07-19T08:25:51.000Z</time>
      </trkpt>
      <trkpt lat="45.22491" lon="6.21341">
        <ele>1796.8</ele>
        <time>2020-07-19T08:25:53.000Z</time>
      </trkpt>
      <trkpt lat="45.22494" lon="6.21344">
        <ele>1797</ele>
        <time>2020-07-19T08:25:55.000Z</time>
      </trkpt>
      <trkpt lat="45.22497" lon="6.21346">
        <ele>1797</ele>
        <time>2020-07-19T08:25:57.000Z</time>
      </trkpt>
      <trkpt lat="45.225" lon="6.21349">
        <ele>1797</ele>
        <time>2020-07-19T08:25:59.000Z</time>
      </trkpt>
      <trkpt lat="45.22503" lon="6.21352">
        <ele>1797</ele>
        <time>2020-07-19T08:26:01.000Z</time>
      </trkpt>
      <trkpt lat="45.22506" lon="6.21355">
        <ele>1797.1</ele>
        <time>2020-07-19T08:26:03.000Z</time>
      </trkpt>
      <trkpt lat="45.22509" lon="6.21358">
        <ele>1798</ele>
        <time>2020-07-19T08:26:05.000Z</time>
      </trkpt>
      <trkpt lat="45.22512" lon="6.2136">
        <ele>1798</ele>
        <time>2020-07-19T08:26:07.000Z</time>
      </trkpt>
      <trkpt lat="45.22515" lon="6.21362">
        <ele>1798.1</ele>
        <time>2020-07-19T08:26:09.000Z</time>
      </trkpt>
      <trkpt lat="45.22518" lon="6.21365">
        <ele>1799</ele>
        <time>2020-07-19T08:26:11.000Z</time>
      </trkpt>
      <trkpt lat="45.22521" lon="6.21367">
        <ele>1799</ele>
        <time>2020-07-19T08:26:13.000Z</time>
      </trkpt>
      <trkpt lat="45.22524" lon="6.2137">
        <ele>1800</ele>
        <time>2020-07-19T08:26:15.000Z</time>
      </trkpt>
      <trkpt lat="45.22526" lon="6.21371">
        <ele>1800</ele>
        <time>2020-07-19T08:26:16.000Z</time>
      </trkpt>
      <trkpt lat="45.22527" lon="6.21372">
        <ele>1800</ele>
        <time>2020-07-19T08:26:17.000Z</time>
      </trkpt>
      <trkpt lat="45.22529" lon="6.21373">
        <ele>1800</ele>
        <time>2020-07-19T08:26:18.000Z</time>
      </trkpt>
      <trkpt lat="45.22531" lon="6.21374">
        <ele>1800</ele>
        <time>2020-07-19T08:26:19.000Z</time>
      </trkpt>
      <trkpt lat="45.22532" lon="6.21375">
        <ele>1800</ele>
        <time>2020-07-19T08:26:20.000Z</time>
      </trkpt>
      <trkpt lat="45.22534" lon="6.21376">
        <ele>1800</ele>
        <time>2020-07-19T08:26:21.000Z</time>
      </trkpt>
      <trkpt lat="45.22536" lon="6.21377">
        <ele>1801</ele>
        <time>2020-07-19T08:26:22.000Z</time>
      </trkpt>
      <trkpt lat="45.22538" lon="6.21378">
        <ele>1801</ele>
        <time>2020-07-19T08:26:23.000Z</time>
      </trkpt>
      <trkpt lat="45.22539" lon="6.21379">
        <ele>1801.1</ele>
        <time>2020-07-19T08:26:24.000Z</time>
      </trkpt>
      <trkpt lat="45.22541" lon="6.2138">
        <ele>1802</ele>
        <time>2020-07-19T08:26:25.000Z</time>
      </trkpt>
      <trkpt lat="45.22543" lon="6.21381">
        <ele>1802</ele>
        <time>2020-07-19T08:26:26.000Z</time>
      </trkpt>
      <trkpt lat="45.22545" lon="6.21382">
        <ele>1802</ele>
        <time>2020-07-19T08:26:27.000Z</time>
      </trkpt>
      <trkpt lat="45.22547" lon="6.21383">
        <ele>1802</ele>
        <time>2020-07-19T08:26:28.000Z</time>
      </trkpt>
      <trkpt lat="45.22548" lon="6.21384">
        <ele>1802</ele>
        <time>2020-07-19T08:26:29.000Z</time>
      </trkpt>
      <trkpt lat="45.2255" lon="6.21385">
        <ele>1802</ele>
        <time>2020-07-19T08:26:30.000Z</time>
      </trkpt>
      <trkpt lat="45.22552" lon="6.21387">
        <ele>1802</ele>
        <time>2020-07-19T08:26:31.000Z</time>
      </trkpt>
      <trkpt lat="45.22554" lon="6.21388">
        <ele>1802</ele>
        <time>2020-07-19T08:26:32.000Z</time>
      </trkpt>
      <trkpt lat="45.22556" lon="6.21389">
        <ele>1802</ele>
        <time>2020-07-19T08:26:33.000Z</time>
      </trkpt>
      <trkpt lat="45.22557" lon="6.2139">
        <ele>1802.1</ele>
        <time>2020-07-19T08:26:34.000Z</time>
      </trkpt>
      <trkpt lat="45.22559" lon="6.21391">
        <ele>1803</ele>
        <time>2020-07-19T08:26:35.000Z</time>
      </trkpt>
      <trkpt lat="45.22561" lon="6.21392">
        <ele>1803</ele>
        <time>2020-07-19T08:26:36.000Z</time>
      </trkpt>
      <trkpt lat="45.22563" lon="6.21393">
        <ele>1803</ele>
        <time>2020-07-19T08:26:37.000Z</time>
      </trkpt>
      <trkpt lat="45.22565" lon="6.21394">
        <ele>1803</ele>
        <time>2020-07-19T08:26:38.000Z</time>
      </trkpt>
      <trkpt lat="45.22566" lon="6.21395">
        <ele>1803.1</ele>
        <time>2020-07-19T08:26:39.000Z</time>
      </trkpt>
      <trkpt lat="45.22568" lon="6.21395">
        <ele>1804</ele>
        <time>2020-07-19T08:26:40.000Z</time>
      </trkpt>
      <trkpt lat="45.2257" lon="6.21396">
        <ele>1804</ele>
        <time>2020-07-19T08:26:41.000Z</time>
      </trkpt>
      <trkpt lat="45.22572" lon="6.21397">
        <ele>1804</ele>
        <time>2020-07-19T08:26:42.000Z</time>
      </trkpt>
      <trkpt lat="45.22574" lon="6.21398">
        <ele>1804</ele>
        <time>2020-07-19T08:26:43.000Z</time>
      </trkpt>
      <trkpt lat="45.22576" lon="6.21399">
        <ele>1804.1</ele>
        <time>2020-07-19T08:26:44.000Z</time>
      </trkpt>
      <trkpt lat="45.22578" lon="6.214">
        <ele>1805</ele>
        <time>2020-07-19T08:26:45.000Z</time>
      </trkpt>
      <trkpt lat="45.22579" lon="6.21402">
        <ele>1805</ele>
        <time>2020-07-19T08:26:46.000Z</time>
      </trkpt>
      <trkpt lat="45.22581" lon="6.21403">
        <ele>1805</ele>
        <time>2020-07-19T08:26:47.000Z</time>
      </trkpt>
      <trkpt lat="45.22583" lon="6.21404">
        <ele>1805</ele>
        <time>2020-07-19T08:26:48.000Z</time>
      </trkpt>
      <trkpt lat="45.22584" lon="6.21406">
        <ele>1805.1</ele>
        <time>2020-07-19T08:26:49.000Z</time>
      </trkpt>
      <trkpt lat="45.22586" lon="6.21407">
        <ele>1805.8</ele>
        <time>2020-07-19T08:26:50.000Z</time>
      </trkpt>
      <trkpt lat="45.22588" lon="6.21408">
        <ele>1806</ele>
        <time>2020-07-19T08:26:51.000Z</time>
      </trkpt>
      <trkpt lat="45.2259" lon="6.21409">
        <ele>1806</ele>
        <time>2020-07-19T08:26:52.000Z</time>
      </trkpt>
      <trkpt lat="45.22591" lon="6.21411">
        <ele>1806.1</ele>
        <time>2020-07-19T08:26:53.000Z</time>
      </trkpt>
      <trkpt lat="45.22593" lon="6.21412">
        <ele>1807</ele>
        <time>2020-07-19T08:26:54.000Z</time>
      </trkpt>
      <trkpt lat="45.22595" lon="6.21413">
        <ele>1807</ele>
        <time>2020-07-19T08:26:55.000Z</time>
      </trkpt>
      <trkpt lat="45.22596" lon="6.21414">
        <ele>1807</ele>
        <time>2020-07-19T08:26:56.000Z</time>
      </trkpt>
      <trkpt lat="45.22598" lon="6.21416">
        <ele>1807</ele>
        <time>2020-07-19T08:26:57.000Z</time>
      </trkpt>
      <trkpt lat="45.226" lon="6.21417">
        <ele>1807</ele>
        <time>2020-07-19T08:26:58.000Z</time>
      </trkpt>
      <trkpt lat="45.22601" lon="6.21419">
        <ele>1807</ele>
        <time>2020-07-19T08:26:59.000Z</time>
      </trkpt>
      <trkpt lat="45.22603" lon="6.2142">
        <ele>1807</ele>
        <time>2020-07-19T08:27:00.000Z</time>
      </trkpt>
      <trkpt lat="45.22605" lon="6.21421">
        <ele>1807</ele>
        <time>2020-07-19T08:27:01.000Z</time>
      </trkpt>
      <trkpt lat="45.22606" lon="6.21423">
        <ele>1807.1</ele>
        <time>2020-07-19T08:27:02.000Z</time>
      </trkpt>
      <trkpt lat="45.22608" lon="6.21424">
        <ele>1808</ele>
        <time>2020-07-19T08:27:03.000Z</time>
      </trkpt>
      <trkpt lat="45.2261" lon="6.21425">
        <ele>1808</ele>
        <time>2020-07-19T08:27:04.000Z</time>
      </trkpt>
      <trkpt lat="45.22611" lon="6.21426">
        <ele>1808</ele>
        <time>2020-07-19T08:27:05.000Z</time>
      </trkpt>
      <trkpt lat="45.22613" lon="6.21427">
        <ele>1808</ele>
        <time>2020-07-19T08:27:06.000Z</time>
      </trkpt>
      <trkpt lat="45.22615" lon="6.21428">
        <ele>1808</ele>
        <time>2020-07-19T08:27:07.000Z</time>
      </trkpt>
      <trkpt lat="45.22618" lon="6.2143">
        <ele>1808</ele>
        <time>2020-07-19T08:27:09.000Z</time>
      </trkpt>
      <trkpt lat="45.2262" lon="6.21431">
        <ele>1808.1</ele>
        <time>2020-07-19T08:27:10.000Z</time>
      </trkpt>
      <trkpt lat="45.22621" lon="6.21433">
        <ele>1809</ele>
        <time>2020-07-19T08:27:11.000Z</time>
      </trkpt>
      <trkpt lat="45.22623" lon="6.21434">
        <ele>1809</ele>
        <time>2020-07-19T08:27:12.000Z</time>
      </trkpt>
      <trkpt lat="45.22624" lon="6.21435">
        <ele>1809</ele>
        <time>2020-07-19T08:27:13.000Z</time>
      </trkpt>
      <trkpt lat="45.22627" lon="6.21438">
        <ele>1809.1</ele>
        <time>2020-07-19T08:27:15.000Z</time>
      </trkpt>
      <trkpt lat="45.22629" lon="6.21439">
        <ele>1810</ele>
        <time>2020-07-19T08:27:16.000Z</time>
      </trkpt>
      <trkpt lat="45.22631" lon="6.21441">
        <ele>1810</ele>
        <time>2020-07-19T08:27:17.000Z</time>
      </trkpt>
      <trkpt lat="45.22632" lon="6.21442">
        <ele>1810</ele>
        <time>2020-07-19T08:27:18.000Z</time>
      </trkpt>
      <trkpt lat="45.22634" lon="6.21443">
        <ele>1810</ele>
        <time>2020-07-19T08:27:19.000Z</time>
      </trkpt>
      <trkpt lat="45.22636" lon="6.21444">
        <ele>1810.1</ele>
        <time>2020-07-19T08:27:20.000Z</time>
      </trkpt>
      <trkpt lat="45.22637" lon="6.21445">
        <ele>1811</ele>
        <time>2020-07-19T08:27:21.000Z</time>
      </trkpt>
      <trkpt lat="45.22639" lon="6.21446">
        <ele>1811</ele>
        <time>2020-07-19T08:27:22.000Z</time>
      </trkpt>
      <trkpt lat="45.22641" lon="6.21448">
        <ele>1811</ele>
        <time>2020-07-19T08:27:23.000Z</time>
      </trkpt>
      <trkpt lat="45.22643" lon="6.21449">
        <ele>1811</ele>
        <time>2020-07-19T08:27:24.000Z</time>
      </trkpt>
      <trkpt lat="45.22644" lon="6.2145">
        <ele>1811</ele>
        <time>2020-07-19T08:27:25.000Z</time>
      </trkpt>
      <trkpt lat="45.22646" lon="6.21452">
        <ele>1811</ele>
        <time>2020-07-19T08:27:26.000Z</time>
      </trkpt>
      <trkpt lat="45.22648" lon="6.21453">
        <ele>1811</ele>
        <time>2020-07-19T08:27:27.000Z</time>
      </trkpt>
      <trkpt lat="45.22649" lon="6.21455">
        <ele>1811</ele>
        <time>2020-07-19T08:27:28.000Z</time>
      </trkpt>
      <trkpt lat="45.22651" lon="6.21456">
        <ele>1812</ele>
        <time>2020-07-19T08:27:29.000Z</time>
      </trkpt>
      <trkpt lat="45.22653" lon="6.21458">
        <ele>1812</ele>
        <time>2020-07-19T08:27:30.000Z</time>
      </trkpt>
      <trkpt lat="45.22655" lon="6.21459">
        <ele>1812</ele>
        <time>2020-07-19T08:27:31.000Z</time>
      </trkpt>
      <trkpt lat="45.22656" lon="6.2146">
        <ele>1812</ele>
        <time>2020-07-19T08:27:32.000Z</time>
      </trkpt>
      <trkpt lat="45.22658" lon="6.21462">
        <ele>1812</ele>
        <time>2020-07-19T08:27:33.000Z</time>
      </trkpt>
      <trkpt lat="45.22659" lon="6.21464">
        <ele>1812</ele>
        <time>2020-07-19T08:27:34.000Z</time>
      </trkpt>
      <trkpt lat="45.22661" lon="6.21465">
        <ele>1812.1</ele>
        <time>2020-07-19T08:27:35.000Z</time>
      </trkpt>
      <trkpt lat="45.22662" lon="6.21467">
        <ele>1813</ele>
        <time>2020-07-19T08:27:36.000Z</time>
      </trkpt>
      <trkpt lat="45.22664" lon="6.21469">
        <ele>1813</ele>
        <time>2020-07-19T08:27:37.000Z</time>
      </trkpt>
      <trkpt lat="45.22665" lon="6.2147">
        <ele>1813</ele>
        <time>2020-07-19T08:27:38.000Z</time>
      </trkpt>
      <trkpt lat="45.22667" lon="6.21472">
        <ele>1813</ele>
        <time>2020-07-19T08:27:39.000Z</time>
      </trkpt>
      <trkpt lat="45.22668" lon="6.21474">
        <ele>1813</ele>
        <time>2020-07-19T08:27:40.000Z</time>
      </trkpt>
      <trkpt lat="45.2267" lon="6.21475">
        <ele>1813.1</ele>
        <time>2020-07-19T08:27:41.000Z</time>
      </trkpt>
      <trkpt lat="45.22671" lon="6.21477">
        <ele>1814</ele>
        <time>2020-07-19T08:27:42.000Z</time>
      </trkpt>
      <trkpt lat="45.22673" lon="6.21479">
        <ele>1814</ele>
        <time>2020-07-19T08:27:43.000Z</time>
      </trkpt>
      <trkpt lat="45.22674" lon="6.2148">
        <ele>1814</ele>
        <time>2020-07-19T08:27:44.000Z</time>
      </trkpt>
      <trkpt lat="45.22676" lon="6.21482">
        <ele>1814.1</ele>
        <time>2020-07-19T08:27:45.000Z</time>
      </trkpt>
      <trkpt lat="45.22677" lon="6.21483">
        <ele>1815</ele>
        <time>2020-07-19T08:27:46.000Z</time>
      </trkpt>
      <trkpt lat="45.22679" lon="6.21485">
        <ele>1815</ele>
        <time>2020-07-19T08:27:47.000Z</time>
      </trkpt>
      <trkpt lat="45.2268" lon="6.21486">
        <ele>1815</ele>
        <time>2020-07-19T08:27:48.000Z</time>
      </trkpt>
      <trkpt lat="45.22682" lon="6.21488">
        <ele>1815</ele>
        <time>2020-07-19T08:27:49.000Z</time>
      </trkpt>
      <trkpt lat="45.22683" lon="6.21489">
        <ele>1815</ele>
        <time>2020-07-19T08:27:50.000Z</time>
      </trkpt>
      <trkpt lat="45.22685" lon="6.21491">
        <ele>1815.1</ele>
        <time>2020-07-19T08:27:51.000Z</time>
      </trkpt>
      <trkpt lat="45.22686" lon="6.21492">
        <ele>1816</ele>
        <time>2020-07-19T08:27:52.000Z</time>
      </trkpt>
      <trkpt lat="45.22688" lon="6.21494">
        <ele>1816</ele>
        <time>2020-07-19T08:27:53.000Z</time>
      </trkpt>
      <trkpt lat="45.2269" lon="6.21495">
        <ele>1816</ele>
        <time>2020-07-19T08:27:54.000Z</time>
      </trkpt>
      <trkpt lat="45.22691" lon="6.21497">
        <ele>1816</ele>
        <time>2020-07-19T08:27:55.000Z</time>
      </trkpt>
      <trkpt lat="45.22693" lon="6.21498">
        <ele>1816</ele>
        <time>2020-07-19T08:27:56.000Z</time>
      </trkpt>
      <trkpt lat="45.22695" lon="6.21501">
        <ele>1817</ele>
        <time>2020-07-19T08:27:58.000Z</time>
      </trkpt>
      <trkpt lat="45.22697" lon="6.21503">
        <ele>1817</ele>
        <time>2020-07-19T08:27:59.000Z</time>
      </trkpt>
      <trkpt lat="45.22699" lon="6.21504">
        <ele>1817</ele>
        <time>2020-07-19T08:28:00.000Z</time>
      </trkpt>
      <trkpt lat="45.227" lon="6.21506">
        <ele>1817</ele>
        <time>2020-07-19T08:28:01.000Z</time>
      </trkpt>
      <trkpt lat="45.22702" lon="6.21507">
        <ele>1817</ele>
        <time>2020-07-19T08:28:02.000Z</time>
      </trkpt>
      <trkpt lat="45.22703" lon="6.21509">
        <ele>1817.1</ele>
        <time>2020-07-19T08:28:03.000Z</time>
      </trkpt>
      <trkpt lat="45.22705" lon="6.2151">
        <ele>1818</ele>
        <time>2020-07-19T08:28:04.000Z</time>
      </trkpt>
      <trkpt lat="45.22706" lon="6.21512">
        <ele>1818</ele>
        <time>2020-07-19T08:28:05.000Z</time>
      </trkpt>
      <trkpt lat="45.22708" lon="6.21514">
        <ele>1818</ele>
        <time>2020-07-19T08:28:06.000Z</time>
      </trkpt>
      <trkpt lat="45.22709" lon="6.21516">
        <ele>1818</ele>
        <time>2020-07-19T08:28:07.000Z</time>
      </trkpt>
      <trkpt lat="45.22711" lon="6.21517">
        <ele>1818</ele>
        <time>2020-07-19T08:28:08.000Z</time>
      </trkpt>
      <trkpt lat="45.22712" lon="6.21519">
        <ele>1818.1</ele>
        <time>2020-07-19T08:28:09.000Z</time>
      </trkpt>
      <trkpt lat="45.22714" lon="6.21521">
        <ele>1819</ele>
        <time>2020-07-19T08:28:10.000Z</time>
      </trkpt>
      <trkpt lat="45.22715" lon="6.21523">
        <ele>1819</ele>
        <time>2020-07-19T08:28:11.000Z</time>
      </trkpt>
      <trkpt lat="45.22717" lon="6.21525">
        <ele>1819</ele>
        <time>2020-07-19T08:28:12.000Z</time>
      </trkpt>
      <trkpt lat="45.22718" lon="6.21527">
        <ele>1819</ele>
        <time>2020-07-19T08:28:13.000Z</time>
      </trkpt>
      <trkpt lat="45.2272" lon="6.21528">
        <ele>1819.1</ele>
        <time>2020-07-19T08:28:14.000Z</time>
      </trkpt>
      <trkpt lat="45.22721" lon="6.2153">
        <ele>1820</ele>
        <time>2020-07-19T08:28:15.000Z</time>
      </trkpt>
      <trkpt lat="45.22723" lon="6.21532">
        <ele>1820</ele>
        <time>2020-07-19T08:28:16.000Z</time>
      </trkpt>
      <trkpt lat="45.22724" lon="6.21534">
        <ele>1820.1</ele>
        <time>2020-07-19T08:28:17.000Z</time>
      </trkpt>
      <trkpt lat="45.22726" lon="6.21536">
        <ele>1821</ele>
        <time>2020-07-19T08:28:18.000Z</time>
      </trkpt>
      <trkpt lat="45.22727" lon="6.21538">
        <ele>1821</ele>
        <time>2020-07-19T08:28:19.000Z</time>
      </trkpt>
      <trkpt lat="45.22728" lon="6.2154">
        <ele>1821</ele>
        <time>2020-07-19T08:28:20.000Z</time>
      </trkpt>
      <trkpt lat="45.2273" lon="6.21542">
        <ele>1821</ele>
        <time>2020-07-19T08:28:21.000Z</time>
      </trkpt>
      <trkpt lat="45.22731" lon="6.21544">
        <ele>1821</ele>
        <time>2020-07-19T08:28:22.000Z</time>
      </trkpt>
      <trkpt lat="45.22732" lon="6.21546">
        <ele>1821</ele>
        <time>2020-07-19T08:28:23.000Z</time>
      </trkpt>
      <trkpt lat="45.22733" lon="6.21548">
        <ele>1821</ele>
        <time>2020-07-19T08:28:24.000Z</time>
      </trkpt>
      <trkpt lat="45.22735" lon="6.2155">
        <ele>1821</ele>
        <time>2020-07-19T08:28:25.000Z</time>
      </trkpt>
      <trkpt lat="45.22736" lon="6.21552">
        <ele>1821</ele>
        <time>2020-07-19T08:28:26.000Z</time>
      </trkpt>
      <trkpt lat="45.22737" lon="6.21554">
        <ele>1821</ele>
        <time>2020-07-19T08:28:27.000Z</time>
      </trkpt>
      <trkpt lat="45.22739" lon="6.21556">
        <ele>1821</ele>
        <time>2020-07-19T08:28:28.000Z</time>
      </trkpt>
      <trkpt lat="45.2274" lon="6.21558">
        <ele>1821</ele>
        <time>2020-07-19T08:28:29.000Z</time>
      </trkpt>
      <trkpt lat="45.22741" lon="6.2156">
        <ele>1821.1</ele>
        <time>2020-07-19T08:28:30.000Z</time>
      </trkpt>
      <trkpt lat="45.22743" lon="6.21562">
        <ele>1822</ele>
        <time>2020-07-19T08:28:31.000Z</time>
      </trkpt>
      <trkpt lat="45.22744" lon="6.21564">
        <ele>1822</ele>
        <time>2020-07-19T08:28:32.000Z</time>
      </trkpt>
      <trkpt lat="45.22745" lon="6.21566">
        <ele>1822</ele>
        <time>2020-07-19T08:28:33.000Z</time>
      </trkpt>
      <trkpt lat="45.22746" lon="6.21568">
        <ele>1822</ele>
        <time>2020-07-19T08:28:34.000Z</time>
      </trkpt>
      <trkpt lat="45.22748" lon="6.2157">
        <ele>1822.1</ele>
        <time>2020-07-19T08:28:35.000Z</time>
      </trkpt>
      <trkpt lat="45.22749" lon="6.21572">
        <ele>1823</ele>
        <time>2020-07-19T08:28:36.000Z</time>
      </trkpt>
      <trkpt lat="45.2275" lon="6.21575">
        <ele>1823</ele>
        <time>2020-07-19T08:28:37.000Z</time>
      </trkpt>
      <trkpt lat="45.22751" lon="6.21577">
        <ele>1823.1</ele>
        <time>2020-07-19T08:28:38.000Z</time>
      </trkpt>
      <trkpt lat="45.22752" lon="6.21579">
        <ele>1824</ele>
        <time>2020-07-19T08:28:39.000Z</time>
      </trkpt>
      <trkpt lat="45.22753" lon="6.21581">
        <ele>1823.9</ele>
        <time>2020-07-19T08:28:40.000Z</time>
      </trkpt>
      <trkpt lat="45.22754" lon="6.21583">
        <ele>1823</ele>
        <time>2020-07-19T08:28:41.000Z</time>
      </trkpt>
      <trkpt lat="45.22756" lon="6.21585">
        <ele>1823.1</ele>
        <time>2020-07-19T08:28:42.000Z</time>
      </trkpt>
      <trkpt lat="45.22757" lon="6.21587">
        <ele>1824</ele>
        <time>2020-07-19T08:28:43.000Z</time>
      </trkpt>
      <trkpt lat="45.22758" lon="6.2159">
        <ele>1824</ele>
        <time>2020-07-19T08:28:44.000Z</time>
      </trkpt>
      <trkpt lat="45.22759" lon="6.21592">
        <ele>1824</ele>
        <time>2020-07-19T08:28:45.000Z</time>
      </trkpt>
      <trkpt lat="45.2276" lon="6.21594">
        <ele>1824.1</ele>
        <time>2020-07-19T08:28:46.000Z</time>
      </trkpt>
      <trkpt lat="45.22761" lon="6.21597">
        <ele>1825</ele>
        <time>2020-07-19T08:28:47.000Z</time>
      </trkpt>
      <trkpt lat="45.22762" lon="6.21599">
        <ele>1825</ele>
        <time>2020-07-19T08:28:48.000Z</time>
      </trkpt>
      <trkpt lat="45.22763" lon="6.21602">
        <ele>1825</ele>
        <time>2020-07-19T08:28:49.000Z</time>
      </trkpt>
      <trkpt lat="45.22764" lon="6.21604">
        <ele>1825</ele>
        <time>2020-07-19T08:28:50.000Z</time>
      </trkpt>
      <trkpt lat="45.22764" lon="6.21607">
        <ele>1825.1</ele>
        <time>2020-07-19T08:28:51.000Z</time>
      </trkpt>
      <trkpt lat="45.22765" lon="6.21609">
        <ele>1826</ele>
        <time>2020-07-19T08:28:52.000Z</time>
      </trkpt>
      <trkpt lat="45.22765" lon="6.21612">
        <ele>1826</ele>
        <time>2020-07-19T08:28:53.000Z</time>
      </trkpt>
      <trkpt lat="45.22766" lon="6.21615">
        <ele>1826</ele>
        <time>2020-07-19T08:28:54.000Z</time>
      </trkpt>
      <trkpt lat="45.22767" lon="6.21618">
        <ele>1826</ele>
        <time>2020-07-19T08:28:55.000Z</time>
      </trkpt>
      <trkpt lat="45.22767" lon="6.2162">
        <ele>1826</ele>
        <time>2020-07-19T08:28:56.000Z</time>
      </trkpt>
      <trkpt lat="45.22768" lon="6.21623">
        <ele>1826</ele>
        <time>2020-07-19T08:28:57.000Z</time>
      </trkpt>
      <trkpt lat="45.22769" lon="6.21625">
        <ele>1826</ele>
        <time>2020-07-19T08:28:58.000Z</time>
      </trkpt>
      <trkpt lat="45.2277" lon="6.21628">
        <ele>1826</ele>
        <time>2020-07-19T08:28:59.000Z</time>
      </trkpt>
      <trkpt lat="45.2277" lon="6.21631">
        <ele>1826.1</ele>
        <time>2020-07-19T08:29:00.000Z</time>
      </trkpt>
      <trkpt lat="45.22771" lon="6.21633">
        <ele>1827</ele>
        <time>2020-07-19T08:29:01.000Z</time>
      </trkpt>
      <trkpt lat="45.22772" lon="6.21636">
        <ele>1827</ele>
        <time>2020-07-19T08:29:02.000Z</time>
      </trkpt>
      <trkpt lat="45.22773" lon="6.21638">
        <ele>1827</ele>
        <time>2020-07-19T08:29:03.000Z</time>
      </trkpt>
      <trkpt lat="45.22774" lon="6.21641">
        <ele>1827.1</ele>
        <time>2020-07-19T08:29:04.000Z</time>
      </trkpt>
      <trkpt lat="45.22775" lon="6.21644">
        <ele>1828</ele>
        <time>2020-07-19T08:29:05.000Z</time>
      </trkpt>
      <trkpt lat="45.22776" lon="6.21646">
        <ele>1828</ele>
        <time>2020-07-19T08:29:06.000Z</time>
      </trkpt>
      <trkpt lat="45.22777" lon="6.21649">
        <ele>1828.1</ele>
        <time>2020-07-19T08:29:07.000Z</time>
      </trkpt>
      <trkpt lat="45.22778" lon="6.21652">
        <ele>1829</ele>
        <time>2020-07-19T08:29:08.000Z</time>
      </trkpt>
      <trkpt lat="45.22779" lon="6.21655">
        <ele>1829</ele>
        <time>2020-07-19T08:29:09.000Z</time>
      </trkpt>
      <trkpt lat="45.2278" lon="6.21657">
        <ele>1829</ele>
        <time>2020-07-19T08:29:10.000Z</time>
      </trkpt>
      <trkpt lat="45.22781" lon="6.2166">
        <ele>1829</ele>
        <time>2020-07-19T08:29:11.000Z</time>
      </trkpt>
      <trkpt lat="45.22781" lon="6.21662">
        <ele>1829</ele>
        <time>2020-07-19T08:29:12.000Z</time>
      </trkpt>
      <trkpt lat="45.22782" lon="6.21665">
        <ele>1829</ele>
        <time>2020-07-19T08:29:13.000Z</time>
      </trkpt>
      <trkpt lat="45.22783" lon="6.21667">
        <ele>1829</ele>
        <time>2020-07-19T08:29:14.000Z</time>
      </trkpt>
      <trkpt lat="45.22784" lon="6.2167">
        <ele>1829</ele>
        <time>2020-07-19T08:29:15.000Z</time>
      </trkpt>
      <trkpt lat="45.22785" lon="6.21673">
        <ele>1829</ele>
        <time>2020-07-19T08:29:16.000Z</time>
      </trkpt>
      <trkpt lat="45.22785" lon="6.21676">
        <ele>1829.1</ele>
        <time>2020-07-19T08:29:17.000Z</time>
      </trkpt>
      <trkpt lat="45.22786" lon="6.21678">
        <ele>1830</ele>
        <time>2020-07-19T08:29:18.000Z</time>
      </trkpt>
      <trkpt lat="45.22787" lon="6.21681">
        <ele>1830</ele>
        <time>2020-07-19T08:29:19.000Z</time>
      </trkpt>
      <trkpt lat="45.22789" lon="6.21683">
        <ele>1830</ele>
        <time>2020-07-19T08:29:20.000Z</time>
      </trkpt>
      <trkpt lat="45.2279" lon="6.21685">
        <ele>1830</ele>
        <time>2020-07-19T08:29:21.000Z</time>
      </trkpt>
      <trkpt lat="45.22793" lon="6.21688">
        <ele>1831</ele>
        <time>2020-07-19T08:29:23.000Z</time>
      </trkpt>
      <trkpt lat="45.22796" lon="6.21688">
        <ele>1831</ele>
        <time>2020-07-19T08:29:25.000Z</time>
      </trkpt>
      <trkpt lat="45.22799" lon="6.21686">
        <ele>1831</ele>
        <time>2020-07-19T08:29:27.000Z</time>
      </trkpt>
      <trkpt lat="45.228" lon="6.21684">
        <ele>1831</ele>
        <time>2020-07-19T08:29:28.000Z</time>
      </trkpt>
      <trkpt lat="45.22801" lon="6.21681">
        <ele>1831</ele>
        <time>2020-07-19T08:29:29.000Z</time>
      </trkpt>
      <trkpt lat="45.22802" lon="6.21678">
        <ele>1831</ele>
        <time>2020-07-19T08:29:30.000Z</time>
      </trkpt>
      <trkpt lat="45.22802" lon="6.21675">
        <ele>1831</ele>
        <time>2020-07-19T08:29:31.000Z</time>
      </trkpt>
      <trkpt lat="45.22802" lon="6.21671">
        <ele>1831</ele>
        <time>2020-07-19T08:29:32.000Z</time>
      </trkpt>
      <trkpt lat="45.22801" lon="6.21668">
        <ele>1831.1</ele>
        <time>2020-07-19T08:29:33.000Z</time>
      </trkpt>
      <trkpt lat="45.228" lon="6.21665">
        <ele>1832</ele>
        <time>2020-07-19T08:29:34.000Z</time>
      </trkpt>
      <trkpt lat="45.228" lon="6.21662">
        <ele>1832</ele>
        <time>2020-07-19T08:29:35.000Z</time>
      </trkpt>
      <trkpt lat="45.22799" lon="6.21658">
        <ele>1832</ele>
        <time>2020-07-19T08:29:36.000Z</time>
      </trkpt>
      <trkpt lat="45.22798" lon="6.21655">
        <ele>1832</ele>
        <time>2020-07-19T08:29:37.000Z</time>
      </trkpt>
      <trkpt lat="45.22797" lon="6.21652">
        <ele>1832</ele>
        <time>2020-07-19T08:29:38.000Z</time>
      </trkpt>
      <trkpt lat="45.22796" lon="6.2165">
        <ele>1832</ele>
        <time>2020-07-19T08:29:39.000Z</time>
      </trkpt>
      <trkpt lat="45.22795" lon="6.21647">
        <ele>1832</ele>
        <time>2020-07-19T08:29:40.000Z</time>
      </trkpt>
      <trkpt lat="45.22794" lon="6.21644">
        <ele>1832</ele>
        <time>2020-07-19T08:29:41.000Z</time>
      </trkpt>
      <trkpt lat="45.22793" lon="6.21641">
        <ele>1832.1</ele>
        <time>2020-07-19T08:29:42.000Z</time>
      </trkpt>
      <trkpt lat="45.22792" lon="6.21639">
        <ele>1833</ele>
        <time>2020-07-19T08:29:43.000Z</time>
      </trkpt>
      <trkpt lat="45.2279" lon="6.21636">
        <ele>1833</ele>
        <time>2020-07-19T08:29:44.000Z</time>
      </trkpt>
      <trkpt lat="45.22789" lon="6.21634">
        <ele>1833</ele>
        <time>2020-07-19T08:29:45.000Z</time>
      </trkpt>
      <trkpt lat="45.22788" lon="6.21632">
        <ele>1833</ele>
        <time>2020-07-19T08:29:46.000Z</time>
      </trkpt>
      <trkpt lat="45.22787" lon="6.21629">
        <ele>1833.1</ele>
        <time>2020-07-19T08:29:47.000Z</time>
      </trkpt>
      <trkpt lat="45.22786" lon="6.21627">
        <ele>1834</ele>
        <time>2020-07-19T08:29:48.000Z</time>
      </trkpt>
      <trkpt lat="45.22786" lon="6.21624">
        <ele>1834</ele>
        <time>2020-07-19T08:29:49.000Z</time>
      </trkpt>
      <trkpt lat="45.22785" lon="6.21621">
        <ele>1834</ele>
        <time>2020-07-19T08:29:50.000Z</time>
      </trkpt>
      <trkpt lat="45.22784" lon="6.21619">
        <ele>1834</ele>
        <time>2020-07-19T08:29:51.000Z</time>
      </trkpt>
      <trkpt lat="45.22783" lon="6.21616">
        <ele>1834</ele>
        <time>2020-07-19T08:29:52.000Z</time>
      </trkpt>
      <trkpt lat="45.22782" lon="6.21614">
        <ele>1834</ele>
        <time>2020-07-19T08:29:53.000Z</time>
      </trkpt>
      <trkpt lat="45.22781" lon="6.21611">
        <ele>1834</ele>
        <time>2020-07-19T08:29:54.000Z</time>
      </trkpt>
      <trkpt lat="45.2278" lon="6.21608">
        <ele>1834</ele>
        <time>2020-07-19T08:29:55.000Z</time>
      </trkpt>
      <trkpt lat="45.2278" lon="6.21606">
        <ele>1834</ele>
        <time>2020-07-19T08:29:56.000Z</time>
      </trkpt>
      <trkpt lat="45.22779" lon="6.21603">
        <ele>1834</ele>
        <time>2020-07-19T08:29:57.000Z</time>
      </trkpt>
      <trkpt lat="45.22779" lon="6.216">
        <ele>1834</ele>
        <time>2020-07-19T08:29:58.000Z</time>
      </trkpt>
      <trkpt lat="45.22778" lon="6.21598">
        <ele>1834.1</ele>
        <time>2020-07-19T08:29:59.000Z</time>
      </trkpt>
      <trkpt lat="45.22777" lon="6.21595">
        <ele>1834.8</ele>
        <time>2020-07-19T08:30:00.000Z</time>
      </trkpt>
      <trkpt lat="45.22776" lon="6.21593">
        <ele>1835</ele>
        <time>2020-07-19T08:30:01.000Z</time>
      </trkpt>
      <trkpt lat="45.22774" lon="6.21587">
        <ele>1835.1</ele>
        <time>2020-07-19T08:30:03.000Z</time>
      </trkpt>
      <trkpt lat="45.22773" lon="6.21584">
        <ele>1836</ele>
        <time>2020-07-19T08:30:04.000Z</time>
      </trkpt>
      <trkpt lat="45.22773" lon="6.21582">
        <ele>1836</ele>
        <time>2020-07-19T08:30:05.000Z</time>
      </trkpt>
      <trkpt lat="45.22772" lon="6.21578">
        <ele>1836</ele>
        <time>2020-07-19T08:30:06.000Z</time>
      </trkpt>
      <trkpt lat="45.22771" lon="6.21575">
        <ele>1836</ele>
        <time>2020-07-19T08:30:07.000Z</time>
      </trkpt>
      <trkpt lat="45.22771" lon="6.21572">
        <ele>1836</ele>
        <time>2020-07-19T08:30:08.000Z</time>
      </trkpt>
      <trkpt lat="45.2277" lon="6.21569">
        <ele>1836</ele>
        <time>2020-07-19T08:30:09.000Z</time>
      </trkpt>
      <trkpt lat="45.22769" lon="6.21566">
        <ele>1836</ele>
        <time>2020-07-19T08:30:10.000Z</time>
      </trkpt>
      <trkpt lat="45.22768" lon="6.21563">
        <ele>1836.1</ele>
        <time>2020-07-19T08:30:11.000Z</time>
      </trkpt>
      <trkpt lat="45.22767" lon="6.21561">
        <ele>1837</ele>
        <time>2020-07-19T08:30:12.000Z</time>
      </trkpt>
      <trkpt lat="45.22766" lon="6.21558">
        <ele>1837.1</ele>
        <time>2020-07-19T08:30:13.000Z</time>
      </trkpt>
      <trkpt lat="45.22766" lon="6.21555">
        <ele>1838</ele>
        <time>2020-07-19T08:30:14.000Z</time>
      </trkpt>
      <trkpt lat="45.22765" lon="6.21553">
        <ele>1838</ele>
        <time>2020-07-19T08:30:15.000Z</time>
      </trkpt>
      <trkpt lat="45.22764" lon="6.21551">
        <ele>1838</ele>
        <time>2020-07-19T08:30:16.000Z</time>
      </trkpt>
      <trkpt lat="45.22762" lon="6.21549">
        <ele>1838</ele>
        <time>2020-07-19T08:30:17.000Z</time>
      </trkpt>
      <trkpt lat="45.22761" lon="6.21547">
        <ele>1838</ele>
        <time>2020-07-19T08:30:18.000Z</time>
      </trkpt>
      <trkpt lat="45.2276" lon="6.21545">
        <ele>1838</ele>
        <time>2020-07-19T08:30:19.000Z</time>
      </trkpt>
      <trkpt lat="45.22759" lon="6.21542">
        <ele>1838</ele>
        <time>2020-07-19T08:30:20.000Z</time>
      </trkpt>
      <trkpt lat="45.22758" lon="6.2154">
        <ele>1838</ele>
        <time>2020-07-19T08:30:21.000Z</time>
      </trkpt>
      <trkpt lat="45.22757" lon="6.21538">
        <ele>1838</ele>
        <time>2020-07-19T08:30:22.000Z</time>
      </trkpt>
      <trkpt lat="45.22755" lon="6.21533">
        <ele>1839</ele>
        <time>2020-07-19T08:30:24.000Z</time>
      </trkpt>
      <trkpt lat="45.22754" lon="6.21531">
        <ele>1839.1</ele>
        <time>2020-07-19T08:30:25.000Z</time>
      </trkpt>
      <trkpt lat="45.22753" lon="6.21529">
        <ele>1840</ele>
        <time>2020-07-19T08:30:26.000Z</time>
      </trkpt>
      <trkpt lat="45.22752" lon="6.21527">
        <ele>1840</ele>
        <time>2020-07-19T08:30:27.000Z</time>
      </trkpt>
      <trkpt lat="45.22751" lon="6.21524">
        <ele>1840</ele>
        <time>2020-07-19T08:30:28.000Z</time>
      </trkpt>
      <trkpt lat="45.2275" lon="6.21522">
        <ele>1840</ele>
        <time>2020-07-19T08:30:29.000Z</time>
      </trkpt>
      <trkpt lat="45.22749" lon="6.2152">
        <ele>1840</ele>
        <time>2020-07-19T08:30:30.000Z</time>
      </trkpt>
      <trkpt lat="45.22748" lon="6.21517">
        <ele>1840</ele>
        <time>2020-07-19T08:30:31.000Z</time>
      </trkpt>
      <trkpt lat="45.22747" lon="6.21515">
        <ele>1840</ele>
        <time>2020-07-19T08:30:32.000Z</time>
      </trkpt>
      <trkpt lat="45.22747" lon="6.21513">
        <ele>1840</ele>
        <time>2020-07-19T08:30:33.000Z</time>
      </trkpt>
      <trkpt lat="45.22746" lon="6.2151">
        <ele>1840.1</ele>
        <time>2020-07-19T08:30:34.000Z</time>
      </trkpt>
      <trkpt lat="45.22745" lon="6.21508">
        <ele>1840.8</ele>
        <time>2020-07-19T08:30:35.000Z</time>
      </trkpt>
      <trkpt lat="45.22744" lon="6.21506">
        <ele>1841</ele>
        <time>2020-07-19T08:30:36.000Z</time>
      </trkpt>
      <trkpt lat="45.22743" lon="6.21503">
        <ele>1841</ele>
        <time>2020-07-19T08:30:37.000Z</time>
      </trkpt>
      <trkpt lat="45.22742" lon="6.21501">
        <ele>1841</ele>
        <time>2020-07-19T08:30:38.000Z</time>
      </trkpt>
      <trkpt lat="45.22741" lon="6.21499">
        <ele>1841</ele>
        <time>2020-07-19T08:30:39.000Z</time>
      </trkpt>
      <trkpt lat="45.2274" lon="6.21497">
        <ele>1841</ele>
        <time>2020-07-19T08:30:40.000Z</time>
      </trkpt>
      <trkpt lat="45.22739" lon="6.21494">
        <ele>1841.1</ele>
        <time>2020-07-19T08:30:41.000Z</time>
      </trkpt>
      <trkpt lat="45.22738" lon="6.21492">
        <ele>1842</ele>
        <time>2020-07-19T08:30:42.000Z</time>
      </trkpt>
      <trkpt lat="45.22737" lon="6.2149">
        <ele>1842</ele>
        <time>2020-07-19T08:30:43.000Z</time>
      </trkpt>
      <trkpt lat="45.22736" lon="6.21488">
        <ele>1842</ele>
        <time>2020-07-19T08:30:44.000Z</time>
      </trkpt>
      <trkpt lat="45.22735" lon="6.21485">
        <ele>1842</ele>
        <time>2020-07-19T08:30:45.000Z</time>
      </trkpt>
      <trkpt lat="45.22734" lon="6.21483">
        <ele>1842</ele>
        <time>2020-07-19T08:30:46.000Z</time>
      </trkpt>
      <trkpt lat="45.22733" lon="6.21481">
        <ele>1842</ele>
        <time>2020-07-19T08:30:47.000Z</time>
      </trkpt>
      <trkpt lat="45.22732" lon="6.21478">
        <ele>1842</ele>
        <time>2020-07-19T08:30:48.000Z</time>
      </trkpt>
      <trkpt lat="45.22731" lon="6.21476">
        <ele>1842</ele>
        <time>2020-07-19T08:30:49.000Z</time>
      </trkpt>
      <trkpt lat="45.2273" lon="6.21474">
        <ele>1842</ele>
        <time>2020-07-19T08:30:50.000Z</time>
      </trkpt>
      <trkpt lat="45.22729" lon="6.21472">
        <ele>1842.1</ele>
        <time>2020-07-19T08:30:51.000Z</time>
      </trkpt>
      <trkpt lat="45.22728" lon="6.2147">
        <ele>1843</ele>
        <time>2020-07-19T08:30:52.000Z</time>
      </trkpt>
      <trkpt lat="45.22727" lon="6.21467">
        <ele>1843.1</ele>
        <time>2020-07-19T08:30:53.000Z</time>
      </trkpt>
      <trkpt lat="45.22725" lon="6.21465">
        <ele>1844</ele>
        <time>2020-07-19T08:30:54.000Z</time>
      </trkpt>
      <trkpt lat="45.22724" lon="6.21463">
        <ele>1844</ele>
        <time>2020-07-19T08:30:55.000Z</time>
      </trkpt>
      <trkpt lat="45.22723" lon="6.21461">
        <ele>1844.1</ele>
        <time>2020-07-19T08:30:56.000Z</time>
      </trkpt>
      <trkpt lat="45.22722" lon="6.21458">
        <ele>1844.8</ele>
        <time>2020-07-19T08:30:57.000Z</time>
      </trkpt>
      <trkpt lat="45.22721" lon="6.21456">
        <ele>1845</ele>
        <time>2020-07-19T08:30:58.000Z</time>
      </trkpt>
      <trkpt lat="45.2272" lon="6.21454">
        <ele>1845</ele>
        <time>2020-07-19T08:30:59.000Z</time>
      </trkpt>
      <trkpt lat="45.22719" lon="6.21451">
        <ele>1845</ele>
        <time>2020-07-19T08:31:00.000Z</time>
      </trkpt>
      <trkpt lat="45.22718" lon="6.21449">
        <ele>1845</ele>
        <time>2020-07-19T08:31:01.000Z</time>
      </trkpt>
      <trkpt lat="45.22717" lon="6.21447">
        <ele>1845</ele>
        <time>2020-07-19T08:31:02.000Z</time>
      </trkpt>
      <trkpt lat="45.22715" lon="6.21445">
        <ele>1845.1</ele>
        <time>2020-07-19T08:31:03.000Z</time>
      </trkpt>
      <trkpt lat="45.22714" lon="6.21443">
        <ele>1846</ele>
        <time>2020-07-19T08:31:04.000Z</time>
      </trkpt>
      <trkpt lat="45.22713" lon="6.21441">
        <ele>1846</ele>
        <time>2020-07-19T08:31:05.000Z</time>
      </trkpt>
      <trkpt lat="45.22712" lon="6.21438">
        <ele>1846</ele>
        <time>2020-07-19T08:31:06.000Z</time>
      </trkpt>
      <trkpt lat="45.22711" lon="6.21436">
        <ele>1846</ele>
        <time>2020-07-19T08:31:07.000Z</time>
      </trkpt>
      <trkpt lat="45.2271" lon="6.21434">
        <ele>1846</ele>
        <time>2020-07-19T08:31:08.000Z</time>
      </trkpt>
      <trkpt lat="45.22709" lon="6.21432">
        <ele>1846</ele>
        <time>2020-07-19T08:31:09.000Z</time>
      </trkpt>
      <trkpt lat="45.22708" lon="6.2143">
        <ele>1846.1</ele>
        <time>2020-07-19T08:31:10.000Z</time>
      </trkpt>
      <trkpt lat="45.22706" lon="6.21428">
        <ele>1847</ele>
        <time>2020-07-19T08:31:11.000Z</time>
      </trkpt>
      <trkpt lat="45.22705" lon="6.21426">
        <ele>1847.1</ele>
        <time>2020-07-19T08:31:12.000Z</time>
      </trkpt>
      <trkpt lat="45.22704" lon="6.21423">
        <ele>1848</ele>
        <time>2020-07-19T08:31:13.000Z</time>
      </trkpt>
      <trkpt lat="45.22703" lon="6.21421">
        <ele>1848.1</ele>
        <time>2020-07-19T08:31:14.000Z</time>
      </trkpt>
      <trkpt lat="45.22702" lon="6.21419">
        <ele>1849</ele>
        <time>2020-07-19T08:31:15.000Z</time>
      </trkpt>
      <trkpt lat="45.22701" lon="6.21416">
        <ele>1849</ele>
        <time>2020-07-19T08:31:16.000Z</time>
      </trkpt>
      <trkpt lat="45.227" lon="6.21414">
        <ele>1849</ele>
        <time>2020-07-19T08:31:17.000Z</time>
      </trkpt>
      <trkpt lat="45.22699" lon="6.21412">
        <ele>1849</ele>
        <time>2020-07-19T08:31:18.000Z</time>
      </trkpt>
      <trkpt lat="45.22698" lon="6.21409">
        <ele>1849</ele>
        <time>2020-07-19T08:31:19.000Z</time>
      </trkpt>
      <trkpt lat="45.22696" lon="6.21407">
        <ele>1849</ele>
        <time>2020-07-19T08:31:20.000Z</time>
      </trkpt>
      <trkpt lat="45.22695" lon="6.21405">
        <ele>1849</ele>
        <time>2020-07-19T08:31:21.000Z</time>
      </trkpt>
      <trkpt lat="45.22694" lon="6.21403">
        <ele>1849</ele>
        <time>2020-07-19T08:31:22.000Z</time>
      </trkpt>
      <trkpt lat="45.22693" lon="6.214">
        <ele>1849</ele>
        <time>2020-07-19T08:31:23.000Z</time>
      </trkpt>
      <trkpt lat="45.22692" lon="6.21398">
        <ele>1849.1</ele>
        <time>2020-07-19T08:31:24.000Z</time>
      </trkpt>
      <trkpt lat="45.22691" lon="6.21396">
        <ele>1850</ele>
        <time>2020-07-19T08:31:25.000Z</time>
      </trkpt>
      <trkpt lat="45.2269" lon="6.21394">
        <ele>1850</ele>
        <time>2020-07-19T08:31:26.000Z</time>
      </trkpt>
      <trkpt lat="45.22689" lon="6.21391">
        <ele>1850</ele>
        <time>2020-07-19T08:31:27.000Z</time>
      </trkpt>
      <trkpt lat="45.22688" lon="6.21389">
        <ele>1850</ele>
        <time>2020-07-19T08:31:28.000Z</time>
      </trkpt>
      <trkpt lat="45.22687" lon="6.21387">
        <ele>1850</ele>
        <time>2020-07-19T08:31:29.000Z</time>
      </trkpt>
      <trkpt lat="45.22685" lon="6.21384">
        <ele>1850.1</ele>
        <time>2020-07-19T08:31:30.000Z</time>
      </trkpt>
      <trkpt lat="45.22684" lon="6.21382">
        <ele>1851</ele>
        <time>2020-07-19T08:31:31.000Z</time>
      </trkpt>
      <trkpt lat="45.22683" lon="6.2138">
        <ele>1851</ele>
        <time>2020-07-19T08:31:32.000Z</time>
      </trkpt>
      <trkpt lat="45.22682" lon="6.21378">
        <ele>1851.1</ele>
        <time>2020-07-19T08:31:33.000Z</time>
      </trkpt>
      <trkpt lat="45.22681" lon="6.21375">
        <ele>1852</ele>
        <time>2020-07-19T08:31:34.000Z</time>
      </trkpt>
      <trkpt lat="45.22679" lon="6.21373">
        <ele>1852</ele>
        <time>2020-07-19T08:31:35.000Z</time>
      </trkpt>
      <trkpt lat="45.22678" lon="6.21371">
        <ele>1852</ele>
        <time>2020-07-19T08:31:36.000Z</time>
      </trkpt>
      <trkpt lat="45.22676" lon="6.21369">
        <ele>1852</ele>
        <time>2020-07-19T08:31:37.000Z</time>
      </trkpt>
      <trkpt lat="45.22675" lon="6.21367">
        <ele>1852</ele>
        <time>2020-07-19T08:31:38.000Z</time>
      </trkpt>
      <trkpt lat="45.22674" lon="6.21365">
        <ele>1852</ele>
        <time>2020-07-19T08:31:39.000Z</time>
      </trkpt>
      <trkpt lat="45.22673" lon="6.21362">
        <ele>1852</ele>
        <time>2020-07-19T08:31:40.000Z</time>
      </trkpt>
      <trkpt lat="45.22671" lon="6.2136">
        <ele>1852</ele>
        <time>2020-07-19T08:31:41.000Z</time>
      </trkpt>
      <trkpt lat="45.2267" lon="6.21358">
        <ele>1852.1</ele>
        <time>2020-07-19T08:31:42.000Z</time>
      </trkpt>
      <trkpt lat="45.22668" lon="6.21356">
        <ele>1853.1</ele>
        <time>2020-07-19T08:31:43.000Z</time>
      </trkpt>
      <trkpt lat="45.22667" lon="6.21354">
        <ele>1854</ele>
        <time>2020-07-19T08:31:44.000Z</time>
      </trkpt>
      <trkpt lat="45.22665" lon="6.21353">
        <ele>1854</ele>
        <time>2020-07-19T08:31:45.000Z</time>
      </trkpt>
      <trkpt lat="45.22663" lon="6.21351">
        <ele>1854</ele>
        <time>2020-07-19T08:31:46.000Z</time>
      </trkpt>
      <trkpt lat="45.22662" lon="6.21349">
        <ele>1854</ele>
        <time>2020-07-19T08:31:47.000Z</time>
      </trkpt>
      <trkpt lat="45.2266" lon="6.21347">
        <ele>1854</ele>
        <time>2020-07-19T08:31:48.000Z</time>
      </trkpt>
      <trkpt lat="45.22659" lon="6.21345">
        <ele>1854</ele>
        <time>2020-07-19T08:31:49.000Z</time>
      </trkpt>
      <trkpt lat="45.22658" lon="6.21344">
        <ele>1854</ele>
        <time>2020-07-19T08:31:50.000Z</time>
      </trkpt>
      <trkpt lat="45.22656" lon="6.21342">
        <ele>1854</ele>
        <time>2020-07-19T08:31:51.000Z</time>
      </trkpt>
      <trkpt lat="45.22655" lon="6.2134">
        <ele>1854</ele>
        <time>2020-07-19T08:31:52.000Z</time>
      </trkpt>
      <trkpt lat="45.22652" lon="6.21338">
        <ele>1854</ele>
        <time>2020-07-19T08:31:54.000Z</time>
      </trkpt>
      <trkpt lat="45.2265" lon="6.21337">
        <ele>1855.1</ele>
        <time>2020-07-19T08:31:55.000Z</time>
      </trkpt>
      <trkpt lat="45.22648" lon="6.21336">
        <ele>1856</ele>
        <time>2020-07-19T08:31:56.000Z</time>
      </trkpt>
      <trkpt lat="45.22647" lon="6.21335">
        <ele>1856</ele>
        <time>2020-07-19T08:31:57.000Z</time>
      </trkpt>
      <trkpt lat="45.22645" lon="6.21333">
        <ele>1856</ele>
        <time>2020-07-19T08:31:58.000Z</time>
      </trkpt>
      <trkpt lat="45.22644" lon="6.21331">
        <ele>1856</ele>
        <time>2020-07-19T08:31:59.000Z</time>
      </trkpt>
      <trkpt lat="45.22643" lon="6.21329">
        <ele>1856</ele>
        <time>2020-07-19T08:32:00.000Z</time>
      </trkpt>
      <trkpt lat="45.2264" lon="6.21325">
        <ele>1856</ele>
        <time>2020-07-19T08:32:02.000Z</time>
      </trkpt>
      <trkpt lat="45.22639" lon="6.21323">
        <ele>1856</ele>
        <time>2020-07-19T08:32:03.000Z</time>
      </trkpt>
      <trkpt lat="45.22638" lon="6.21321">
        <ele>1856</ele>
        <time>2020-07-19T08:32:04.000Z</time>
      </trkpt>
      <trkpt lat="45.22635" lon="6.21318">
        <ele>1856.1</ele>
        <time>2020-07-19T08:32:06.000Z</time>
      </trkpt>
      <trkpt lat="45.22634" lon="6.21316">
        <ele>1857</ele>
        <time>2020-07-19T08:32:07.000Z</time>
      </trkpt>
      <trkpt lat="45.22632" lon="6.21314">
        <ele>1857</ele>
        <time>2020-07-19T08:32:08.000Z</time>
      </trkpt>
      <trkpt lat="45.22631" lon="6.21313">
        <ele>1857</ele>
        <time>2020-07-19T08:32:09.000Z</time>
      </trkpt>
      <trkpt lat="45.22629" lon="6.21311">
        <ele>1857</ele>
        <time>2020-07-19T08:32:10.000Z</time>
      </trkpt>
      <trkpt lat="45.22628" lon="6.21309">
        <ele>1857.1</ele>
        <time>2020-07-19T08:32:11.000Z</time>
      </trkpt>
      <trkpt lat="45.22626" lon="6.21307">
        <ele>1858</ele>
        <time>2020-07-19T08:32:12.000Z</time>
      </trkpt>
      <trkpt lat="45.22624" lon="6.21304">
        <ele>1858</ele>
        <time>2020-07-19T08:32:14.000Z</time>
      </trkpt>
      <trkpt lat="45.22623" lon="6.21301">
        <ele>1858.1</ele>
        <time>2020-07-19T08:32:15.000Z</time>
      </trkpt>
      <trkpt lat="45.22621" lon="6.21298">
        <ele>1859</ele>
        <time>2020-07-19T08:32:17.000Z</time>
      </trkpt>
      <trkpt lat="45.22619" lon="6.21296">
        <ele>1859</ele>
        <time>2020-07-19T08:32:18.000Z</time>
      </trkpt>
      <trkpt lat="45.22618" lon="6.21294">
        <ele>1859</ele>
        <time>2020-07-19T08:32:19.000Z</time>
      </trkpt>
      <trkpt lat="45.22616" lon="6.21292">
        <ele>1859</ele>
        <time>2020-07-19T08:32:20.000Z</time>
      </trkpt>
      <trkpt lat="45.22615" lon="6.2129">
        <ele>1859</ele>
        <time>2020-07-19T08:32:21.000Z</time>
      </trkpt>
      <trkpt lat="45.22614" lon="6.21287">
        <ele>1859</ele>
        <time>2020-07-19T08:32:22.000Z</time>
      </trkpt>
      <trkpt lat="45.22612" lon="6.21285">
        <ele>1859</ele>
        <time>2020-07-19T08:32:23.000Z</time>
      </trkpt>
      <trkpt lat="45.2261" lon="6.21283">
        <ele>1859.1</ele>
        <time>2020-07-19T08:32:24.000Z</time>
      </trkpt>
      <trkpt lat="45.22608" lon="6.21282">
        <ele>1860</ele>
        <time>2020-07-19T08:32:25.000Z</time>
      </trkpt>
      <trkpt lat="45.22607" lon="6.2128">
        <ele>1860</ele>
        <time>2020-07-19T08:32:26.000Z</time>
      </trkpt>
      <trkpt lat="45.22605" lon="6.21278">
        <ele>1860</ele>
        <time>2020-07-19T08:32:27.000Z</time>
      </trkpt>
      <trkpt lat="45.22603" lon="6.21276">
        <ele>1860</ele>
        <time>2020-07-19T08:32:28.000Z</time>
      </trkpt>
      <trkpt lat="45.22601" lon="6.21275">
        <ele>1860.1</ele>
        <time>2020-07-19T08:32:29.000Z</time>
      </trkpt>
      <trkpt lat="45.22599" lon="6.21274">
        <ele>1861</ele>
        <time>2020-07-19T08:32:30.000Z</time>
      </trkpt>
      <trkpt lat="45.22597" lon="6.21272">
        <ele>1861</ele>
        <time>2020-07-19T08:32:31.000Z</time>
      </trkpt>
      <trkpt lat="45.22596" lon="6.21271">
        <ele>1861</ele>
        <time>2020-07-19T08:32:32.000Z</time>
      </trkpt>
      <trkpt lat="45.22594" lon="6.21269">
        <ele>1861</ele>
        <time>2020-07-19T08:32:33.000Z</time>
      </trkpt>
      <trkpt lat="45.22592" lon="6.21268">
        <ele>1861</ele>
        <time>2020-07-19T08:32:34.000Z</time>
      </trkpt>
      <trkpt lat="45.2259" lon="6.21266">
        <ele>1861</ele>
        <time>2020-07-19T08:32:35.000Z</time>
      </trkpt>
      <trkpt lat="45.22589" lon="6.21264">
        <ele>1861</ele>
        <time>2020-07-19T08:32:36.000Z</time>
      </trkpt>
      <trkpt lat="45.22587" lon="6.21262">
        <ele>1861</ele>
        <time>2020-07-19T08:32:37.000Z</time>
      </trkpt>
      <trkpt lat="45.22586" lon="6.2126">
        <ele>1861</ele>
        <time>2020-07-19T08:32:38.000Z</time>
      </trkpt>
      <trkpt lat="45.22586" lon="6.21257">
        <ele>1861.1</ele>
        <time>2020-07-19T08:32:39.000Z</time>
      </trkpt>
      <trkpt lat="45.22586" lon="6.21254">
        <ele>1862</ele>
        <time>2020-07-19T08:32:40.000Z</time>
      </trkpt>
      <trkpt lat="45.22587" lon="6.21252">
        <ele>1862</ele>
        <time>2020-07-19T08:32:41.000Z</time>
      </trkpt>
      <trkpt lat="45.22589" lon="6.2125">
        <ele>1862.1</ele>
        <time>2020-07-19T08:32:42.000Z</time>
      </trkpt>
      <trkpt lat="45.2259" lon="6.2125">
        <ele>1863</ele>
        <time>2020-07-19T08:32:43.000Z</time>
      </trkpt>
      <trkpt lat="45.22592" lon="6.21249">
        <ele>1863</ele>
        <time>2020-07-19T08:32:44.000Z</time>
      </trkpt>
      <trkpt lat="45.22596" lon="6.21251">
        <ele>1863</ele>
        <time>2020-07-19T08:32:46.000Z</time>
      </trkpt>
      <trkpt lat="45.22599" lon="6.21253">
        <ele>1863</ele>
        <time>2020-07-19T08:32:48.000Z</time>
      </trkpt>
      <trkpt lat="45.22602" lon="6.21256">
        <ele>1863</ele>
        <time>2020-07-19T08:32:50.000Z</time>
      </trkpt>
      <trkpt lat="45.22604" lon="6.21259">
        <ele>1863</ele>
        <time>2020-07-19T08:32:52.000Z</time>
      </trkpt>
      <trkpt lat="45.22607" lon="6.21262">
        <ele>1864</ele>
        <time>2020-07-19T08:32:54.000Z</time>
      </trkpt>
      <trkpt lat="45.22609" lon="6.21265">
        <ele>1864</ele>
        <time>2020-07-19T08:32:56.000Z</time>
      </trkpt>
      <trkpt lat="45.22612" lon="6.21267">
        <ele>1864</ele>
        <time>2020-07-19T08:32:58.000Z</time>
      </trkpt>
      <trkpt lat="45.22615" lon="6.2127">
        <ele>1864</ele>
        <time>2020-07-19T08:33:00.000Z</time>
      </trkpt>
      <trkpt lat="45.22618" lon="6.21273">
        <ele>1864</ele>
        <time>2020-07-19T08:33:02.000Z</time>
      </trkpt>
      <trkpt lat="45.2262" lon="6.21276">
        <ele>1865</ele>
        <time>2020-07-19T08:33:04.000Z</time>
      </trkpt>
      <trkpt lat="45.22623" lon="6.21278">
        <ele>1866</ele>
        <time>2020-07-19T08:33:06.000Z</time>
      </trkpt>
      <trkpt lat="45.22626" lon="6.21281">
        <ele>1866</ele>
        <time>2020-07-19T08:33:08.000Z</time>
      </trkpt>
      <trkpt lat="45.22629" lon="6.21284">
        <ele>1866</ele>
        <time>2020-07-19T08:33:10.000Z</time>
      </trkpt>
      <trkpt lat="45.22632" lon="6.21286">
        <ele>1867</ele>
        <time>2020-07-19T08:33:12.000Z</time>
      </trkpt>
      <trkpt lat="45.22635" lon="6.21289">
        <ele>1867</ele>
        <time>2020-07-19T08:33:14.000Z</time>
      </trkpt>
      <trkpt lat="45.22638" lon="6.21291">
        <ele>1868</ele>
        <time>2020-07-19T08:33:16.000Z</time>
      </trkpt>
      <trkpt lat="45.22641" lon="6.21293">
        <ele>1868</ele>
        <time>2020-07-19T08:33:18.000Z</time>
      </trkpt>
      <trkpt lat="45.22644" lon="6.21295">
        <ele>1868</ele>
        <time>2020-07-19T08:33:20.000Z</time>
      </trkpt>
      <trkpt lat="45.22647" lon="6.21297">
        <ele>1868</ele>
        <time>2020-07-19T08:33:22.000Z</time>
      </trkpt>
      <trkpt lat="45.2265" lon="6.21298">
        <ele>1868</ele>
        <time>2020-07-19T08:33:24.000Z</time>
      </trkpt>
      <trkpt lat="45.22653" lon="6.21299">
        <ele>1869</ele>
        <time>2020-07-19T08:33:26.000Z</time>
      </trkpt>
      <trkpt lat="45.22657" lon="6.21301">
        <ele>1869</ele>
        <time>2020-07-19T08:33:28.000Z</time>
      </trkpt>
      <trkpt lat="45.2266" lon="6.21302">
        <ele>1869</ele>
        <time>2020-07-19T08:33:30.000Z</time>
      </trkpt>
      <trkpt lat="45.22663" lon="6.21304">
        <ele>1870</ele>
        <time>2020-07-19T08:33:32.000Z</time>
      </trkpt>
      <trkpt lat="45.22666" lon="6.21306">
        <ele>1870</ele>
        <time>2020-07-19T08:33:34.000Z</time>
      </trkpt>
      <trkpt lat="45.2267" lon="6.21307">
        <ele>1870</ele>
        <time>2020-07-19T08:33:36.000Z</time>
      </trkpt>
      <trkpt lat="45.22673" lon="6.21309">
        <ele>1871</ele>
        <time>2020-07-19T08:33:38.000Z</time>
      </trkpt>
      <trkpt lat="45.22676" lon="6.21311">
        <ele>1871</ele>
        <time>2020-07-19T08:33:40.000Z</time>
      </trkpt>
      <trkpt lat="45.22679" lon="6.21312">
        <ele>1871</ele>
        <time>2020-07-19T08:33:42.000Z</time>
      </trkpt>
      <trkpt lat="45.22683" lon="6.21314">
        <ele>1872</ele>
        <time>2020-07-19T08:33:44.000Z</time>
      </trkpt>
      <trkpt lat="45.22686" lon="6.21315">
        <ele>1872</ele>
        <time>2020-07-19T08:33:46.000Z</time>
      </trkpt>
      <trkpt lat="45.22688" lon="6.21316">
        <ele>1872</ele>
        <time>2020-07-19T08:33:47.000Z</time>
      </trkpt>
      <trkpt lat="45.22689" lon="6.21317">
        <ele>1872</ele>
        <time>2020-07-19T08:33:48.000Z</time>
      </trkpt>
      <trkpt lat="45.22693" lon="6.2132">
        <ele>1873</ele>
        <time>2020-07-19T08:33:50.000Z</time>
      </trkpt>
      <trkpt lat="45.22694" lon="6.21321">
        <ele>1873</ele>
        <time>2020-07-19T08:33:51.000Z</time>
      </trkpt>
      <trkpt lat="45.22696" lon="6.21322">
        <ele>1873</ele>
        <time>2020-07-19T08:33:52.000Z</time>
      </trkpt>
      <trkpt lat="45.22699" lon="6.21324">
        <ele>1873</ele>
        <time>2020-07-19T08:33:54.000Z</time>
      </trkpt>
      <trkpt lat="45.22701" lon="6.21325">
        <ele>1873</ele>
        <time>2020-07-19T08:33:55.000Z</time>
      </trkpt>
      <trkpt lat="45.22702" lon="6.21326">
        <ele>1873</ele>
        <time>2020-07-19T08:33:56.000Z</time>
      </trkpt>
      <trkpt lat="45.22704" lon="6.21327">
        <ele>1873</ele>
        <time>2020-07-19T08:33:57.000Z</time>
      </trkpt>
      <trkpt lat="45.22706" lon="6.21328">
        <ele>1873.1</ele>
        <time>2020-07-19T08:33:58.000Z</time>
      </trkpt>
      <trkpt lat="45.22707" lon="6.21329">
        <ele>1874</ele>
        <time>2020-07-19T08:33:59.000Z</time>
      </trkpt>
      <trkpt lat="45.22709" lon="6.21331">
        <ele>1874</ele>
        <time>2020-07-19T08:34:00.000Z</time>
      </trkpt>
      <trkpt lat="45.2271" lon="6.21332">
        <ele>1874</ele>
        <time>2020-07-19T08:34:01.000Z</time>
      </trkpt>
      <trkpt lat="45.22713" lon="6.21335">
        <ele>1874</ele>
        <time>2020-07-19T08:34:03.000Z</time>
      </trkpt>
      <trkpt lat="45.22715" lon="6.21336">
        <ele>1874</ele>
        <time>2020-07-19T08:34:04.000Z</time>
      </trkpt>
      <trkpt lat="45.22716" lon="6.21338">
        <ele>1874</ele>
        <time>2020-07-19T08:34:05.000Z</time>
      </trkpt>
      <trkpt lat="45.22719" lon="6.21341">
        <ele>1874.8</ele>
        <time>2020-07-19T08:34:07.000Z</time>
      </trkpt>
      <trkpt lat="45.22721" lon="6.21344">
        <ele>1875</ele>
        <time>2020-07-19T08:34:09.000Z</time>
      </trkpt>
      <trkpt lat="45.22724" lon="6.21348">
        <ele>1875.1</ele>
        <time>2020-07-19T08:34:11.000Z</time>
      </trkpt>
      <trkpt lat="45.22726" lon="6.21351">
        <ele>1876</ele>
        <time>2020-07-19T08:34:13.000Z</time>
      </trkpt>
      <trkpt lat="45.22728" lon="6.21353">
        <ele>1876</ele>
        <time>2020-07-19T08:34:14.000Z</time>
      </trkpt>
      <trkpt lat="45.2273" lon="6.21357">
        <ele>1876.1</ele>
        <time>2020-07-19T08:34:16.000Z</time>
      </trkpt>
      <trkpt lat="45.22733" lon="6.21361">
        <ele>1877.1</ele>
        <time>2020-07-19T08:34:18.000Z</time>
      </trkpt>
      <trkpt lat="45.22734" lon="6.21363">
        <ele>1878</ele>
        <time>2020-07-19T08:34:19.000Z</time>
      </trkpt>
      <trkpt lat="45.22736" lon="6.21367">
        <ele>1878</ele>
        <time>2020-07-19T08:34:21.000Z</time>
      </trkpt>
      <trkpt lat="45.22737" lon="6.21369">
        <ele>1878</ele>
        <time>2020-07-19T08:34:22.000Z</time>
      </trkpt>
      <trkpt lat="45.22737" lon="6.21371">
        <ele>1878</ele>
        <time>2020-07-19T08:34:23.000Z</time>
      </trkpt>
      <trkpt lat="45.22739" lon="6.21376">
        <ele>1878.1</ele>
        <time>2020-07-19T08:34:25.000Z</time>
      </trkpt>
      <trkpt lat="45.2274" lon="6.2138">
        <ele>1879</ele>
        <time>2020-07-19T08:34:27.000Z</time>
      </trkpt>
      <trkpt lat="45.22742" lon="6.21385">
        <ele>1879</ele>
        <time>2020-07-19T08:34:29.000Z</time>
      </trkpt>
      <trkpt lat="45.22743" lon="6.2139">
        <ele>1879.1</ele>
        <time>2020-07-19T08:34:31.000Z</time>
      </trkpt>
      <trkpt lat="45.22745" lon="6.21394">
        <ele>1880</ele>
        <time>2020-07-19T08:34:33.000Z</time>
      </trkpt>
      <trkpt lat="45.22746" lon="6.21399">
        <ele>1880</ele>
        <time>2020-07-19T08:34:35.000Z</time>
      </trkpt>
      <trkpt lat="45.22748" lon="6.21403">
        <ele>1881</ele>
        <time>2020-07-19T08:34:37.000Z</time>
      </trkpt>
      <trkpt lat="45.22749" lon="6.21407">
        <ele>1881</ele>
        <time>2020-07-19T08:34:39.000Z</time>
      </trkpt>
      <trkpt lat="45.22751" lon="6.21411">
        <ele>1881</ele>
        <time>2020-07-19T08:34:41.000Z</time>
      </trkpt>
      <trkpt lat="45.22752" lon="6.21416">
        <ele>1881.1</ele>
        <time>2020-07-19T08:34:43.000Z</time>
      </trkpt>
      <trkpt lat="45.22754" lon="6.2142">
        <ele>1882</ele>
        <time>2020-07-19T08:34:45.000Z</time>
      </trkpt>
      <trkpt lat="45.22755" lon="6.21425">
        <ele>1882</ele>
        <time>2020-07-19T08:34:47.000Z</time>
      </trkpt>
      <trkpt lat="45.22756" lon="6.21429">
        <ele>1882</ele>
        <time>2020-07-19T08:34:49.000Z</time>
      </trkpt>
      <trkpt lat="45.22757" lon="6.21432">
        <ele>1882.1</ele>
        <time>2020-07-19T08:34:50.000Z</time>
      </trkpt>
      <trkpt lat="45.22757" lon="6.21435">
        <ele>1883</ele>
        <time>2020-07-19T08:34:51.000Z</time>
      </trkpt>
      <trkpt lat="45.22758" lon="6.21437">
        <ele>1883</ele>
        <time>2020-07-19T08:34:52.000Z</time>
      </trkpt>
      <trkpt lat="45.22759" lon="6.21442">
        <ele>1884</ele>
        <time>2020-07-19T08:34:54.000Z</time>
      </trkpt>
      <trkpt lat="45.2276" lon="6.21446">
        <ele>1884</ele>
        <time>2020-07-19T08:34:56.000Z</time>
      </trkpt>
      <trkpt lat="45.22762" lon="6.2145">
        <ele>1884</ele>
        <time>2020-07-19T08:34:58.000Z</time>
      </trkpt>
      <trkpt lat="45.22763" lon="6.21454">
        <ele>1885</ele>
        <time>2020-07-19T08:35:00.000Z</time>
      </trkpt>
      <trkpt lat="45.22764" lon="6.21458">
        <ele>1885</ele>
        <time>2020-07-19T08:35:02.000Z</time>
      </trkpt>
      <trkpt lat="45.22766" lon="6.21462">
        <ele>1885</ele>
        <time>2020-07-19T08:35:04.000Z</time>
      </trkpt>
      <trkpt lat="45.22767" lon="6.21466">
        <ele>1886</ele>
        <time>2020-07-19T08:35:06.000Z</time>
      </trkpt>
      <trkpt lat="45.22769" lon="6.2147">
        <ele>1886</ele>
        <time>2020-07-19T08:35:08.000Z</time>
      </trkpt>
      <trkpt lat="45.22771" lon="6.21474">
        <ele>1887</ele>
        <time>2020-07-19T08:35:10.000Z</time>
      </trkpt>
      <trkpt lat="45.22773" lon="6.21477">
        <ele>1887</ele>
        <time>2020-07-19T08:35:12.000Z</time>
      </trkpt>
      <trkpt lat="45.22776" lon="6.21481">
        <ele>1887.1</ele>
        <time>2020-07-19T08:35:14.000Z</time>
      </trkpt>
      <trkpt lat="45.22778" lon="6.21484">
        <ele>1888</ele>
        <time>2020-07-19T08:35:16.000Z</time>
      </trkpt>
      <trkpt lat="45.22781" lon="6.21487">
        <ele>1888</ele>
        <time>2020-07-19T08:35:18.000Z</time>
      </trkpt>
      <trkpt lat="45.22783" lon="6.21489">
        <ele>1888</ele>
        <time>2020-07-19T08:35:20.000Z</time>
      </trkpt>
      <trkpt lat="45.22786" lon="6.21492">
        <ele>1888</ele>
        <time>2020-07-19T08:35:22.000Z</time>
      </trkpt>
      <trkpt lat="45.22789" lon="6.21495">
        <ele>1888</ele>
        <time>2020-07-19T08:35:24.000Z</time>
      </trkpt>
      <trkpt lat="45.22792" lon="6.21497">
        <ele>1889</ele>
        <time>2020-07-19T08:35:26.000Z</time>
      </trkpt>
      <trkpt lat="45.22795" lon="6.215">
        <ele>1889.1</ele>
        <time>2020-07-19T08:35:28.000Z</time>
      </trkpt>
      <trkpt lat="45.22798" lon="6.21502">
        <ele>1890</ele>
        <time>2020-07-19T08:35:30.000Z</time>
      </trkpt>
      <trkpt lat="45.22801" lon="6.21504">
        <ele>1891</ele>
        <time>2020-07-19T08:35:32.000Z</time>
      </trkpt>
      <trkpt lat="45.22804" lon="6.21506">
        <ele>1891</ele>
        <time>2020-07-19T08:35:34.000Z</time>
      </trkpt>
      <trkpt lat="45.22807" lon="6.21507">
        <ele>1891</ele>
        <time>2020-07-19T08:35:36.000Z</time>
      </trkpt>
      <trkpt lat="45.22811" lon="6.21509">
        <ele>1892</ele>
        <time>2020-07-19T08:35:38.000Z</time>
      </trkpt>
      <trkpt lat="45.22812" lon="6.2151">
        <ele>1892</ele>
        <time>2020-07-19T08:35:39.000Z</time>
      </trkpt>
      <trkpt lat="45.22814" lon="6.21511">
        <ele>1892.1</ele>
        <time>2020-07-19T08:35:40.000Z</time>
      </trkpt>
      <trkpt lat="45.22816" lon="6.21511">
        <ele>1893</ele>
        <time>2020-07-19T08:35:41.000Z</time>
      </trkpt>
      <trkpt lat="45.22818" lon="6.21512">
        <ele>1893</ele>
        <time>2020-07-19T08:35:42.000Z</time>
      </trkpt>
      <trkpt lat="45.2282" lon="6.21513">
        <ele>1893</ele>
        <time>2020-07-19T08:35:43.000Z</time>
      </trkpt>
      <trkpt lat="45.22821" lon="6.21514">
        <ele>1893</ele>
        <time>2020-07-19T08:35:44.000Z</time>
      </trkpt>
      <trkpt lat="45.22823" lon="6.21515">
        <ele>1893</ele>
        <time>2020-07-19T08:35:45.000Z</time>
      </trkpt>
      <trkpt lat="45.22827" lon="6.21516">
        <ele>1893.1</ele>
        <time>2020-07-19T08:35:47.000Z</time>
      </trkpt>
      <trkpt lat="45.22828" lon="6.21517">
        <ele>1894</ele>
        <time>2020-07-19T08:35:48.000Z</time>
      </trkpt>
      <trkpt lat="45.2283" lon="6.21518">
        <ele>1894</ele>
        <time>2020-07-19T08:35:49.000Z</time>
      </trkpt>
      <trkpt lat="45.22833" lon="6.2152">
        <ele>1894</ele>
        <time>2020-07-19T08:35:51.000Z</time>
      </trkpt>
      <trkpt lat="45.22837" lon="6.21522">
        <ele>1894</ele>
        <time>2020-07-19T08:35:53.000Z</time>
      </trkpt>
      <trkpt lat="45.2284" lon="6.21523">
        <ele>1894</ele>
        <time>2020-07-19T08:35:55.000Z</time>
      </trkpt>
      <trkpt lat="45.22843" lon="6.21525">
        <ele>1894.1</ele>
        <time>2020-07-19T08:35:57.000Z</time>
      </trkpt>
      <trkpt lat="45.22846" lon="6.21527">
        <ele>1895.1</ele>
        <time>2020-07-19T08:35:59.000Z</time>
      </trkpt>
      <trkpt lat="45.22849" lon="6.21528">
        <ele>1896</ele>
        <time>2020-07-19T08:36:01.000Z</time>
      </trkpt>
      <trkpt lat="45.22851" lon="6.21529">
        <ele>1895</ele>
        <time>2020-07-19T08:36:02.000Z</time>
      </trkpt>
      <trkpt lat="45.22854" lon="6.21531">
        <ele>1895</ele>
        <time>2020-07-19T08:36:04.000Z</time>
      </trkpt>
      <trkpt lat="45.22858" lon="6.21533">
        <ele>1896</ele>
        <time>2020-07-19T08:36:06.000Z</time>
      </trkpt>
      <trkpt lat="45.22859" lon="6.21534">
        <ele>1896</ele>
        <time>2020-07-19T08:36:07.000Z</time>
      </trkpt>
      <trkpt lat="45.22861" lon="6.21535">
        <ele>1896</ele>
        <time>2020-07-19T08:36:08.000Z</time>
      </trkpt>
      <trkpt lat="45.22863" lon="6.21535">
        <ele>1896</ele>
        <time>2020-07-19T08:36:09.000Z</time>
      </trkpt>
      <trkpt lat="45.22865" lon="6.21536">
        <ele>1896.1</ele>
        <time>2020-07-19T08:36:10.000Z</time>
      </trkpt>
      <trkpt lat="45.22866" lon="6.21537">
        <ele>1897</ele>
        <time>2020-07-19T08:36:11.000Z</time>
      </trkpt>
      <trkpt lat="45.22868" lon="6.21538">
        <ele>1897</ele>
        <time>2020-07-19T08:36:12.000Z</time>
      </trkpt>
      <trkpt lat="45.2287" lon="6.21538">
        <ele>1897</ele>
        <time>2020-07-19T08:36:13.000Z</time>
      </trkpt>
      <trkpt lat="45.22872" lon="6.21539">
        <ele>1897</ele>
        <time>2020-07-19T08:36:14.000Z</time>
      </trkpt>
      <trkpt lat="45.22873" lon="6.2154">
        <ele>1897</ele>
        <time>2020-07-19T08:36:15.000Z</time>
      </trkpt>
      <trkpt lat="45.22875" lon="6.21541">
        <ele>1897.1</ele>
        <time>2020-07-19T08:36:16.000Z</time>
      </trkpt>
      <trkpt lat="45.22877" lon="6.21542">
        <ele>1898</ele>
        <time>2020-07-19T08:36:17.000Z</time>
      </trkpt>
      <trkpt lat="45.22879" lon="6.21543">
        <ele>1898</ele>
        <time>2020-07-19T08:36:18.000Z</time>
      </trkpt>
      <trkpt lat="45.22881" lon="6.21543">
        <ele>1898</ele>
        <time>2020-07-19T08:36:19.000Z</time>
      </trkpt>
      <trkpt lat="45.22882" lon="6.21544">
        <ele>1898</ele>
        <time>2020-07-19T08:36:20.000Z</time>
      </trkpt>
      <trkpt lat="45.22884" lon="6.21546">
        <ele>1898</ele>
        <time>2020-07-19T08:36:21.000Z</time>
      </trkpt>
      <trkpt lat="45.22886" lon="6.21547">
        <ele>1898</ele>
        <time>2020-07-19T08:36:22.000Z</time>
      </trkpt>
      <trkpt lat="45.22888" lon="6.21549">
        <ele>1898.1</ele>
        <time>2020-07-19T08:36:23.000Z</time>
      </trkpt>
      <trkpt lat="45.22889" lon="6.2155">
        <ele>1899</ele>
        <time>2020-07-19T08:36:24.000Z</time>
      </trkpt>
      <trkpt lat="45.22891" lon="6.21552">
        <ele>1899</ele>
        <time>2020-07-19T08:36:25.000Z</time>
      </trkpt>
      <trkpt lat="45.22892" lon="6.21554">
        <ele>1899</ele>
        <time>2020-07-19T08:36:26.000Z</time>
      </trkpt>
      <trkpt lat="45.22894" lon="6.21555">
        <ele>1899</ele>
        <time>2020-07-19T08:36:27.000Z</time>
      </trkpt>
      <trkpt lat="45.22895" lon="6.21557">
        <ele>1899</ele>
        <time>2020-07-19T08:36:28.000Z</time>
      </trkpt>
      <trkpt lat="45.22897" lon="6.21559">
        <ele>1899.1</ele>
        <time>2020-07-19T08:36:29.000Z</time>
      </trkpt>
      <trkpt lat="45.22898" lon="6.21561">
        <ele>1900</ele>
        <time>2020-07-19T08:36:30.000Z</time>
      </trkpt>
      <trkpt lat="45.22899" lon="6.21563">
        <ele>1900</ele>
        <time>2020-07-19T08:36:31.000Z</time>
      </trkpt>
      <trkpt lat="45.22901" lon="6.21564">
        <ele>1900</ele>
        <time>2020-07-19T08:36:32.000Z</time>
      </trkpt>
      <trkpt lat="45.22902" lon="6.21566">
        <ele>1900</ele>
        <time>2020-07-19T08:36:33.000Z</time>
      </trkpt>
      <trkpt lat="45.22904" lon="6.21567">
        <ele>1900</ele>
        <time>2020-07-19T08:36:34.000Z</time>
      </trkpt>
      <trkpt lat="45.22905" lon="6.21569">
        <ele>1900</ele>
        <time>2020-07-19T08:36:35.000Z</time>
      </trkpt>
      <trkpt lat="45.22906" lon="6.21571">
        <ele>1900</ele>
        <time>2020-07-19T08:36:36.000Z</time>
      </trkpt>
      <trkpt lat="45.22908" lon="6.21573">
        <ele>1900.1</ele>
        <time>2020-07-19T08:36:37.000Z</time>
      </trkpt>
      <trkpt lat="45.22909" lon="6.21575">
        <ele>1901</ele>
        <time>2020-07-19T08:36:38.000Z</time>
      </trkpt>
      <trkpt lat="45.2291" lon="6.21577">
        <ele>1901</ele>
        <time>2020-07-19T08:36:39.000Z</time>
      </trkpt>
      <trkpt lat="45.22912" lon="6.21578">
        <ele>1901</ele>
        <time>2020-07-19T08:36:40.000Z</time>
      </trkpt>
      <trkpt lat="45.22913" lon="6.2158">
        <ele>1901</ele>
        <time>2020-07-19T08:36:41.000Z</time>
      </trkpt>
      <trkpt lat="45.22914" lon="6.21582">
        <ele>1901</ele>
        <time>2020-07-19T08:36:42.000Z</time>
      </trkpt>
      <trkpt lat="45.22917" lon="6.21586">
        <ele>1901.1</ele>
        <time>2020-07-19T08:36:44.000Z</time>
      </trkpt>
      <trkpt lat="45.22919" lon="6.21588">
        <ele>1902</ele>
        <time>2020-07-19T08:36:46.000Z</time>
      </trkpt>
      <trkpt lat="45.22923" lon="6.21591">
        <ele>1902</ele>
        <time>2020-07-19T08:36:48.000Z</time>
      </trkpt>
      <trkpt lat="45.22926" lon="6.21593">
        <ele>1903</ele>
        <time>2020-07-19T08:36:50.000Z</time>
      </trkpt>
      <trkpt lat="45.22929" lon="6.21595">
        <ele>1903</ele>
        <time>2020-07-19T08:36:52.000Z</time>
      </trkpt>
      <trkpt lat="45.22932" lon="6.21597">
        <ele>1903</ele>
        <time>2020-07-19T08:36:54.000Z</time>
      </trkpt>
      <trkpt lat="45.22935" lon="6.21598">
        <ele>1904</ele>
        <time>2020-07-19T08:36:56.000Z</time>
      </trkpt>
      <trkpt lat="45.22937" lon="6.21599">
        <ele>1904</ele>
        <time>2020-07-19T08:36:57.000Z</time>
      </trkpt>
      <trkpt lat="45.2294" lon="6.21601">
        <ele>1904</ele>
        <time>2020-07-19T08:36:59.000Z</time>
      </trkpt>
      <trkpt lat="45.22944" lon="6.21602">
        <ele>1904</ele>
        <time>2020-07-19T08:37:01.000Z</time>
      </trkpt>
      <trkpt lat="45.22946" lon="6.21602">
        <ele>1904</ele>
        <time>2020-07-19T08:37:02.000Z</time>
      </trkpt>
      <trkpt lat="45.22948" lon="6.21603">
        <ele>1904.1</ele>
        <time>2020-07-19T08:37:03.000Z</time>
      </trkpt>
      <trkpt lat="45.22949" lon="6.21603">
        <ele>1905.1</ele>
        <time>2020-07-19T08:37:04.000Z</time>
      </trkpt>
      <trkpt lat="45.22951" lon="6.21604">
        <ele>1906</ele>
        <time>2020-07-19T08:37:05.000Z</time>
      </trkpt>
      <trkpt lat="45.22953" lon="6.21604">
        <ele>1906</ele>
        <time>2020-07-19T08:37:06.000Z</time>
      </trkpt>
      <trkpt lat="45.22955" lon="6.21605">
        <ele>1906</ele>
        <time>2020-07-19T08:37:07.000Z</time>
      </trkpt>
      <trkpt lat="45.22957" lon="6.21605">
        <ele>1906</ele>
        <time>2020-07-19T08:37:08.000Z</time>
      </trkpt>
      <trkpt lat="45.22959" lon="6.21605">
        <ele>1906</ele>
        <time>2020-07-19T08:37:09.000Z</time>
      </trkpt>
      <trkpt lat="45.22961" lon="6.21605">
        <ele>1906.1</ele>
        <time>2020-07-19T08:37:10.000Z</time>
      </trkpt>
      <trkpt lat="45.22963" lon="6.21605">
        <ele>1907</ele>
        <time>2020-07-19T08:37:11.000Z</time>
      </trkpt>
      <trkpt lat="45.22964" lon="6.21605">
        <ele>1907</ele>
        <time>2020-07-19T08:37:12.000Z</time>
      </trkpt>
      <trkpt lat="45.22966" lon="6.21605">
        <ele>1907</ele>
        <time>2020-07-19T08:37:13.000Z</time>
      </trkpt>
      <trkpt lat="45.22968" lon="6.21606">
        <ele>1907</ele>
        <time>2020-07-19T08:37:14.000Z</time>
      </trkpt>
      <trkpt lat="45.2297" lon="6.21606">
        <ele>1907</ele>
        <time>2020-07-19T08:37:15.000Z</time>
      </trkpt>
      <trkpt lat="45.22972" lon="6.21606">
        <ele>1907</ele>
        <time>2020-07-19T08:37:16.000Z</time>
      </trkpt>
      <trkpt lat="45.22974" lon="6.21606">
        <ele>1907</ele>
        <time>2020-07-19T08:37:17.000Z</time>
      </trkpt>
      <trkpt lat="45.22976" lon="6.21606">
        <ele>1908</ele>
        <time>2020-07-19T08:37:18.000Z</time>
      </trkpt>
      <trkpt lat="45.22978" lon="6.21607">
        <ele>1908</ele>
        <time>2020-07-19T08:37:19.000Z</time>
      </trkpt>
      <trkpt lat="45.2298" lon="6.21607">
        <ele>1908</ele>
        <time>2020-07-19T08:37:20.000Z</time>
      </trkpt>
      <trkpt lat="45.22982" lon="6.21607">
        <ele>1908</ele>
        <time>2020-07-19T08:37:21.000Z</time>
      </trkpt>
      <trkpt lat="45.22984" lon="6.21607">
        <ele>1908</ele>
        <time>2020-07-19T08:37:22.000Z</time>
      </trkpt>
      <trkpt lat="45.22986" lon="6.21607">
        <ele>1908</ele>
        <time>2020-07-19T08:37:23.000Z</time>
      </trkpt>
      <trkpt lat="45.22987" lon="6.21608">
        <ele>1908</ele>
        <time>2020-07-19T08:37:24.000Z</time>
      </trkpt>
      <trkpt lat="45.22989" lon="6.21608">
        <ele>1908</ele>
        <time>2020-07-19T08:37:25.000Z</time>
      </trkpt>
      <trkpt lat="45.22991" lon="6.21608">
        <ele>1908.1</ele>
        <time>2020-07-19T08:37:26.000Z</time>
      </trkpt>
      <trkpt lat="45.22993" lon="6.21608">
        <ele>1909</ele>
        <time>2020-07-19T08:37:27.000Z</time>
      </trkpt>
      <trkpt lat="45.22995" lon="6.21608">
        <ele>1909</ele>
        <time>2020-07-19T08:37:28.000Z</time>
      </trkpt>
      <trkpt lat="45.22997" lon="6.21607">
        <ele>1909</ele>
        <time>2020-07-19T08:37:29.000Z</time>
      </trkpt>
      <trkpt lat="45.22999" lon="6.21607">
        <ele>1909</ele>
        <time>2020-07-19T08:37:30.000Z</time>
      </trkpt>
      <trkpt lat="45.23002" lon="6.21607">
        <ele>1909</ele>
        <time>2020-07-19T08:37:32.000Z</time>
      </trkpt>
      <trkpt lat="45.23004" lon="6.21607">
        <ele>1909.1</ele>
        <time>2020-07-19T08:37:33.000Z</time>
      </trkpt>
      <trkpt lat="45.23006" lon="6.21608">
        <ele>1910</ele>
        <time>2020-07-19T08:37:34.000Z</time>
      </trkpt>
      <trkpt lat="45.23008" lon="6.21608">
        <ele>1910</ele>
        <time>2020-07-19T08:37:35.000Z</time>
      </trkpt>
      <trkpt lat="45.23009" lon="6.21608">
        <ele>1910</ele>
        <time>2020-07-19T08:37:36.000Z</time>
      </trkpt>
      <trkpt lat="45.23011" lon="6.21608">
        <ele>1911</ele>
        <time>2020-07-19T08:37:37.000Z</time>
      </trkpt>
      <trkpt lat="45.23013" lon="6.21608">
        <ele>1911</ele>
        <time>2020-07-19T08:37:38.000Z</time>
      </trkpt>
      <trkpt lat="45.23015" lon="6.21608">
        <ele>1911</ele>
        <time>2020-07-19T08:37:39.000Z</time>
      </trkpt>
      <trkpt lat="45.23017" lon="6.21609">
        <ele>1911</ele>
        <time>2020-07-19T08:37:40.000Z</time>
      </trkpt>
      <trkpt lat="45.23019" lon="6.21609">
        <ele>1911</ele>
        <time>2020-07-19T08:37:41.000Z</time>
      </trkpt>
      <trkpt lat="45.23021" lon="6.21609">
        <ele>1911.1</ele>
        <time>2020-07-19T08:37:42.000Z</time>
      </trkpt>
      <trkpt lat="45.23023" lon="6.21609">
        <ele>1912</ele>
        <time>2020-07-19T08:37:43.000Z</time>
      </trkpt>
      <trkpt lat="45.23025" lon="6.2161">
        <ele>1912</ele>
        <time>2020-07-19T08:37:44.000Z</time>
      </trkpt>
      <trkpt lat="45.23026" lon="6.2161">
        <ele>1912</ele>
        <time>2020-07-19T08:37:45.000Z</time>
      </trkpt>
      <trkpt lat="45.23028" lon="6.2161">
        <ele>1912</ele>
        <time>2020-07-19T08:37:46.000Z</time>
      </trkpt>
      <trkpt lat="45.2303" lon="6.2161">
        <ele>1912</ele>
        <time>2020-07-19T08:37:47.000Z</time>
      </trkpt>
      <trkpt lat="45.23032" lon="6.2161">
        <ele>1912</ele>
        <time>2020-07-19T08:37:48.000Z</time>
      </trkpt>
      <trkpt lat="45.23034" lon="6.21611">
        <ele>1912.1</ele>
        <time>2020-07-19T08:37:49.000Z</time>
      </trkpt>
      <trkpt lat="45.23036" lon="6.21611">
        <ele>1913</ele>
        <time>2020-07-19T08:37:50.000Z</time>
      </trkpt>
      <trkpt lat="45.23038" lon="6.21611">
        <ele>1913</ele>
        <time>2020-07-19T08:37:51.000Z</time>
      </trkpt>
      <trkpt lat="45.2304" lon="6.21611">
        <ele>1913.1</ele>
        <time>2020-07-19T08:37:52.000Z</time>
      </trkpt>
      <trkpt lat="45.23042" lon="6.21611">
        <ele>1914</ele>
        <time>2020-07-19T08:37:53.000Z</time>
      </trkpt>
      <trkpt lat="45.23044" lon="6.21611">
        <ele>1914</ele>
        <time>2020-07-19T08:37:54.000Z</time>
      </trkpt>
      <trkpt lat="45.23046" lon="6.21611">
        <ele>1914</ele>
        <time>2020-07-19T08:37:55.000Z</time>
      </trkpt>
      <trkpt lat="45.23047" lon="6.21611">
        <ele>1914</ele>
        <time>2020-07-19T08:37:56.000Z</time>
      </trkpt>
      <trkpt lat="45.23049" lon="6.21612">
        <ele>1914</ele>
        <time>2020-07-19T08:37:57.000Z</time>
      </trkpt>
      <trkpt lat="45.23052" lon="6.21613">
        <ele>1914</ele>
        <time>2020-07-19T08:37:59.000Z</time>
      </trkpt>
      <trkpt lat="45.23056" lon="6.21614">
        <ele>1914</ele>
        <time>2020-07-19T08:38:01.000Z</time>
      </trkpt>
      <trkpt lat="45.23059" lon="6.21615">
        <ele>1915</ele>
        <time>2020-07-19T08:38:03.000Z</time>
      </trkpt>
      <trkpt lat="45.23061" lon="6.21616">
        <ele>1915</ele>
        <time>2020-07-19T08:38:04.000Z</time>
      </trkpt>
      <trkpt lat="45.23063" lon="6.21617">
        <ele>1915</ele>
        <time>2020-07-19T08:38:05.000Z</time>
      </trkpt>
      <trkpt lat="45.23065" lon="6.21619">
        <ele>1915</ele>
        <time>2020-07-19T08:38:06.000Z</time>
      </trkpt>
      <trkpt lat="45.23066" lon="6.2162">
        <ele>1915.1</ele>
        <time>2020-07-19T08:38:07.000Z</time>
      </trkpt>
      <trkpt lat="45.23068" lon="6.21622">
        <ele>1916</ele>
        <time>2020-07-19T08:38:08.000Z</time>
      </trkpt>
      <trkpt lat="45.23069" lon="6.21623">
        <ele>1916.1</ele>
        <time>2020-07-19T08:38:09.000Z</time>
      </trkpt>
      <trkpt lat="45.23071" lon="6.21625">
        <ele>1917</ele>
        <time>2020-07-19T08:38:10.000Z</time>
      </trkpt>
      <trkpt lat="45.23073" lon="6.21627">
        <ele>1917</ele>
        <time>2020-07-19T08:38:11.000Z</time>
      </trkpt>
      <trkpt lat="45.23074" lon="6.21629">
        <ele>1917</ele>
        <time>2020-07-19T08:38:12.000Z</time>
      </trkpt>
      <trkpt lat="45.23075" lon="6.2163">
        <ele>1917.1</ele>
        <time>2020-07-19T08:38:13.000Z</time>
      </trkpt>
      <trkpt lat="45.23077" lon="6.21632">
        <ele>1917.8</ele>
        <time>2020-07-19T08:38:14.000Z</time>
      </trkpt>
      <trkpt lat="45.23078" lon="6.21634">
        <ele>1918</ele>
        <time>2020-07-19T08:38:15.000Z</time>
      </trkpt>
      <trkpt lat="45.23079" lon="6.21636">
        <ele>1918</ele>
        <time>2020-07-19T08:38:16.000Z</time>
      </trkpt>
      <trkpt lat="45.23081" lon="6.21638">
        <ele>1918</ele>
        <time>2020-07-19T08:38:17.000Z</time>
      </trkpt>
      <trkpt lat="45.23082" lon="6.2164">
        <ele>1918</ele>
        <time>2020-07-19T08:38:18.000Z</time>
      </trkpt>
      <trkpt lat="45.23083" lon="6.21642">
        <ele>1918</ele>
        <time>2020-07-19T08:38:19.000Z</time>
      </trkpt>
      <trkpt lat="45.23085" lon="6.21645">
        <ele>1918.1</ele>
        <time>2020-07-19T08:38:20.000Z</time>
      </trkpt>
      <trkpt lat="45.23086" lon="6.21647">
        <ele>1918.8</ele>
        <time>2020-07-19T08:38:21.000Z</time>
      </trkpt>
      <trkpt lat="45.23087" lon="6.21649">
        <ele>1919</ele>
        <time>2020-07-19T08:38:22.000Z</time>
      </trkpt>
      <trkpt lat="45.23088" lon="6.21652">
        <ele>1919</ele>
        <time>2020-07-19T08:38:23.000Z</time>
      </trkpt>
      <trkpt lat="45.23089" lon="6.21654">
        <ele>1919</ele>
        <time>2020-07-19T08:38:24.000Z</time>
      </trkpt>
      <trkpt lat="45.2309" lon="6.21656">
        <ele>1919</ele>
        <time>2020-07-19T08:38:25.000Z</time>
      </trkpt>
      <trkpt lat="45.23091" lon="6.21658">
        <ele>1919</ele>
        <time>2020-07-19T08:38:26.000Z</time>
      </trkpt>
      <trkpt lat="45.23093" lon="6.2166">
        <ele>1919</ele>
        <time>2020-07-19T08:38:27.000Z</time>
      </trkpt>
      <trkpt lat="45.23094" lon="6.21662">
        <ele>1919.1</ele>
        <time>2020-07-19T08:38:28.000Z</time>
      </trkpt>
      <trkpt lat="45.23095" lon="6.21664">
        <ele>1920</ele>
        <time>2020-07-19T08:38:29.000Z</time>
      </trkpt>
      <trkpt lat="45.23096" lon="6.21666">
        <ele>1920</ele>
        <time>2020-07-19T08:38:30.000Z</time>
      </trkpt>
      <trkpt lat="45.23097" lon="6.21668">
        <ele>1920</ele>
        <time>2020-07-19T08:38:31.000Z</time>
      </trkpt>
      <trkpt lat="45.23099" lon="6.2167">
        <ele>1920</ele>
        <time>2020-07-19T08:38:32.000Z</time>
      </trkpt>
      <trkpt lat="45.231" lon="6.21671">
        <ele>1920</ele>
        <time>2020-07-19T08:38:33.000Z</time>
      </trkpt>
      <trkpt lat="45.23104" lon="6.21673">
        <ele>1920</ele>
        <time>2020-07-19T08:38:35.000Z</time>
      </trkpt>
      <trkpt lat="45.23107" lon="6.21673">
        <ele>1920.1</ele>
        <time>2020-07-19T08:38:37.000Z</time>
      </trkpt>
      <trkpt lat="45.23109" lon="6.2167">
        <ele>1921</ele>
        <time>2020-07-19T08:38:39.000Z</time>
      </trkpt>
      <trkpt lat="45.2311" lon="6.21666">
        <ele>1921</ele>
        <time>2020-07-19T08:38:41.000Z</time>
      </trkpt>
      <trkpt lat="45.2311" lon="6.21661">
        <ele>1921</ele>
        <time>2020-07-19T08:38:43.000Z</time>
      </trkpt>
      <trkpt lat="45.23109" lon="6.21658">
        <ele>1921</ele>
        <time>2020-07-19T08:38:44.000Z</time>
      </trkpt>
      <trkpt lat="45.23108" lon="6.21656">
        <ele>1921</ele>
        <time>2020-07-19T08:38:45.000Z</time>
      </trkpt>
      <trkpt lat="45.23107" lon="6.21653">
        <ele>1921</ele>
        <time>2020-07-19T08:38:46.000Z</time>
      </trkpt>
      <trkpt lat="45.23106" lon="6.21651">
        <ele>1921</ele>
        <time>2020-07-19T08:38:47.000Z</time>
      </trkpt>
      <trkpt lat="45.23104" lon="6.21648">
        <ele>1921</ele>
        <time>2020-07-19T08:38:48.000Z</time>
      </trkpt>
      <trkpt lat="45.23103" lon="6.21646">
        <ele>1921.1</ele>
        <time>2020-07-19T08:38:49.000Z</time>
      </trkpt>
      <trkpt lat="45.23102" lon="6.21643">
        <ele>1922</ele>
        <time>2020-07-19T08:38:50.000Z</time>
      </trkpt>
      <trkpt lat="45.23101" lon="6.2164">
        <ele>1922</ele>
        <time>2020-07-19T08:38:51.000Z</time>
      </trkpt>
      <trkpt lat="45.231" lon="6.21638">
        <ele>1922</ele>
        <time>2020-07-19T08:38:52.000Z</time>
      </trkpt>
      <trkpt lat="45.23098" lon="6.21636">
        <ele>1922</ele>
        <time>2020-07-19T08:38:53.000Z</time>
      </trkpt>
      <trkpt lat="45.23097" lon="6.21633">
        <ele>1922</ele>
        <time>2020-07-19T08:38:54.000Z</time>
      </trkpt>
      <trkpt lat="45.23096" lon="6.21631">
        <ele>1922</ele>
        <time>2020-07-19T08:38:55.000Z</time>
      </trkpt>
      <trkpt lat="45.23095" lon="6.21628">
        <ele>1922</ele>
        <time>2020-07-19T08:38:56.000Z</time>
      </trkpt>
      <trkpt lat="45.23094" lon="6.21626">
        <ele>1922</ele>
        <time>2020-07-19T08:38:57.000Z</time>
      </trkpt>
      <trkpt lat="45.23093" lon="6.21623">
        <ele>1922.1</ele>
        <time>2020-07-19T08:38:58.000Z</time>
      </trkpt>
      <trkpt lat="45.23092" lon="6.2162">
        <ele>1923</ele>
        <time>2020-07-19T08:38:59.000Z</time>
      </trkpt>
      <trkpt lat="45.23091" lon="6.21618">
        <ele>1923.1</ele>
        <time>2020-07-19T08:39:00.000Z</time>
      </trkpt>
      <trkpt lat="45.2309" lon="6.21615">
        <ele>1924</ele>
        <time>2020-07-19T08:39:01.000Z</time>
      </trkpt>
      <trkpt lat="45.23089" lon="6.21613">
        <ele>1924</ele>
        <time>2020-07-19T08:39:02.000Z</time>
      </trkpt>
      <trkpt lat="45.23087" lon="6.21611">
        <ele>1924</ele>
        <time>2020-07-19T08:39:03.000Z</time>
      </trkpt>
      <trkpt lat="45.23086" lon="6.21609">
        <ele>1924</ele>
        <time>2020-07-19T08:39:04.000Z</time>
      </trkpt>
      <trkpt lat="45.23084" lon="6.21607">
        <ele>1924</ele>
        <time>2020-07-19T08:39:05.000Z</time>
      </trkpt>
      <trkpt lat="45.23083" lon="6.21605">
        <ele>1924</ele>
        <time>2020-07-19T08:39:06.000Z</time>
      </trkpt>
      <trkpt lat="45.23081" lon="6.21603">
        <ele>1924</ele>
        <time>2020-07-19T08:39:07.000Z</time>
      </trkpt>
      <trkpt lat="45.2308" lon="6.216">
        <ele>1924</ele>
        <time>2020-07-19T08:39:08.000Z</time>
      </trkpt>
      <trkpt lat="45.23079" lon="6.21598">
        <ele>1924.1</ele>
        <time>2020-07-19T08:39:09.000Z</time>
      </trkpt>
      <trkpt lat="45.23077" lon="6.21596">
        <ele>1925</ele>
        <time>2020-07-19T08:39:10.000Z</time>
      </trkpt>
      <trkpt lat="45.23076" lon="6.21594">
        <ele>1925</ele>
        <time>2020-07-19T08:39:11.000Z</time>
      </trkpt>
      <trkpt lat="45.23075" lon="6.21592">
        <ele>1925</ele>
        <time>2020-07-19T08:39:12.000Z</time>
      </trkpt>
      <trkpt lat="45.23074" lon="6.21589">
        <ele>1925</ele>
        <time>2020-07-19T08:39:13.000Z</time>
      </trkpt>
      <trkpt lat="45.23073" lon="6.21587">
        <ele>1925</ele>
        <time>2020-07-19T08:39:14.000Z</time>
      </trkpt>
      <trkpt lat="45.23071" lon="6.21585">
        <ele>1925</ele>
        <time>2020-07-19T08:39:15.000Z</time>
      </trkpt>
      <trkpt lat="45.2307" lon="6.21583">
        <ele>1925</ele>
        <time>2020-07-19T08:39:16.000Z</time>
      </trkpt>
      <trkpt lat="45.23069" lon="6.2158">
        <ele>1925</ele>
        <time>2020-07-19T08:39:17.000Z</time>
      </trkpt>
      <trkpt lat="45.23068" lon="6.21578">
        <ele>1925.1</ele>
        <time>2020-07-19T08:39:18.000Z</time>
      </trkpt>
      <trkpt lat="45.23066" lon="6.21574">
        <ele>1926</ele>
        <time>2020-07-19T08:39:20.000Z</time>
      </trkpt>
      <trkpt lat="45.23063" lon="6.2157">
        <ele>1926</ele>
        <time>2020-07-19T08:39:22.000Z</time>
      </trkpt>
      <trkpt lat="45.23062" lon="6.21568">
        <ele>1926</ele>
        <time>2020-07-19T08:39:23.000Z</time>
      </trkpt>
      <trkpt lat="45.2306" lon="6.21566">
        <ele>1926</ele>
        <time>2020-07-19T08:39:24.000Z</time>
      </trkpt>
      <trkpt lat="45.23059" lon="6.21565">
        <ele>1926.1</ele>
        <time>2020-07-19T08:39:25.000Z</time>
      </trkpt>
      <trkpt lat="45.23058" lon="6.21563">
        <ele>1927.1</ele>
        <time>2020-07-19T08:39:26.000Z</time>
      </trkpt>
      <trkpt lat="45.23057" lon="6.21561">
        <ele>1928</ele>
        <time>2020-07-19T08:39:27.000Z</time>
      </trkpt>
      <trkpt lat="45.23055" lon="6.21559">
        <ele>1928</ele>
        <time>2020-07-19T08:39:28.000Z</time>
      </trkpt>
      <trkpt lat="45.23054" lon="6.21557">
        <ele>1928</ele>
        <time>2020-07-19T08:39:29.000Z</time>
      </trkpt>
      <trkpt lat="45.23052" lon="6.21556">
        <ele>1928</ele>
        <time>2020-07-19T08:39:30.000Z</time>
      </trkpt>
      <trkpt lat="45.2305" lon="6.21554">
        <ele>1929</ele>
        <time>2020-07-19T08:39:31.000Z</time>
      </trkpt>
      <trkpt lat="45.23049" lon="6.21553">
        <ele>1929</ele>
        <time>2020-07-19T08:39:32.000Z</time>
      </trkpt>
      <trkpt lat="45.23047" lon="6.21551">
        <ele>1929</ele>
        <time>2020-07-19T08:39:33.000Z</time>
      </trkpt>
      <trkpt lat="45.23045" lon="6.2155">
        <ele>1929</ele>
        <time>2020-07-19T08:39:34.000Z</time>
      </trkpt>
      <trkpt lat="45.23044" lon="6.21548">
        <ele>1929</ele>
        <time>2020-07-19T08:39:35.000Z</time>
      </trkpt>
      <trkpt lat="45.23042" lon="6.21547">
        <ele>1929</ele>
        <time>2020-07-19T08:39:36.000Z</time>
      </trkpt>
      <trkpt lat="45.2304" lon="6.21545">
        <ele>1929</ele>
        <time>2020-07-19T08:39:37.000Z</time>
      </trkpt>
      <trkpt lat="45.23039" lon="6.21544">
        <ele>1929</ele>
        <time>2020-07-19T08:39:38.000Z</time>
      </trkpt>
      <trkpt lat="45.23037" lon="6.21542">
        <ele>1929.1</ele>
        <time>2020-07-19T08:39:39.000Z</time>
      </trkpt>
      <trkpt lat="45.23035" lon="6.21541">
        <ele>1930</ele>
        <time>2020-07-19T08:39:40.000Z</time>
      </trkpt>
      <trkpt lat="45.23034" lon="6.21539">
        <ele>1930</ele>
        <time>2020-07-19T08:39:41.000Z</time>
      </trkpt>
      <trkpt lat="45.23032" lon="6.21538">
        <ele>1930</ele>
        <time>2020-07-19T08:39:42.000Z</time>
      </trkpt>
      <trkpt lat="45.2303" lon="6.21536">
        <ele>1930</ele>
        <time>2020-07-19T08:39:43.000Z</time>
      </trkpt>
      <trkpt lat="45.23029" lon="6.21535">
        <ele>1930.1</ele>
        <time>2020-07-19T08:39:44.000Z</time>
      </trkpt>
      <trkpt lat="45.23027" lon="6.21534">
        <ele>1931</ele>
        <time>2020-07-19T08:39:45.000Z</time>
      </trkpt>
      <trkpt lat="45.23025" lon="6.21532">
        <ele>1931.1</ele>
        <time>2020-07-19T08:39:46.000Z</time>
      </trkpt>
      <trkpt lat="45.23024" lon="6.21531">
        <ele>1932</ele>
        <time>2020-07-19T08:39:47.000Z</time>
      </trkpt>
      <trkpt lat="45.23022" lon="6.21529">
        <ele>1932</ele>
        <time>2020-07-19T08:39:48.000Z</time>
      </trkpt>
      <trkpt lat="45.23021" lon="6.21528">
        <ele>1932</ele>
        <time>2020-07-19T08:39:49.000Z</time>
      </trkpt>
      <trkpt lat="45.23019" lon="6.21526">
        <ele>1932</ele>
        <time>2020-07-19T08:39:50.000Z</time>
      </trkpt>
      <trkpt lat="45.23017" lon="6.21525">
        <ele>1932</ele>
        <time>2020-07-19T08:39:51.000Z</time>
      </trkpt>
      <trkpt lat="45.23016" lon="6.21524">
        <ele>1932.1</ele>
        <time>2020-07-19T08:39:52.000Z</time>
      </trkpt>
      <trkpt lat="45.23014" lon="6.21523">
        <ele>1933</ele>
        <time>2020-07-19T08:39:53.000Z</time>
      </trkpt>
      <trkpt lat="45.23013" lon="6.21522">
        <ele>1933</ele>
        <time>2020-07-19T08:39:54.000Z</time>
      </trkpt>
      <trkpt lat="45.23011" lon="6.21521">
        <ele>1933</ele>
        <time>2020-07-19T08:39:55.000Z</time>
      </trkpt>
      <trkpt lat="45.23009" lon="6.21519">
        <ele>1933</ele>
        <time>2020-07-19T08:39:56.000Z</time>
      </trkpt>
      <trkpt lat="45.23006" lon="6.21518">
        <ele>1934</ele>
        <time>2020-07-19T08:39:58.000Z</time>
      </trkpt>
      <trkpt lat="45.23004" lon="6.21517">
        <ele>1934</ele>
        <time>2020-07-19T08:39:59.000Z</time>
      </trkpt>
      <trkpt lat="45.23002" lon="6.21516">
        <ele>1934</ele>
        <time>2020-07-19T08:40:00.000Z</time>
      </trkpt>
      <trkpt lat="45.23" lon="6.21515">
        <ele>1934</ele>
        <time>2020-07-19T08:40:01.000Z</time>
      </trkpt>
      <trkpt lat="45.22999" lon="6.21514">
        <ele>1934.1</ele>
        <time>2020-07-19T08:40:02.000Z</time>
      </trkpt>
      <trkpt lat="45.22997" lon="6.21514">
        <ele>1935</ele>
        <time>2020-07-19T08:40:03.000Z</time>
      </trkpt>
      <trkpt lat="45.22995" lon="6.21514">
        <ele>1935</ele>
        <time>2020-07-19T08:40:04.000Z</time>
      </trkpt>
      <trkpt lat="45.22993" lon="6.21514">
        <ele>1935</ele>
        <time>2020-07-19T08:40:05.000Z</time>
      </trkpt>
      <trkpt lat="45.22991" lon="6.21514">
        <ele>1935</ele>
        <time>2020-07-19T08:40:06.000Z</time>
      </trkpt>
      <trkpt lat="45.22989" lon="6.21514">
        <ele>1935</ele>
        <time>2020-07-19T08:40:07.000Z</time>
      </trkpt>
      <trkpt lat="45.22987" lon="6.21513">
        <ele>1935</ele>
        <time>2020-07-19T08:40:08.000Z</time>
      </trkpt>
      <trkpt lat="45.22984" lon="6.21512">
        <ele>1935.1</ele>
        <time>2020-07-19T08:40:10.000Z</time>
      </trkpt>
      <trkpt lat="45.2298" lon="6.21512">
        <ele>1936</ele>
        <time>2020-07-19T08:40:12.000Z</time>
      </trkpt>
      <trkpt lat="45.22977" lon="6.21511">
        <ele>1936</ele>
        <time>2020-07-19T08:40:14.000Z</time>
      </trkpt>
      <trkpt lat="45.22975" lon="6.2151">
        <ele>1936</ele>
        <time>2020-07-19T08:40:15.000Z</time>
      </trkpt>
      <trkpt lat="45.22973" lon="6.2151">
        <ele>1936</ele>
        <time>2020-07-19T08:40:16.000Z</time>
      </trkpt>
      <trkpt lat="45.22971" lon="6.21509">
        <ele>1936</ele>
        <time>2020-07-19T08:40:17.000Z</time>
      </trkpt>
      <trkpt lat="45.22969" lon="6.21508">
        <ele>1936.1</ele>
        <time>2020-07-19T08:40:18.000Z</time>
      </trkpt>
      <trkpt lat="45.22968" lon="6.21508">
        <ele>1937</ele>
        <time>2020-07-19T08:40:19.000Z</time>
      </trkpt>
      <trkpt lat="45.22966" lon="6.21507">
        <ele>1937</ele>
        <time>2020-07-19T08:40:20.000Z</time>
      </trkpt>
      <trkpt lat="45.22964" lon="6.21507">
        <ele>1937</ele>
        <time>2020-07-19T08:40:21.000Z</time>
      </trkpt>
      <trkpt lat="45.22962" lon="6.21506">
        <ele>1937</ele>
        <time>2020-07-19T08:40:22.000Z</time>
      </trkpt>
      <trkpt lat="45.2296" lon="6.21506">
        <ele>1937</ele>
        <time>2020-07-19T08:40:23.000Z</time>
      </trkpt>
      <trkpt lat="45.22958" lon="6.21505">
        <ele>1937</ele>
        <time>2020-07-19T08:40:24.000Z</time>
      </trkpt>
      <trkpt lat="45.22957" lon="6.21505">
        <ele>1937.1</ele>
        <time>2020-07-19T08:40:25.000Z</time>
      </trkpt>
      <trkpt lat="45.22955" lon="6.21504">
        <ele>1938</ele>
        <time>2020-07-19T08:40:26.000Z</time>
      </trkpt>
      <trkpt lat="45.22953" lon="6.21503">
        <ele>1938</ele>
        <time>2020-07-19T08:40:27.000Z</time>
      </trkpt>
      <trkpt lat="45.22951" lon="6.21503">
        <ele>1938</ele>
        <time>2020-07-19T08:40:28.000Z</time>
      </trkpt>
      <trkpt lat="45.22949" lon="6.21502">
        <ele>1938</ele>
        <time>2020-07-19T08:40:29.000Z</time>
      </trkpt>
      <trkpt lat="45.22947" lon="6.21502">
        <ele>1938</ele>
        <time>2020-07-19T08:40:30.000Z</time>
      </trkpt>
      <trkpt lat="45.22946" lon="6.21501">
        <ele>1938</ele>
        <time>2020-07-19T08:40:31.000Z</time>
      </trkpt>
      <trkpt lat="45.22944" lon="6.215">
        <ele>1939</ele>
        <time>2020-07-19T08:40:32.000Z</time>
      </trkpt>
      <trkpt lat="45.22942" lon="6.21499">
        <ele>1939.1</ele>
        <time>2020-07-19T08:40:33.000Z</time>
      </trkpt>
      <trkpt lat="45.2294" lon="6.21498">
        <ele>1940</ele>
        <time>2020-07-19T08:40:34.000Z</time>
      </trkpt>
      <trkpt lat="45.22938" lon="6.21497">
        <ele>1940</ele>
        <time>2020-07-19T08:40:35.000Z</time>
      </trkpt>
      <trkpt lat="45.22937" lon="6.21496">
        <ele>1940</ele>
        <time>2020-07-19T08:40:36.000Z</time>
      </trkpt>
      <trkpt lat="45.22935" lon="6.21494">
        <ele>1940</ele>
        <time>2020-07-19T08:40:37.000Z</time>
      </trkpt>
      <trkpt lat="45.22933" lon="6.21493">
        <ele>1940</ele>
        <time>2020-07-19T08:40:38.000Z</time>
      </trkpt>
      <trkpt lat="45.22932" lon="6.21491">
        <ele>1940</ele>
        <time>2020-07-19T08:40:39.000Z</time>
      </trkpt>
      <trkpt lat="45.2293" lon="6.21489">
        <ele>1940</ele>
        <time>2020-07-19T08:40:40.000Z</time>
      </trkpt>
      <trkpt lat="45.22929" lon="6.21488">
        <ele>1940.1</ele>
        <time>2020-07-19T08:40:41.000Z</time>
      </trkpt>
      <trkpt lat="45.22927" lon="6.21486">
        <ele>1941</ele>
        <time>2020-07-19T08:40:42.000Z</time>
      </trkpt>
      <trkpt lat="45.22926" lon="6.21484">
        <ele>1941</ele>
        <time>2020-07-19T08:40:43.000Z</time>
      </trkpt>
      <trkpt lat="45.22925" lon="6.21482">
        <ele>1941</ele>
        <time>2020-07-19T08:40:44.000Z</time>
      </trkpt>
      <trkpt lat="45.22924" lon="6.2148">
        <ele>1941</ele>
        <time>2020-07-19T08:40:45.000Z</time>
      </trkpt>
      <trkpt lat="45.22923" lon="6.21478">
        <ele>1941</ele>
        <time>2020-07-19T08:40:46.000Z</time>
      </trkpt>
      <trkpt lat="45.22921" lon="6.21473">
        <ele>1942</ele>
        <time>2020-07-19T08:40:48.000Z</time>
      </trkpt>
      <trkpt lat="45.2292" lon="6.21471">
        <ele>1942</ele>
        <time>2020-07-19T08:40:49.000Z</time>
      </trkpt>
      <trkpt lat="45.2292" lon="6.21468">
        <ele>1942</ele>
        <time>2020-07-19T08:40:50.000Z</time>
      </trkpt>
      <trkpt lat="45.22919" lon="6.21465">
        <ele>1942</ele>
        <time>2020-07-19T08:40:51.000Z</time>
      </trkpt>
      <trkpt lat="45.22919" lon="6.21463">
        <ele>1942</ele>
        <time>2020-07-19T08:40:52.000Z</time>
      </trkpt>
      <trkpt lat="45.22918" lon="6.2146">
        <ele>1942</ele>
        <time>2020-07-19T08:40:53.000Z</time>
      </trkpt>
      <trkpt lat="45.22918" lon="6.21457">
        <ele>1942.1</ele>
        <time>2020-07-19T08:40:54.000Z</time>
      </trkpt>
      <trkpt lat="45.22918" lon="6.21454">
        <ele>1943</ele>
        <time>2020-07-19T08:40:55.000Z</time>
      </trkpt>
      <trkpt lat="45.22918" lon="6.21451">
        <ele>1943.1</ele>
        <time>2020-07-19T08:40:56.000Z</time>
      </trkpt>
      <trkpt lat="45.22918" lon="6.21448">
        <ele>1943.8</ele>
        <time>2020-07-19T08:40:57.000Z</time>
      </trkpt>
      <trkpt lat="45.22918" lon="6.21445">
        <ele>1944</ele>
        <time>2020-07-19T08:40:58.000Z</time>
      </trkpt>
      <trkpt lat="45.22918" lon="6.21442">
        <ele>1944</ele>
        <time>2020-07-19T08:40:59.000Z</time>
      </trkpt>
      <trkpt lat="45.22917" lon="6.21439">
        <ele>1944</ele>
        <time>2020-07-19T08:41:00.000Z</time>
      </trkpt>
      <trkpt lat="45.22917" lon="6.21436">
        <ele>1944.1</ele>
        <time>2020-07-19T08:41:01.000Z</time>
      </trkpt>
      <trkpt lat="45.22917" lon="6.21434">
        <ele>1945</ele>
        <time>2020-07-19T08:41:02.000Z</time>
      </trkpt>
      <trkpt lat="45.22917" lon="6.21431">
        <ele>1945</ele>
        <time>2020-07-19T08:41:03.000Z</time>
      </trkpt>
      <trkpt lat="45.22917" lon="6.21428">
        <ele>1945.1</ele>
        <time>2020-07-19T08:41:04.000Z</time>
      </trkpt>
      <trkpt lat="45.22917" lon="6.21425">
        <ele>1945.8</ele>
        <time>2020-07-19T08:41:05.000Z</time>
      </trkpt>
      <trkpt lat="45.22916" lon="6.21422">
        <ele>1946</ele>
        <time>2020-07-19T08:41:06.000Z</time>
      </trkpt>
      <trkpt lat="45.22916" lon="6.21419">
        <ele>1946</ele>
        <time>2020-07-19T08:41:07.000Z</time>
      </trkpt>
      <trkpt lat="45.22915" lon="6.21416">
        <ele>1945.9</ele>
        <time>2020-07-19T08:41:08.000Z</time>
      </trkpt>
      <trkpt lat="45.22915" lon="6.21414">
        <ele>1945</ele>
        <time>2020-07-19T08:41:09.000Z</time>
      </trkpt>
      <trkpt lat="45.22914" lon="6.21411">
        <ele>1945</ele>
        <time>2020-07-19T08:41:10.000Z</time>
      </trkpt>
      <trkpt lat="45.22913" lon="6.21408">
        <ele>1945</ele>
        <time>2020-07-19T08:41:11.000Z</time>
      </trkpt>
      <trkpt lat="45.22912" lon="6.21405">
        <ele>1945.1</ele>
        <time>2020-07-19T08:41:12.000Z</time>
      </trkpt>
      <trkpt lat="45.22911" lon="6.21403">
        <ele>1946</ele>
        <time>2020-07-19T08:41:13.000Z</time>
      </trkpt>
      <trkpt lat="45.2291" lon="6.214">
        <ele>1946</ele>
        <time>2020-07-19T08:41:14.000Z</time>
      </trkpt>
      <trkpt lat="45.22909" lon="6.21398">
        <ele>1946.1</ele>
        <time>2020-07-19T08:41:15.000Z</time>
      </trkpt>
      <trkpt lat="45.22908" lon="6.21395">
        <ele>1947</ele>
        <time>2020-07-19T08:41:16.000Z</time>
      </trkpt>
      <trkpt lat="45.22907" lon="6.21393">
        <ele>1947</ele>
        <time>2020-07-19T08:41:17.000Z</time>
      </trkpt>
      <trkpt lat="45.22906" lon="6.21391">
        <ele>1947</ele>
        <time>2020-07-19T08:41:18.000Z</time>
      </trkpt>
      <trkpt lat="45.22904" lon="6.2139">
        <ele>1947</ele>
        <time>2020-07-19T08:41:19.000Z</time>
      </trkpt>
      <trkpt lat="45.22902" lon="6.21388">
        <ele>1947</ele>
        <time>2020-07-19T08:41:20.000Z</time>
      </trkpt>
      <trkpt lat="45.22901" lon="6.21387">
        <ele>1947</ele>
        <time>2020-07-19T08:41:21.000Z</time>
      </trkpt>
      <trkpt lat="45.22899" lon="6.21385">
        <ele>1947</ele>
        <time>2020-07-19T08:41:22.000Z</time>
      </trkpt>
      <trkpt lat="45.22897" lon="6.21384">
        <ele>1947.1</ele>
        <time>2020-07-19T08:41:23.000Z</time>
      </trkpt>
      <trkpt lat="45.22896" lon="6.21383">
        <ele>1947.8</ele>
        <time>2020-07-19T08:41:24.000Z</time>
      </trkpt>
      <trkpt lat="45.22894" lon="6.21381">
        <ele>1948</ele>
        <time>2020-07-19T08:41:25.000Z</time>
      </trkpt>
      <trkpt lat="45.22892" lon="6.2138">
        <ele>1948</ele>
        <time>2020-07-19T08:41:26.000Z</time>
      </trkpt>
      <trkpt lat="45.22891" lon="6.21379">
        <ele>1948</ele>
        <time>2020-07-19T08:41:27.000Z</time>
      </trkpt>
      <trkpt lat="45.22889" lon="6.21378">
        <ele>1948.1</ele>
        <time>2020-07-19T08:41:28.000Z</time>
      </trkpt>
      <trkpt lat="45.22887" lon="6.21376">
        <ele>1949</ele>
        <time>2020-07-19T08:41:29.000Z</time>
      </trkpt>
      <trkpt lat="45.22886" lon="6.21375">
        <ele>1949</ele>
        <time>2020-07-19T08:41:30.000Z</time>
      </trkpt>
      <trkpt lat="45.22884" lon="6.21374">
        <ele>1949</ele>
        <time>2020-07-19T08:41:31.000Z</time>
      </trkpt>
      <trkpt lat="45.22883" lon="6.21373">
        <ele>1949.1</ele>
        <time>2020-07-19T08:41:32.000Z</time>
      </trkpt>
      <trkpt lat="45.22881" lon="6.21371">
        <ele>1950</ele>
        <time>2020-07-19T08:41:33.000Z</time>
      </trkpt>
      <trkpt lat="45.22879" lon="6.2137">
        <ele>1950</ele>
        <time>2020-07-19T08:41:34.000Z</time>
      </trkpt>
      <trkpt lat="45.22878" lon="6.21369">
        <ele>1950</ele>
        <time>2020-07-19T08:41:35.000Z</time>
      </trkpt>
      <trkpt lat="45.22876" lon="6.21368">
        <ele>1950</ele>
        <time>2020-07-19T08:41:36.000Z</time>
      </trkpt>
      <trkpt lat="45.22875" lon="6.21367">
        <ele>1950</ele>
        <time>2020-07-19T08:41:37.000Z</time>
      </trkpt>
      <trkpt lat="45.22873" lon="6.21365">
        <ele>1950</ele>
        <time>2020-07-19T08:41:38.000Z</time>
      </trkpt>
      <trkpt lat="45.22871" lon="6.21364">
        <ele>1950</ele>
        <time>2020-07-19T08:41:39.000Z</time>
      </trkpt>
      <trkpt lat="45.2287" lon="6.21363">
        <ele>1950</ele>
        <time>2020-07-19T08:41:40.000Z</time>
      </trkpt>
      <trkpt lat="45.22868" lon="6.21361">
        <ele>1950</ele>
        <time>2020-07-19T08:41:41.000Z</time>
      </trkpt>
      <trkpt lat="45.22865" lon="6.21358">
        <ele>1950.8</ele>
        <time>2020-07-19T08:41:43.000Z</time>
      </trkpt>
      <trkpt lat="45.22864" lon="6.21357">
        <ele>1951</ele>
        <time>2020-07-19T08:41:44.000Z</time>
      </trkpt>
      <trkpt lat="45.22861" lon="6.21354">
        <ele>1952</ele>
        <time>2020-07-19T08:41:46.000Z</time>
      </trkpt>
      <trkpt lat="45.22859" lon="6.2135">
        <ele>1952</ele>
        <time>2020-07-19T08:41:48.000Z</time>
      </trkpt>
      <trkpt lat="45.22857" lon="6.21346">
        <ele>1952</ele>
        <time>2020-07-19T08:41:50.000Z</time>
      </trkpt>
      <trkpt lat="45.22857" lon="6.21341">
        <ele>1952</ele>
        <time>2020-07-19T08:41:52.000Z</time>
      </trkpt>
      <trkpt lat="45.22857" lon="6.21338">
        <ele>1952</ele>
        <time>2020-07-19T08:41:53.000Z</time>
      </trkpt>
      <trkpt lat="45.22857" lon="6.21335">
        <ele>1952</ele>
        <time>2020-07-19T08:41:54.000Z</time>
      </trkpt>
      <trkpt lat="45.22858" lon="6.21333">
        <ele>1952.1</ele>
        <time>2020-07-19T08:41:55.000Z</time>
      </trkpt>
      <trkpt lat="45.22858" lon="6.2133">
        <ele>1953</ele>
        <time>2020-07-19T08:41:56.000Z</time>
      </trkpt>
      <trkpt lat="45.22859" lon="6.21328">
        <ele>1953</ele>
        <time>2020-07-19T08:41:57.000Z</time>
      </trkpt>
      <trkpt lat="45.2286" lon="6.21323">
        <ele>1953</ele>
        <time>2020-07-19T08:41:59.000Z</time>
      </trkpt>
      <trkpt lat="45.22861" lon="6.2132">
        <ele>1953</ele>
        <time>2020-07-19T08:42:00.000Z</time>
      </trkpt>
      <trkpt lat="45.22861" lon="6.21318">
        <ele>1953.1</ele>
        <time>2020-07-19T08:42:01.000Z</time>
      </trkpt>
      <trkpt lat="45.22862" lon="6.21316">
        <ele>1953.8</ele>
        <time>2020-07-19T08:42:02.000Z</time>
      </trkpt>
      <trkpt lat="45.22863" lon="6.21314">
        <ele>1954</ele>
        <time>2020-07-19T08:42:03.000Z</time>
      </trkpt>
      <trkpt lat="45.22865" lon="6.21309">
        <ele>1955</ele>
        <time>2020-07-19T08:42:05.000Z</time>
      </trkpt>
      <trkpt lat="45.22866" lon="6.21307">
        <ele>1955</ele>
        <time>2020-07-19T08:42:06.000Z</time>
      </trkpt>
      <trkpt lat="45.22868" lon="6.21303">
        <ele>1955</ele>
        <time>2020-07-19T08:42:08.000Z</time>
      </trkpt>
      <trkpt lat="45.2287" lon="6.21299">
        <ele>1955.1</ele>
        <time>2020-07-19T08:42:10.000Z</time>
      </trkpt>
      <trkpt lat="45.22872" lon="6.21295">
        <ele>1956</ele>
        <time>2020-07-19T08:42:12.000Z</time>
      </trkpt>
      <trkpt lat="45.22874" lon="6.21291">
        <ele>1956.1</ele>
        <time>2020-07-19T08:42:14.000Z</time>
      </trkpt>
      <trkpt lat="45.22876" lon="6.21287">
        <ele>1957</ele>
        <time>2020-07-19T08:42:16.000Z</time>
      </trkpt>
      <trkpt lat="45.22878" lon="6.21283">
        <ele>1957</ele>
        <time>2020-07-19T08:42:18.000Z</time>
      </trkpt>
      <trkpt lat="45.2288" lon="6.21279">
        <ele>1957</ele>
        <time>2020-07-19T08:42:20.000Z</time>
      </trkpt>
      <trkpt lat="45.22883" lon="6.21276">
        <ele>1958</ele>
        <time>2020-07-19T08:42:22.000Z</time>
      </trkpt>
      <trkpt lat="45.22885" lon="6.21273">
        <ele>1958</ele>
        <time>2020-07-19T08:42:24.000Z</time>
      </trkpt>
      <trkpt lat="45.22887" lon="6.21269">
        <ele>1958</ele>
        <time>2020-07-19T08:42:26.000Z</time>
      </trkpt>
      <trkpt lat="45.22889" lon="6.21266">
        <ele>1959</ele>
        <time>2020-07-19T08:42:28.000Z</time>
      </trkpt>
      <trkpt lat="45.2289" lon="6.21262">
        <ele>1960</ele>
        <time>2020-07-19T08:42:30.000Z</time>
      </trkpt>
      <trkpt lat="45.22892" lon="6.21258">
        <ele>1960</ele>
        <time>2020-07-19T08:42:32.000Z</time>
      </trkpt>
      <trkpt lat="45.22893" lon="6.21254">
        <ele>1960</ele>
        <time>2020-07-19T08:42:34.000Z</time>
      </trkpt>
      <trkpt lat="45.22894" lon="6.21249">
        <ele>1961</ele>
        <time>2020-07-19T08:42:36.000Z</time>
      </trkpt>
      <trkpt lat="45.22895" lon="6.21245">
        <ele>1961</ele>
        <time>2020-07-19T08:42:38.000Z</time>
      </trkpt>
      <trkpt lat="45.22895" lon="6.2124">
        <ele>1961</ele>
        <time>2020-07-19T08:42:40.000Z</time>
      </trkpt>
      <trkpt lat="45.22896" lon="6.21235">
        <ele>1962</ele>
        <time>2020-07-19T08:42:42.000Z</time>
      </trkpt>
      <trkpt lat="45.22896" lon="6.21232">
        <ele>1962</ele>
        <time>2020-07-19T08:42:43.000Z</time>
      </trkpt>
      <trkpt lat="45.22896" lon="6.2123">
        <ele>1962</ele>
        <time>2020-07-19T08:42:44.000Z</time>
      </trkpt>
      <trkpt lat="45.22897" lon="6.21225">
        <ele>1962</ele>
        <time>2020-07-19T08:42:46.000Z</time>
      </trkpt>
      <trkpt lat="45.22897" lon="6.2122">
        <ele>1962</ele>
        <time>2020-07-19T08:42:48.000Z</time>
      </trkpt>
      <trkpt lat="45.22898" lon="6.21216">
        <ele>1962</ele>
        <time>2020-07-19T08:42:50.000Z</time>
      </trkpt>
      <trkpt lat="45.22898" lon="6.21211">
        <ele>1963</ele>
        <time>2020-07-19T08:42:52.000Z</time>
      </trkpt>
      <trkpt lat="45.22898" lon="6.21206">
        <ele>1964</ele>
        <time>2020-07-19T08:42:54.000Z</time>
      </trkpt>
      <trkpt lat="45.22897" lon="6.21202">
        <ele>1964</ele>
        <time>2020-07-19T08:42:56.000Z</time>
      </trkpt>
      <trkpt lat="45.22897" lon="6.21197">
        <ele>1964</ele>
        <time>2020-07-19T08:42:58.000Z</time>
      </trkpt>
      <trkpt lat="45.22896" lon="6.21192">
        <ele>1964.1</ele>
        <time>2020-07-19T08:43:00.000Z</time>
      </trkpt>
      <trkpt lat="45.22896" lon="6.21187">
        <ele>1965</ele>
        <time>2020-07-19T08:43:02.000Z</time>
      </trkpt>
      <trkpt lat="45.22896" lon="6.21183">
        <ele>1965.1</ele>
        <time>2020-07-19T08:43:04.000Z</time>
      </trkpt>
      <trkpt lat="45.22896" lon="6.21178">
        <ele>1966</ele>
        <time>2020-07-19T08:43:06.000Z</time>
      </trkpt>
      <trkpt lat="45.22896" lon="6.21173">
        <ele>1967</ele>
        <time>2020-07-19T08:43:08.000Z</time>
      </trkpt>
      <trkpt lat="45.22896" lon="6.21168">
        <ele>1967</ele>
        <time>2020-07-19T08:43:10.000Z</time>
      </trkpt>
      <trkpt lat="45.22895" lon="6.21165">
        <ele>1967</ele>
        <time>2020-07-19T08:43:11.000Z</time>
      </trkpt>
      <trkpt lat="45.22895" lon="6.21162">
        <ele>1967</ele>
        <time>2020-07-19T08:43:12.000Z</time>
      </trkpt>
      <trkpt lat="45.22895" lon="6.2116">
        <ele>1967</ele>
        <time>2020-07-19T08:43:13.000Z</time>
      </trkpt>
      <trkpt lat="45.22895" lon="6.21157">
        <ele>1967</ele>
        <time>2020-07-19T08:43:14.000Z</time>
      </trkpt>
      <trkpt lat="45.22894" lon="6.21152">
        <ele>1967.8</ele>
        <time>2020-07-19T08:43:16.000Z</time>
      </trkpt>
      <trkpt lat="45.22893" lon="6.2115">
        <ele>1968</ele>
        <time>2020-07-19T08:43:17.000Z</time>
      </trkpt>
      <trkpt lat="45.22893" lon="6.21147">
        <ele>1968</ele>
        <time>2020-07-19T08:43:18.000Z</time>
      </trkpt>
      <trkpt lat="45.22892" lon="6.21144">
        <ele>1968</ele>
        <time>2020-07-19T08:43:19.000Z</time>
      </trkpt>
      <trkpt lat="45.22892" lon="6.21142">
        <ele>1968.1</ele>
        <time>2020-07-19T08:43:20.000Z</time>
      </trkpt>
      <trkpt lat="45.22891" lon="6.2114">
        <ele>1969</ele>
        <time>2020-07-19T08:43:21.000Z</time>
      </trkpt>
      <trkpt lat="45.22891" lon="6.21137">
        <ele>1969</ele>
        <time>2020-07-19T08:43:22.000Z</time>
      </trkpt>
      <trkpt lat="45.2289" lon="6.21132">
        <ele>1969</ele>
        <time>2020-07-19T08:43:24.000Z</time>
      </trkpt>
      <trkpt lat="45.22889" lon="6.21127">
        <ele>1970</ele>
        <time>2020-07-19T08:43:26.000Z</time>
      </trkpt>
      <trkpt lat="45.22888" lon="6.21125">
        <ele>1970</ele>
        <time>2020-07-19T08:43:27.000Z</time>
      </trkpt>
      <trkpt lat="45.22888" lon="6.21122">
        <ele>1970</ele>
        <time>2020-07-19T08:43:28.000Z</time>
      </trkpt>
      <trkpt lat="45.22888" lon="6.2112">
        <ele>1970</ele>
        <time>2020-07-19T08:43:29.000Z</time>
      </trkpt>
      <trkpt lat="45.22887" lon="6.21117">
        <ele>1970</ele>
        <time>2020-07-19T08:43:30.000Z</time>
      </trkpt>
      <trkpt lat="45.22887" lon="6.21115">
        <ele>1970</ele>
        <time>2020-07-19T08:43:31.000Z</time>
      </trkpt>
      <trkpt lat="45.22887" lon="6.21112">
        <ele>1970.1</ele>
        <time>2020-07-19T08:43:32.000Z</time>
      </trkpt>
      <trkpt lat="45.22888" lon="6.2111">
        <ele>1971</ele>
        <time>2020-07-19T08:43:33.000Z</time>
      </trkpt>
      <trkpt lat="45.22888" lon="6.21107">
        <ele>1971</ele>
        <time>2020-07-19T08:43:34.000Z</time>
      </trkpt>
      <trkpt lat="45.22888" lon="6.21102">
        <ele>1972</ele>
        <time>2020-07-19T08:43:36.000Z</time>
      </trkpt>
      <trkpt lat="45.22889" lon="6.21097">
        <ele>1971.1</ele>
        <time>2020-07-19T08:43:38.000Z</time>
      </trkpt>
      <trkpt lat="45.2289" lon="6.21095">
        <ele>1972</ele>
        <time>2020-07-19T08:43:39.000Z</time>
      </trkpt>
      <trkpt lat="45.22891" lon="6.2109">
        <ele>1972</ele>
        <time>2020-07-19T08:43:41.000Z</time>
      </trkpt>
      <trkpt lat="45.22892" lon="6.21086">
        <ele>1972.1</ele>
        <time>2020-07-19T08:43:43.000Z</time>
      </trkpt>
      <trkpt lat="45.22894" lon="6.21081">
        <ele>1973</ele>
        <time>2020-07-19T08:43:45.000Z</time>
      </trkpt>
      <trkpt lat="45.22895" lon="6.21076">
        <ele>1973</ele>
        <time>2020-07-19T08:43:47.000Z</time>
      </trkpt>
      <trkpt lat="45.22895" lon="6.21074">
        <ele>1973.1</ele>
        <time>2020-07-19T08:43:48.000Z</time>
      </trkpt>
      <trkpt lat="45.22896" lon="6.21069">
        <ele>1974</ele>
        <time>2020-07-19T08:43:50.000Z</time>
      </trkpt>
      <trkpt lat="45.22897" lon="6.21064">
        <ele>1974</ele>
        <time>2020-07-19T08:43:52.000Z</time>
      </trkpt>
      <trkpt lat="45.22898" lon="6.2106">
        <ele>1974</ele>
        <time>2020-07-19T08:43:54.000Z</time>
      </trkpt>
      <trkpt lat="45.22898" lon="6.21057">
        <ele>1974.1</ele>
        <time>2020-07-19T08:43:55.000Z</time>
      </trkpt>
      <trkpt lat="45.22899" lon="6.21052">
        <ele>1976</ele>
        <time>2020-07-19T08:43:57.000Z</time>
      </trkpt>
      <trkpt lat="45.22899" lon="6.21047">
        <ele>1977</ele>
        <time>2020-07-19T08:43:59.000Z</time>
      </trkpt>
      <trkpt lat="45.22899" lon="6.21043">
        <ele>1977</ele>
        <time>2020-07-19T08:44:01.000Z</time>
      </trkpt>
      <trkpt lat="45.22899" lon="6.21038">
        <ele>1977.1</ele>
        <time>2020-07-19T08:44:03.000Z</time>
      </trkpt>
      <trkpt lat="45.229" lon="6.21033">
        <ele>1978.1</ele>
        <time>2020-07-19T08:44:05.000Z</time>
      </trkpt>
      <trkpt lat="45.22901" lon="6.21028">
        <ele>1979</ele>
        <time>2020-07-19T08:44:07.000Z</time>
      </trkpt>
      <trkpt lat="45.22901" lon="6.21025">
        <ele>1979</ele>
        <time>2020-07-19T08:44:08.000Z</time>
      </trkpt>
      <trkpt lat="45.22901" lon="6.2102">
        <ele>1979</ele>
        <time>2020-07-19T08:44:10.000Z</time>
      </trkpt>
      <trkpt lat="45.22901" lon="6.21018">
        <ele>1979</ele>
        <time>2020-07-19T08:44:11.000Z</time>
      </trkpt>
      <trkpt lat="45.22901" lon="6.21013">
        <ele>1979</ele>
        <time>2020-07-19T08:44:13.000Z</time>
      </trkpt>
      <trkpt lat="45.22901" lon="6.21008">
        <ele>1979</ele>
        <time>2020-07-19T08:44:15.000Z</time>
      </trkpt>
      <trkpt lat="45.22902" lon="6.21003">
        <ele>1980</ele>
        <time>2020-07-19T08:44:17.000Z</time>
      </trkpt>
      <trkpt lat="45.22902" lon="6.20997">
        <ele>1980</ele>
        <time>2020-07-19T08:44:19.000Z</time>
      </trkpt>
      <trkpt lat="45.22902" lon="6.20995">
        <ele>1980</ele>
        <time>2020-07-19T08:44:20.000Z</time>
      </trkpt>
      <trkpt lat="45.22902" lon="6.20992">
        <ele>1980</ele>
        <time>2020-07-19T08:44:21.000Z</time>
      </trkpt>
      <trkpt lat="45.22902" lon="6.2099">
        <ele>1980.1</ele>
        <time>2020-07-19T08:44:22.000Z</time>
      </trkpt>
      <trkpt lat="45.22902" lon="6.20985">
        <ele>1981</ele>
        <time>2020-07-19T08:44:24.000Z</time>
      </trkpt>
      <trkpt lat="45.22902" lon="6.20982">
        <ele>1981</ele>
        <time>2020-07-19T08:44:25.000Z</time>
      </trkpt>
      <trkpt lat="45.22903" lon="6.2098">
        <ele>1981</ele>
        <time>2020-07-19T08:44:26.000Z</time>
      </trkpt>
      <trkpt lat="45.22903" lon="6.20977">
        <ele>1981</ele>
        <time>2020-07-19T08:44:27.000Z</time>
      </trkpt>
      <trkpt lat="45.22903" lon="6.20974">
        <ele>1981.1</ele>
        <time>2020-07-19T08:44:28.000Z</time>
      </trkpt>
      <trkpt lat="45.22903" lon="6.20969">
        <ele>1982</ele>
        <time>2020-07-19T08:44:30.000Z</time>
      </trkpt>
      <trkpt lat="45.22903" lon="6.20964">
        <ele>1982</ele>
        <time>2020-07-19T08:44:32.000Z</time>
      </trkpt>
      <trkpt lat="45.22903" lon="6.20959">
        <ele>1982.8</ele>
        <time>2020-07-19T08:44:34.000Z</time>
      </trkpt>
      <trkpt lat="45.22903" lon="6.20954">
        <ele>1983</ele>
        <time>2020-07-19T08:44:36.000Z</time>
      </trkpt>
      <trkpt lat="45.22903" lon="6.20949">
        <ele>1983</ele>
        <time>2020-07-19T08:44:38.000Z</time>
      </trkpt>
      <trkpt lat="45.22903" lon="6.20944">
        <ele>1983</ele>
        <time>2020-07-19T08:44:40.000Z</time>
      </trkpt>
      <trkpt lat="45.22903" lon="6.20939">
        <ele>1983.1</ele>
        <time>2020-07-19T08:44:42.000Z</time>
      </trkpt>
      <trkpt lat="45.22903" lon="6.20937">
        <ele>1984</ele>
        <time>2020-07-19T08:44:43.000Z</time>
      </trkpt>
      <trkpt lat="45.22903" lon="6.20934">
        <ele>1984</ele>
        <time>2020-07-19T08:44:44.000Z</time>
      </trkpt>
      <trkpt lat="45.22903" lon="6.20932">
        <ele>1984</ele>
        <time>2020-07-19T08:44:45.000Z</time>
      </trkpt>
      <trkpt lat="45.22903" lon="6.20929">
        <ele>1984</ele>
        <time>2020-07-19T08:44:46.000Z</time>
      </trkpt>
      <trkpt lat="45.22903" lon="6.20926">
        <ele>1984.1</ele>
        <time>2020-07-19T08:44:47.000Z</time>
      </trkpt>
      <trkpt lat="45.22903" lon="6.20924">
        <ele>1985</ele>
        <time>2020-07-19T08:44:48.000Z</time>
      </trkpt>
      <trkpt lat="45.22903" lon="6.20921">
        <ele>1985</ele>
        <time>2020-07-19T08:44:49.000Z</time>
      </trkpt>
      <trkpt lat="45.22902" lon="6.20918">
        <ele>1985</ele>
        <time>2020-07-19T08:44:50.000Z</time>
      </trkpt>
      <trkpt lat="45.22902" lon="6.20916">
        <ele>1985</ele>
        <time>2020-07-19T08:44:51.000Z</time>
      </trkpt>
      <trkpt lat="45.22902" lon="6.20913">
        <ele>1985</ele>
        <time>2020-07-19T08:44:52.000Z</time>
      </trkpt>
      <trkpt lat="45.22901" lon="6.20911">
        <ele>1985</ele>
        <time>2020-07-19T08:44:53.000Z</time>
      </trkpt>
      <trkpt lat="45.22901" lon="6.20908">
        <ele>1985</ele>
        <time>2020-07-19T08:44:54.000Z</time>
      </trkpt>
      <trkpt lat="45.22901" lon="6.20905">
        <ele>1985.2</ele>
        <time>2020-07-19T08:44:55.000Z</time>
      </trkpt>
      <trkpt lat="45.229" lon="6.20903">
        <ele>1987</ele>
        <time>2020-07-19T08:44:56.000Z</time>
      </trkpt>
      <trkpt lat="45.229" lon="6.209">
        <ele>1987.1</ele>
        <time>2020-07-19T08:44:57.000Z</time>
      </trkpt>
      <trkpt lat="45.229" lon="6.20897">
        <ele>1988</ele>
        <time>2020-07-19T08:44:58.000Z</time>
      </trkpt>
      <trkpt lat="45.22899" lon="6.20892">
        <ele>1988</ele>
        <time>2020-07-19T08:45:00.000Z</time>
      </trkpt>
      <trkpt lat="45.22899" lon="6.20888">
        <ele>1988.1</ele>
        <time>2020-07-19T08:45:02.000Z</time>
      </trkpt>
      <trkpt lat="45.229" lon="6.20883">
        <ele>1989</ele>
        <time>2020-07-19T08:45:04.000Z</time>
      </trkpt>
      <trkpt lat="45.22902" lon="6.20879">
        <ele>1989</ele>
        <time>2020-07-19T08:45:06.000Z</time>
      </trkpt>
      <trkpt lat="45.22904" lon="6.20879">
        <ele>1989</ele>
        <time>2020-07-19T08:45:07.000Z</time>
      </trkpt>
      <trkpt lat="45.22906" lon="6.20879">
        <ele>1989</ele>
        <time>2020-07-19T08:45:08.000Z</time>
      </trkpt>
      <trkpt lat="45.22908" lon="6.20879">
        <ele>1989.1</ele>
        <time>2020-07-19T08:45:09.000Z</time>
      </trkpt>
      <trkpt lat="45.2291" lon="6.2088">
        <ele>1990</ele>
        <time>2020-07-19T08:45:10.000Z</time>
      </trkpt>
      <trkpt lat="45.22911" lon="6.20881">
        <ele>1990</ele>
        <time>2020-07-19T08:45:11.000Z</time>
      </trkpt>
      <trkpt lat="45.22913" lon="6.20882">
        <ele>1990</ele>
        <time>2020-07-19T08:45:12.000Z</time>
      </trkpt>
      <trkpt lat="45.22915" lon="6.20883">
        <ele>1990</ele>
        <time>2020-07-19T08:45:13.000Z</time>
      </trkpt>
      <trkpt lat="45.22918" lon="6.20886">
        <ele>1990</ele>
        <time>2020-07-19T08:45:15.000Z</time>
      </trkpt>
      <trkpt lat="45.22921" lon="6.20888">
        <ele>1990</ele>
        <time>2020-07-19T08:45:17.000Z</time>
      </trkpt>
      <trkpt lat="45.22924" lon="6.2089">
        <ele>1991</ele>
        <time>2020-07-19T08:45:19.000Z</time>
      </trkpt>
      <trkpt lat="45.22927" lon="6.20892">
        <ele>1991</ele>
        <time>2020-07-19T08:45:21.000Z</time>
      </trkpt>
      <trkpt lat="45.22931" lon="6.20894">
        <ele>1991.1</ele>
        <time>2020-07-19T08:45:23.000Z</time>
      </trkpt>
      <trkpt lat="45.22932" lon="6.20895">
        <ele>1992</ele>
        <time>2020-07-19T08:45:24.000Z</time>
      </trkpt>
      <trkpt lat="45.22935" lon="6.20897">
        <ele>1992</ele>
        <time>2020-07-19T08:45:26.000Z</time>
      </trkpt>
      <trkpt lat="45.22939" lon="6.20899">
        <ele>1992</ele>
        <time>2020-07-19T08:45:28.000Z</time>
      </trkpt>
      <trkpt lat="45.2294" lon="6.209">
        <ele>1992</ele>
        <time>2020-07-19T08:45:29.000Z</time>
      </trkpt>
      <trkpt lat="45.22942" lon="6.20901">
        <ele>1992.1</ele>
        <time>2020-07-19T08:45:30.000Z</time>
      </trkpt>
      <trkpt lat="45.22944" lon="6.20902">
        <ele>1992.8</ele>
        <time>2020-07-19T08:45:31.000Z</time>
      </trkpt>
      <trkpt lat="45.22946" lon="6.20903">
        <ele>1993</ele>
        <time>2020-07-19T08:45:32.000Z</time>
      </trkpt>
      <trkpt lat="45.22947" lon="6.20904">
        <ele>1993</ele>
        <time>2020-07-19T08:45:33.000Z</time>
      </trkpt>
      <trkpt lat="45.22949" lon="6.20905">
        <ele>1993</ele>
        <time>2020-07-19T08:45:34.000Z</time>
      </trkpt>
      <trkpt lat="45.22951" lon="6.20906">
        <ele>1993</ele>
        <time>2020-07-19T08:45:35.000Z</time>
      </trkpt>
      <trkpt lat="45.22953" lon="6.20908">
        <ele>1993</ele>
        <time>2020-07-19T08:45:36.000Z</time>
      </trkpt>
      <trkpt lat="45.22954" lon="6.20909">
        <ele>1993</ele>
        <time>2020-07-19T08:45:37.000Z</time>
      </trkpt>
      <trkpt lat="45.22956" lon="6.2091">
        <ele>1993.1</ele>
        <time>2020-07-19T08:45:38.000Z</time>
      </trkpt>
      <trkpt lat="45.22958" lon="6.20911">
        <ele>1994</ele>
        <time>2020-07-19T08:45:39.000Z</time>
      </trkpt>
      <trkpt lat="45.2296" lon="6.20912">
        <ele>1994</ele>
        <time>2020-07-19T08:45:40.000Z</time>
      </trkpt>
      <trkpt lat="45.22962" lon="6.20913">
        <ele>1994</ele>
        <time>2020-07-19T08:45:41.000Z</time>
      </trkpt>
      <trkpt lat="45.22963" lon="6.20914">
        <ele>1994</ele>
        <time>2020-07-19T08:45:42.000Z</time>
      </trkpt>
      <trkpt lat="45.22965" lon="6.20916">
        <ele>1994</ele>
        <time>2020-07-19T08:45:43.000Z</time>
      </trkpt>
      <trkpt lat="45.22967" lon="6.20917">
        <ele>1994.1</ele>
        <time>2020-07-19T08:45:44.000Z</time>
      </trkpt>
      <trkpt lat="45.22969" lon="6.20918">
        <ele>1995</ele>
        <time>2020-07-19T08:45:45.000Z</time>
      </trkpt>
      <trkpt lat="45.22971" lon="6.20919">
        <ele>1995</ele>
        <time>2020-07-19T08:45:46.000Z</time>
      </trkpt>
      <trkpt lat="45.22973" lon="6.2092">
        <ele>1995</ele>
        <time>2020-07-19T08:45:47.000Z</time>
      </trkpt>
      <trkpt lat="45.22975" lon="6.20921">
        <ele>1995</ele>
        <time>2020-07-19T08:45:48.000Z</time>
      </trkpt>
      <trkpt lat="45.22976" lon="6.20922">
        <ele>1995</ele>
        <time>2020-07-19T08:45:49.000Z</time>
      </trkpt>
      <trkpt lat="45.22978" lon="6.20923">
        <ele>1995</ele>
        <time>2020-07-19T08:45:50.000Z</time>
      </trkpt>
      <trkpt lat="45.2298" lon="6.20924">
        <ele>1996</ele>
        <time>2020-07-19T08:45:51.000Z</time>
      </trkpt>
      <trkpt lat="45.22982" lon="6.20925">
        <ele>1996</ele>
        <time>2020-07-19T08:45:52.000Z</time>
      </trkpt>
      <trkpt lat="45.22983" lon="6.20927">
        <ele>1996</ele>
        <time>2020-07-19T08:45:53.000Z</time>
      </trkpt>
      <trkpt lat="45.22985" lon="6.20928">
        <ele>1996</ele>
        <time>2020-07-19T08:45:54.000Z</time>
      </trkpt>
      <trkpt lat="45.22988" lon="6.2093">
        <ele>1998</ele>
        <time>2020-07-19T08:45:56.000Z</time>
      </trkpt>
      <trkpt lat="45.22991" lon="6.20932">
        <ele>1998</ele>
        <time>2020-07-19T08:45:58.000Z</time>
      </trkpt>
      <trkpt lat="45.22994" lon="6.20934">
        <ele>1998</ele>
        <time>2020-07-19T08:46:00.000Z</time>
      </trkpt>
      <trkpt lat="45.22997" lon="6.20935">
        <ele>1998</ele>
        <time>2020-07-19T08:46:02.000Z</time>
      </trkpt>
      <trkpt lat="45.23" lon="6.20937">
        <ele>1999</ele>
        <time>2020-07-19T08:46:04.000Z</time>
      </trkpt>
      <trkpt lat="45.23003" lon="6.20939">
        <ele>1999</ele>
        <time>2020-07-19T08:46:06.000Z</time>
      </trkpt>
      <trkpt lat="45.23006" lon="6.2094">
        <ele>1999.1</ele>
        <time>2020-07-19T08:46:08.000Z</time>
      </trkpt>
      <trkpt lat="45.2301" lon="6.20942">
        <ele>2000.1</ele>
        <time>2020-07-19T08:46:10.000Z</time>
      </trkpt>
      <trkpt lat="45.23011" lon="6.20943">
        <ele>2001</ele>
        <time>2020-07-19T08:46:11.000Z</time>
      </trkpt>
      <trkpt lat="45.23013" lon="6.20944">
        <ele>2001</ele>
        <time>2020-07-19T08:46:12.000Z</time>
      </trkpt>
      <trkpt lat="45.23015" lon="6.20945">
        <ele>2001</ele>
        <time>2020-07-19T08:46:13.000Z</time>
      </trkpt>
      <trkpt lat="45.23017" lon="6.20946">
        <ele>2001</ele>
        <time>2020-07-19T08:46:14.000Z</time>
      </trkpt>
      <trkpt lat="45.23018" lon="6.20947">
        <ele>2001</ele>
        <time>2020-07-19T08:46:15.000Z</time>
      </trkpt>
      <trkpt lat="45.2302" lon="6.20948">
        <ele>2001</ele>
        <time>2020-07-19T08:46:16.000Z</time>
      </trkpt>
      <trkpt lat="45.23022" lon="6.20949">
        <ele>2001</ele>
        <time>2020-07-19T08:46:17.000Z</time>
      </trkpt>
      <trkpt lat="45.23024" lon="6.2095">
        <ele>2001</ele>
        <time>2020-07-19T08:46:18.000Z</time>
      </trkpt>
      <trkpt lat="45.23026" lon="6.20951">
        <ele>2001</ele>
        <time>2020-07-19T08:46:19.000Z</time>
      </trkpt>
      <trkpt lat="45.23029" lon="6.20953">
        <ele>2001</ele>
        <time>2020-07-19T08:46:21.000Z</time>
      </trkpt>
      <trkpt lat="45.23032" lon="6.20956">
        <ele>2002</ele>
        <time>2020-07-19T08:46:23.000Z</time>
      </trkpt>
      <trkpt lat="45.23034" lon="6.20957">
        <ele>2002.1</ele>
        <time>2020-07-19T08:46:24.000Z</time>
      </trkpt>
      <trkpt lat="45.23036" lon="6.20958">
        <ele>2003</ele>
        <time>2020-07-19T08:46:25.000Z</time>
      </trkpt>
      <trkpt lat="45.23037" lon="6.20959">
        <ele>2003</ele>
        <time>2020-07-19T08:46:26.000Z</time>
      </trkpt>
      <trkpt lat="45.23039" lon="6.2096">
        <ele>2003</ele>
        <time>2020-07-19T08:46:27.000Z</time>
      </trkpt>
      <trkpt lat="45.23042" lon="6.20963">
        <ele>2003</ele>
        <time>2020-07-19T08:46:29.000Z</time>
      </trkpt>
      <trkpt lat="45.23043" lon="6.20965">
        <ele>2003</ele>
        <time>2020-07-19T08:46:30.000Z</time>
      </trkpt>
      <trkpt lat="45.23046" lon="6.20969">
        <ele>2004</ele>
        <time>2020-07-19T08:46:32.000Z</time>
      </trkpt>
      <trkpt lat="45.23047" lon="6.20971">
        <ele>2004</ele>
        <time>2020-07-19T08:46:33.000Z</time>
      </trkpt>
      <trkpt lat="45.23048" lon="6.20973">
        <ele>2004</ele>
        <time>2020-07-19T08:46:34.000Z</time>
      </trkpt>
      <trkpt lat="45.23049" lon="6.20975">
        <ele>2004</ele>
        <time>2020-07-19T08:46:35.000Z</time>
      </trkpt>
      <trkpt lat="45.2305" lon="6.20977">
        <ele>2004</ele>
        <time>2020-07-19T08:46:36.000Z</time>
      </trkpt>
      <trkpt lat="45.23051" lon="6.2098">
        <ele>2004</ele>
        <time>2020-07-19T08:46:37.000Z</time>
      </trkpt>
      <trkpt lat="45.23052" lon="6.20982">
        <ele>2004</ele>
        <time>2020-07-19T08:46:38.000Z</time>
      </trkpt>
      <trkpt lat="45.23053" lon="6.20985">
        <ele>2004</ele>
        <time>2020-07-19T08:46:39.000Z</time>
      </trkpt>
      <trkpt lat="45.23054" lon="6.20987">
        <ele>2004.1</ele>
        <time>2020-07-19T08:46:40.000Z</time>
      </trkpt>
      <trkpt lat="45.23054" lon="6.20989">
        <ele>2005</ele>
        <time>2020-07-19T08:46:41.000Z</time>
      </trkpt>
      <trkpt lat="45.23055" lon="6.20992">
        <ele>2005</ele>
        <time>2020-07-19T08:46:42.000Z</time>
      </trkpt>
      <trkpt lat="45.23056" lon="6.20994">
        <ele>2005</ele>
        <time>2020-07-19T08:46:43.000Z</time>
      </trkpt>
      <trkpt lat="45.23056" lon="6.20997">
        <ele>2005</ele>
        <time>2020-07-19T08:46:44.000Z</time>
      </trkpt>
      <trkpt lat="45.23057" lon="6.21002">
        <ele>2005</ele>
        <time>2020-07-19T08:46:46.000Z</time>
      </trkpt>
      <trkpt lat="45.23057" lon="6.21004">
        <ele>2005</ele>
        <time>2020-07-19T08:46:47.000Z</time>
      </trkpt>
      <trkpt lat="45.23058" lon="6.21007">
        <ele>2006</ele>
        <time>2020-07-19T08:46:48.000Z</time>
      </trkpt>
      <trkpt lat="45.23058" lon="6.21009">
        <ele>2006</ele>
        <time>2020-07-19T08:46:49.000Z</time>
      </trkpt>
      <trkpt lat="45.23058" lon="6.21012">
        <ele>2006</ele>
        <time>2020-07-19T08:46:50.000Z</time>
      </trkpt>
      <trkpt lat="45.23059" lon="6.21015">
        <ele>2006</ele>
        <time>2020-07-19T08:46:51.000Z</time>
      </trkpt>
      <trkpt lat="45.23059" lon="6.21018">
        <ele>2006</ele>
        <time>2020-07-19T08:46:52.000Z</time>
      </trkpt>
      <trkpt lat="45.23059" lon="6.21021">
        <ele>2006</ele>
        <time>2020-07-19T08:46:53.000Z</time>
      </trkpt>
      <trkpt lat="45.23059" lon="6.21024">
        <ele>2006.1</ele>
        <time>2020-07-19T08:46:54.000Z</time>
      </trkpt>
      <trkpt lat="45.23059" lon="6.21027">
        <ele>2007</ele>
        <time>2020-07-19T08:46:55.000Z</time>
      </trkpt>
      <trkpt lat="45.23059" lon="6.2103">
        <ele>2007</ele>
        <time>2020-07-19T08:46:56.000Z</time>
      </trkpt>
      <trkpt lat="45.23059" lon="6.21033">
        <ele>2007.1</ele>
        <time>2020-07-19T08:46:57.000Z</time>
      </trkpt>
      <trkpt lat="45.23059" lon="6.21036">
        <ele>2008</ele>
        <time>2020-07-19T08:46:58.000Z</time>
      </trkpt>
      <trkpt lat="45.23058" lon="6.21039">
        <ele>2008</ele>
        <time>2020-07-19T08:46:59.000Z</time>
      </trkpt>
      <trkpt lat="45.23058" lon="6.21042">
        <ele>2008</ele>
        <time>2020-07-19T08:47:00.000Z</time>
      </trkpt>
      <trkpt lat="45.23058" lon="6.21045">
        <ele>2008</ele>
        <time>2020-07-19T08:47:01.000Z</time>
      </trkpt>
      <trkpt lat="45.23057" lon="6.21048">
        <ele>2008</ele>
        <time>2020-07-19T08:47:02.000Z</time>
      </trkpt>
      <trkpt lat="45.23057" lon="6.2105">
        <ele>2008.1</ele>
        <time>2020-07-19T08:47:03.000Z</time>
      </trkpt>
      <trkpt lat="45.23057" lon="6.21053">
        <ele>2009</ele>
        <time>2020-07-19T08:47:04.000Z</time>
      </trkpt>
      <trkpt lat="45.23057" lon="6.21056">
        <ele>2009.1</ele>
        <time>2020-07-19T08:47:05.000Z</time>
      </trkpt>
      <trkpt lat="45.23057" lon="6.21058">
        <ele>2009.8</ele>
        <time>2020-07-19T08:47:06.000Z</time>
      </trkpt>
      <trkpt lat="45.23058" lon="6.21061">
        <ele>2010</ele>
        <time>2020-07-19T08:47:07.000Z</time>
      </trkpt>
      <trkpt lat="45.23059" lon="6.21064">
        <ele>2010</ele>
        <time>2020-07-19T08:47:08.000Z</time>
      </trkpt>
      <trkpt lat="45.2306" lon="6.21066">
        <ele>2010.1</ele>
        <time>2020-07-19T08:47:09.000Z</time>
      </trkpt>
      <trkpt lat="45.23061" lon="6.21068">
        <ele>2011</ele>
        <time>2020-07-19T08:47:10.000Z</time>
      </trkpt>
      <trkpt lat="45.23063" lon="6.21069">
        <ele>2011</ele>
        <time>2020-07-19T08:47:11.000Z</time>
      </trkpt>
      <trkpt lat="45.23065" lon="6.2107">
        <ele>2011</ele>
        <time>2020-07-19T08:47:12.000Z</time>
      </trkpt>
      <trkpt lat="45.23067" lon="6.2107">
        <ele>2011</ele>
        <time>2020-07-19T08:47:13.000Z</time>
      </trkpt>
      <trkpt lat="45.23069" lon="6.2107">
        <ele>2011</ele>
        <time>2020-07-19T08:47:14.000Z</time>
      </trkpt>
      <trkpt lat="45.23071" lon="6.21069">
        <ele>2011</ele>
        <time>2020-07-19T08:47:15.000Z</time>
      </trkpt>
      <trkpt lat="45.23073" lon="6.21068">
        <ele>2011</ele>
        <time>2020-07-19T08:47:16.000Z</time>
      </trkpt>
      <trkpt lat="45.23075" lon="6.21066">
        <ele>2011</ele>
        <time>2020-07-19T08:47:17.000Z</time>
      </trkpt>
      <trkpt lat="45.23076" lon="6.21064">
        <ele>2011</ele>
        <time>2020-07-19T08:47:18.000Z</time>
      </trkpt>
      <trkpt lat="45.23077" lon="6.21062">
        <ele>2011</ele>
        <time>2020-07-19T08:47:19.000Z</time>
      </trkpt>
      <trkpt lat="45.23077" lon="6.21059">
        <ele>2011</ele>
        <time>2020-07-19T08:47:20.000Z</time>
      </trkpt>
      <trkpt lat="45.23077" lon="6.21056">
        <ele>2011</ele>
        <time>2020-07-19T08:47:21.000Z</time>
      </trkpt>
      <trkpt lat="45.23077" lon="6.21053">
        <ele>2011</ele>
        <time>2020-07-19T08:47:22.000Z</time>
      </trkpt>
      <trkpt lat="45.23077" lon="6.21051">
        <ele>2011</ele>
        <time>2020-07-19T08:47:23.000Z</time>
      </trkpt>
      <trkpt lat="45.23076" lon="6.21048">
        <ele>2011</ele>
        <time>2020-07-19T08:47:24.000Z</time>
      </trkpt>
      <trkpt lat="45.23076" lon="6.21045">
        <ele>2011</ele>
        <time>2020-07-19T08:47:25.000Z</time>
      </trkpt>
      <trkpt lat="45.23076" lon="6.21042">
        <ele>2011.1</ele>
        <time>2020-07-19T08:47:26.000Z</time>
      </trkpt>
      <trkpt lat="45.23076" lon="6.21039">
        <ele>2012</ele>
        <time>2020-07-19T08:47:27.000Z</time>
      </trkpt>
      <trkpt lat="45.23075" lon="6.21036">
        <ele>2012</ele>
        <time>2020-07-19T08:47:28.000Z</time>
      </trkpt>
      <trkpt lat="45.23075" lon="6.21033">
        <ele>2012</ele>
        <time>2020-07-19T08:47:29.000Z</time>
      </trkpt>
      <trkpt lat="45.23075" lon="6.2103">
        <ele>2012</ele>
        <time>2020-07-19T08:47:30.000Z</time>
      </trkpt>
      <trkpt lat="45.23075" lon="6.21027">
        <ele>2012</ele>
        <time>2020-07-19T08:47:31.000Z</time>
      </trkpt>
      <trkpt lat="45.23075" lon="6.21024">
        <ele>2012</ele>
        <time>2020-07-19T08:47:32.000Z</time>
      </trkpt>
      <trkpt lat="45.23074" lon="6.21021">
        <ele>2012</ele>
        <time>2020-07-19T08:47:33.000Z</time>
      </trkpt>
      <trkpt lat="45.23074" lon="6.21018">
        <ele>2012</ele>
        <time>2020-07-19T08:47:34.000Z</time>
      </trkpt>
      <trkpt lat="45.23074" lon="6.21015">
        <ele>2012</ele>
        <time>2020-07-19T08:47:35.000Z</time>
      </trkpt>
      <trkpt lat="45.23074" lon="6.21013">
        <ele>2012</ele>
        <time>2020-07-19T08:47:36.000Z</time>
      </trkpt>
      <trkpt lat="45.23073" lon="6.2101">
        <ele>2012</ele>
        <time>2020-07-19T08:47:37.000Z</time>
      </trkpt>
      <trkpt lat="45.23073" lon="6.21007">
        <ele>2012</ele>
        <time>2020-07-19T08:47:38.000Z</time>
      </trkpt>
      <trkpt lat="45.23073" lon="6.21004">
        <ele>2012.1</ele>
        <time>2020-07-19T08:47:39.000Z</time>
      </trkpt>
      <trkpt lat="45.23073" lon="6.21001">
        <ele>2013</ele>
        <time>2020-07-19T08:47:40.000Z</time>
      </trkpt>
      <trkpt lat="45.23073" lon="6.20998">
        <ele>2013</ele>
        <time>2020-07-19T08:47:41.000Z</time>
      </trkpt>
      <trkpt lat="45.23072" lon="6.20995">
        <ele>2013</ele>
        <time>2020-07-19T08:47:42.000Z</time>
      </trkpt>
      <trkpt lat="45.23072" lon="6.20992">
        <ele>2013.1</ele>
        <time>2020-07-19T08:47:43.000Z</time>
      </trkpt>
      <trkpt lat="45.23072" lon="6.20989">
        <ele>2013.8</ele>
        <time>2020-07-19T08:47:44.000Z</time>
      </trkpt>
      <trkpt lat="45.23072" lon="6.20986">
        <ele>2014</ele>
        <time>2020-07-19T08:47:45.000Z</time>
      </trkpt>
      <trkpt lat="45.23072" lon="6.20984">
        <ele>2014</ele>
        <time>2020-07-19T08:47:46.000Z</time>
      </trkpt>
      <trkpt lat="45.23072" lon="6.20981">
        <ele>2014</ele>
        <time>2020-07-19T08:47:47.000Z</time>
      </trkpt>
      <trkpt lat="45.23072" lon="6.20978">
        <ele>2014</ele>
        <time>2020-07-19T08:47:48.000Z</time>
      </trkpt>
      <trkpt lat="45.23071" lon="6.20976">
        <ele>2014.1</ele>
        <time>2020-07-19T08:47:49.000Z</time>
      </trkpt>
      <trkpt lat="45.23071" lon="6.20973">
        <ele>2015</ele>
        <time>2020-07-19T08:47:50.000Z</time>
      </trkpt>
      <trkpt lat="45.23071" lon="6.2097">
        <ele>2015</ele>
        <time>2020-07-19T08:47:51.000Z</time>
      </trkpt>
      <trkpt lat="45.23071" lon="6.20968">
        <ele>2015</ele>
        <time>2020-07-19T08:47:52.000Z</time>
      </trkpt>
      <trkpt lat="45.23071" lon="6.20965">
        <ele>2015</ele>
        <time>2020-07-19T08:47:53.000Z</time>
      </trkpt>
      <trkpt lat="45.23071" lon="6.2096">
        <ele>2016</ele>
        <time>2020-07-19T08:47:55.000Z</time>
      </trkpt>
      <trkpt lat="45.23071" lon="6.20955">
        <ele>2016</ele>
        <time>2020-07-19T08:47:57.000Z</time>
      </trkpt>
      <trkpt lat="45.2307" lon="6.2095">
        <ele>2016.1</ele>
        <time>2020-07-19T08:47:59.000Z</time>
      </trkpt>
      <trkpt lat="45.23069" lon="6.20946">
        <ele>2017</ele>
        <time>2020-07-19T08:48:01.000Z</time>
      </trkpt>
      <trkpt lat="45.23068" lon="6.20941">
        <ele>2017</ele>
        <time>2020-07-19T08:48:03.000Z</time>
      </trkpt>
      <trkpt lat="45.23068" lon="6.20938">
        <ele>2017</ele>
        <time>2020-07-19T08:48:04.000Z</time>
      </trkpt>
      <trkpt lat="45.23068" lon="6.20936">
        <ele>2017</ele>
        <time>2020-07-19T08:48:05.000Z</time>
      </trkpt>
      <trkpt lat="45.23067" lon="6.20933">
        <ele>2017</ele>
        <time>2020-07-19T08:48:06.000Z</time>
      </trkpt>
      <trkpt lat="45.23067" lon="6.20931">
        <ele>2017</ele>
        <time>2020-07-19T08:48:07.000Z</time>
      </trkpt>
      <trkpt lat="45.23066" lon="6.20928">
        <ele>2017</ele>
        <time>2020-07-19T08:48:08.000Z</time>
      </trkpt>
      <trkpt lat="45.23066" lon="6.20925">
        <ele>2017</ele>
        <time>2020-07-19T08:48:09.000Z</time>
      </trkpt>
      <trkpt lat="45.23065" lon="6.20923">
        <ele>2017</ele>
        <time>2020-07-19T08:48:10.000Z</time>
      </trkpt>
      <trkpt lat="45.23064" lon="6.2092">
        <ele>2017</ele>
        <time>2020-07-19T08:48:11.000Z</time>
      </trkpt>
      <trkpt lat="45.23064" lon="6.20918">
        <ele>2017</ele>
        <time>2020-07-19T08:48:12.000Z</time>
      </trkpt>
      <trkpt lat="45.23063" lon="6.20915">
        <ele>2017.1</ele>
        <time>2020-07-19T08:48:13.000Z</time>
      </trkpt>
      <trkpt lat="45.23063" lon="6.20912">
        <ele>2018</ele>
        <time>2020-07-19T08:48:14.000Z</time>
      </trkpt>
      <trkpt lat="45.23061" lon="6.20909">
        <ele>2018.1</ele>
        <time>2020-07-19T08:48:15.000Z</time>
      </trkpt>
      <trkpt lat="45.2306" lon="6.20906">
        <ele>2019</ele>
        <time>2020-07-19T08:48:16.000Z</time>
      </trkpt>
      <trkpt lat="45.23059" lon="6.20903">
        <ele>2019</ele>
        <time>2020-07-19T08:48:17.000Z</time>
      </trkpt>
      <trkpt lat="45.23058" lon="6.20901">
        <ele>2019</ele>
        <time>2020-07-19T08:48:18.000Z</time>
      </trkpt>
      <trkpt lat="45.23057" lon="6.20898">
        <ele>2019</ele>
        <time>2020-07-19T08:48:19.000Z</time>
      </trkpt>
      <trkpt lat="45.23056" lon="6.20895">
        <ele>2019</ele>
        <time>2020-07-19T08:48:20.000Z</time>
      </trkpt>
      <trkpt lat="45.23055" lon="6.20893">
        <ele>2019</ele>
        <time>2020-07-19T08:48:21.000Z</time>
      </trkpt>
      <trkpt lat="45.23054" lon="6.20891">
        <ele>2019</ele>
        <time>2020-07-19T08:48:22.000Z</time>
      </trkpt>
      <trkpt lat="45.23053" lon="6.20889">
        <ele>2020</ele>
        <time>2020-07-19T08:48:23.000Z</time>
      </trkpt>
      <trkpt lat="45.23052" lon="6.20886">
        <ele>2020</ele>
        <time>2020-07-19T08:48:24.000Z</time>
      </trkpt>
      <trkpt lat="45.23051" lon="6.20884">
        <ele>2020</ele>
        <time>2020-07-19T08:48:25.000Z</time>
      </trkpt>
      <trkpt lat="45.23049" lon="6.20882">
        <ele>2020</ele>
        <time>2020-07-19T08:48:26.000Z</time>
      </trkpt>
      <trkpt lat="45.23048" lon="6.20879">
        <ele>2020</ele>
        <time>2020-07-19T08:48:27.000Z</time>
      </trkpt>
      <trkpt lat="45.23047" lon="6.20877">
        <ele>2020.2</ele>
        <time>2020-07-19T08:48:28.000Z</time>
      </trkpt>
      <trkpt lat="45.23046" lon="6.20875">
        <ele>2022</ele>
        <time>2020-07-19T08:48:29.000Z</time>
      </trkpt>
      <trkpt lat="45.23045" lon="6.20873">
        <ele>2022</ele>
        <time>2020-07-19T08:48:30.000Z</time>
      </trkpt>
      <trkpt lat="45.23044" lon="6.20871">
        <ele>2022</ele>
        <time>2020-07-19T08:48:31.000Z</time>
      </trkpt>
      <trkpt lat="45.23043" lon="6.20869">
        <ele>2022</ele>
        <time>2020-07-19T08:48:32.000Z</time>
      </trkpt>
      <trkpt lat="45.23042" lon="6.20867">
        <ele>2022.1</ele>
        <time>2020-07-19T08:48:33.000Z</time>
      </trkpt>
      <trkpt lat="45.23041" lon="6.20864">
        <ele>2023</ele>
        <time>2020-07-19T08:48:34.000Z</time>
      </trkpt>
      <trkpt lat="45.23039" lon="6.20862">
        <ele>2023</ele>
        <time>2020-07-19T08:48:35.000Z</time>
      </trkpt>
      <trkpt lat="45.23038" lon="6.2086">
        <ele>2023</ele>
        <time>2020-07-19T08:48:36.000Z</time>
      </trkpt>
      <trkpt lat="45.23037" lon="6.20858">
        <ele>2023</ele>
        <time>2020-07-19T08:48:37.000Z</time>
      </trkpt>
      <trkpt lat="45.23036" lon="6.20856">
        <ele>2023</ele>
        <time>2020-07-19T08:48:38.000Z</time>
      </trkpt>
      <trkpt lat="45.23035" lon="6.20854">
        <ele>2023</ele>
        <time>2020-07-19T08:48:39.000Z</time>
      </trkpt>
      <trkpt lat="45.23034" lon="6.20852">
        <ele>2023</ele>
        <time>2020-07-19T08:48:40.000Z</time>
      </trkpt>
      <trkpt lat="45.23032" lon="6.2085">
        <ele>2023</ele>
        <time>2020-07-19T08:48:41.000Z</time>
      </trkpt>
      <trkpt lat="45.23031" lon="6.20847">
        <ele>2024</ele>
        <time>2020-07-19T08:48:42.000Z</time>
      </trkpt>
      <trkpt lat="45.2303" lon="6.20845">
        <ele>2024</ele>
        <time>2020-07-19T08:48:43.000Z</time>
      </trkpt>
      <trkpt lat="45.23029" lon="6.20843">
        <ele>2024</ele>
        <time>2020-07-19T08:48:44.000Z</time>
      </trkpt>
      <trkpt lat="45.23027" lon="6.20841">
        <ele>2024.1</ele>
        <time>2020-07-19T08:48:45.000Z</time>
      </trkpt>
      <trkpt lat="45.23026" lon="6.20838">
        <ele>2025.1</ele>
        <time>2020-07-19T08:48:46.000Z</time>
      </trkpt>
      <trkpt lat="45.23025" lon="6.20836">
        <ele>2026</ele>
        <time>2020-07-19T08:48:47.000Z</time>
      </trkpt>
      <trkpt lat="45.23024" lon="6.20834">
        <ele>2026</ele>
        <time>2020-07-19T08:48:48.000Z</time>
      </trkpt>
      <trkpt lat="45.23023" lon="6.20832">
        <ele>2026</ele>
        <time>2020-07-19T08:48:49.000Z</time>
      </trkpt>
      <trkpt lat="45.23022" lon="6.2083">
        <ele>2026</ele>
        <time>2020-07-19T08:48:50.000Z</time>
      </trkpt>
      <trkpt lat="45.23021" lon="6.20827">
        <ele>2026</ele>
        <time>2020-07-19T08:48:51.000Z</time>
      </trkpt>
      <trkpt lat="45.2302" lon="6.20825">
        <ele>2026.1</ele>
        <time>2020-07-19T08:48:52.000Z</time>
      </trkpt>
      <trkpt lat="45.23018" lon="6.20823">
        <ele>2027</ele>
        <time>2020-07-19T08:48:53.000Z</time>
      </trkpt>
      <trkpt lat="45.23017" lon="6.20821">
        <ele>2027.1</ele>
        <time>2020-07-19T08:48:54.000Z</time>
      </trkpt>
      <trkpt lat="45.23016" lon="6.20819">
        <ele>2028</ele>
        <time>2020-07-19T08:48:55.000Z</time>
      </trkpt>
      <trkpt lat="45.23015" lon="6.20817">
        <ele>2028</ele>
        <time>2020-07-19T08:48:56.000Z</time>
      </trkpt>
      <trkpt lat="45.23014" lon="6.20815">
        <ele>2028</ele>
        <time>2020-07-19T08:48:57.000Z</time>
      </trkpt>
      <trkpt lat="45.23013" lon="6.20813">
        <ele>2028</ele>
        <time>2020-07-19T08:48:58.000Z</time>
      </trkpt>
      <trkpt lat="45.23011" lon="6.20808">
        <ele>2028</ele>
        <time>2020-07-19T08:49:00.000Z</time>
      </trkpt>
      <trkpt lat="45.23009" lon="6.20805">
        <ele>2028</ele>
        <time>2020-07-19T08:49:02.000Z</time>
      </trkpt>
      <trkpt lat="45.23006" lon="6.20801">
        <ele>2028.1</ele>
        <time>2020-07-19T08:49:04.000Z</time>
      </trkpt>
      <trkpt lat="45.23004" lon="6.20797">
        <ele>2029</ele>
        <time>2020-07-19T08:49:06.000Z</time>
      </trkpt>
      <trkpt lat="45.23002" lon="6.20793">
        <ele>2029</ele>
        <time>2020-07-19T08:49:08.000Z</time>
      </trkpt>
      <trkpt lat="45.23" lon="6.20789">
        <ele>2029</ele>
        <time>2020-07-19T08:49:10.000Z</time>
      </trkpt>
      <trkpt lat="45.22997" lon="6.20785">
        <ele>2029.1</ele>
        <time>2020-07-19T08:49:12.000Z</time>
      </trkpt>
      <trkpt lat="45.22996" lon="6.20783">
        <ele>2030</ele>
        <time>2020-07-19T08:49:13.000Z</time>
      </trkpt>
      <trkpt lat="45.22995" lon="6.20781">
        <ele>2030</ele>
        <time>2020-07-19T08:49:14.000Z</time>
      </trkpt>
      <trkpt lat="45.22994" lon="6.20779">
        <ele>2030</ele>
        <time>2020-07-19T08:49:15.000Z</time>
      </trkpt>
      <trkpt lat="45.22993" lon="6.20776">
        <ele>2030</ele>
        <time>2020-07-19T08:49:16.000Z</time>
      </trkpt>
      <trkpt lat="45.22992" lon="6.20772">
        <ele>2031</ele>
        <time>2020-07-19T08:49:18.000Z</time>
      </trkpt>
      <trkpt lat="45.22991" lon="6.2077">
        <ele>2031</ele>
        <time>2020-07-19T08:49:19.000Z</time>
      </trkpt>
      <trkpt lat="45.2299" lon="6.20768">
        <ele>2031</ele>
        <time>2020-07-19T08:49:20.000Z</time>
      </trkpt>
      <trkpt lat="45.22988" lon="6.20763">
        <ele>2031</ele>
        <time>2020-07-19T08:49:22.000Z</time>
      </trkpt>
      <trkpt lat="45.22987" lon="6.20761">
        <ele>2031</ele>
        <time>2020-07-19T08:49:23.000Z</time>
      </trkpt>
      <trkpt lat="45.22985" lon="6.20757">
        <ele>2031.1</ele>
        <time>2020-07-19T08:49:25.000Z</time>
      </trkpt>
      <trkpt lat="45.22983" lon="6.20753">
        <ele>2032</ele>
        <time>2020-07-19T08:49:27.000Z</time>
      </trkpt>
      <trkpt lat="45.22981" lon="6.20749">
        <ele>2032</ele>
        <time>2020-07-19T08:49:29.000Z</time>
      </trkpt>
      <trkpt lat="45.22979" lon="6.20745">
        <ele>2033</ele>
        <time>2020-07-19T08:49:31.000Z</time>
      </trkpt>
      <trkpt lat="45.22977" lon="6.20741">
        <ele>2033</ele>
        <time>2020-07-19T08:49:33.000Z</time>
      </trkpt>
      <trkpt lat="45.22976" lon="6.20739">
        <ele>2033</ele>
        <time>2020-07-19T08:49:34.000Z</time>
      </trkpt>
      <trkpt lat="45.22974" lon="6.20736">
        <ele>2033.1</ele>
        <time>2020-07-19T08:49:35.000Z</time>
      </trkpt>
      <trkpt lat="45.22973" lon="6.20734">
        <ele>2034</ele>
        <time>2020-07-19T08:49:36.000Z</time>
      </trkpt>
      <trkpt lat="45.22972" lon="6.20732">
        <ele>2034</ele>
        <time>2020-07-19T08:49:37.000Z</time>
      </trkpt>
      <trkpt lat="45.2297" lon="6.20728">
        <ele>2034</ele>
        <time>2020-07-19T08:49:39.000Z</time>
      </trkpt>
      <trkpt lat="45.22969" lon="6.20726">
        <ele>2034</ele>
        <time>2020-07-19T08:49:40.000Z</time>
      </trkpt>
      <trkpt lat="45.22968" lon="6.20724">
        <ele>2034</ele>
        <time>2020-07-19T08:49:41.000Z</time>
      </trkpt>
      <trkpt lat="45.22966" lon="6.20719">
        <ele>2034</ele>
        <time>2020-07-19T08:49:43.000Z</time>
      </trkpt>
      <trkpt lat="45.22965" lon="6.20715">
        <ele>2035</ele>
        <time>2020-07-19T08:49:45.000Z</time>
      </trkpt>
      <trkpt lat="45.22963" lon="6.20711">
        <ele>2035.1</ele>
        <time>2020-07-19T08:49:47.000Z</time>
      </trkpt>
      <trkpt lat="45.22961" lon="6.20709">
        <ele>2036</ele>
        <time>2020-07-19T08:49:48.000Z</time>
      </trkpt>
      <trkpt lat="45.2296" lon="6.20707">
        <ele>2036</ele>
        <time>2020-07-19T08:49:49.000Z</time>
      </trkpt>
      <trkpt lat="45.22959" lon="6.20705">
        <ele>2036</ele>
        <time>2020-07-19T08:49:50.000Z</time>
      </trkpt>
      <trkpt lat="45.22958" lon="6.20703">
        <ele>2036</ele>
        <time>2020-07-19T08:49:51.000Z</time>
      </trkpt>
      <trkpt lat="45.22957" lon="6.207">
        <ele>2036</ele>
        <time>2020-07-19T08:49:52.000Z</time>
      </trkpt>
      <trkpt lat="45.22956" lon="6.20698">
        <ele>2036</ele>
        <time>2020-07-19T08:49:53.000Z</time>
      </trkpt>
      <trkpt lat="45.22955" lon="6.20696">
        <ele>2036.1</ele>
        <time>2020-07-19T08:49:54.000Z</time>
      </trkpt>
      <trkpt lat="45.22954" lon="6.20693">
        <ele>2037</ele>
        <time>2020-07-19T08:49:55.000Z</time>
      </trkpt>
      <trkpt lat="45.22953" lon="6.20691">
        <ele>2037</ele>
        <time>2020-07-19T08:49:56.000Z</time>
      </trkpt>
      <trkpt lat="45.22952" lon="6.20689">
        <ele>2037</ele>
        <time>2020-07-19T08:49:57.000Z</time>
      </trkpt>
      <trkpt lat="45.22951" lon="6.20687">
        <ele>2037</ele>
        <time>2020-07-19T08:49:58.000Z</time>
      </trkpt>
      <trkpt lat="45.2295" lon="6.20685">
        <ele>2037</ele>
        <time>2020-07-19T08:49:59.000Z</time>
      </trkpt>
      <trkpt lat="45.22949" lon="6.20682">
        <ele>2037</ele>
        <time>2020-07-19T08:50:00.000Z</time>
      </trkpt>
      <trkpt lat="45.22948" lon="6.2068">
        <ele>2037.1</ele>
        <time>2020-07-19T08:50:01.000Z</time>
      </trkpt>
      <trkpt lat="45.22947" lon="6.20678">
        <ele>2038</ele>
        <time>2020-07-19T08:50:02.000Z</time>
      </trkpt>
      <trkpt lat="45.22946" lon="6.20675">
        <ele>2038</ele>
        <time>2020-07-19T08:50:03.000Z</time>
      </trkpt>
      <trkpt lat="45.22945" lon="6.20673">
        <ele>2038</ele>
        <time>2020-07-19T08:50:04.000Z</time>
      </trkpt>
      <trkpt lat="45.22944" lon="6.20671">
        <ele>2038</ele>
        <time>2020-07-19T08:50:05.000Z</time>
      </trkpt>
      <trkpt lat="45.22943" lon="6.20668">
        <ele>2038</ele>
        <time>2020-07-19T08:50:06.000Z</time>
      </trkpt>
      <trkpt lat="45.22942" lon="6.20666">
        <ele>2038</ele>
        <time>2020-07-19T08:50:07.000Z</time>
      </trkpt>
      <trkpt lat="45.22941" lon="6.20664">
        <ele>2038</ele>
        <time>2020-07-19T08:50:08.000Z</time>
      </trkpt>
      <trkpt lat="45.2294" lon="6.20661">
        <ele>2038</ele>
        <time>2020-07-19T08:50:09.000Z</time>
      </trkpt>
      <trkpt lat="45.22939" lon="6.20659">
        <ele>2038</ele>
        <time>2020-07-19T08:50:10.000Z</time>
      </trkpt>
      <trkpt lat="45.22938" lon="6.20657">
        <ele>2038.1</ele>
        <time>2020-07-19T08:50:11.000Z</time>
      </trkpt>
      <trkpt lat="45.22937" lon="6.20654">
        <ele>2039</ele>
        <time>2020-07-19T08:50:12.000Z</time>
      </trkpt>
      <trkpt lat="45.22936" lon="6.20652">
        <ele>2039</ele>
        <time>2020-07-19T08:50:13.000Z</time>
      </trkpt>
      <trkpt lat="45.22935" lon="6.20649">
        <ele>2039</ele>
        <time>2020-07-19T08:50:14.000Z</time>
      </trkpt>
      <trkpt lat="45.22934" lon="6.20647">
        <ele>2039</ele>
        <time>2020-07-19T08:50:15.000Z</time>
      </trkpt>
      <trkpt lat="45.22933" lon="6.20644">
        <ele>2039</ele>
        <time>2020-07-19T08:50:16.000Z</time>
      </trkpt>
      <trkpt lat="45.22933" lon="6.20642">
        <ele>2039</ele>
        <time>2020-07-19T08:50:17.000Z</time>
      </trkpt>
      <trkpt lat="45.22932" lon="6.20639">
        <ele>2039.1</ele>
        <time>2020-07-19T08:50:18.000Z</time>
      </trkpt>
      <trkpt lat="45.22931" lon="6.20637">
        <ele>2040</ele>
        <time>2020-07-19T08:50:19.000Z</time>
      </trkpt>
      <trkpt lat="45.2293" lon="6.20634">
        <ele>2040</ele>
        <time>2020-07-19T08:50:20.000Z</time>
      </trkpt>
      <trkpt lat="45.22929" lon="6.20632">
        <ele>2040</ele>
        <time>2020-07-19T08:50:21.000Z</time>
      </trkpt>
      <trkpt lat="45.22928" lon="6.20629">
        <ele>2040</ele>
        <time>2020-07-19T08:50:22.000Z</time>
      </trkpt>
      <trkpt lat="45.22927" lon="6.20626">
        <ele>2040</ele>
        <time>2020-07-19T08:50:23.000Z</time>
      </trkpt>
      <trkpt lat="45.22926" lon="6.20624">
        <ele>2040</ele>
        <time>2020-07-19T08:50:24.000Z</time>
      </trkpt>
      <trkpt lat="45.22925" lon="6.20621">
        <ele>2040</ele>
        <time>2020-07-19T08:50:25.000Z</time>
      </trkpt>
      <trkpt lat="45.22924" lon="6.20619">
        <ele>2041</ele>
        <time>2020-07-19T08:50:26.000Z</time>
      </trkpt>
      <trkpt lat="45.22923" lon="6.20616">
        <ele>2041</ele>
        <time>2020-07-19T08:50:27.000Z</time>
      </trkpt>
      <trkpt lat="45.22922" lon="6.20614">
        <ele>2041.1</ele>
        <time>2020-07-19T08:50:28.000Z</time>
      </trkpt>
      <trkpt lat="45.22921" lon="6.20612">
        <ele>2042</ele>
        <time>2020-07-19T08:50:29.000Z</time>
      </trkpt>
      <trkpt lat="45.2292" lon="6.2061">
        <ele>2042</ele>
        <time>2020-07-19T08:50:30.000Z</time>
      </trkpt>
      <trkpt lat="45.22919" lon="6.20607">
        <ele>2042</ele>
        <time>2020-07-19T08:50:31.000Z</time>
      </trkpt>
      <trkpt lat="45.22917" lon="6.20603">
        <ele>2042</ele>
        <time>2020-07-19T08:50:33.000Z</time>
      </trkpt>
      <trkpt lat="45.22916" lon="6.20599">
        <ele>2042</ele>
        <time>2020-07-19T08:50:35.000Z</time>
      </trkpt>
      <trkpt lat="45.22914" lon="6.20594">
        <ele>2042</ele>
        <time>2020-07-19T08:50:37.000Z</time>
      </trkpt>
      <trkpt lat="45.22913" lon="6.20592">
        <ele>2042.2</ele>
        <time>2020-07-19T08:50:38.000Z</time>
      </trkpt>
      <trkpt lat="45.22912" lon="6.2059">
        <ele>2044</ele>
        <time>2020-07-19T08:50:39.000Z</time>
      </trkpt>
      <trkpt lat="45.22911" lon="6.20588">
        <ele>2044</ele>
        <time>2020-07-19T08:50:40.000Z</time>
      </trkpt>
      <trkpt lat="45.2291" lon="6.20586">
        <ele>2044</ele>
        <time>2020-07-19T08:50:41.000Z</time>
      </trkpt>
      <trkpt lat="45.22908" lon="6.20584">
        <ele>2044</ele>
        <time>2020-07-19T08:50:42.000Z</time>
      </trkpt>
      <trkpt lat="45.22907" lon="6.20582">
        <ele>2044.1</ele>
        <time>2020-07-19T08:50:43.000Z</time>
      </trkpt>
      <trkpt lat="45.22906" lon="6.2058">
        <ele>2045.1</ele>
        <time>2020-07-19T08:50:44.000Z</time>
      </trkpt>
      <trkpt lat="45.22905" lon="6.20577">
        <ele>2046</ele>
        <time>2020-07-19T08:50:45.000Z</time>
      </trkpt>
      <trkpt lat="45.22904" lon="6.20575">
        <ele>2046</ele>
        <time>2020-07-19T08:50:46.000Z</time>
      </trkpt>
      <trkpt lat="45.22903" lon="6.20573">
        <ele>2046</ele>
        <time>2020-07-19T08:50:47.000Z</time>
      </trkpt>
      <trkpt lat="45.22902" lon="6.20571">
        <ele>2045.9</ele>
        <time>2020-07-19T08:50:48.000Z</time>
      </trkpt>
      <trkpt lat="45.22901" lon="6.20569">
        <ele>2045</ele>
        <time>2020-07-19T08:50:49.000Z</time>
      </trkpt>
      <trkpt lat="45.229" lon="6.20567">
        <ele>2045</ele>
        <time>2020-07-19T08:50:50.000Z</time>
      </trkpt>
      <trkpt lat="45.22899" lon="6.20565">
        <ele>2045.1</ele>
        <time>2020-07-19T08:50:51.000Z</time>
      </trkpt>
      <trkpt lat="45.22897" lon="6.2056">
        <ele>2046</ele>
        <time>2020-07-19T08:50:53.000Z</time>
      </trkpt>
      <trkpt lat="45.22896" lon="6.20558">
        <ele>2046</ele>
        <time>2020-07-19T08:50:54.000Z</time>
      </trkpt>
      <trkpt lat="45.22895" lon="6.20556">
        <ele>2046.1</ele>
        <time>2020-07-19T08:50:55.000Z</time>
      </trkpt>
      <trkpt lat="45.22894" lon="6.20554">
        <ele>2047</ele>
        <time>2020-07-19T08:50:56.000Z</time>
      </trkpt>
      <trkpt lat="45.22893" lon="6.20552">
        <ele>2047</ele>
        <time>2020-07-19T08:50:57.000Z</time>
      </trkpt>
      <trkpt lat="45.22892" lon="6.20549">
        <ele>2047.1</ele>
        <time>2020-07-19T08:50:58.000Z</time>
      </trkpt>
      <trkpt lat="45.22891" lon="6.20547">
        <ele>2048</ele>
        <time>2020-07-19T08:50:59.000Z</time>
      </trkpt>
      <trkpt lat="45.22889" lon="6.20545">
        <ele>2048</ele>
        <time>2020-07-19T08:51:00.000Z</time>
      </trkpt>
      <trkpt lat="45.22888" lon="6.20543">
        <ele>2048</ele>
        <time>2020-07-19T08:51:01.000Z</time>
      </trkpt>
      <trkpt lat="45.22887" lon="6.20541">
        <ele>2048</ele>
        <time>2020-07-19T08:51:02.000Z</time>
      </trkpt>
      <trkpt lat="45.22885" lon="6.20539">
        <ele>2048</ele>
        <time>2020-07-19T08:51:03.000Z</time>
      </trkpt>
      <trkpt lat="45.22883" lon="6.20537">
        <ele>2048</ele>
        <time>2020-07-19T08:51:04.000Z</time>
      </trkpt>
      <trkpt lat="45.22882" lon="6.20536">
        <ele>2048</ele>
        <time>2020-07-19T08:51:05.000Z</time>
      </trkpt>
      <trkpt lat="45.2288" lon="6.20534">
        <ele>2048</ele>
        <time>2020-07-19T08:51:06.000Z</time>
      </trkpt>
      <trkpt lat="45.22879" lon="6.20531">
        <ele>2048.1</ele>
        <time>2020-07-19T08:51:07.000Z</time>
      </trkpt>
      <trkpt lat="45.22877" lon="6.20529">
        <ele>2049</ele>
        <time>2020-07-19T08:51:08.000Z</time>
      </trkpt>
      <trkpt lat="45.22876" lon="6.20527">
        <ele>2049</ele>
        <time>2020-07-19T08:51:09.000Z</time>
      </trkpt>
      <trkpt lat="45.22874" lon="6.20525">
        <ele>2049</ele>
        <time>2020-07-19T08:51:10.000Z</time>
      </trkpt>
      <trkpt lat="45.22873" lon="6.20523">
        <ele>2049</ele>
        <time>2020-07-19T08:51:11.000Z</time>
      </trkpt>
      <trkpt lat="45.22872" lon="6.20521">
        <ele>2049</ele>
        <time>2020-07-19T08:51:12.000Z</time>
      </trkpt>
      <trkpt lat="45.2287" lon="6.20519">
        <ele>2049</ele>
        <time>2020-07-19T08:51:13.000Z</time>
      </trkpt>
      <trkpt lat="45.22869" lon="6.20517">
        <ele>2050</ele>
        <time>2020-07-19T08:51:14.000Z</time>
      </trkpt>
      <trkpt lat="45.22868" lon="6.20514">
        <ele>2050</ele>
        <time>2020-07-19T08:51:15.000Z</time>
      </trkpt>
      <trkpt lat="45.22866" lon="6.20512">
        <ele>2050</ele>
        <time>2020-07-19T08:51:16.000Z</time>
      </trkpt>
      <trkpt lat="45.22865" lon="6.2051">
        <ele>2050</ele>
        <time>2020-07-19T08:51:17.000Z</time>
      </trkpt>
      <trkpt lat="45.22864" lon="6.20508">
        <ele>2050</ele>
        <time>2020-07-19T08:51:18.000Z</time>
      </trkpt>
      <trkpt lat="45.22863" lon="6.20505">
        <ele>2050.1</ele>
        <time>2020-07-19T08:51:19.000Z</time>
      </trkpt>
      <trkpt lat="45.22861" lon="6.20503">
        <ele>2051</ele>
        <time>2020-07-19T08:51:20.000Z</time>
      </trkpt>
      <trkpt lat="45.2286" lon="6.20501">
        <ele>2051</ele>
        <time>2020-07-19T08:51:21.000Z</time>
      </trkpt>
      <trkpt lat="45.22859" lon="6.20499">
        <ele>2050.9</ele>
        <time>2020-07-19T08:51:22.000Z</time>
      </trkpt>
      <trkpt lat="45.22858" lon="6.20496">
        <ele>2050</ele>
        <time>2020-07-19T08:51:23.000Z</time>
      </trkpt>
      <trkpt lat="45.22857" lon="6.20494">
        <ele>2050.1</ele>
        <time>2020-07-19T08:51:24.000Z</time>
      </trkpt>
      <trkpt lat="45.22855" lon="6.20492">
        <ele>2051</ele>
        <time>2020-07-19T08:51:25.000Z</time>
      </trkpt>
      <trkpt lat="45.22854" lon="6.2049">
        <ele>2051</ele>
        <time>2020-07-19T08:51:26.000Z</time>
      </trkpt>
      <trkpt lat="45.22853" lon="6.20488">
        <ele>2051</ele>
        <time>2020-07-19T08:51:27.000Z</time>
      </trkpt>
      <trkpt lat="45.2285" lon="6.20484">
        <ele>2051</ele>
        <time>2020-07-19T08:51:29.000Z</time>
      </trkpt>
      <trkpt lat="45.22849" lon="6.20482">
        <ele>2051.1</ele>
        <time>2020-07-19T08:51:30.000Z</time>
      </trkpt>
      <trkpt lat="45.22848" lon="6.2048">
        <ele>2052</ele>
        <time>2020-07-19T08:51:31.000Z</time>
      </trkpt>
      <trkpt lat="45.22847" lon="6.20477">
        <ele>2052</ele>
        <time>2020-07-19T08:51:32.000Z</time>
      </trkpt>
      <trkpt lat="45.22845" lon="6.20475">
        <ele>2053</ele>
        <time>2020-07-19T08:51:33.000Z</time>
      </trkpt>
      <trkpt lat="45.22844" lon="6.20473">
        <ele>2053</ele>
        <time>2020-07-19T08:51:34.000Z</time>
      </trkpt>
      <trkpt lat="45.22842" lon="6.20469">
        <ele>2053</ele>
        <time>2020-07-19T08:51:36.000Z</time>
      </trkpt>
      <trkpt lat="45.22839" lon="6.20466">
        <ele>2053</ele>
        <time>2020-07-19T08:51:38.000Z</time>
      </trkpt>
      <trkpt lat="45.22837" lon="6.20464">
        <ele>2053</ele>
        <time>2020-07-19T08:51:40.000Z</time>
      </trkpt>
      <trkpt lat="45.22834" lon="6.20462">
        <ele>2054</ele>
        <time>2020-07-19T08:51:42.000Z</time>
      </trkpt>
      <trkpt lat="45.22831" lon="6.2046">
        <ele>2054</ele>
        <time>2020-07-19T08:51:44.000Z</time>
      </trkpt>
      <trkpt lat="45.22827" lon="6.20459">
        <ele>2054</ele>
        <time>2020-07-19T08:51:46.000Z</time>
      </trkpt>
      <trkpt lat="45.22824" lon="6.20458">
        <ele>2054</ele>
        <time>2020-07-19T08:51:48.000Z</time>
      </trkpt>
      <trkpt lat="45.22822" lon="6.20457">
        <ele>2054</ele>
        <time>2020-07-19T08:51:49.000Z</time>
      </trkpt>
      <trkpt lat="45.2282" lon="6.20457">
        <ele>2054.1</ele>
        <time>2020-07-19T08:51:50.000Z</time>
      </trkpt>
      <trkpt lat="45.22818" lon="6.20457">
        <ele>2054.8</ele>
        <time>2020-07-19T08:51:51.000Z</time>
      </trkpt>
      <trkpt lat="45.22816" lon="6.20457">
        <ele>2055.1</ele>
        <time>2020-07-19T08:51:52.000Z</time>
      </trkpt>
      <trkpt lat="45.22813" lon="6.20457">
        <ele>2055.9</ele>
        <time>2020-07-19T08:51:54.000Z</time>
      </trkpt>
      <trkpt lat="45.22809" lon="6.20457">
        <ele>2055</ele>
        <time>2020-07-19T08:51:56.000Z</time>
      </trkpt>
      <trkpt lat="45.22806" lon="6.20457">
        <ele>2056</ele>
        <time>2020-07-19T08:51:58.000Z</time>
      </trkpt>
      <trkpt lat="45.22803" lon="6.20457">
        <ele>2057</ele>
        <time>2020-07-19T08:52:00.000Z</time>
      </trkpt>
      <trkpt lat="45.22799" lon="6.20456">
        <ele>2057</ele>
        <time>2020-07-19T08:52:02.000Z</time>
      </trkpt>
      <trkpt lat="45.22796" lon="6.20456">
        <ele>2057</ele>
        <time>2020-07-19T08:52:04.000Z</time>
      </trkpt>
      <trkpt lat="45.22793" lon="6.20457">
        <ele>2057</ele>
        <time>2020-07-19T08:52:06.000Z</time>
      </trkpt>
      <trkpt lat="45.2279" lon="6.20458">
        <ele>2057</ele>
        <time>2020-07-19T08:52:08.000Z</time>
      </trkpt>
      <trkpt lat="45.22787" lon="6.20458">
        <ele>2057</ele>
        <time>2020-07-19T08:52:10.000Z</time>
      </trkpt>
      <trkpt lat="45.22784" lon="6.20456">
        <ele>2058</ele>
        <time>2020-07-19T08:52:12.000Z</time>
      </trkpt>
      <trkpt lat="45.22781" lon="6.20453">
        <ele>2058.1</ele>
        <time>2020-07-19T08:52:14.000Z</time>
      </trkpt>
      <trkpt lat="45.22778" lon="6.2045">
        <ele>2059</ele>
        <time>2020-07-19T08:52:16.000Z</time>
      </trkpt>
      <trkpt lat="45.22775" lon="6.20448">
        <ele>2059</ele>
        <time>2020-07-19T08:52:18.000Z</time>
      </trkpt>
      <trkpt lat="45.22773" lon="6.20445">
        <ele>2059</ele>
        <time>2020-07-19T08:52:20.000Z</time>
      </trkpt>
      <trkpt lat="45.2277" lon="6.20442">
        <ele>2059</ele>
        <time>2020-07-19T08:52:22.000Z</time>
      </trkpt>
      <trkpt lat="45.22767" lon="6.20439">
        <ele>2060</ele>
        <time>2020-07-19T08:52:24.000Z</time>
      </trkpt>
      <trkpt lat="45.22765" lon="6.20435">
        <ele>2060.1</ele>
        <time>2020-07-19T08:52:26.000Z</time>
      </trkpt>
      <trkpt lat="45.22764" lon="6.20433">
        <ele>2061</ele>
        <time>2020-07-19T08:52:27.000Z</time>
      </trkpt>
      <trkpt lat="45.22762" lon="6.20431">
        <ele>2061</ele>
        <time>2020-07-19T08:52:28.000Z</time>
      </trkpt>
      <trkpt lat="45.22761" lon="6.20429">
        <ele>2061</ele>
        <time>2020-07-19T08:52:29.000Z</time>
      </trkpt>
      <trkpt lat="45.2276" lon="6.20426">
        <ele>2061</ele>
        <time>2020-07-19T08:52:30.000Z</time>
      </trkpt>
      <trkpt lat="45.22759" lon="6.20424">
        <ele>2061.1</ele>
        <time>2020-07-19T08:52:31.000Z</time>
      </trkpt>
      <trkpt lat="45.22758" lon="6.20421">
        <ele>2062</ele>
        <time>2020-07-19T08:52:32.000Z</time>
      </trkpt>
      <trkpt lat="45.22758" lon="6.20418">
        <ele>2062</ele>
        <time>2020-07-19T08:52:33.000Z</time>
      </trkpt>
      <trkpt lat="45.22757" lon="6.20416">
        <ele>2062</ele>
        <time>2020-07-19T08:52:34.000Z</time>
      </trkpt>
      <trkpt lat="45.22756" lon="6.20413">
        <ele>2062</ele>
        <time>2020-07-19T08:52:35.000Z</time>
      </trkpt>
      <trkpt lat="45.22756" lon="6.2041">
        <ele>2062.1</ele>
        <time>2020-07-19T08:52:36.000Z</time>
      </trkpt>
      <trkpt lat="45.22755" lon="6.20408">
        <ele>2063</ele>
        <time>2020-07-19T08:52:37.000Z</time>
      </trkpt>
      <trkpt lat="45.22754" lon="6.20405">
        <ele>2063</ele>
        <time>2020-07-19T08:52:38.000Z</time>
      </trkpt>
      <trkpt lat="45.22754" lon="6.20402">
        <ele>2063</ele>
        <time>2020-07-19T08:52:39.000Z</time>
      </trkpt>
      <trkpt lat="45.22753" lon="6.204">
        <ele>2063</ele>
        <time>2020-07-19T08:52:40.000Z</time>
      </trkpt>
      <trkpt lat="45.22753" lon="6.20397">
        <ele>2063</ele>
        <time>2020-07-19T08:52:41.000Z</time>
      </trkpt>
      <trkpt lat="45.22752" lon="6.20392">
        <ele>2063.1</ele>
        <time>2020-07-19T08:52:43.000Z</time>
      </trkpt>
      <trkpt lat="45.22752" lon="6.2039">
        <ele>2064</ele>
        <time>2020-07-19T08:52:44.000Z</time>
      </trkpt>
      <trkpt lat="45.22751" lon="6.20387">
        <ele>2064</ele>
        <time>2020-07-19T08:52:45.000Z</time>
      </trkpt>
      <trkpt lat="45.22751" lon="6.20385">
        <ele>2064</ele>
        <time>2020-07-19T08:52:46.000Z</time>
      </trkpt>
      <trkpt lat="45.2275" lon="6.20382">
        <ele>2064</ele>
        <time>2020-07-19T08:52:47.000Z</time>
      </trkpt>
      <trkpt lat="45.2275" lon="6.20379">
        <ele>2064</ele>
        <time>2020-07-19T08:52:48.000Z</time>
      </trkpt>
      <trkpt lat="45.2275" lon="6.20375">
        <ele>2064</ele>
        <time>2020-07-19T08:52:50.000Z</time>
      </trkpt>
      <trkpt lat="45.2275" lon="6.2037">
        <ele>2064</ele>
        <time>2020-07-19T08:52:52.000Z</time>
      </trkpt>
      <trkpt lat="45.2275" lon="6.20367">
        <ele>2064</ele>
        <time>2020-07-19T08:52:53.000Z</time>
      </trkpt>
      <trkpt lat="45.2275" lon="6.20364">
        <ele>2064</ele>
        <time>2020-07-19T08:52:54.000Z</time>
      </trkpt>
      <trkpt lat="45.2275" lon="6.20361">
        <ele>2064</ele>
        <time>2020-07-19T08:52:55.000Z</time>
      </trkpt>
      <trkpt lat="45.22749" lon="6.20359">
        <ele>2064.1</ele>
        <time>2020-07-19T08:52:56.000Z</time>
      </trkpt>
      <trkpt lat="45.22749" lon="6.20356">
        <ele>2065</ele>
        <time>2020-07-19T08:52:57.000Z</time>
      </trkpt>
      <trkpt lat="45.22749" lon="6.20353">
        <ele>2065</ele>
        <time>2020-07-19T08:52:58.000Z</time>
      </trkpt>
      <trkpt lat="45.22749" lon="6.2035">
        <ele>2065</ele>
        <time>2020-07-19T08:52:59.000Z</time>
      </trkpt>
      <trkpt lat="45.22749" lon="6.20348">
        <ele>2065</ele>
        <time>2020-07-19T08:53:00.000Z</time>
      </trkpt>
      <trkpt lat="45.22749" lon="6.20345">
        <ele>2065</ele>
        <time>2020-07-19T08:53:01.000Z</time>
      </trkpt>
      <trkpt lat="45.22749" lon="6.20342">
        <ele>2065</ele>
        <time>2020-07-19T08:53:02.000Z</time>
      </trkpt>
      <trkpt lat="45.22749" lon="6.2034">
        <ele>2065</ele>
        <time>2020-07-19T08:53:03.000Z</time>
      </trkpt>
      <trkpt lat="45.2275" lon="6.20337">
        <ele>2065</ele>
        <time>2020-07-19T08:53:04.000Z</time>
      </trkpt>
      <trkpt lat="45.2275" lon="6.20335">
        <ele>2065</ele>
        <time>2020-07-19T08:53:05.000Z</time>
      </trkpt>
      <trkpt lat="45.22751" lon="6.2033">
        <ele>2065</ele>
        <time>2020-07-19T08:53:07.000Z</time>
      </trkpt>
      <trkpt lat="45.2275" lon="6.20327">
        <ele>2065</ele>
        <time>2020-07-19T08:53:09.000Z</time>
      </trkpt>
      <trkpt lat="45.22748" lon="6.20326">
        <ele>2066</ele>
        <time>2020-07-19T08:53:31.000Z</time>
      </trkpt>
      <trkpt lat="45.22749" lon="6.20328">
        <ele>2065.8</ele>
        <time>2020-07-19T08:53:45.000Z</time>
      </trkpt>
      <trkpt lat="45.22751" lon="6.2033">
        <ele>2066</ele>
        <time>2020-07-19T08:53:50.000Z</time>
      </trkpt>
      <trkpt lat="45.22753" lon="6.20331">
        <ele>2066</ele>
        <time>2020-07-19T08:54:06.000Z</time>
      </trkpt>
      <trkpt lat="45.22751" lon="6.2033">
        <ele>2065</ele>
        <time>2020-07-19T08:54:12.000Z</time>
      </trkpt>
      <trkpt lat="45.2275" lon="6.20328">
        <ele>2065</ele>
        <time>2020-07-19T08:54:18.000Z</time>
      </trkpt>
      <trkpt lat="45.22748" lon="6.20326">
        <ele>2066</ele>
        <time>2020-07-19T08:54:51.000Z</time>
      </trkpt>
      <trkpt lat="45.22749" lon="6.20324">
        <ele>2066</ele>
        <time>2020-07-19T08:54:58.000Z</time>
      </trkpt>
      <trkpt lat="45.2275" lon="6.20321">
        <ele>2066</ele>
        <time>2020-07-19T08:55:01.000Z</time>
      </trkpt>
      <trkpt lat="45.2275" lon="6.20317">
        <ele>2066</ele>
        <time>2020-07-19T08:55:03.000Z</time>
      </trkpt>
      <trkpt lat="45.22748" lon="6.20314">
        <ele>2066</ele>
        <time>2020-07-19T08:55:05.000Z</time>
      </trkpt>
      <trkpt lat="45.22747" lon="6.20312">
        <ele>2066</ele>
        <time>2020-07-19T08:55:07.000Z</time>
      </trkpt>
      <trkpt lat="45.22748" lon="6.20315">
        <ele>2065</ele>
        <time>2020-07-19T08:55:18.000Z</time>
      </trkpt>
      <trkpt lat="45.2275" lon="6.20317">
        <ele>2065.8</ele>
        <time>2020-07-19T08:55:20.000Z</time>
      </trkpt>
      <trkpt lat="45.2275" lon="6.20321">
        <ele>2066</ele>
        <time>2020-07-19T08:55:22.000Z</time>
      </trkpt>
      <trkpt lat="45.2275" lon="6.20324">
        <ele>2066</ele>
        <time>2020-07-19T08:55:24.000Z</time>
      </trkpt>
      <trkpt lat="45.22749" lon="6.20328">
        <ele>2066</ele>
        <time>2020-07-19T08:55:26.000Z</time>
      </trkpt>
      <trkpt lat="45.22749" lon="6.20331">
        <ele>2066</ele>
        <time>2020-07-19T08:55:32.000Z</time>
      </trkpt>
      <trkpt lat="45.22748" lon="6.20333">
        <ele>2066</ele>
        <time>2020-07-19T08:55:53.000Z</time>
      </trkpt>
      <trkpt lat="45.22749" lon="6.2033">
        <ele>2067</ele>
        <time>2020-07-19T08:56:47.000Z</time>
      </trkpt>
      <trkpt lat="45.2275" lon="6.20328">
        <ele>2067</ele>
        <time>2020-07-19T08:56:58.000Z</time>
      </trkpt>
      <trkpt lat="45.22751" lon="6.20326">
        <ele>2067</ele>
        <time>2020-07-19T08:57:02.000Z</time>
      </trkpt>
      <trkpt lat="45.22751" lon="6.20323">
        <ele>2067</ele>
        <time>2020-07-19T08:57:05.000Z</time>
      </trkpt>
      <trkpt lat="45.2275" lon="6.20319">
        <ele>2067</ele>
        <time>2020-07-19T08:57:08.000Z</time>
      </trkpt>
      <trkpt lat="45.22749" lon="6.20316">
        <ele>2067</ele>
        <time>2020-07-19T08:57:11.000Z</time>
      </trkpt>
      <trkpt lat="45.22748" lon="6.20314">
        <ele>2067</ele>
        <time>2020-07-19T08:57:14.000Z</time>
      </trkpt>
      <trkpt lat="45.22747" lon="6.20311">
        <ele>2067</ele>
        <time>2020-07-19T08:57:17.000Z</time>
      </trkpt>
      <trkpt lat="45.22747" lon="6.20308">
        <ele>2066</ele>
        <time>2020-07-19T08:58:12.000Z</time>
      </trkpt>
      <trkpt lat="45.22747" lon="6.20304">
        <ele>2067</ele>
        <time>2020-07-19T08:58:14.000Z</time>
      </trkpt>
      <trkpt lat="45.22747" lon="6.203">
        <ele>2067</ele>
        <time>2020-07-19T08:58:16.000Z</time>
      </trkpt>
      <trkpt lat="45.22748" lon="6.20296">
        <ele>2067</ele>
        <time>2020-07-19T08:58:18.000Z</time>
      </trkpt>
      <trkpt lat="45.22749" lon="6.20293">
        <ele>2067</ele>
        <time>2020-07-19T08:58:20.000Z</time>
      </trkpt>
      <trkpt lat="45.22749" lon="6.20289">
        <ele>2067</ele>
        <time>2020-07-19T08:58:22.000Z</time>
      </trkpt>
      <trkpt lat="45.22751" lon="6.20286">
        <ele>2067</ele>
        <time>2020-07-19T08:58:24.000Z</time>
      </trkpt>
      <trkpt lat="45.22765" lon="6.20275">
        <ele>2065</ele>
      </trkpt>
      <trkpt lat="45.22765" lon="6.20275">
        <ele>2065</ele>
      </trkpt>
      <trkpt lat="45.22745" lon="6.20267">
        <ele>2063</ele>
      </trkpt>
      <trkpt lat="45.22681" lon="6.20142">
        <ele>2059</ele>
      </trkpt>
      <trkpt lat="45.22681" lon="6.20105">
        <ele>2059</ele>
      </trkpt>
      <trkpt lat="45.22706" lon="6.19914">
        <ele>2083</ele>
      </trkpt>
      <trkpt lat="45.2279" lon="6.19708">
        <ele>2076</ele>
      </trkpt>
      <trkpt lat="45.22812" lon="6.19588">
        <ele>2067</ele>
      </trkpt>
      <trkpt lat="45.22771" lon="6.19468">
        <ele>2060</ele>
      </trkpt>
      <trkpt lat="45.22683" lon="6.19372">
        <ele>2075</ele>
      </trkpt>
      <trkpt lat="45.22695" lon="6.19327">
        <ele>2078</ele>
      </trkpt>
      <trkpt lat="45.22756" lon="6.19244">
        <ele>2072</ele>
      </trkpt>
      <trkpt lat="45.22656" lon="6.19032">
        <ele>2109</ele>
      </trkpt>
      <trkpt lat="45.22631" lon="6.19152">
        <ele>2116</ele>
      </trkpt>
      <trkpt lat="45.22555" lon="6.19171">
        <ele>2139</ele>
      </trkpt>
      <trkpt lat="45.2258" lon="6.19124">
        <ele>2142</ele>
      </trkpt>
      <trkpt lat="45.22555" lon="6.1909">
        <ele>2145</ele>
      </trkpt>
      <trkpt lat="45.22541" lon="6.19118">
        <ele>2148</ele>
      </trkpt>
      <trkpt lat="45.2253" lon="6.19113">
        <ele>2150</ele>
      </trkpt>
      <trkpt lat="45.22517" lon="6.19077">
        <ele>2155</ele>
      </trkpt>
      <trkpt lat="45.22505" lon="6.19098">
        <ele>2157</ele>
      </trkpt>
      <trkpt lat="45.22478" lon="6.19053">
        <ele>2174</ele>
      </trkpt>
      <trkpt lat="45.22469" lon="6.19092">
        <ele>2178</ele>
      </trkpt>
      <trkpt lat="45.22444" lon="6.19058">
        <ele>2182</ele>
      </trkpt>
      <trkpt lat="45.22433" lon="6.19087">
        <ele>2189</ele>
      </trkpt>
      <trkpt lat="45.2241" lon="6.19051">
        <ele>2206</ele>
      </trkpt>
      <trkpt lat="45.22424" lon="6.1899">
        <ele>2184</ele>
      </trkpt>
      <trkpt lat="45.22353" lon="6.18917">
        <ele>2202</ele>
      </trkpt>
      <trkpt lat="45.22357" lon="6.18964">
        <ele>2209</ele>
      </trkpt>
      <trkpt lat="45.22278" lon="6.18903">
        <ele>2230</ele>
      </trkpt>
      <trkpt lat="45.2229" lon="6.18956">
        <ele>2237</ele>
      </trkpt>
      <trkpt lat="45.22249" lon="6.18922">
        <ele>2248</ele>
      </trkpt>
      <trkpt lat="45.22233" lon="6.18958">
        <ele>2256</ele>
      </trkpt>
      <trkpt lat="45.22166" lon="6.18943">
        <ele>2270</ele>
      </trkpt>
      <trkpt lat="45.22098" lon="6.18888">
        <ele>2269</ele>
      </trkpt>
      <trkpt lat="45.22109" lon="6.18859">
        <ele>2268</ele>
      </trkpt>
      <trkpt lat="45.22138" lon="6.18843">
        <ele>2264</ele>
      </trkpt>
      <trkpt lat="45.22125" lon="6.18823">
        <ele>2264</ele>
      </trkpt>
      <trkpt lat="45.22044" lon="6.1875">
        <ele>2283</ele>
      </trkpt>
      <trkpt lat="45.22001" lon="6.18674">
        <ele>2292</ele>
      </trkpt>
      <trkpt lat="45.21931" lon="6.18598">
        <ele>2311</ele>
      </trkpt>
      <trkpt lat="45.21769" lon="6.18543">
        <ele>2337</ele>
      </trkpt>
      <trkpt lat="45.21692" lon="6.1847">
        <ele>2355</ele>
      </trkpt>
      <trkpt lat="45.21526" lon="6.18391">
        <ele>2382</ele>
      </trkpt>
      <trkpt lat="45.21503" lon="6.18345">
        <ele>2392</ele>
      </trkpt>
      <trkpt lat="45.21464" lon="6.18363">
        <ele>2396</ele>
      </trkpt>
      <trkpt lat="45.21404" lon="6.18339">
        <ele>2419</ele>
      </trkpt>
      <trkpt lat="45.21431" lon="6.18308">
        <ele>2419</ele>
      </trkpt>
      <trkpt lat="45.21388" lon="6.18287">
        <ele>2432</ele>
      </trkpt>
      <trkpt lat="45.21323" lon="6.1829">
        <ele>2451</ele>
      </trkpt>
      <trkpt lat="45.21354" lon="6.18256">
        <ele>2437</ele>
      </trkpt>
      <trkpt lat="45.21334" lon="6.18206">
        <ele>2450</ele>
      </trkpt>
      <trkpt lat="45.21334" lon="6.18183">
        <ele>2455</ele>
      </trkpt>
      <trkpt lat="45.21305" lon="6.18168">
        <ele>2462</ele>
      </trkpt>
      <trkpt lat="45.21294" lon="6.18207">
        <ele>2461</ele>
      </trkpt>
      <trkpt lat="45.21258" lon="6.18168">
        <ele>2470</ele>
      </trkpt>
      <trkpt lat="45.21238" lon="6.18189">
        <ele>2482</ele>
      </trkpt>
      <trkpt lat="45.21233" lon="6.18113">
        <ele>2491</ele>
      </trkpt>
      <trkpt lat="45.21195" lon="6.18142">
        <ele>2496</ele>
      </trkpt>
      <trkpt lat="45.21179" lon="6.18037">
        <ele>2508</ele>
      </trkpt>
      <trkpt lat="45.21215" lon="6.17954">
        <ele>2516</ele>
      </trkpt>
      <trkpt lat="45.21203" lon="6.17922">
        <ele>2519</ele>
      </trkpt>
      <trkpt lat="45.21158" lon="6.17917">
        <ele>2525</ele>
      </trkpt>
      <trkpt lat="45.21043" lon="6.17862">
        <ele>2525</ele>
      </trkpt>
      <trkpt lat="45.20916" lon="6.17852">
        <ele>2518</ele>
      </trkpt>
      <trkpt lat="45.20784" lon="6.17878">
        <ele>2511</ele>
      </trkpt>
      <trkpt lat="45.2068" lon="6.1786">
        <ele>2506</ele>
      </trkpt>
      <trkpt lat="45.20595" lon="6.17872">
        <ele>2509</ele>
      </trkpt>
      <trkpt lat="45.20548" lon="6.17922">
        <ele>2523</ele>
      </trkpt>
      <trkpt lat="45.20492" lon="6.18021">
        <ele>2533</ele>
      </trkpt>
      <trkpt lat="45.20375" lon="6.17976">
        <ele>2520</ele>
      </trkpt>
      <trkpt lat="45.20304" lon="6.17932">
        <ele>2516</ele>
      </trkpt>
      <trkpt lat="45.20178" lon="6.17927">
        <ele>2505</ele>
      </trkpt>
      <trkpt lat="45.20104" lon="6.17896">
        <ele>2479</ele>
      </trkpt>
      <trkpt lat="45.19958" lon="6.17835">
        <ele>2499</ele>
      </trkpt>
      <trkpt lat="45.19926" lon="6.17799">
        <ele>2473</ele>
      </trkpt>
      <trkpt lat="45.19832" lon="6.17723">
        <ele>2481</ele>
      </trkpt>
      <trkpt lat="45.1975" lon="6.17608">
        <ele>2477</ele>
      </trkpt>
      <trkpt lat="45.19688" lon="6.17533">
        <ele>2466</ele>
      </trkpt>
      <trkpt lat="45.196" lon="6.17559">
        <ele>2483</ele>
      </trkpt>
      <trkpt lat="45.19555" lon="6.17661">
        <ele>2490</ele>
      </trkpt>
      <trkpt lat="45.19523" lon="6.17752">
        <ele>2491</ele>
      </trkpt>
      <trkpt lat="45.19439" lon="6.17742">
        <ele>2485</ele>
      </trkpt>
      <trkpt lat="45.19405" lon="6.17713">
        <ele>2494</ele>
      </trkpt>
      <trkpt lat="45.19279" lon="6.17718">
        <ele>2509</ele>
      </trkpt>
      <trkpt lat="45.19196" lon="6.17739">
        <ele>2513</ele>
      </trkpt>
      <trkpt lat="45.19148" lon="6.1777">
        <ele>2522</ele>
      </trkpt>
      <trkpt lat="45.19067" lon="6.17742">
        <ele>2518</ele>
      </trkpt>
      <trkpt lat="45.19006" lon="6.1765">
        <ele>2512</ele>
      </trkpt>
      <trkpt lat="45.18894" lon="6.1747">
        <ele>2513</ele>
      </trkpt>
      <trkpt lat="45.18878" lon="6.17355">
        <ele>2509</ele>
      </trkpt>
      <trkpt lat="45.18801" lon="6.17271">
        <ele>2516</ele>
      </trkpt>
      <trkpt lat="45.18774" lon="6.17289">
        <ele>2515</ele>
      </trkpt>
      <trkpt lat="45.18722" lon="6.17282">
        <ele>2513</ele>
      </trkpt>
      <trkpt lat="45.18677" lon="6.17323">
        <ele>2512</ele>
      </trkpt>
      <trkpt lat="45.18607" lon="6.17329">
        <ele>2509</ele>
      </trkpt>
      <trkpt lat="45.18553" lon="6.1736">
        <ele>2515</ele>
      </trkpt>
      <trkpt lat="45.18418" lon="6.17321">
        <ele>2512</ele>
      </trkpt>
      <trkpt lat="45.18299" lon="6.1725">
        <ele>2528</ele>
      </trkpt>
      <trkpt lat="45.18125" lon="6.17133">
        <ele>2543</ele>
      </trkpt>
      <trkpt lat="45.18019" lon="6.17108">
        <ele>2553</ele>
      </trkpt>
      <trkpt lat="45.17899" lon="6.17014">
        <ele>2606.9</ele>
      </trkpt>
      <trkpt lat="45.17748" lon="6.16936">
        <ele>2629.9</ele>
      </trkpt>
      <trkpt lat="45.17669" lon="6.1693">
        <ele>2639.2</ele>
      </trkpt>
      <trkpt lat="45.17489" lon="6.16808">
        <ele>2672</ele>
      </trkpt>
      <trkpt lat="45.17383" lon="6.16733">
        <ele>2689.7</ele>
      </trkpt>
      <trkpt lat="45.17322" lon="6.16733">
        <ele>2689.1</ele>
      </trkpt>
      <trkpt lat="45.17212" lon="6.16691">
        <ele>2672.5</ele>
      </trkpt>
      <trkpt lat="45.16998" lon="6.16573">
        <ele>2670.1</ele>
      </trkpt>
      <trkpt lat="45.16773" lon="6.16426">
        <ele>2710.7</ele>
      </trkpt>
      <trkpt lat="45.16493" lon="6.16295">
        <ele>2751.1</ele>
      </trkpt>
      <trkpt lat="45.16191" lon="6.16222">
        <ele>2826</ele>
      </trkpt>
      <trkpt lat="45.15936" lon="6.16071">
        <ele>2871</ele>
      </trkpt>
      <trkpt lat="45.15753" lon="6.15867">
        <ele>2906</ele>
      </trkpt>
      <trkpt lat="45.15642" lon="6.15825">
        <ele>2933</ele>
      </trkpt>
      <trkpt lat="45.15476" lon="6.15789">
        <ele>2960</ele>
      </trkpt>
      <trkpt lat="45.15347" lon="6.15679">
        <ele>2981</ele>
      </trkpt>
      <trkpt lat="45.15239" lon="6.15554">
        <ele>2993</ele>
      </trkpt>
      <trkpt lat="45.15394" lon="6.15731">
        <ele>2976</ele>
      </trkpt>
      <trkpt lat="45.15491" lon="6.15789">
        <ele>2959</ele>
      </trkpt>
      <trkpt lat="45.15685" lon="6.15841">
        <ele>2921</ele>
      </trkpt>
      <trkpt lat="45.15807" lon="6.15924">
        <ele>2897</ele>
      </trkpt>
      <trkpt lat="45.1594" lon="6.16065">
        <ele>2871</ele>
      </trkpt>
      <trkpt lat="45.16123" lon="6.1618">
        <ele>2837</ele>
      </trkpt>
      <trkpt lat="45.16352" lon="6.16264">
        <ele>2770.8</ele>
      </trkpt>
      <trkpt lat="45.16604" lon="6.16337">
        <ele>2733</ele>
      </trkpt>
      <trkpt lat="45.16816" lon="6.16452">
        <ele>2704.5</ele>
      </trkpt>
      <trkpt lat="45.17036" lon="6.16593">
        <ele>2664</ele>
      </trkpt>
      <trkpt lat="45.17222" lon="6.16702">
        <ele>2674.2</ele>
      </trkpt>
      <trkpt lat="45.17392" lon="6.16743">
        <ele>2689.7</ele>
      </trkpt>
      <trkpt lat="45.17651" lon="6.16921">
        <ele>2641.5</ele>
      </trkpt>
      <trkpt lat="45.17755" lon="6.16942">
        <ele>2629.5</ele>
      </trkpt>
      <trkpt lat="45.18035" lon="6.17109">
        <ele>2553</ele>
      </trkpt>
      <trkpt lat="45.18233" lon="6.17192">
        <ele>2531</ele>
      </trkpt>
      <trkpt lat="45.1842" lon="6.17323">
        <ele>2513</ele>
      </trkpt>
      <trkpt lat="45.18603" lon="6.17338">
        <ele>2515</ele>
      </trkpt>
      <trkpt lat="45.18797" lon="6.17281">
        <ele>2515</ele>
      </trkpt>
      <trkpt lat="45.18962" lon="6.17229">
        <ele>2512</ele>
      </trkpt>
      <trkpt lat="45.19053" lon="6.1726">
        <ele>2482</ele>
      </trkpt>
      <trkpt lat="45.1915" lon="6.17224">
        <ele>2486</ele>
      </trkpt>
      <trkpt lat="45.19218" lon="6.17239">
        <ele>2497</ele>
      </trkpt>
      <trkpt lat="45.1925" lon="6.17281">
        <ele>2492</ele>
      </trkpt>
      <trkpt lat="45.1952" lon="6.1737">
        <ele>2479</ele>
      </trkpt>
      <trkpt lat="45.19625" lon="6.17417">
        <ele>2468</ele>
      </trkpt>
      <trkpt lat="45.19716" lon="6.17375">
        <ele>2457</ele>
      </trkpt>
      <trkpt lat="45.1972" lon="6.17318">
        <ele>2466</ele>
      </trkpt>
      <trkpt lat="45.19795" lon="6.17302">
        <ele>2465</ele>
      </trkpt>
      <trkpt lat="45.19867" lon="6.1737">
        <ele>2456</ele>
      </trkpt>
      <trkpt lat="45.20007" lon="6.17391">
        <ele>2451</ele>
      </trkpt>
      <trkpt lat="45.20011" lon="6.17286">
        <ele>2447</ele>
      </trkpt>
      <trkpt lat="45.20101" lon="6.17307">
        <ele>2445</ele>
      </trkpt>
      <trkpt lat="45.20147" lon="6.1737">
        <ele>2453</ele>
      </trkpt>
      <trkpt lat="45.20201" lon="6.17396">
        <ele>2450</ele>
      </trkpt>
      <trkpt lat="45.20298" lon="6.17454">
        <ele>2440</ele>
      </trkpt>
      <trkpt lat="45.2033" lon="6.1754">
        <ele>2444</ele>
      </trkpt>
      <trkpt lat="45.20378" lon="6.1754">
        <ele>2437</ele>
      </trkpt>
      <trkpt lat="45.20445" lon="6.17561">
        <ele>2428</ele>
      </trkpt>
      <trkpt lat="45.20371" lon="6.17595">
        <ele>2447</ele>
      </trkpt>
      <trkpt lat="45.20452" lon="6.17629">
        <ele>2445</ele>
      </trkpt>
      <trkpt lat="45.2045" lon="6.1765">
        <ele>2447</ele>
      </trkpt>
      <trkpt lat="45.20364" lon="6.17684">
        <ele>2458</ele>
      </trkpt>
      <trkpt lat="45.20387" lon="6.17765">
        <ele>2473</ele>
      </trkpt>
      <trkpt lat="45.20409" lon="6.17846">
        <ele>2485.6</ele>
      </trkpt>
      <trkpt lat="45.2043" lon="6.17858">
        <ele>2490.5</ele>
      </trkpt>
      <trkpt lat="45.20428" lon="6.17875">
        <ele>2494.1</ele>
      </trkpt>
      <trkpt lat="45.20415" lon="6.17897">
        <ele>2497.7</ele>
      </trkpt>
      <trkpt lat="45.20433" lon="6.17923">
        <ele>2506</ele>
      </trkpt>
      <trkpt lat="45.20461" lon="6.17941">
        <ele>2514</ele>
      </trkpt>
      <trkpt lat="45.20472" lon="6.17981">
        <ele>2525</ele>
      </trkpt>
      <trkpt lat="45.20473" lon="6.1804">
        <ele>2533.9</ele>
      </trkpt>
      <trkpt lat="45.20478" lon="6.18059">
        <ele>2535</ele>
        <time>2020-07-19T12:50:39.000Z</time>
      </trkpt>
      <trkpt lat="45.20479" lon="6.18064">
        <ele>2535</ele>
        <time>2020-07-19T12:50:40.000Z</time>
      </trkpt>
      <trkpt lat="45.20479" lon="6.1807">
        <ele>2535</ele>
        <time>2020-07-19T12:50:41.000Z</time>
      </trkpt>
      <trkpt lat="45.2048" lon="6.18077">
        <ele>2535</ele>
        <time>2020-07-19T12:50:42.000Z</time>
      </trkpt>
      <trkpt lat="45.20482" lon="6.18081">
        <ele>2535</ele>
        <time>2020-07-19T12:50:43.000Z</time>
      </trkpt>
      <trkpt lat="45.20484" lon="6.18085">
        <ele>2534.9</ele>
        <time>2020-07-19T12:50:44.000Z</time>
      </trkpt>
      <trkpt lat="45.20486" lon="6.1809">
        <ele>2533.9</ele>
        <time>2020-07-19T12:50:45.000Z</time>
      </trkpt>
      <trkpt lat="45.20486" lon="6.18096">
        <ele>2532.9</ele>
        <time>2020-07-19T12:50:46.000Z</time>
      </trkpt>
      <trkpt lat="45.20486" lon="6.18103">
        <ele>2532</ele>
        <time>2020-07-19T12:50:47.000Z</time>
      </trkpt>
      <trkpt lat="45.20485" lon="6.1811">
        <ele>2532</ele>
        <time>2020-07-19T12:50:48.000Z</time>
      </trkpt>
      <trkpt lat="45.20484" lon="6.18116">
        <ele>2531.9</ele>
        <time>2020-07-19T12:50:49.000Z</time>
      </trkpt>
      <trkpt lat="45.20485" lon="6.18123">
        <ele>2531</ele>
        <time>2020-07-19T12:50:50.000Z</time>
      </trkpt>
      <trkpt lat="45.20486" lon="6.18129">
        <ele>2531</ele>
        <time>2020-07-19T12:50:51.000Z</time>
      </trkpt>
      <trkpt lat="45.20487" lon="6.18134">
        <ele>2531</ele>
        <time>2020-07-19T12:50:52.000Z</time>
      </trkpt>
      <trkpt lat="45.20487" lon="6.18137">
        <ele>2531</ele>
        <time>2020-07-19T12:50:53.000Z</time>
      </trkpt>
      <trkpt lat="45.20487" lon="6.18142">
        <ele>2529.9</ele>
        <time>2020-07-19T12:50:55.000Z</time>
      </trkpt>
      <trkpt lat="45.20487" lon="6.18146">
        <ele>2529.2</ele>
        <time>2020-07-19T12:50:56.000Z</time>
      </trkpt>
      <trkpt lat="45.20487" lon="6.1815">
        <ele>2529</ele>
        <time>2020-07-19T12:50:57.000Z</time>
      </trkpt>
      <trkpt lat="45.20486" lon="6.18154">
        <ele>2528.9</ele>
        <time>2020-07-19T12:50:58.000Z</time>
      </trkpt>
      <trkpt lat="45.20486" lon="6.18157">
        <ele>2528</ele>
        <time>2020-07-19T12:50:59.000Z</time>
      </trkpt>
      <trkpt lat="45.20486" lon="6.18161">
        <ele>2528</ele>
        <time>2020-07-19T12:51:00.000Z</time>
      </trkpt>
      <trkpt lat="45.20487" lon="6.18164">
        <ele>2527.9</ele>
        <time>2020-07-19T12:51:01.000Z</time>
      </trkpt>
      <trkpt lat="45.20487" lon="6.18166">
        <ele>2527</ele>
        <time>2020-07-19T12:51:02.000Z</time>
      </trkpt>
      <trkpt lat="45.20487" lon="6.18169">
        <ele>2527</ele>
        <time>2020-07-19T12:51:04.000Z</time>
      </trkpt>
      <trkpt lat="45.20486" lon="6.18174">
        <ele>2526.9</ele>
        <time>2020-07-19T12:51:06.000Z</time>
      </trkpt>
      <trkpt lat="45.20486" lon="6.18177">
        <ele>2525.9</ele>
        <time>2020-07-19T12:51:07.000Z</time>
      </trkpt>
      <trkpt lat="45.20486" lon="6.18182">
        <ele>2524.8</ele>
        <time>2020-07-19T12:51:09.000Z</time>
      </trkpt>
      <trkpt lat="45.20486" lon="6.18184">
        <ele>2523</ele>
        <time>2020-07-19T12:51:10.000Z</time>
      </trkpt>
      <trkpt lat="45.20486" lon="6.18187">
        <ele>2522.9</ele>
        <time>2020-07-19T12:51:11.000Z</time>
      </trkpt>
      <trkpt lat="45.20485" lon="6.1819">
        <ele>2522</ele>
        <time>2020-07-19T12:51:12.000Z</time>
      </trkpt>
      <trkpt lat="45.20484" lon="6.18193">
        <ele>2521.9</ele>
        <time>2020-07-19T12:51:13.000Z</time>
      </trkpt>
      <trkpt lat="45.20484" lon="6.18196">
        <ele>2521</ele>
        <time>2020-07-19T12:51:14.000Z</time>
      </trkpt>
      <trkpt lat="45.20484" lon="6.18199">
        <ele>2521</ele>
        <time>2020-07-19T12:51:15.000Z</time>
      </trkpt>
      <trkpt lat="45.20485" lon="6.18203">
        <ele>2520</ele>
        <time>2020-07-19T12:51:16.000Z</time>
      </trkpt>
      <trkpt lat="45.20485" lon="6.18206">
        <ele>2520</ele>
        <time>2020-07-19T12:51:17.000Z</time>
      </trkpt>
      <trkpt lat="45.20485" lon="6.18209">
        <ele>2519.9</ele>
        <time>2020-07-19T12:51:18.000Z</time>
      </trkpt>
      <trkpt lat="45.20484" lon="6.18213">
        <ele>2518.9</ele>
        <time>2020-07-19T12:51:20.000Z</time>
      </trkpt>
      <trkpt lat="45.20483" lon="6.18216">
        <ele>2516.9</ele>
        <time>2020-07-19T12:51:23.000Z</time>
      </trkpt>
      <trkpt lat="45.20483" lon="6.18219">
        <ele>2516</ele>
        <time>2020-07-19T12:51:25.000Z</time>
      </trkpt>
      <trkpt lat="45.20483" lon="6.18224">
        <ele>2515</ele>
        <time>2020-07-19T12:51:28.000Z</time>
      </trkpt>
      <trkpt lat="45.20482" lon="6.18227">
        <ele>2514.9</ele>
        <time>2020-07-19T12:51:30.000Z</time>
      </trkpt>
      <trkpt lat="45.20481" lon="6.1823">
        <ele>2514</ele>
        <time>2020-07-19T12:51:34.000Z</time>
      </trkpt>
      <trkpt lat="45.2048" lon="6.18233">
        <ele>2514</ele>
        <time>2020-07-19T12:51:35.000Z</time>
      </trkpt>
      <trkpt lat="45.20479" lon="6.18237">
        <ele>2514</ele>
        <time>2020-07-19T12:51:37.000Z</time>
      </trkpt>
      <trkpt lat="45.20478" lon="6.1824">
        <ele>2512.9</ele>
        <time>2020-07-19T12:51:40.000Z</time>
      </trkpt>
      <trkpt lat="45.20477" lon="6.18243">
        <ele>2512</ele>
        <time>2020-07-19T12:51:43.000Z</time>
      </trkpt>
      <trkpt lat="45.20477" lon="6.18248">
        <ele>2512</ele>
        <time>2020-07-19T12:51:45.000Z</time>
      </trkpt>
      <trkpt lat="45.20477" lon="6.18251">
        <ele>2512</ele>
        <time>2020-07-19T12:51:46.000Z</time>
      </trkpt>
      <trkpt lat="45.20477" lon="6.18254">
        <ele>2511.9</ele>
        <time>2020-07-19T12:51:47.000Z</time>
      </trkpt>
      <trkpt lat="45.20477" lon="6.18258">
        <ele>2511</ele>
        <time>2020-07-19T12:51:48.000Z</time>
      </trkpt>
      <trkpt lat="45.20478" lon="6.1826">
        <ele>2511</ele>
        <time>2020-07-19T12:51:49.000Z</time>
      </trkpt>
      <trkpt lat="45.20479" lon="6.18264">
        <ele>2509</ele>
        <time>2020-07-19T12:51:52.000Z</time>
      </trkpt>
      <trkpt lat="45.20479" lon="6.18267">
        <ele>2509</ele>
        <time>2020-07-19T12:51:54.000Z</time>
      </trkpt>
      <trkpt lat="45.20479" lon="6.1827">
        <ele>2509</ele>
        <time>2020-07-19T12:51:55.000Z</time>
      </trkpt>
      <trkpt lat="45.20479" lon="6.18273">
        <ele>2508</ele>
        <time>2020-07-19T12:51:56.000Z</time>
      </trkpt>
      <trkpt lat="45.20479" lon="6.18277">
        <ele>2507.9</ele>
        <time>2020-07-19T12:51:57.000Z</time>
      </trkpt>
      <trkpt lat="45.2048" lon="6.18281">
        <ele>2507</ele>
        <time>2020-07-19T12:51:58.000Z</time>
      </trkpt>
      <trkpt lat="45.2048" lon="6.18284">
        <ele>2506.9</ele>
        <time>2020-07-19T12:51:59.000Z</time>
      </trkpt>
      <trkpt lat="45.20481" lon="6.18286">
        <ele>2505.9</ele>
        <time>2020-07-19T12:52:00.000Z</time>
      </trkpt>
      <trkpt lat="45.20481" lon="6.18289">
        <ele>2505</ele>
        <time>2020-07-19T12:52:01.000Z</time>
      </trkpt>
      <trkpt lat="45.20482" lon="6.18294">
        <ele>2505</ele>
        <time>2020-07-19T12:52:03.000Z</time>
      </trkpt>
      <trkpt lat="45.20482" lon="6.18297">
        <ele>2504</ele>
        <time>2020-07-19T12:52:05.000Z</time>
      </trkpt>
      <trkpt lat="45.20482" lon="6.183">
        <ele>2503</ele>
        <time>2020-07-19T12:52:13.000Z</time>
      </trkpt>
      <trkpt lat="45.20481" lon="6.18302">
        <ele>2502</ele>
        <time>2020-07-19T12:52:21.000Z</time>
      </trkpt>
      <trkpt lat="45.2048" lon="6.18305">
        <ele>2502</ele>
        <time>2020-07-19T12:52:24.000Z</time>
      </trkpt>
      <trkpt lat="45.2048" lon="6.18309">
        <ele>2501.9</ele>
        <time>2020-07-19T12:52:26.000Z</time>
      </trkpt>
      <trkpt lat="45.20479" lon="6.18311">
        <ele>2500.9</ele>
        <time>2020-07-19T12:52:28.000Z</time>
      </trkpt>
      <trkpt lat="45.20479" lon="6.18314">
        <ele>2499</ele>
        <time>2020-07-19T12:52:33.000Z</time>
      </trkpt>
      <trkpt lat="45.20478" lon="6.18317">
        <ele>2498.9</ele>
        <time>2020-07-19T12:52:36.000Z</time>
      </trkpt>
      <trkpt lat="45.20478" lon="6.1832">
        <ele>2498</ele>
        <time>2020-07-19T12:52:38.000Z</time>
      </trkpt>
      <trkpt lat="45.20477" lon="6.18323">
        <ele>2497.9</ele>
        <time>2020-07-19T12:52:41.000Z</time>
      </trkpt>
      <trkpt lat="45.20476" lon="6.18327">
        <ele>2497</ele>
        <time>2020-07-19T12:52:45.000Z</time>
      </trkpt>
      <trkpt lat="45.20476" lon="6.18331">
        <ele>2497</ele>
        <time>2020-07-19T12:52:46.000Z</time>
      </trkpt>
      <trkpt lat="45.20475" lon="6.18336">
        <ele>2497</ele>
        <time>2020-07-19T12:52:47.000Z</time>
      </trkpt>
      <trkpt lat="45.20474" lon="6.1834">
        <ele>2496.9</ele>
        <time>2020-07-19T12:52:48.000Z</time>
      </trkpt>
      <trkpt lat="45.20473" lon="6.18344">
        <ele>2495.9</ele>
        <time>2020-07-19T12:52:49.000Z</time>
      </trkpt>
      <trkpt lat="45.20472" lon="6.18348">
        <ele>2495.2</ele>
        <time>2020-07-19T12:52:50.000Z</time>
      </trkpt>
      <trkpt lat="45.20471" lon="6.18351">
        <ele>2495</ele>
        <time>2020-07-19T12:52:51.000Z</time>
      </trkpt>
      <trkpt lat="45.2047" lon="6.18354">
        <ele>2494.9</ele>
        <time>2020-07-19T12:52:52.000Z</time>
      </trkpt>
      <trkpt lat="45.20469" lon="6.18357">
        <ele>2494</ele>
        <time>2020-07-19T12:52:53.000Z</time>
      </trkpt>
      <trkpt lat="45.20467" lon="6.1836">
        <ele>2493.9</ele>
        <time>2020-07-19T12:52:54.000Z</time>
      </trkpt>
      <trkpt lat="45.20466" lon="6.18362">
        <ele>2492.9</ele>
        <time>2020-07-19T12:52:55.000Z</time>
      </trkpt>
      <trkpt lat="45.20465" lon="6.18365">
        <ele>2491.9</ele>
        <time>2020-07-19T12:52:56.000Z</time>
      </trkpt>
      <trkpt lat="45.20463" lon="6.18367">
        <ele>2490.9</ele>
        <time>2020-07-19T12:52:57.000Z</time>
      </trkpt>
      <trkpt lat="45.20462" lon="6.1837">
        <ele>2490</ele>
        <time>2020-07-19T12:52:58.000Z</time>
      </trkpt>
      <trkpt lat="45.20461" lon="6.18372">
        <ele>2490</ele>
        <time>2020-07-19T12:52:59.000Z</time>
      </trkpt>
      <trkpt lat="45.2046" lon="6.18375">
        <ele>2489.9</ele>
        <time>2020-07-19T12:53:00.000Z</time>
      </trkpt>
      <trkpt lat="45.20459" lon="6.18378">
        <ele>2489</ele>
        <time>2020-07-19T12:53:01.000Z</time>
      </trkpt>
      <trkpt lat="45.20459" lon="6.18381">
        <ele>2489</ele>
        <time>2020-07-19T12:53:02.000Z</time>
      </trkpt>
      <trkpt lat="45.20458" lon="6.18384">
        <ele>2488.9</ele>
        <time>2020-07-19T12:53:03.000Z</time>
      </trkpt>
      <trkpt lat="45.20457" lon="6.18386">
        <ele>2487.9</ele>
        <time>2020-07-19T12:53:05.000Z</time>
      </trkpt>
      <trkpt lat="45.20455" lon="6.1839">
        <ele>2487</ele>
        <time>2020-07-19T12:53:07.000Z</time>
      </trkpt>
      <trkpt lat="45.20454" lon="6.18392">
        <ele>2486.9</ele>
        <time>2020-07-19T12:53:08.000Z</time>
      </trkpt>
      <trkpt lat="45.20453" lon="6.18396">
        <ele>2486.2</ele>
        <time>2020-07-19T12:53:09.000Z</time>
      </trkpt>
      <trkpt lat="45.20451" lon="6.18401">
        <ele>2486</ele>
        <time>2020-07-19T12:53:10.000Z</time>
      </trkpt>
      <trkpt lat="45.20449" lon="6.18405">
        <ele>2484.9</ele>
        <time>2020-07-19T12:53:11.000Z</time>
      </trkpt>
      <trkpt lat="45.20447" lon="6.18409">
        <ele>2483.9</ele>
        <time>2020-07-19T12:53:12.000Z</time>
      </trkpt>
      <trkpt lat="45.20445" lon="6.18412">
        <ele>2483</ele>
        <time>2020-07-19T12:53:13.000Z</time>
      </trkpt>
      <trkpt lat="45.20443" lon="6.18416">
        <ele>2483</ele>
        <time>2020-07-19T12:53:14.000Z</time>
      </trkpt>
      <trkpt lat="45.20441" lon="6.1842">
        <ele>2482.9</ele>
        <time>2020-07-19T12:53:15.000Z</time>
      </trkpt>
      <trkpt lat="45.20439" lon="6.18424">
        <ele>2482</ele>
        <time>2020-07-19T12:53:16.000Z</time>
      </trkpt>
      <trkpt lat="45.20437" lon="6.18427">
        <ele>2481.9</ele>
        <time>2020-07-19T12:53:17.000Z</time>
      </trkpt>
      <trkpt lat="45.20434" lon="6.18431">
        <ele>2481</ele>
        <time>2020-07-19T12:53:18.000Z</time>
      </trkpt>
      <trkpt lat="45.20431" lon="6.18434">
        <ele>2481</ele>
        <time>2020-07-19T12:53:19.000Z</time>
      </trkpt>
      <trkpt lat="45.20428" lon="6.18436">
        <ele>2480.9</ele>
        <time>2020-07-19T12:53:20.000Z</time>
      </trkpt>
      <trkpt lat="45.20426" lon="6.18439">
        <ele>2479.9</ele>
        <time>2020-07-19T12:53:21.000Z</time>
      </trkpt>
      <trkpt lat="45.20424" lon="6.18441">
        <ele>2478.9</ele>
        <time>2020-07-19T12:53:22.000Z</time>
      </trkpt>
      <trkpt lat="45.20422" lon="6.18444">
        <ele>2477.9</ele>
        <time>2020-07-19T12:53:23.000Z</time>
      </trkpt>
      <trkpt lat="45.20421" lon="6.18447">
        <ele>2477</ele>
        <time>2020-07-19T12:53:24.000Z</time>
      </trkpt>
      <trkpt lat="45.20419" lon="6.18449">
        <ele>2476.9</ele>
        <time>2020-07-19T12:53:25.000Z</time>
      </trkpt>
      <trkpt lat="45.20418" lon="6.18452">
        <ele>2475.2</ele>
        <time>2020-07-19T12:53:28.000Z</time>
      </trkpt>
      <trkpt lat="45.20416" lon="6.18458">
        <ele>2475</ele>
        <time>2020-07-19T12:53:30.000Z</time>
      </trkpt>
      <trkpt lat="45.20415" lon="6.18461">
        <ele>2475</ele>
        <time>2020-07-19T12:53:31.000Z</time>
      </trkpt>
      <trkpt lat="45.20414" lon="6.18465">
        <ele>2474.9</ele>
        <time>2020-07-19T12:53:32.000Z</time>
      </trkpt>
      <trkpt lat="45.20413" lon="6.18469">
        <ele>2474</ele>
        <time>2020-07-19T12:53:33.000Z</time>
      </trkpt>
      <trkpt lat="45.20412" lon="6.18472">
        <ele>2474</ele>
        <time>2020-07-19T12:53:34.000Z</time>
      </trkpt>
      <trkpt lat="45.20412" lon="6.18475">
        <ele>2473.9</ele>
        <time>2020-07-19T12:53:35.000Z</time>
      </trkpt>
      <trkpt lat="45.20411" lon="6.18479">
        <ele>2473</ele>
        <time>2020-07-19T12:53:36.000Z</time>
      </trkpt>
      <trkpt lat="45.2041" lon="6.18482">
        <ele>2473</ele>
        <time>2020-07-19T12:53:37.000Z</time>
      </trkpt>
      <trkpt lat="45.2041" lon="6.18485">
        <ele>2473</ele>
        <time>2020-07-19T12:53:38.000Z</time>
      </trkpt>
      <trkpt lat="45.20409" lon="6.18488">
        <ele>2472</ele>
        <time>2020-07-19T12:53:40.000Z</time>
      </trkpt>
      <trkpt lat="45.20408" lon="6.18491">
        <ele>2470</ele>
        <time>2020-07-19T12:53:43.000Z</time>
      </trkpt>
      <trkpt lat="45.20407" lon="6.18494">
        <ele>2469</ele>
        <time>2020-07-19T12:53:46.000Z</time>
      </trkpt>
      <trkpt lat="45.20406" lon="6.18497">
        <ele>2469</ele>
        <time>2020-07-19T12:53:50.000Z</time>
      </trkpt>
      <trkpt lat="45.20404" lon="6.185">
        <ele>2466.9</ele>
        <time>2020-07-19T12:54:01.000Z</time>
      </trkpt>
      <trkpt lat="45.20403" lon="6.18502">
        <ele>2465</ele>
        <time>2020-07-19T12:54:05.000Z</time>
      </trkpt>
      <trkpt lat="45.20402" lon="6.18505">
        <ele>2465</ele>
        <time>2020-07-19T12:54:08.000Z</time>
      </trkpt>
      <trkpt lat="45.20401" lon="6.18507">
        <ele>2464</ele>
        <time>2020-07-19T12:54:12.000Z</time>
      </trkpt>
      <trkpt lat="45.204" lon="6.1851">
        <ele>2463.9</ele>
        <time>2020-07-19T12:54:15.000Z</time>
      </trkpt>
      <trkpt lat="45.20399" lon="6.18513">
        <ele>2462</ele>
        <time>2020-07-19T12:54:19.000Z</time>
      </trkpt>
      <trkpt lat="45.20398" lon="6.18515">
        <ele>2462</ele>
        <time>2020-07-19T12:54:22.000Z</time>
      </trkpt>
      <trkpt lat="45.20397" lon="6.18518">
        <ele>2461</ele>
        <time>2020-07-19T12:54:26.000Z</time>
      </trkpt>
      <trkpt lat="45.20396" lon="6.18521">
        <ele>2460</ele>
        <time>2020-07-19T12:54:30.000Z</time>
      </trkpt>
      <trkpt lat="45.20395" lon="6.18525">
        <ele>2459</ele>
        <time>2020-07-19T12:54:33.000Z</time>
      </trkpt>
      <trkpt lat="45.20395" lon="6.18528">
        <ele>2458</ele>
        <time>2020-07-19T12:54:36.000Z</time>
      </trkpt>
      <trkpt lat="45.20395" lon="6.18531">
        <ele>2458</ele>
        <time>2020-07-19T12:54:38.000Z</time>
      </trkpt>
      <trkpt lat="45.20395" lon="6.18534">
        <ele>2458</ele>
        <time>2020-07-19T12:54:41.000Z</time>
      </trkpt>
      <trkpt lat="45.20395" lon="6.18537">
        <ele>2457</ele>
        <time>2020-07-19T12:54:44.000Z</time>
      </trkpt>
      <trkpt lat="45.20396" lon="6.18539">
        <ele>2456</ele>
        <time>2020-07-19T12:54:53.000Z</time>
      </trkpt>
      <trkpt lat="45.20396" lon="6.18542">
        <ele>2455</ele>
        <time>2020-07-19T12:54:58.000Z</time>
      </trkpt>
      <trkpt lat="45.20397" lon="6.18544">
        <ele>2455</ele>
        <time>2020-07-19T12:55:00.000Z</time>
      </trkpt>
      <trkpt lat="45.20397" lon="6.18547">
        <ele>2455</ele>
        <time>2020-07-19T12:55:02.000Z</time>
      </trkpt>
      <trkpt lat="45.20398" lon="6.18549">
        <ele>2454</ele>
        <time>2020-07-19T12:55:05.000Z</time>
      </trkpt>
      <trkpt lat="45.20399" lon="6.18552">
        <ele>2453</ele>
        <time>2020-07-19T12:55:13.000Z</time>
      </trkpt>
      <trkpt lat="45.20399" lon="6.18555">
        <ele>2453</ele>
        <time>2020-07-19T12:55:17.000Z</time>
      </trkpt>
      <trkpt lat="45.20399" lon="6.18558">
        <ele>2451</ele>
        <time>2020-07-19T12:55:22.000Z</time>
      </trkpt>
      <trkpt lat="45.20398" lon="6.18561">
        <ele>2450.9</ele>
        <time>2020-07-19T12:55:26.000Z</time>
      </trkpt>
      <trkpt lat="45.20399" lon="6.18563">
        <ele>2449.9</ele>
        <time>2020-07-19T12:55:30.000Z</time>
      </trkpt>
      <trkpt lat="45.20399" lon="6.18566">
        <ele>2448</ele>
        <time>2020-07-19T12:55:37.000Z</time>
      </trkpt>
      <trkpt lat="45.20397" lon="6.18566">
        <ele>2448</ele>
        <time>2020-07-19T12:55:41.000Z</time>
      </trkpt>
      <trkpt lat="45.20396" lon="6.18565">
        <ele>2448</ele>
        <time>2020-07-19T12:55:44.000Z</time>
      </trkpt>
      <trkpt lat="45.20394" lon="6.18565">
        <ele>2446</ele>
        <time>2020-07-19T12:55:50.000Z</time>
      </trkpt>
      <trkpt lat="45.20392" lon="6.18567">
        <ele>2445</ele>
        <time>2020-07-19T12:55:57.000Z</time>
      </trkpt>
      <trkpt lat="45.20391" lon="6.18567">
        <ele>2445</ele>
        <time>2020-07-19T12:56:01.000Z</time>
      </trkpt>
      <trkpt lat="45.20388" lon="6.18566">
        <ele>2444</ele>
        <time>2020-07-19T12:56:05.000Z</time>
      </trkpt>
      <trkpt lat="45.20387" lon="6.18564">
        <ele>2443</ele>
        <time>2020-07-19T12:56:12.000Z</time>
      </trkpt>
      <trkpt lat="45.20386" lon="6.18561">
        <ele>2444</ele>
        <time>2020-07-19T12:56:16.000Z</time>
      </trkpt>
      <trkpt lat="45.20383" lon="6.18557">
        <ele>2444</ele>
        <time>2020-07-19T12:56:18.000Z</time>
      </trkpt>
      <trkpt lat="45.20381" lon="6.18559">
        <ele>2442.9</ele>
        <time>2020-07-19T12:56:20.000Z</time>
      </trkpt>
      <trkpt lat="45.20381" lon="6.18564">
        <ele>2442</ele>
        <time>2020-07-19T12:56:22.000Z</time>
      </trkpt>
      <trkpt lat="45.2038" lon="6.18567">
        <ele>2442</ele>
        <time>2020-07-19T12:56:23.000Z</time>
      </trkpt>
      <trkpt lat="45.2038" lon="6.18571">
        <ele>2441.9</ele>
        <time>2020-07-19T12:56:24.000Z</time>
      </trkpt>
      <trkpt lat="45.2038" lon="6.18576">
        <ele>2440.9</ele>
        <time>2020-07-19T12:56:25.000Z</time>
      </trkpt>
      <trkpt lat="45.20381" lon="6.1858">
        <ele>2440</ele>
        <time>2020-07-19T12:56:26.000Z</time>
      </trkpt>
      <trkpt lat="45.20382" lon="6.18583">
        <ele>2439.8</ele>
        <time>2020-07-19T12:56:27.000Z</time>
      </trkpt>
      <trkpt lat="45.20382" lon="6.18587">
        <ele>2437.9</ele>
        <time>2020-07-19T12:56:28.000Z</time>
      </trkpt>
      <trkpt lat="45.20383" lon="6.1859">
        <ele>2437</ele>
        <time>2020-07-19T12:56:29.000Z</time>
      </trkpt>
      <trkpt lat="45.20384" lon="6.18594">
        <ele>2436.9</ele>
        <time>2020-07-19T12:56:30.000Z</time>
      </trkpt>
      <trkpt lat="45.20385" lon="6.18598">
        <ele>2435.9</ele>
        <time>2020-07-19T12:56:31.000Z</time>
      </trkpt>
      <trkpt lat="45.20386" lon="6.18602">
        <ele>2434.9</ele>
        <time>2020-07-19T12:56:32.000Z</time>
      </trkpt>
      <trkpt lat="45.20387" lon="6.18606">
        <ele>2433.9</ele>
        <time>2020-07-19T12:56:33.000Z</time>
      </trkpt>
      <trkpt lat="45.20388" lon="6.1861">
        <ele>2433</ele>
        <time>2020-07-19T12:56:34.000Z</time>
      </trkpt>
      <trkpt lat="45.20389" lon="6.18612">
        <ele>2433</ele>
        <time>2020-07-19T12:56:35.000Z</time>
      </trkpt>
      <trkpt lat="45.20391" lon="6.18614">
        <ele>2432</ele>
        <time>2020-07-19T12:56:36.000Z</time>
      </trkpt>
      <trkpt lat="45.20393" lon="6.18616">
        <ele>2431.9</ele>
        <time>2020-07-19T12:56:37.000Z</time>
      </trkpt>
      <trkpt lat="45.20395" lon="6.18619">
        <ele>2431.2</ele>
        <time>2020-07-19T12:56:38.000Z</time>
      </trkpt>
      <trkpt lat="45.20397" lon="6.18622">
        <ele>2431</ele>
        <time>2020-07-19T12:56:39.000Z</time>
      </trkpt>
      <trkpt lat="45.20398" lon="6.18625">
        <ele>2431</ele>
        <time>2020-07-19T12:56:40.000Z</time>
      </trkpt>
      <trkpt lat="45.20399" lon="6.18628">
        <ele>2430.9</ele>
        <time>2020-07-19T12:56:41.000Z</time>
      </trkpt>
      <trkpt lat="45.204" lon="6.18631">
        <ele>2429.9</ele>
        <time>2020-07-19T12:56:43.000Z</time>
      </trkpt>
      <trkpt lat="45.204" lon="6.18633">
        <ele>2428</ele>
        <time>2020-07-19T12:56:49.000Z</time>
      </trkpt>
      <trkpt lat="45.20401" lon="6.18635">
        <ele>2426</ele>
        <time>2020-07-19T12:57:02.000Z</time>
      </trkpt>
      <trkpt lat="45.20403" lon="6.18637">
        <ele>2427</ele>
        <time>2020-07-19T12:57:12.000Z</time>
      </trkpt>
      <trkpt lat="45.20402" lon="6.18639">
        <ele>2425.9</ele>
        <time>2020-07-19T12:57:19.000Z</time>
      </trkpt>
      <trkpt lat="45.20402" lon="6.18642">
        <ele>2424.9</ele>
        <time>2020-07-19T12:57:30.000Z</time>
      </trkpt>
      <trkpt lat="45.20402" lon="6.18644">
        <ele>2424</ele>
        <time>2020-07-19T12:57:33.000Z</time>
      </trkpt>
      <trkpt lat="45.204" lon="6.18644">
        <ele>2424</ele>
        <time>2020-07-19T12:57:36.000Z</time>
      </trkpt>
      <trkpt lat="45.20399" lon="6.18647">
        <ele>2423</ele>
        <time>2020-07-19T12:57:46.000Z</time>
      </trkpt>
      <trkpt lat="45.204" lon="6.18648">
        <ele>2422</ele>
        <time>2020-07-19T12:57:52.000Z</time>
      </trkpt>
      <trkpt lat="45.20402" lon="6.18651">
        <ele>2422</ele>
        <time>2020-07-19T12:57:55.000Z</time>
      </trkpt>
      <trkpt lat="45.20401" lon="6.18654">
        <ele>2422</ele>
        <time>2020-07-19T12:57:57.000Z</time>
      </trkpt>
      <trkpt lat="45.20401" lon="6.18657">
        <ele>2420</ele>
        <time>2020-07-19T12:58:02.000Z</time>
      </trkpt>
      <trkpt lat="45.20403" lon="6.18659">
        <ele>2420</ele>
        <time>2020-07-19T12:58:05.000Z</time>
      </trkpt>
      <trkpt lat="45.20405" lon="6.1866">
        <ele>2419.9</ele>
        <time>2020-07-19T12:58:08.000Z</time>
      </trkpt>
      <trkpt lat="45.20407" lon="6.18662">
        <ele>2418</ele>
        <time>2020-07-19T12:58:15.000Z</time>
      </trkpt>
      <trkpt lat="45.20407" lon="6.18665">
        <ele>2417.9</ele>
        <time>2020-07-19T12:58:19.000Z</time>
      </trkpt>
      <trkpt lat="45.20406" lon="6.18668">
        <ele>2417</ele>
        <time>2020-07-19T12:58:23.000Z</time>
      </trkpt>
      <trkpt lat="45.20406" lon="6.1867">
        <ele>2414</ele>
        <time>2020-07-19T12:58:40.000Z</time>
      </trkpt>
      <trkpt lat="45.20408" lon="6.18671">
        <ele>2414</ele>
        <time>2020-07-19T12:58:44.000Z</time>
      </trkpt>
      <trkpt lat="45.20408" lon="6.18674">
        <ele>2412</ele>
        <time>2020-07-19T12:58:51.000Z</time>
      </trkpt>
      <trkpt lat="45.20407" lon="6.18676">
        <ele>2412</ele>
        <time>2020-07-19T12:58:54.000Z</time>
      </trkpt>
      <trkpt lat="45.20408" lon="6.18678">
        <ele>2412</ele>
        <time>2020-07-19T12:58:57.000Z</time>
      </trkpt>
      <trkpt lat="45.20411" lon="6.18681">
        <ele>2412</ele>
        <time>2020-07-19T12:58:59.000Z</time>
      </trkpt>
      <trkpt lat="45.20413" lon="6.18683">
        <ele>2412</ele>
        <time>2020-07-19T12:59:00.000Z</time>
      </trkpt>
      <trkpt lat="45.20414" lon="6.18685">
        <ele>2410</ele>
        <time>2020-07-19T12:59:06.000Z</time>
      </trkpt>
      <trkpt lat="45.20413" lon="6.18688">
        <ele>2410</ele>
        <time>2020-07-19T12:59:09.000Z</time>
      </trkpt>
      <trkpt lat="45.20412" lon="6.1869">
        <ele>2410</ele>
        <time>2020-07-19T12:59:12.000Z</time>
      </trkpt>
      <trkpt lat="45.2041" lon="6.18692">
        <ele>2409</ele>
        <time>2020-07-19T12:59:14.000Z</time>
      </trkpt>
      <trkpt lat="45.20409" lon="6.18695">
        <ele>2409</ele>
        <time>2020-07-19T12:59:16.000Z</time>
      </trkpt>
      <trkpt lat="45.20408" lon="6.18699">
        <ele>2408</ele>
        <time>2020-07-19T12:59:22.000Z</time>
      </trkpt>
      <trkpt lat="45.2041" lon="6.18703">
        <ele>2407</ele>
        <time>2020-07-19T12:59:24.000Z</time>
      </trkpt>
      <trkpt lat="45.20412" lon="6.18705">
        <ele>2407</ele>
        <time>2020-07-19T12:59:25.000Z</time>
      </trkpt>
      <trkpt lat="45.20413" lon="6.18707">
        <ele>2407</ele>
        <time>2020-07-19T12:59:26.000Z</time>
      </trkpt>
      <trkpt lat="45.20414" lon="6.18709">
        <ele>2406.9</ele>
        <time>2020-07-19T12:59:27.000Z</time>
      </trkpt>
      <trkpt lat="45.20417" lon="6.18712">
        <ele>2406</ele>
        <time>2020-07-19T12:59:29.000Z</time>
      </trkpt>
      <trkpt lat="45.20419" lon="6.18715">
        <ele>2404.9</ele>
        <time>2020-07-19T12:59:32.000Z</time>
      </trkpt>
      <trkpt lat="45.2042" lon="6.18716">
        <ele>2404</ele>
        <time>2020-07-19T12:59:34.000Z</time>
      </trkpt>
      <trkpt lat="45.20421" lon="6.18719">
        <ele>2403</ele>
        <time>2020-07-19T12:59:44.000Z</time>
      </trkpt>
      <trkpt lat="45.20423" lon="6.1872">
        <ele>2401</ele>
        <time>2020-07-19T12:59:48.000Z</time>
      </trkpt>
      <trkpt lat="45.20424" lon="6.18723">
        <ele>2401</ele>
        <time>2020-07-19T12:59:51.000Z</time>
      </trkpt>
      <trkpt lat="45.20426" lon="6.18725">
        <ele>2399.9</ele>
        <time>2020-07-19T12:59:55.000Z</time>
      </trkpt>
      <trkpt lat="45.20427" lon="6.18728">
        <ele>2399</ele>
        <time>2020-07-19T13:00:00.000Z</time>
      </trkpt>
      <trkpt lat="45.20428" lon="6.18733">
        <ele>2399</ele>
        <time>2020-07-19T13:00:02.000Z</time>
      </trkpt>
      <trkpt lat="45.20429" lon="6.18735">
        <ele>2398.9</ele>
        <time>2020-07-19T13:00:03.000Z</time>
      </trkpt>
      <trkpt lat="45.2043" lon="6.18738">
        <ele>2398</ele>
        <time>2020-07-19T13:00:04.000Z</time>
      </trkpt>
      <trkpt lat="45.20429" lon="6.18741">
        <ele>2397.9</ele>
        <time>2020-07-19T13:00:05.000Z</time>
      </trkpt>
      <trkpt lat="45.20429" lon="6.18745">
        <ele>2396.2</ele>
        <time>2020-07-19T13:00:07.000Z</time>
      </trkpt>
      <trkpt lat="45.20429" lon="6.1875">
        <ele>2394.9</ele>
        <time>2020-07-19T13:00:09.000Z</time>
      </trkpt>
      <trkpt lat="45.20428" lon="6.18753">
        <ele>2394</ele>
        <time>2020-07-19T13:00:10.000Z</time>
      </trkpt>
      <trkpt lat="45.20429" lon="6.18756">
        <ele>2393.9</ele>
        <time>2020-07-19T13:00:11.000Z</time>
      </trkpt>
      <trkpt lat="45.2043" lon="6.1876">
        <ele>2392.9</ele>
        <time>2020-07-19T13:00:13.000Z</time>
      </trkpt>
      <trkpt lat="45.2043" lon="6.18763">
        <ele>2392</ele>
        <time>2020-07-19T13:00:14.000Z</time>
      </trkpt>
      <trkpt lat="45.20429" lon="6.18765">
        <ele>2391.9</ele>
        <time>2020-07-19T13:00:15.000Z</time>
      </trkpt>
      <trkpt lat="45.20428" lon="6.18767">
        <ele>2391</ele>
        <time>2020-07-19T13:00:16.000Z</time>
      </trkpt>
      <trkpt lat="45.20427" lon="6.18772">
        <ele>2389</ele>
        <time>2020-07-19T13:00:18.000Z</time>
      </trkpt>
      <trkpt lat="45.20429" lon="6.18775">
        <ele>2389</ele>
        <time>2020-07-19T13:00:19.000Z</time>
      </trkpt>
      <trkpt lat="45.2043" lon="6.18778">
        <ele>2389</ele>
        <time>2020-07-19T13:00:20.000Z</time>
      </trkpt>
      <trkpt lat="45.20433" lon="6.18781">
        <ele>2388.9</ele>
        <time>2020-07-19T13:00:21.000Z</time>
      </trkpt>
      <trkpt lat="45.20435" lon="6.18784">
        <ele>2387.8</ele>
        <time>2020-07-19T13:00:22.000Z</time>
      </trkpt>
      <trkpt lat="45.20437" lon="6.18788">
        <ele>2386</ele>
        <time>2020-07-19T13:00:23.000Z</time>
      </trkpt>
      <trkpt lat="45.20439" lon="6.18791">
        <ele>2385.9</ele>
        <time>2020-07-19T13:00:24.000Z</time>
      </trkpt>
      <trkpt lat="45.2044" lon="6.18795">
        <ele>2385</ele>
        <time>2020-07-19T13:00:25.000Z</time>
      </trkpt>
      <trkpt lat="45.20442" lon="6.18797">
        <ele>2385</ele>
        <time>2020-07-19T13:00:26.000Z</time>
      </trkpt>
      <trkpt lat="45.20445" lon="6.188">
        <ele>2383.9</ele>
        <time>2020-07-19T13:00:27.000Z</time>
      </trkpt>
      <trkpt lat="45.20447" lon="6.18802">
        <ele>2383</ele>
        <time>2020-07-19T13:00:28.000Z</time>
      </trkpt>
      <trkpt lat="45.20449" lon="6.18804">
        <ele>2383</ele>
        <time>2020-07-19T13:00:29.000Z</time>
      </trkpt>
      <trkpt lat="45.20452" lon="6.18806">
        <ele>2383</ele>
        <time>2020-07-19T13:00:30.000Z</time>
      </trkpt>
      <trkpt lat="45.20454" lon="6.18809">
        <ele>2383</ele>
        <time>2020-07-19T13:00:31.000Z</time>
      </trkpt>
      <trkpt lat="45.20456" lon="6.18811">
        <ele>2382.9</ele>
        <time>2020-07-19T13:00:32.000Z</time>
      </trkpt>
      <trkpt lat="45.20458" lon="6.18814">
        <ele>2381.9</ele>
        <time>2020-07-19T13:00:33.000Z</time>
      </trkpt>
      <trkpt lat="45.20459" lon="6.18817">
        <ele>2380.9</ele>
        <time>2020-07-19T13:00:34.000Z</time>
      </trkpt>
      <trkpt lat="45.2046" lon="6.18819">
        <ele>2380</ele>
        <time>2020-07-19T13:00:35.000Z</time>
      </trkpt>
      <trkpt lat="45.20461" lon="6.18822">
        <ele>2380</ele>
        <time>2020-07-19T13:00:36.000Z</time>
      </trkpt>
      <trkpt lat="45.20462" lon="6.18825">
        <ele>2379.9</ele>
        <time>2020-07-19T13:00:37.000Z</time>
      </trkpt>
      <trkpt lat="45.20463" lon="6.18828">
        <ele>2379</ele>
        <time>2020-07-19T13:00:38.000Z</time>
      </trkpt>
      <trkpt lat="45.20465" lon="6.18831">
        <ele>2379</ele>
        <time>2020-07-19T13:00:39.000Z</time>
      </trkpt>
      <trkpt lat="45.20467" lon="6.18835">
        <ele>2378</ele>
        <time>2020-07-19T13:00:40.000Z</time>
      </trkpt>
      <trkpt lat="45.20469" lon="6.18838">
        <ele>2377.9</ele>
        <time>2020-07-19T13:00:41.000Z</time>
      </trkpt>
      <trkpt lat="45.2047" lon="6.1884">
        <ele>2376.9</ele>
        <time>2020-07-19T13:00:42.000Z</time>
      </trkpt>
      <trkpt lat="45.20472" lon="6.18842">
        <ele>2376</ele>
        <time>2020-07-19T13:00:43.000Z</time>
      </trkpt>
      <trkpt lat="45.20474" lon="6.18844">
        <ele>2376</ele>
        <time>2020-07-19T13:00:44.000Z</time>
      </trkpt>
      <trkpt lat="45.20476" lon="6.18847">
        <ele>2375</ele>
        <time>2020-07-19T13:00:46.000Z</time>
      </trkpt>
      <trkpt lat="45.20475" lon="6.1885">
        <ele>2374</ele>
        <time>2020-07-19T13:01:04.000Z</time>
      </trkpt>
      <trkpt lat="45.20477" lon="6.18854">
        <ele>2374</ele>
        <time>2020-07-19T13:02:12.000Z</time>
      </trkpt>
      <trkpt lat="45.20479" lon="6.18858">
        <ele>2373.9</ele>
        <time>2020-07-19T13:02:13.000Z</time>
      </trkpt>
      <trkpt lat="45.2048" lon="6.18861">
        <ele>2372.9</ele>
        <time>2020-07-19T13:02:14.000Z</time>
      </trkpt>
      <trkpt lat="45.20483" lon="6.18862">
        <ele>2372</ele>
        <time>2020-07-19T13:02:15.000Z</time>
      </trkpt>
      <trkpt lat="45.20486" lon="6.18864">
        <ele>2371.9</ele>
        <time>2020-07-19T13:02:16.000Z</time>
      </trkpt>
      <trkpt lat="45.20488" lon="6.18867">
        <ele>2371</ele>
        <time>2020-07-19T13:02:17.000Z</time>
      </trkpt>
      <trkpt lat="45.2049" lon="6.18871">
        <ele>2370.9</ele>
        <time>2020-07-19T13:02:18.000Z</time>
      </trkpt>
      <trkpt lat="45.20491" lon="6.18874">
        <ele>2369.9</ele>
        <time>2020-07-19T13:02:19.000Z</time>
      </trkpt>
      <trkpt lat="45.20493" lon="6.18876">
        <ele>2369.2</ele>
        <time>2020-07-19T13:02:20.000Z</time>
      </trkpt>
      <trkpt lat="45.20495" lon="6.18877">
        <ele>2367.9</ele>
        <time>2020-07-19T13:02:22.000Z</time>
      </trkpt>
      <trkpt lat="45.20497" lon="6.18877">
        <ele>2368</ele>
        <time>2020-07-19T13:02:24.000Z</time>
      </trkpt>
      <trkpt lat="45.20499" lon="6.18875">
        <ele>2366</ele>
        <time>2020-07-19T13:02:28.000Z</time>
      </trkpt>
      <trkpt lat="45.20501" lon="6.18876">
        <ele>2366</ele>
        <time>2020-07-19T13:02:30.000Z</time>
      </trkpt>
      <trkpt lat="45.20502" lon="6.1888">
        <ele>2365.9</ele>
        <time>2020-07-19T13:02:32.000Z</time>
      </trkpt>
      <trkpt lat="45.20503" lon="6.18885">
        <ele>2364.9</ele>
        <time>2020-07-19T13:02:34.000Z</time>
      </trkpt>
      <trkpt lat="45.20503" lon="6.1889">
        <ele>2364</ele>
        <time>2020-07-19T13:02:36.000Z</time>
      </trkpt>
      <trkpt lat="45.20503" lon="6.18893">
        <ele>2363.9</ele>
        <time>2020-07-19T13:02:37.000Z</time>
      </trkpt>
      <trkpt lat="45.20502" lon="6.18897">
        <ele>2363</ele>
        <time>2020-07-19T13:02:38.000Z</time>
      </trkpt>
      <trkpt lat="45.20502" lon="6.189">
        <ele>2363</ele>
        <time>2020-07-19T13:02:39.000Z</time>
      </trkpt>
      <trkpt lat="45.205" lon="6.18904">
        <ele>2361.8</ele>
        <time>2020-07-19T13:02:40.000Z</time>
      </trkpt>
      <trkpt lat="45.20499" lon="6.18907">
        <ele>2359.9</ele>
        <time>2020-07-19T13:02:41.000Z</time>
      </trkpt>
      <trkpt lat="45.20499" lon="6.1891">
        <ele>2359</ele>
        <time>2020-07-19T13:02:42.000Z</time>
      </trkpt>
      <trkpt lat="45.205" lon="6.18912">
        <ele>2358.9</ele>
        <time>2020-07-19T13:02:43.000Z</time>
      </trkpt>
      <trkpt lat="45.20502" lon="6.18914">
        <ele>2358</ele>
        <time>2020-07-19T13:02:44.000Z</time>
      </trkpt>
      <trkpt lat="45.20503" lon="6.18917">
        <ele>2357.9</ele>
        <time>2020-07-19T13:02:45.000Z</time>
      </trkpt>
      <trkpt lat="45.20503" lon="6.1892">
        <ele>2357</ele>
        <time>2020-07-19T13:02:46.000Z</time>
      </trkpt>
      <trkpt lat="45.20502" lon="6.18924">
        <ele>2357</ele>
        <time>2020-07-19T13:02:48.000Z</time>
      </trkpt>
      <trkpt lat="45.20504" lon="6.18929">
        <ele>2356.9</ele>
        <time>2020-07-19T13:02:50.000Z</time>
      </trkpt>
      <trkpt lat="45.20503" lon="6.18926">
        <ele>2352</ele>
        <time>2020-07-19T13:03:33.000Z</time>
      </trkpt>
      <trkpt lat="45.20503" lon="6.18929">
        <ele>2350</ele>
        <time>2020-07-19T13:06:44.000Z</time>
      </trkpt>
      <trkpt lat="45.20503" lon="6.18932">
        <ele>2350</ele>
        <time>2020-07-19T13:06:45.000Z</time>
      </trkpt>
      <trkpt lat="45.20501" lon="6.18934">
        <ele>2350</ele>
        <time>2020-07-19T13:06:46.000Z</time>
      </trkpt>
      <trkpt lat="45.205" lon="6.18935">
        <ele>2350</ele>
        <time>2020-07-19T13:06:47.000Z</time>
      </trkpt>
      <trkpt lat="45.20497" lon="6.18936">
        <ele>2349.9</ele>
        <time>2020-07-19T13:06:48.000Z</time>
      </trkpt>
      <trkpt lat="45.20495" lon="6.18938">
        <ele>2349</ele>
        <time>2020-07-19T13:06:49.000Z</time>
      </trkpt>
      <trkpt lat="45.20494" lon="6.1894">
        <ele>2349</ele>
        <time>2020-07-19T13:06:50.000Z</time>
      </trkpt>
      <trkpt lat="45.20492" lon="6.18942">
        <ele>2349</ele>
        <time>2020-07-19T13:06:51.000Z</time>
      </trkpt>
      <trkpt lat="45.2049" lon="6.18944">
        <ele>2348.9</ele>
        <time>2020-07-19T13:06:52.000Z</time>
      </trkpt>
      <trkpt lat="45.20488" lon="6.18944">
        <ele>2348</ele>
        <time>2020-07-19T13:06:53.000Z</time>
      </trkpt>
      <trkpt lat="45.20486" lon="6.18944">
        <ele>2348</ele>
        <time>2020-07-19T13:06:54.000Z</time>
      </trkpt>
      <trkpt lat="45.20483" lon="6.18945">
        <ele>2348</ele>
        <time>2020-07-19T13:06:55.000Z</time>
      </trkpt>
      <trkpt lat="45.20481" lon="6.18946">
        <ele>2347.9</ele>
        <time>2020-07-19T13:06:56.000Z</time>
      </trkpt>
      <trkpt lat="45.20479" lon="6.18949">
        <ele>2346.9</ele>
        <time>2020-07-19T13:06:57.000Z</time>
      </trkpt>
      <trkpt lat="45.20477" lon="6.18952">
        <ele>2346</ele>
        <time>2020-07-19T13:06:58.000Z</time>
      </trkpt>
      <trkpt lat="45.20476" lon="6.18955">
        <ele>2346</ele>
        <time>2020-07-19T13:06:59.000Z</time>
      </trkpt>
      <trkpt lat="45.20474" lon="6.18958">
        <ele>2346.1</ele>
        <time>2020-07-19T13:07:00.000Z</time>
      </trkpt>
      <trkpt lat="45.20473" lon="6.18962">
        <ele>2347</ele>
        <time>2020-07-19T13:07:01.000Z</time>
      </trkpt>
      <trkpt lat="45.20471" lon="6.18966">
        <ele>2347</ele>
        <time>2020-07-19T13:07:02.000Z</time>
      </trkpt>
      <trkpt lat="45.2047" lon="6.1897">
        <ele>2347</ele>
        <time>2020-07-19T13:07:03.000Z</time>
      </trkpt>
      <trkpt lat="45.20468" lon="6.18974">
        <ele>2347</ele>
        <time>2020-07-19T13:07:04.000Z</time>
      </trkpt>
      <trkpt lat="45.20466" lon="6.18978">
        <ele>2347</ele>
        <time>2020-07-19T13:07:05.000Z</time>
      </trkpt>
      <trkpt lat="45.20465" lon="6.1898">
        <ele>2347</ele>
        <time>2020-07-19T13:07:06.000Z</time>
      </trkpt>
      <trkpt lat="45.20465" lon="6.18984">
        <ele>2347</ele>
        <time>2020-07-19T13:07:13.000Z</time>
      </trkpt>
      <trkpt lat="45.20464" lon="6.18986">
        <ele>2347</ele>
        <time>2020-07-19T13:07:14.000Z</time>
      </trkpt>
      <trkpt lat="45.20464" lon="6.18989">
        <ele>2346.9</ele>
        <time>2020-07-19T13:07:15.000Z</time>
      </trkpt>
      <trkpt lat="45.20463" lon="6.18992">
        <ele>2345.9</ele>
        <time>2020-07-19T13:07:16.000Z</time>
      </trkpt>
      <trkpt lat="45.20463" lon="6.18995">
        <ele>2345</ele>
        <time>2020-07-19T13:07:17.000Z</time>
      </trkpt>
      <trkpt lat="45.20463" lon="6.18999">
        <ele>2344.8</ele>
        <time>2020-07-19T13:07:18.000Z</time>
      </trkpt>
      <trkpt lat="45.20464" lon="6.19003">
        <ele>2343</ele>
        <time>2020-07-19T13:07:19.000Z</time>
      </trkpt>
      <trkpt lat="45.20465" lon="6.19007">
        <ele>2343</ele>
        <time>2020-07-19T13:07:20.000Z</time>
      </trkpt>
      <trkpt lat="45.20464" lon="6.1901">
        <ele>2343</ele>
        <time>2020-07-19T13:07:21.000Z</time>
      </trkpt>
      <trkpt lat="45.20462" lon="6.19012">
        <ele>2343</ele>
        <time>2020-07-19T13:07:23.000Z</time>
      </trkpt>
      <trkpt lat="45.20458" lon="6.19013">
        <ele>2343</ele>
        <time>2020-07-19T13:07:25.000Z</time>
      </trkpt>
      <trkpt lat="45.20456" lon="6.19014">
        <ele>2343</ele>
        <time>2020-07-19T13:07:26.000Z</time>
      </trkpt>
      <trkpt lat="45.20453" lon="6.19016">
        <ele>2343</ele>
        <time>2020-07-19T13:07:27.000Z</time>
      </trkpt>
      <trkpt lat="45.20451" lon="6.19018">
        <ele>2342.9</ele>
        <time>2020-07-19T13:07:28.000Z</time>
      </trkpt>
      <trkpt lat="45.20449" lon="6.1902">
        <ele>2342</ele>
        <time>2020-07-19T13:07:29.000Z</time>
      </trkpt>
      <trkpt lat="45.20447" lon="6.19021">
        <ele>2341.9</ele>
        <time>2020-07-19T13:07:30.000Z</time>
      </trkpt>
      <trkpt lat="45.20444" lon="6.19023">
        <ele>2340.9</ele>
        <time>2020-07-19T13:07:32.000Z</time>
      </trkpt>
      <trkpt lat="45.20443" lon="6.19028">
        <ele>2340</ele>
        <time>2020-07-19T13:07:34.000Z</time>
      </trkpt>
      <trkpt lat="45.20441" lon="6.19032">
        <ele>2340</ele>
        <time>2020-07-19T13:07:35.000Z</time>
      </trkpt>
      <trkpt lat="45.20439" lon="6.19036">
        <ele>2339.9</ele>
        <time>2020-07-19T13:07:36.000Z</time>
      </trkpt>
      <trkpt lat="45.20438" lon="6.19041">
        <ele>2338.9</ele>
        <time>2020-07-19T13:07:37.000Z</time>
      </trkpt>
      <trkpt lat="45.20436" lon="6.19046">
        <ele>2338</ele>
        <time>2020-07-19T13:07:38.000Z</time>
      </trkpt>
      <trkpt lat="45.20435" lon="6.1905">
        <ele>2337.9</ele>
        <time>2020-07-19T13:07:39.000Z</time>
      </trkpt>
      <trkpt lat="45.20434" lon="6.19054">
        <ele>2336.9</ele>
        <time>2020-07-19T13:07:40.000Z</time>
      </trkpt>
      <trkpt lat="45.20434" lon="6.19059">
        <ele>2336</ele>
        <time>2020-07-19T13:07:41.000Z</time>
      </trkpt>
      <trkpt lat="45.20434" lon="6.19063">
        <ele>2335.9</ele>
        <time>2020-07-19T13:07:42.000Z</time>
      </trkpt>
      <trkpt lat="45.20435" lon="6.19068">
        <ele>2335.2</ele>
        <time>2020-07-19T13:07:43.000Z</time>
      </trkpt>
      <trkpt lat="45.20436" lon="6.19073">
        <ele>2333.9</ele>
        <time>2020-07-19T13:07:44.000Z</time>
      </trkpt>
      <trkpt lat="45.20438" lon="6.19077">
        <ele>2332.9</ele>
        <time>2020-07-19T13:07:45.000Z</time>
      </trkpt>
      <trkpt lat="45.2044" lon="6.1908">
        <ele>2332</ele>
        <time>2020-07-19T13:07:46.000Z</time>
      </trkpt>
      <trkpt lat="45.20442" lon="6.19082">
        <ele>2332</ele>
        <time>2020-07-19T13:07:47.000Z</time>
      </trkpt>
      <trkpt lat="45.20444" lon="6.19085">
        <ele>2331.9</ele>
        <time>2020-07-19T13:07:49.000Z</time>
      </trkpt>
      <trkpt lat="45.20447" lon="6.19087">
        <ele>2330.8</ele>
        <time>2020-07-19T13:07:51.000Z</time>
      </trkpt>
      <trkpt lat="45.20449" lon="6.19087">
        <ele>2328</ele>
        <time>2020-07-19T13:08:11.000Z</time>
      </trkpt>
      <trkpt lat="45.20452" lon="6.19091">
        <ele>2329</ele>
        <time>2020-07-19T13:08:13.000Z</time>
      </trkpt>
      <trkpt lat="45.20454" lon="6.19093">
        <ele>2329</ele>
        <time>2020-07-19T13:08:14.000Z</time>
      </trkpt>
      <trkpt lat="45.20457" lon="6.19096">
        <ele>2329</ele>
        <time>2020-07-19T13:08:15.000Z</time>
      </trkpt>
      <trkpt lat="45.20459" lon="6.19099">
        <ele>2328.9</ele>
        <time>2020-07-19T13:08:16.000Z</time>
      </trkpt>
      <trkpt lat="45.20462" lon="6.19102">
        <ele>2328</ele>
        <time>2020-07-19T13:08:17.000Z</time>
      </trkpt>
      <trkpt lat="45.20464" lon="6.19105">
        <ele>2328</ele>
        <time>2020-07-19T13:08:18.000Z</time>
      </trkpt>
      <trkpt lat="45.20466" lon="6.19108">
        <ele>2327.9</ele>
        <time>2020-07-19T13:08:19.000Z</time>
      </trkpt>
      <trkpt lat="45.20469" lon="6.1911">
        <ele>2327</ele>
        <time>2020-07-19T13:08:20.000Z</time>
      </trkpt>
      <trkpt lat="45.20471" lon="6.19112">
        <ele>2327</ele>
        <time>2020-07-19T13:08:21.000Z</time>
      </trkpt>
      <trkpt lat="45.20473" lon="6.19113">
        <ele>2326</ele>
        <time>2020-07-19T13:08:22.000Z</time>
      </trkpt>
      <trkpt lat="45.20474" lon="6.19115">
        <ele>2325.9</ele>
        <time>2020-07-19T13:08:23.000Z</time>
      </trkpt>
      <trkpt lat="45.20476" lon="6.19117">
        <ele>2325</ele>
        <time>2020-07-19T13:08:24.000Z</time>
      </trkpt>
      <trkpt lat="45.20478" lon="6.19118">
        <ele>2324.9</ele>
        <time>2020-07-19T13:08:25.000Z</time>
      </trkpt>
      <trkpt lat="45.2048" lon="6.1912">
        <ele>2324</ele>
        <time>2020-07-19T13:08:26.000Z</time>
      </trkpt>
      <trkpt lat="45.20481" lon="6.19121">
        <ele>2323.9</ele>
        <time>2020-07-19T13:08:27.000Z</time>
      </trkpt>
      <trkpt lat="45.20483" lon="6.19123">
        <ele>2323</ele>
        <time>2020-07-19T13:08:29.000Z</time>
      </trkpt>
      <trkpt lat="45.20482" lon="6.19121">
        <ele>2320</ele>
        <time>2020-07-19T13:08:50.000Z</time>
      </trkpt>
      <trkpt lat="45.2048" lon="6.1912">
        <ele>2321</ele>
        <time>2020-07-19T13:09:01.000Z</time>
      </trkpt>
      <trkpt lat="45.20478" lon="6.19122">
        <ele>2321</ele>
        <time>2020-07-19T13:09:03.000Z</time>
      </trkpt>
      <trkpt lat="45.20476" lon="6.19122">
        <ele>2321</ele>
        <time>2020-07-19T13:09:05.000Z</time>
      </trkpt>
      <trkpt lat="45.20474" lon="6.1912">
        <ele>2321</ele>
        <time>2020-07-19T13:09:07.000Z</time>
      </trkpt>
      <trkpt lat="45.20472" lon="6.19119">
        <ele>2321.1</ele>
        <time>2020-07-19T13:09:09.000Z</time>
      </trkpt>
      <trkpt lat="45.2047" lon="6.19118">
        <ele>2323</ele>
        <time>2020-07-19T13:09:11.000Z</time>
      </trkpt>
      <trkpt lat="45.20467" lon="6.19118">
        <ele>2324</ele>
        <time>2020-07-19T13:09:14.000Z</time>
      </trkpt>
      <trkpt lat="45.20465" lon="6.19119">
        <ele>2324</ele>
        <time>2020-07-19T13:09:17.000Z</time>
      </trkpt>
      <trkpt lat="45.20462" lon="6.1912">
        <ele>2324</ele>
        <time>2020-07-19T13:09:19.000Z</time>
      </trkpt>
      <trkpt lat="45.2046" lon="6.19118">
        <ele>2325</ele>
        <time>2020-07-19T13:09:21.000Z</time>
      </trkpt>
      <trkpt lat="45.20458" lon="6.1912">
        <ele>2324</ele>
        <time>2020-07-19T13:09:24.000Z</time>
      </trkpt>
      <trkpt lat="45.20455" lon="6.1912">
        <ele>2324</ele>
        <time>2020-07-19T13:09:28.000Z</time>
      </trkpt>
      <trkpt lat="45.20452" lon="6.1912">
        <ele>2324</ele>
        <time>2020-07-19T13:09:30.000Z</time>
      </trkpt>
      <trkpt lat="45.20449" lon="6.1912">
        <ele>2324</ele>
        <time>2020-07-19T13:09:31.000Z</time>
      </trkpt>
      <trkpt lat="45.20445" lon="6.1912">
        <ele>2323.9</ele>
        <time>2020-07-19T13:09:32.000Z</time>
      </trkpt>
      <trkpt lat="45.20442" lon="6.1912">
        <ele>2323</ele>
        <time>2020-07-19T13:09:33.000Z</time>
      </trkpt>
      <trkpt lat="45.20439" lon="6.1912">
        <ele>2322.9</ele>
        <time>2020-07-19T13:09:34.000Z</time>
      </trkpt>
      <trkpt lat="45.20437" lon="6.19119">
        <ele>2322.1</ele>
        <time>2020-07-19T13:09:35.000Z</time>
      </trkpt>
      <trkpt lat="45.20435" lon="6.19119">
        <ele>2323</ele>
        <time>2020-07-19T13:09:36.000Z</time>
      </trkpt>
      <trkpt lat="45.20433" lon="6.19118">
        <ele>2323</ele>
        <time>2020-07-19T13:09:37.000Z</time>
      </trkpt>
      <trkpt lat="45.20431" lon="6.19117">
        <ele>2323</ele>
        <time>2020-07-19T13:09:38.000Z</time>
      </trkpt>
      <trkpt lat="45.20428" lon="6.19116">
        <ele>2323</ele>
        <time>2020-07-19T13:09:39.000Z</time>
      </trkpt>
      <trkpt lat="45.20426" lon="6.19115">
        <ele>2323</ele>
        <time>2020-07-19T13:09:40.000Z</time>
      </trkpt>
      <trkpt lat="45.20423" lon="6.19115">
        <ele>2323</ele>
        <time>2020-07-19T13:09:41.000Z</time>
      </trkpt>
      <trkpt lat="45.2042" lon="6.19115">
        <ele>2323</ele>
        <time>2020-07-19T13:09:42.000Z</time>
      </trkpt>
      <trkpt lat="45.20418" lon="6.19116">
        <ele>2323</ele>
        <time>2020-07-19T13:09:43.000Z</time>
      </trkpt>
      <trkpt lat="45.20416" lon="6.19117">
        <ele>2323</ele>
        <time>2020-07-19T13:09:44.000Z</time>
      </trkpt>
      <trkpt lat="45.20413" lon="6.19118">
        <ele>2322.9</ele>
        <time>2020-07-19T13:09:45.000Z</time>
      </trkpt>
      <trkpt lat="45.2041" lon="6.19121">
        <ele>2322</ele>
        <time>2020-07-19T13:09:46.000Z</time>
      </trkpt>
      <trkpt lat="45.20408" lon="6.19123">
        <ele>2321.9</ele>
        <time>2020-07-19T13:09:47.000Z</time>
      </trkpt>
      <trkpt lat="45.20405" lon="6.19125">
        <ele>2321</ele>
        <time>2020-07-19T13:09:48.000Z</time>
      </trkpt>
      <trkpt lat="45.20404" lon="6.19128">
        <ele>2321</ele>
        <time>2020-07-19T13:09:49.000Z</time>
      </trkpt>
      <trkpt lat="45.20403" lon="6.19131">
        <ele>2320.9</ele>
        <time>2020-07-19T13:09:50.000Z</time>
      </trkpt>
      <trkpt lat="45.20402" lon="6.19134">
        <ele>2319.9</ele>
        <time>2020-07-19T13:09:51.000Z</time>
      </trkpt>
      <trkpt lat="45.204" lon="6.19137">
        <ele>2319</ele>
        <time>2020-07-19T13:09:52.000Z</time>
      </trkpt>
      <trkpt lat="45.20398" lon="6.1914">
        <ele>2318.9</ele>
        <time>2020-07-19T13:09:53.000Z</time>
      </trkpt>
      <trkpt lat="45.20395" lon="6.19143">
        <ele>2317.9</ele>
        <time>2020-07-19T13:09:54.000Z</time>
      </trkpt>
      <trkpt lat="45.20391" lon="6.19146">
        <ele>2317</ele>
        <time>2020-07-19T13:09:55.000Z</time>
      </trkpt>
      <trkpt lat="45.20388" lon="6.19149">
        <ele>2317</ele>
        <time>2020-07-19T13:09:56.000Z</time>
      </trkpt>
      <trkpt lat="45.20385" lon="6.19151">
        <ele>2315.9</ele>
        <time>2020-07-19T13:09:57.000Z</time>
      </trkpt>
      <trkpt lat="45.20382" lon="6.19152">
        <ele>2315</ele>
        <time>2020-07-19T13:09:58.000Z</time>
      </trkpt>
      <trkpt lat="45.20379" lon="6.19154">
        <ele>2315</ele>
        <time>2020-07-19T13:09:59.000Z</time>
      </trkpt>
      <trkpt lat="45.20375" lon="6.19155">
        <ele>2314.9</ele>
        <time>2020-07-19T13:10:00.000Z</time>
      </trkpt>
      <trkpt lat="45.20372" lon="6.19157">
        <ele>2313.9</ele>
        <time>2020-07-19T13:10:01.000Z</time>
      </trkpt>
      <trkpt lat="45.20369" lon="6.1916">
        <ele>2313</ele>
        <time>2020-07-19T13:10:02.000Z</time>
      </trkpt>
      <trkpt lat="45.20367" lon="6.19164">
        <ele>2312.9</ele>
        <time>2020-07-19T13:10:03.000Z</time>
      </trkpt>
      <trkpt lat="45.20366" lon="6.19168">
        <ele>2311.9</ele>
        <time>2020-07-19T13:10:04.000Z</time>
      </trkpt>
      <trkpt lat="45.20366" lon="6.19171">
        <ele>2311</ele>
        <time>2020-07-19T13:10:05.000Z</time>
      </trkpt>
      <trkpt lat="45.20365" lon="6.19174">
        <ele>2310.9</ele>
        <time>2020-07-19T13:10:06.000Z</time>
      </trkpt>
      <trkpt lat="45.20364" lon="6.19176">
        <ele>2310</ele>
        <time>2020-07-19T13:10:07.000Z</time>
      </trkpt>
      <trkpt lat="45.20363" lon="6.19178">
        <ele>2310</ele>
        <time>2020-07-19T13:10:08.000Z</time>
      </trkpt>
      <trkpt lat="45.20362" lon="6.19182">
        <ele>2308.9</ele>
        <time>2020-07-19T13:10:10.000Z</time>
      </trkpt>
      <trkpt lat="45.20363" lon="6.19185">
        <ele>2307.9</ele>
        <time>2020-07-19T13:10:12.000Z</time>
      </trkpt>
      <trkpt lat="45.20365" lon="6.19187">
        <ele>2307</ele>
        <time>2020-07-19T13:10:13.000Z</time>
      </trkpt>
      <trkpt lat="45.20367" lon="6.1919">
        <ele>2306.9</ele>
        <time>2020-07-19T13:10:14.000Z</time>
      </trkpt>
      <trkpt lat="45.20369" lon="6.19193">
        <ele>2306.2</ele>
        <time>2020-07-19T13:10:15.000Z</time>
      </trkpt>
      <trkpt lat="45.20371" lon="6.19196">
        <ele>2306</ele>
        <time>2020-07-19T13:10:16.000Z</time>
      </trkpt>
      <trkpt lat="45.20373" lon="6.19199">
        <ele>2303.9</ele>
        <time>2020-07-19T13:10:17.000Z</time>
      </trkpt>
      <trkpt lat="45.20376" lon="6.19202">
        <ele>2303</ele>
        <time>2020-07-19T13:10:18.000Z</time>
      </trkpt>
      <trkpt lat="45.2038" lon="6.19204">
        <ele>2302.9</ele>
        <time>2020-07-19T13:10:19.000Z</time>
      </trkpt>
      <trkpt lat="45.20383" lon="6.19208">
        <ele>2302</ele>
        <time>2020-07-19T13:10:20.000Z</time>
      </trkpt>
      <trkpt lat="45.20385" lon="6.19213">
        <ele>2302</ele>
        <time>2020-07-19T13:10:21.000Z</time>
      </trkpt>
      <trkpt lat="45.20387" lon="6.19219">
        <ele>2302</ele>
        <time>2020-07-19T13:10:22.000Z</time>
      </trkpt>
      <trkpt lat="45.2039" lon="6.19224">
        <ele>2301.9</ele>
        <time>2020-07-19T13:10:23.000Z</time>
      </trkpt>
      <trkpt lat="45.20392" lon="6.1923">
        <ele>2301</ele>
        <time>2020-07-19T13:10:24.000Z</time>
      </trkpt>
      <trkpt lat="45.20394" lon="6.19236">
        <ele>2300.9</ele>
        <time>2020-07-19T13:10:25.000Z</time>
      </trkpt>
      <trkpt lat="45.20395" lon="6.19241">
        <ele>2300</ele>
        <time>2020-07-19T13:10:26.000Z</time>
      </trkpt>
      <trkpt lat="45.20397" lon="6.19247">
        <ele>2300</ele>
        <time>2020-07-19T13:10:27.000Z</time>
      </trkpt>
      <trkpt lat="45.20398" lon="6.19252">
        <ele>2300</ele>
        <time>2020-07-19T13:10:28.000Z</time>
      </trkpt>
      <trkpt lat="45.20399" lon="6.19257">
        <ele>2300</ele>
        <time>2020-07-19T13:10:29.000Z</time>
      </trkpt>
      <trkpt lat="45.204" lon="6.19262">
        <ele>2299.9</ele>
        <time>2020-07-19T13:10:30.000Z</time>
      </trkpt>
      <trkpt lat="45.204" lon="6.19265">
        <ele>2299</ele>
        <time>2020-07-19T13:10:31.000Z</time>
      </trkpt>
      <trkpt lat="45.20399" lon="6.19268">
        <ele>2298</ele>
        <time>2020-07-19T13:10:32.000Z</time>
      </trkpt>
      <trkpt lat="45.20398" lon="6.19271">
        <ele>2298</ele>
        <time>2020-07-19T13:10:33.000Z</time>
      </trkpt>
      <trkpt lat="45.20398" lon="6.19275">
        <ele>2298</ele>
        <time>2020-07-19T13:10:34.000Z</time>
      </trkpt>
      <trkpt lat="45.20397" lon="6.19279">
        <ele>2297.9</ele>
        <time>2020-07-19T13:10:35.000Z</time>
      </trkpt>
      <trkpt lat="45.20396" lon="6.19283">
        <ele>2297</ele>
        <time>2020-07-19T13:10:36.000Z</time>
      </trkpt>
      <trkpt lat="45.20395" lon="6.19287">
        <ele>2297</ele>
        <time>2020-07-19T13:10:37.000Z</time>
      </trkpt>
      <trkpt lat="45.20394" lon="6.19292">
        <ele>2296.9</ele>
        <time>2020-07-19T13:10:38.000Z</time>
      </trkpt>
      <trkpt lat="45.20392" lon="6.19296">
        <ele>2295.9</ele>
        <time>2020-07-19T13:10:39.000Z</time>
      </trkpt>
      <trkpt lat="45.20391" lon="6.193">
        <ele>2294.9</ele>
        <time>2020-07-19T13:10:40.000Z</time>
      </trkpt>
      <trkpt lat="45.20389" lon="6.19304">
        <ele>2294</ele>
        <time>2020-07-19T13:10:41.000Z</time>
      </trkpt>
      <trkpt lat="45.20389" lon="6.19306">
        <ele>2292.9</ele>
        <time>2020-07-19T13:10:43.000Z</time>
      </trkpt>
      <trkpt lat="45.20389" lon="6.19303">
        <ele>2290</ele>
        <time>2020-07-19T13:10:57.000Z</time>
      </trkpt>
      <trkpt lat="45.20388" lon="6.19301">
        <ele>2291</ele>
        <time>2020-07-19T13:11:11.000Z</time>
      </trkpt>
      <trkpt lat="45.20389" lon="6.19299">
        <ele>2290</ele>
        <time>2020-07-19T13:11:54.000Z</time>
      </trkpt>
      <trkpt lat="45.2039" lon="6.19302">
        <ele>2289</ele>
        <time>2020-07-19T13:12:05.000Z</time>
      </trkpt>
      <trkpt lat="45.20389" lon="6.19305">
        <ele>2288</ele>
        <time>2020-07-19T13:12:16.000Z</time>
      </trkpt>
      <trkpt lat="45.20389" lon="6.19309">
        <ele>2288</ele>
        <time>2020-07-19T13:12:22.000Z</time>
      </trkpt>
      <trkpt lat="45.20389" lon="6.19313">
        <ele>2288</ele>
        <time>2020-07-19T13:12:23.000Z</time>
      </trkpt>
      <trkpt lat="45.2039" lon="6.19318">
        <ele>2288</ele>
        <time>2020-07-19T13:12:24.000Z</time>
      </trkpt>
      <trkpt lat="45.2039" lon="6.19322">
        <ele>2288</ele>
        <time>2020-07-19T13:12:25.000Z</time>
      </trkpt>
      <trkpt lat="45.20391" lon="6.19327">
        <ele>2288</ele>
        <time>2020-07-19T13:12:26.000Z</time>
      </trkpt>
      <trkpt lat="45.20391" lon="6.19331">
        <ele>2287.9</ele>
        <time>2020-07-19T13:12:27.000Z</time>
      </trkpt>
      <trkpt lat="45.20391" lon="6.19335">
        <ele>2287.2</ele>
        <time>2020-07-19T13:12:28.000Z</time>
      </trkpt>
      <trkpt lat="45.20393" lon="6.19335">
        <ele>2285</ele>
        <time>2020-07-19T13:12:32.000Z</time>
      </trkpt>
      <trkpt lat="45.20396" lon="6.19331">
        <ele>2285</ele>
        <time>2020-07-19T13:12:34.000Z</time>
      </trkpt>
      <trkpt lat="45.20397" lon="6.19328">
        <ele>2284.9</ele>
        <time>2020-07-19T13:12:35.000Z</time>
      </trkpt>
      <trkpt lat="45.20398" lon="6.19325">
        <ele>2284</ele>
        <time>2020-07-19T13:12:36.000Z</time>
      </trkpt>
      <trkpt lat="45.20399" lon="6.19322">
        <ele>2283.9</ele>
        <time>2020-07-19T13:12:37.000Z</time>
      </trkpt>
      <trkpt lat="45.204" lon="6.1932">
        <ele>2282.8</ele>
        <time>2020-07-19T13:12:38.000Z</time>
      </trkpt>
      <trkpt lat="45.20403" lon="6.19318">
        <ele>2280</ele>
        <time>2020-07-19T13:12:40.000Z</time>
      </trkpt>
      <trkpt lat="45.20401" lon="6.19317">
        <ele>2277</ele>
        <time>2020-07-19T13:13:17.000Z</time>
      </trkpt>
      <trkpt lat="45.20402" lon="6.19315">
        <ele>2277</ele>
        <time>2020-07-19T13:13:56.000Z</time>
      </trkpt>
      <trkpt lat="45.20404" lon="6.19317">
        <ele>2277</ele>
        <time>2020-07-19T13:14:00.000Z</time>
      </trkpt>
      <trkpt lat="45.20405" lon="6.1932">
        <ele>2276</ele>
        <time>2020-07-19T13:14:06.000Z</time>
      </trkpt>
      <trkpt lat="45.20405" lon="6.19325">
        <ele>2275.9</ele>
        <time>2020-07-19T13:14:08.000Z</time>
      </trkpt>
      <trkpt lat="45.20405" lon="6.19328">
        <ele>2274.9</ele>
        <time>2020-07-19T13:14:10.000Z</time>
      </trkpt>
      <trkpt lat="45.20405" lon="6.1933">
        <ele>2274</ele>
        <time>2020-07-19T13:14:12.000Z</time>
      </trkpt>
      <trkpt lat="45.20406" lon="6.19334">
        <ele>2274</ele>
        <time>2020-07-19T13:14:14.000Z</time>
      </trkpt>
      <trkpt lat="45.20407" lon="6.1934">
        <ele>2271.9</ele>
        <time>2020-07-19T13:14:16.000Z</time>
      </trkpt>
      <trkpt lat="45.20408" lon="6.19343">
        <ele>2271</ele>
        <time>2020-07-19T13:14:17.000Z</time>
      </trkpt>
      <trkpt lat="45.20408" lon="6.19346">
        <ele>2271</ele>
        <time>2020-07-19T13:14:18.000Z</time>
      </trkpt>
      <trkpt lat="45.20408" lon="6.19349">
        <ele>2270.9</ele>
        <time>2020-07-19T13:14:19.000Z</time>
      </trkpt>
      <trkpt lat="45.20409" lon="6.19354">
        <ele>2268.9</ele>
        <time>2020-07-19T13:14:21.000Z</time>
      </trkpt>
      <trkpt lat="45.20409" lon="6.19357">
        <ele>2268.2</ele>
        <time>2020-07-19T13:14:22.000Z</time>
      </trkpt>
      <trkpt lat="45.20409" lon="6.1936">
        <ele>2267.9</ele>
        <time>2020-07-19T13:14:23.000Z</time>
      </trkpt>
      <trkpt lat="45.20409" lon="6.19363">
        <ele>2267</ele>
        <time>2020-07-19T13:14:24.000Z</time>
      </trkpt>
      <trkpt lat="45.20409" lon="6.19366">
        <ele>2266.9</ele>
        <time>2020-07-19T13:14:25.000Z</time>
      </trkpt>
      <trkpt lat="45.20409" lon="6.1937">
        <ele>2266</ele>
        <time>2020-07-19T13:14:26.000Z</time>
      </trkpt>
      <trkpt lat="45.20409" lon="6.19374">
        <ele>2266</ele>
        <time>2020-07-19T13:14:27.000Z</time>
      </trkpt>
      <trkpt lat="45.20409" lon="6.19378">
        <ele>2265.9</ele>
        <time>2020-07-19T13:14:28.000Z</time>
      </trkpt>
      <trkpt lat="45.20408" lon="6.19382">
        <ele>2264.9</ele>
        <time>2020-07-19T13:14:29.000Z</time>
      </trkpt>
      <trkpt lat="45.20408" lon="6.19385">
        <ele>2263.9</ele>
        <time>2020-07-19T13:14:30.000Z</time>
      </trkpt>
      <trkpt lat="45.20408" lon="6.19388">
        <ele>2263</ele>
        <time>2020-07-19T13:14:31.000Z</time>
      </trkpt>
      <trkpt lat="45.20408" lon="6.19391">
        <ele>2263</ele>
        <time>2020-07-19T13:14:32.000Z</time>
      </trkpt>
      <trkpt lat="45.20407" lon="6.19393">
        <ele>2262.9</ele>
        <time>2020-07-19T13:14:33.000Z</time>
      </trkpt>
      <trkpt lat="45.20406" lon="6.19397">
        <ele>2260.9</ele>
        <time>2020-07-19T13:14:35.000Z</time>
      </trkpt>
      <trkpt lat="45.20407" lon="6.194">
        <ele>2260</ele>
        <time>2020-07-19T13:14:36.000Z</time>
      </trkpt>
      <trkpt lat="45.20407" lon="6.19403">
        <ele>2260</ele>
        <time>2020-07-19T13:14:37.000Z</time>
      </trkpt>
      <trkpt lat="45.20407" lon="6.19406">
        <ele>2259.9</ele>
        <time>2020-07-19T13:14:38.000Z</time>
      </trkpt>
      <trkpt lat="45.20407" lon="6.19409">
        <ele>2258.9</ele>
        <time>2020-07-19T13:14:39.000Z</time>
      </trkpt>
      <trkpt lat="45.20406" lon="6.19412">
        <ele>2258</ele>
        <time>2020-07-19T13:14:40.000Z</time>
      </trkpt>
      <trkpt lat="45.20406" lon="6.19416">
        <ele>2257.9</ele>
        <time>2020-07-19T13:14:42.000Z</time>
      </trkpt>
      <trkpt lat="45.20408" lon="6.19419">
        <ele>2256.9</ele>
        <time>2020-07-19T13:14:44.000Z</time>
      </trkpt>
      <trkpt lat="45.20408" lon="6.19424">
        <ele>2256</ele>
        <time>2020-07-19T13:14:46.000Z</time>
      </trkpt>
      <trkpt lat="45.20407" lon="6.19427">
        <ele>2256</ele>
        <time>2020-07-19T13:14:47.000Z</time>
      </trkpt>
      <trkpt lat="45.20407" lon="6.19431">
        <ele>2256</ele>
        <time>2020-07-19T13:14:48.000Z</time>
      </trkpt>
      <trkpt lat="45.20406" lon="6.19435">
        <ele>2255.9</ele>
        <time>2020-07-19T13:14:49.000Z</time>
      </trkpt>
      <trkpt lat="45.20406" lon="6.19438">
        <ele>2254.9</ele>
        <time>2020-07-19T13:14:50.000Z</time>
      </trkpt>
      <trkpt lat="45.20407" lon="6.19441">
        <ele>2253.9</ele>
        <time>2020-07-19T13:14:51.000Z</time>
      </trkpt>
      <trkpt lat="45.20407" lon="6.19444">
        <ele>2252.9</ele>
        <time>2020-07-19T13:14:52.000Z</time>
      </trkpt>
      <trkpt lat="45.20408" lon="6.19447">
        <ele>2252</ele>
        <time>2020-07-19T13:14:53.000Z</time>
      </trkpt>
      <trkpt lat="45.20408" lon="6.1945">
        <ele>2251.9</ele>
        <time>2020-07-19T13:14:54.000Z</time>
      </trkpt>
      <trkpt lat="45.20409" lon="6.19453">
        <ele>2251</ele>
        <time>2020-07-19T13:14:55.000Z</time>
      </trkpt>
      <trkpt lat="45.20409" lon="6.19457">
        <ele>2251</ele>
        <time>2020-07-19T13:14:56.000Z</time>
      </trkpt>
      <trkpt lat="45.20409" lon="6.19461">
        <ele>2249.8</ele>
        <time>2020-07-19T13:14:57.000Z</time>
      </trkpt>
      <trkpt lat="45.20409" lon="6.19466">
        <ele>2248</ele>
        <time>2020-07-19T13:14:58.000Z</time>
      </trkpt>
      <trkpt lat="45.20408" lon="6.19472">
        <ele>2248</ele>
        <time>2020-07-19T13:14:59.000Z</time>
      </trkpt>
      <trkpt lat="45.20406" lon="6.19477">
        <ele>2248</ele>
        <time>2020-07-19T13:15:00.000Z</time>
      </trkpt>
      <trkpt lat="45.20405" lon="6.19482">
        <ele>2247</ele>
        <time>2020-07-19T13:15:01.000Z</time>
      </trkpt>
      <trkpt lat="45.20404" lon="6.19487">
        <ele>2246.9</ele>
        <time>2020-07-19T13:15:02.000Z</time>
      </trkpt>
      <trkpt lat="45.20402" lon="6.19491">
        <ele>2245.9</ele>
        <time>2020-07-19T13:15:03.000Z</time>
      </trkpt>
      <trkpt lat="45.20401" lon="6.19494">
        <ele>2245</ele>
        <time>2020-07-19T13:15:04.000Z</time>
      </trkpt>
      <trkpt lat="45.204" lon="6.19497">
        <ele>2245</ele>
        <time>2020-07-19T13:15:05.000Z</time>
      </trkpt>
      <trkpt lat="45.20399" lon="6.19501">
        <ele>2245</ele>
        <time>2020-07-19T13:15:07.000Z</time>
      </trkpt>
      <trkpt lat="45.20397" lon="6.19505">
        <ele>2245</ele>
        <time>2020-07-19T13:15:09.000Z</time>
      </trkpt>
      <trkpt lat="45.20395" lon="6.19507">
        <ele>2244.9</ele>
        <time>2020-07-19T13:15:10.000Z</time>
      </trkpt>
      <trkpt lat="45.20393" lon="6.1951">
        <ele>2244</ele>
        <time>2020-07-19T13:15:11.000Z</time>
      </trkpt>
      <trkpt lat="45.20392" lon="6.19515">
        <ele>2243.9</ele>
        <time>2020-07-19T13:15:12.000Z</time>
      </trkpt>
      <trkpt lat="45.2039" lon="6.19522">
        <ele>2243.2</ele>
        <time>2020-07-19T13:15:13.000Z</time>
      </trkpt>
      <trkpt lat="45.20389" lon="6.19528">
        <ele>2243</ele>
        <time>2020-07-19T13:15:14.000Z</time>
      </trkpt>
      <trkpt lat="45.20388" lon="6.19533">
        <ele>2242.9</ele>
        <time>2020-07-19T13:15:15.000Z</time>
      </trkpt>
      <trkpt lat="45.20385" lon="6.19536">
        <ele>2242</ele>
        <time>2020-07-19T13:15:16.000Z</time>
      </trkpt>
      <trkpt lat="45.20382" lon="6.19539">
        <ele>2242</ele>
        <time>2020-07-19T13:15:17.000Z</time>
      </trkpt>
      <trkpt lat="45.20381" lon="6.19542">
        <ele>2240.9</ele>
        <time>2020-07-19T13:15:18.000Z</time>
      </trkpt>
      <trkpt lat="45.20379" lon="6.19545">
        <ele>2239</ele>
        <time>2020-07-19T13:15:35.000Z</time>
      </trkpt>
      <trkpt lat="45.20378" lon="6.19547">
        <ele>2239</ele>
        <time>2020-07-19T13:15:36.000Z</time>
      </trkpt>
      <trkpt lat="45.20376" lon="6.19549">
        <ele>2239</ele>
        <time>2020-07-19T13:15:37.000Z</time>
      </trkpt>
      <trkpt lat="45.20374" lon="6.19552">
        <ele>2239</ele>
        <time>2020-07-19T13:15:38.000Z</time>
      </trkpt>
      <trkpt lat="45.20371" lon="6.19554">
        <ele>2238</ele>
        <time>2020-07-19T13:15:39.000Z</time>
      </trkpt>
      <trkpt lat="45.20367" lon="6.19556">
        <ele>2238</ele>
        <time>2020-07-19T13:15:40.000Z</time>
      </trkpt>
      <trkpt lat="45.20363" lon="6.19557">
        <ele>2238</ele>
        <time>2020-07-19T13:15:41.000Z</time>
      </trkpt>
      <trkpt lat="45.20359" lon="6.19558">
        <ele>2237.9</ele>
        <time>2020-07-19T13:15:42.000Z</time>
      </trkpt>
      <trkpt lat="45.20356" lon="6.1956">
        <ele>2236.9</ele>
        <time>2020-07-19T13:15:43.000Z</time>
      </trkpt>
      <trkpt lat="45.20352" lon="6.19561">
        <ele>2236.2</ele>
        <time>2020-07-19T13:15:44.000Z</time>
      </trkpt>
      <trkpt lat="45.20348" lon="6.19561">
        <ele>2236</ele>
        <time>2020-07-19T13:15:45.000Z</time>
      </trkpt>
      <trkpt lat="45.20344" lon="6.1956">
        <ele>2235.9</ele>
        <time>2020-07-19T13:15:46.000Z</time>
      </trkpt>
      <trkpt lat="45.20341" lon="6.19558">
        <ele>2234.9</ele>
        <time>2020-07-19T13:15:47.000Z</time>
      </trkpt>
      <trkpt lat="45.20338" lon="6.19556">
        <ele>2234</ele>
        <time>2020-07-19T13:15:48.000Z</time>
      </trkpt>
      <trkpt lat="45.20335" lon="6.19555">
        <ele>2233.9</ele>
        <time>2020-07-19T13:15:49.000Z</time>
      </trkpt>
      <trkpt lat="45.20331" lon="6.19553">
        <ele>2233</ele>
        <time>2020-07-19T13:15:50.000Z</time>
      </trkpt>
      <trkpt lat="45.20329" lon="6.19552">
        <ele>2233</ele>
        <time>2020-07-19T13:15:51.000Z</time>
      </trkpt>
      <trkpt lat="45.20326" lon="6.19551">
        <ele>2233</ele>
        <time>2020-07-19T13:15:52.000Z</time>
      </trkpt>
      <trkpt lat="45.20323" lon="6.19551">
        <ele>2233</ele>
        <time>2020-07-19T13:15:53.000Z</time>
      </trkpt>
      <trkpt lat="45.2032" lon="6.1955">
        <ele>2233</ele>
        <time>2020-07-19T13:15:54.000Z</time>
      </trkpt>
      <trkpt lat="45.20317" lon="6.19549">
        <ele>2232.9</ele>
        <time>2020-07-19T13:15:55.000Z</time>
      </trkpt>
      <trkpt lat="45.20316" lon="6.19548">
        <ele>2232</ele>
        <time>2020-07-19T13:15:56.000Z</time>
      </trkpt>
      <trkpt lat="45.20313" lon="6.19549">
        <ele>2231</ele>
        <time>2020-07-19T13:16:03.000Z</time>
      </trkpt>
      <trkpt lat="45.20311" lon="6.19553">
        <ele>2231</ele>
        <time>2020-07-19T13:16:05.000Z</time>
      </trkpt>
      <trkpt lat="45.2031" lon="6.19557">
        <ele>2230</ele>
        <time>2020-07-19T13:16:07.000Z</time>
      </trkpt>
      <trkpt lat="45.20309" lon="6.1956">
        <ele>2230</ele>
        <time>2020-07-19T13:16:09.000Z</time>
      </trkpt>
      <trkpt lat="45.20308" lon="6.19564">
        <ele>2229</ele>
        <time>2020-07-19T13:16:11.000Z</time>
      </trkpt>
      <trkpt lat="45.20307" lon="6.19568">
        <ele>2228</ele>
        <time>2020-07-19T13:16:13.000Z</time>
      </trkpt>
      <trkpt lat="45.20306" lon="6.19571">
        <ele>2228</ele>
        <time>2020-07-19T13:16:14.000Z</time>
      </trkpt>
      <trkpt lat="45.20306" lon="6.19575">
        <ele>2227.9</ele>
        <time>2020-07-19T13:16:15.000Z</time>
      </trkpt>
      <trkpt lat="45.20306" lon="6.19578">
        <ele>2226.3</ele>
        <time>2020-07-19T13:16:16.000Z</time>
      </trkpt>
      <trkpt lat="45.20306" lon="6.19581">
        <ele>2223</ele>
        <time>2020-07-19T13:16:52.000Z</time>
      </trkpt>
      <trkpt lat="45.20306" lon="6.19584">
        <ele>2223</ele>
        <time>2020-07-19T13:16:53.000Z</time>
      </trkpt>
      <trkpt lat="45.20306" lon="6.19587">
        <ele>2223</ele>
        <time>2020-07-19T13:16:54.000Z</time>
      </trkpt>
      <trkpt lat="45.20307" lon="6.1959">
        <ele>2222</ele>
        <time>2020-07-19T13:16:57.000Z</time>
      </trkpt>
      <trkpt lat="45.20306" lon="6.19594">
        <ele>2221</ele>
        <time>2020-07-19T13:17:00.000Z</time>
      </trkpt>
      <trkpt lat="45.20306" lon="6.19597">
        <ele>2220.9</ele>
        <time>2020-07-19T13:17:01.000Z</time>
      </trkpt>
      <trkpt lat="45.20306" lon="6.19601">
        <ele>2220</ele>
        <time>2020-07-19T13:17:02.000Z</time>
      </trkpt>
      <trkpt lat="45.20305" lon="6.19605">
        <ele>2220</ele>
        <time>2020-07-19T13:17:03.000Z</time>
      </trkpt>
      <trkpt lat="45.20305" lon="6.19608">
        <ele>2219.9</ele>
        <time>2020-07-19T13:17:04.000Z</time>
      </trkpt>
      <trkpt lat="45.20304" lon="6.19612">
        <ele>2219</ele>
        <time>2020-07-19T13:17:05.000Z</time>
      </trkpt>
      <trkpt lat="45.20303" lon="6.19617">
        <ele>2218.9</ele>
        <time>2020-07-19T13:17:06.000Z</time>
      </trkpt>
      <trkpt lat="45.20302" lon="6.19621">
        <ele>2217.9</ele>
        <time>2020-07-19T13:17:07.000Z</time>
      </trkpt>
      <trkpt lat="45.203" lon="6.19623">
        <ele>2216.9</ele>
        <time>2020-07-19T13:17:08.000Z</time>
      </trkpt>
      <trkpt lat="45.20297" lon="6.19623">
        <ele>2216.2</ele>
        <time>2020-07-19T13:17:09.000Z</time>
      </trkpt>
      <trkpt lat="45.20294" lon="6.19623">
        <ele>2214.9</ele>
        <time>2020-07-19T13:17:10.000Z</time>
      </trkpt>
      <trkpt lat="45.20291" lon="6.19622">
        <ele>2214</ele>
        <time>2020-07-19T13:17:11.000Z</time>
      </trkpt>
      <trkpt lat="45.20289" lon="6.19619">
        <ele>2214</ele>
        <time>2020-07-19T13:17:12.000Z</time>
      </trkpt>
      <trkpt lat="45.20288" lon="6.19617">
        <ele>2214</ele>
        <time>2020-07-19T13:17:13.000Z</time>
      </trkpt>
      <trkpt lat="45.20285" lon="6.19616">
        <ele>2212.9</ele>
        <time>2020-07-19T13:17:14.000Z</time>
      </trkpt>
      <trkpt lat="45.20283" lon="6.19615">
        <ele>2211.9</ele>
        <time>2020-07-19T13:17:15.000Z</time>
      </trkpt>
      <trkpt lat="45.2028" lon="6.19613">
        <ele>2210</ele>
        <time>2020-07-19T13:17:17.000Z</time>
      </trkpt>
      <trkpt lat="45.20277" lon="6.19612">
        <ele>2210</ele>
        <time>2020-07-19T13:17:18.000Z</time>
      </trkpt>
      <trkpt lat="45.20274" lon="6.19611">
        <ele>2210</ele>
        <time>2020-07-19T13:17:19.000Z</time>
      </trkpt>
      <trkpt lat="45.20271" lon="6.19609">
        <ele>2210</ele>
        <time>2020-07-19T13:17:20.000Z</time>
      </trkpt>
      <trkpt lat="45.20268" lon="6.19608">
        <ele>2209.9</ele>
        <time>2020-07-19T13:17:21.000Z</time>
      </trkpt>
      <trkpt lat="45.20265" lon="6.19607">
        <ele>2208.9</ele>
        <time>2020-07-19T13:17:22.000Z</time>
      </trkpt>
      <trkpt lat="45.20262" lon="6.19605">
        <ele>2208</ele>
        <time>2020-07-19T13:17:23.000Z</time>
      </trkpt>
      <trkpt lat="45.2026" lon="6.19604">
        <ele>2207.9</ele>
        <time>2020-07-19T13:17:24.000Z</time>
      </trkpt>
      <trkpt lat="45.20258" lon="6.19602">
        <ele>2207</ele>
        <time>2020-07-19T13:17:25.000Z</time>
      </trkpt>
      <trkpt lat="45.20256" lon="6.196">
        <ele>2206.9</ele>
        <time>2020-07-19T13:17:26.000Z</time>
      </trkpt>
      <trkpt lat="45.20254" lon="6.19597">
        <ele>2205.9</ele>
        <time>2020-07-19T13:17:27.000Z</time>
      </trkpt>
      <trkpt lat="45.20252" lon="6.19596">
        <ele>2205</ele>
        <time>2020-07-19T13:17:28.000Z</time>
      </trkpt>
      <trkpt lat="45.2025" lon="6.19595">
        <ele>2205</ele>
        <time>2020-07-19T13:17:29.000Z</time>
      </trkpt>
      <trkpt lat="45.20248" lon="6.196">
        <ele>2204</ele>
        <time>2020-07-19T13:17:31.000Z</time>
      </trkpt>
      <trkpt lat="45.20248" lon="6.19603">
        <ele>2204</ele>
        <time>2020-07-19T13:17:32.000Z</time>
      </trkpt>
      <trkpt lat="45.20247" lon="6.19607">
        <ele>2203.9</ele>
        <time>2020-07-19T13:17:33.000Z</time>
      </trkpt>
      <trkpt lat="45.20246" lon="6.19611">
        <ele>2202.9</ele>
        <time>2020-07-19T13:17:34.000Z</time>
      </trkpt>
      <trkpt lat="45.20245" lon="6.19614">
        <ele>2202</ele>
        <time>2020-07-19T13:17:35.000Z</time>
      </trkpt>
      <trkpt lat="45.20244" lon="6.19619">
        <ele>2202</ele>
        <time>2020-07-19T13:17:36.000Z</time>
      </trkpt>
      <trkpt lat="45.20244" lon="6.19623">
        <ele>2201.9</ele>
        <time>2020-07-19T13:17:37.000Z</time>
      </trkpt>
      <trkpt lat="45.20243" lon="6.19626">
        <ele>2200.9</ele>
        <time>2020-07-19T13:17:38.000Z</time>
      </trkpt>
      <trkpt lat="45.20242" lon="6.19628">
        <ele>2200</ele>
        <time>2020-07-19T13:17:39.000Z</time>
      </trkpt>
      <trkpt lat="45.20238" lon="6.19628">
        <ele>2199</ele>
        <time>2020-07-19T13:17:41.000Z</time>
      </trkpt>
      <trkpt lat="45.20236" lon="6.19628">
        <ele>2198.9</ele>
        <time>2020-07-19T13:17:42.000Z</time>
      </trkpt>
      <trkpt lat="45.20233" lon="6.19629">
        <ele>2198</ele>
        <time>2020-07-19T13:17:43.000Z</time>
      </trkpt>
      <trkpt lat="45.20232" lon="6.19634">
        <ele>2197</ele>
        <time>2020-07-19T13:17:45.000Z</time>
      </trkpt>
      <trkpt lat="45.20233" lon="6.19637">
        <ele>2197</ele>
        <time>2020-07-19T13:17:46.000Z</time>
      </trkpt>
      <trkpt lat="45.20234" lon="6.19639">
        <ele>2194</ele>
        <time>2020-07-19T13:19:12.000Z</time>
      </trkpt>
      <trkpt lat="45.20235" lon="6.19642">
        <ele>2194</ele>
        <time>2020-07-19T13:19:15.000Z</time>
      </trkpt>
      <trkpt lat="45.20235" lon="6.19645">
        <ele>2194</ele>
        <time>2020-07-19T13:19:18.000Z</time>
      </trkpt>
      <trkpt lat="45.20236" lon="6.19647">
        <ele>2193</ele>
        <time>2020-07-19T13:19:24.000Z</time>
      </trkpt>
      <trkpt lat="45.20238" lon="6.19652">
        <ele>2193</ele>
        <time>2020-07-19T13:19:26.000Z</time>
      </trkpt>
      <trkpt lat="45.20239" lon="6.19658">
        <ele>2192</ele>
        <time>2020-07-19T13:19:27.000Z</time>
      </trkpt>
      <trkpt lat="45.20237" lon="6.19662">
        <ele>2191.9</ele>
        <time>2020-07-19T13:19:28.000Z</time>
      </trkpt>
      <trkpt lat="45.20235" lon="6.19666">
        <ele>2191</ele>
        <time>2020-07-19T13:19:29.000Z</time>
      </trkpt>
      <trkpt lat="45.20233" lon="6.19669">
        <ele>2190.8</ele>
        <time>2020-07-19T13:19:30.000Z</time>
      </trkpt>
      <trkpt lat="45.20231" lon="6.19674">
        <ele>2189</ele>
        <time>2020-07-19T13:19:31.000Z</time>
      </trkpt>
      <trkpt lat="45.2023" lon="6.19679">
        <ele>2188.9</ele>
        <time>2020-07-19T13:19:32.000Z</time>
      </trkpt>
      <trkpt lat="45.20231" lon="6.19684">
        <ele>2187.9</ele>
        <time>2020-07-19T13:19:33.000Z</time>
      </trkpt>
      <trkpt lat="45.20232" lon="6.19688">
        <ele>2187.1</ele>
        <time>2020-07-19T13:19:34.000Z</time>
      </trkpt>
      <trkpt lat="45.20235" lon="6.19693">
        <ele>2187.9</ele>
        <time>2020-07-19T13:19:35.000Z</time>
      </trkpt>
      <trkpt lat="45.20237" lon="6.19699">
        <ele>2186.9</ele>
        <time>2020-07-19T13:19:36.000Z</time>
      </trkpt>
      <trkpt lat="45.2024" lon="6.19705">
        <ele>2185.9</ele>
        <time>2020-07-19T13:19:37.000Z</time>
      </trkpt>
      <trkpt lat="45.20242" lon="6.19712">
        <ele>2185.2</ele>
        <time>2020-07-19T13:19:38.000Z</time>
      </trkpt>
      <trkpt lat="45.20244" lon="6.19719">
        <ele>2183.9</ele>
        <time>2020-07-19T13:19:39.000Z</time>
      </trkpt>
      <trkpt lat="45.20245" lon="6.19726">
        <ele>2182.9</ele>
        <time>2020-07-19T13:19:40.000Z</time>
      </trkpt>
      <trkpt lat="45.20246" lon="6.19733">
        <ele>2181.9</ele>
        <time>2020-07-19T13:19:41.000Z</time>
      </trkpt>
      <trkpt lat="45.20247" lon="6.1974">
        <ele>2180.9</ele>
        <time>2020-07-19T13:19:42.000Z</time>
      </trkpt>
      <trkpt lat="45.20247" lon="6.19746">
        <ele>2179.9</ele>
        <time>2020-07-19T13:19:43.000Z</time>
      </trkpt>
      <trkpt lat="45.20248" lon="6.19753">
        <ele>2178.9</ele>
        <time>2020-07-19T13:19:44.000Z</time>
      </trkpt>
      <trkpt lat="45.20247" lon="6.1976">
        <ele>2178.2</ele>
        <time>2020-07-19T13:19:45.000Z</time>
      </trkpt>
      <trkpt lat="45.20247" lon="6.19767">
        <ele>2176.9</ele>
        <time>2020-07-19T13:19:46.000Z</time>
      </trkpt>
      <trkpt lat="45.20247" lon="6.19775">
        <ele>2175.9</ele>
        <time>2020-07-19T13:19:47.000Z</time>
      </trkpt>
      <trkpt lat="45.20246" lon="6.19782">
        <ele>2175.2</ele>
        <time>2020-07-19T13:19:48.000Z</time>
      </trkpt>
      <trkpt lat="45.20246" lon="6.1979">
        <ele>2173.8</ele>
        <time>2020-07-19T13:19:49.000Z</time>
      </trkpt>
      <trkpt lat="45.20245" lon="6.19797">
        <ele>2171.9</ele>
        <time>2020-07-19T13:19:50.000Z</time>
      </trkpt>
      <trkpt lat="45.20245" lon="6.19805">
        <ele>2170.9</ele>
        <time>2020-07-19T13:19:51.000Z</time>
      </trkpt>
      <trkpt lat="45.20244" lon="6.19812">
        <ele>2169.9</ele>
        <time>2020-07-19T13:19:52.000Z</time>
      </trkpt>
      <trkpt lat="45.20243" lon="6.19819">
        <ele>2168.9</ele>
        <time>2020-07-19T13:19:53.000Z</time>
      </trkpt>
      <trkpt lat="45.20242" lon="6.19826">
        <ele>2167.9</ele>
        <time>2020-07-19T13:19:54.000Z</time>
      </trkpt>
      <trkpt lat="45.20241" lon="6.19834">
        <ele>2166.9</ele>
        <time>2020-07-19T13:19:55.000Z</time>
      </trkpt>
      <trkpt lat="45.2024" lon="6.19841">
        <ele>2165.8</ele>
        <time>2020-07-19T13:19:56.000Z</time>
      </trkpt>
      <trkpt lat="45.20239" lon="6.19848">
        <ele>2163.1</ele>
        <time>2020-07-19T13:19:57.000Z</time>
      </trkpt>
      <trkpt lat="45.20238" lon="6.19855">
        <ele>2159.9</ele>
        <time>2020-07-19T13:19:58.000Z</time>
      </trkpt>
      <trkpt lat="45.20237" lon="6.19863">
        <ele>2158.8</ele>
        <time>2020-07-19T13:19:59.000Z</time>
      </trkpt>
      <trkpt lat="45.20236" lon="6.1987">
        <ele>2156.9</ele>
        <time>2020-07-19T13:20:00.000Z</time>
      </trkpt>
      <trkpt lat="45.20235" lon="6.19878">
        <ele>2155.9</ele>
        <time>2020-07-19T13:20:01.000Z</time>
      </trkpt>
      <trkpt lat="45.20233" lon="6.19886">
        <ele>2155</ele>
        <time>2020-07-19T13:20:02.000Z</time>
      </trkpt>
      <trkpt lat="45.20232" lon="6.19894">
        <ele>2154.9</ele>
        <time>2020-07-19T13:20:03.000Z</time>
      </trkpt>
      <trkpt lat="45.20231" lon="6.19902">
        <ele>2154.2</ele>
        <time>2020-07-19T13:20:04.000Z</time>
      </trkpt>
      <trkpt lat="45.2023" lon="6.19909">
        <ele>2152.9</ele>
        <time>2020-07-19T13:20:05.000Z</time>
      </trkpt>
      <trkpt lat="45.2023" lon="6.19915">
        <ele>2151.9</ele>
        <time>2020-07-19T13:20:06.000Z</time>
      </trkpt>
      <trkpt lat="45.2023" lon="6.19922">
        <ele>2150.3</ele>
        <time>2020-07-19T13:20:07.000Z</time>
      </trkpt>
      <trkpt lat="45.2023" lon="6.19929">
        <ele>2147.9</ele>
        <time>2020-07-19T13:20:08.000Z</time>
      </trkpt>
      <trkpt lat="45.2023" lon="6.19937">
        <ele>2146.9</ele>
        <time>2020-07-19T13:20:09.000Z</time>
      </trkpt>
      <trkpt lat="45.20229" lon="6.19946">
        <ele>2146</ele>
        <time>2020-07-19T13:20:10.000Z</time>
      </trkpt>
      <trkpt lat="45.20227" lon="6.19955">
        <ele>2145.9</ele>
        <time>2020-07-19T13:20:11.000Z</time>
      </trkpt>
      <trkpt lat="45.20225" lon="6.19964">
        <ele>2144.9</ele>
        <time>2020-07-19T13:20:12.000Z</time>
      </trkpt>
      <trkpt lat="45.20222" lon="6.19973">
        <ele>2143.9</ele>
        <time>2020-07-19T13:20:13.000Z</time>
      </trkpt>
      <trkpt lat="45.20219" lon="6.19981">
        <ele>2142.9</ele>
        <time>2020-07-19T13:20:14.000Z</time>
      </trkpt>
      <trkpt lat="45.20215" lon="6.19989">
        <ele>2142.2</ele>
        <time>2020-07-19T13:20:15.000Z</time>
      </trkpt>
      <trkpt lat="45.20211" lon="6.19997">
        <ele>2141.9</ele>
        <time>2020-07-19T13:20:16.000Z</time>
      </trkpt>
      <trkpt lat="45.20207" lon="6.20004">
        <ele>2140.9</ele>
        <time>2020-07-19T13:20:17.000Z</time>
      </trkpt>
      <trkpt lat="45.20202" lon="6.20011">
        <ele>2139.9</ele>
        <time>2020-07-19T13:20:18.000Z</time>
      </trkpt>
      <trkpt lat="45.20188" lon="6.20019">
        <ele>2135.9</ele>
        <time>2020-07-19T13:20:20.000Z</time>
      </trkpt>
      <trkpt lat="45.20177" lon="6.20029">
        <ele>2135.8</ele>
        <time>2020-07-19T13:20:22.000Z</time>
      </trkpt>
      <trkpt lat="45.20171" lon="6.20034">
        <ele>2135.2</ele>
        <time>2020-07-19T13:20:23.000Z</time>
      </trkpt>
      <trkpt lat="45.20166" lon="6.20039">
        <ele>2132.8</ele>
        <time>2020-07-19T13:20:24.000Z</time>
      </trkpt>
      <trkpt lat="45.20159" lon="6.20042">
        <ele>2130.9</ele>
        <time>2020-07-19T13:20:25.000Z</time>
      </trkpt>
      <trkpt lat="45.20152" lon="6.20046">
        <ele>2129.9</ele>
        <time>2020-07-19T13:20:26.000Z</time>
      </trkpt>
      <trkpt lat="45.20145" lon="6.20049">
        <ele>2129.1</ele>
        <time>2020-07-19T13:20:27.000Z</time>
      </trkpt>
      <trkpt lat="45.20137" lon="6.20052">
        <ele>2130</ele>
        <time>2020-07-19T13:20:28.000Z</time>
      </trkpt>
      <trkpt lat="45.2013" lon="6.20056">
        <ele>2130</ele>
        <time>2020-07-19T13:20:29.000Z</time>
      </trkpt>
      <trkpt lat="45.20124" lon="6.20061">
        <ele>2128.9</ele>
        <time>2020-07-19T13:20:30.000Z</time>
      </trkpt>
      <trkpt lat="45.20119" lon="6.20065">
        <ele>2127.9</ele>
        <time>2020-07-19T13:20:31.000Z</time>
      </trkpt>
      <trkpt lat="45.20113" lon="6.20068">
        <ele>2126.9</ele>
        <time>2020-07-19T13:20:32.000Z</time>
      </trkpt>
      <trkpt lat="45.20109" lon="6.20071">
        <ele>2125.9</ele>
        <time>2020-07-19T13:20:33.000Z</time>
      </trkpt>
      <trkpt lat="45.20105" lon="6.20074">
        <ele>2124.8</ele>
        <time>2020-07-19T13:20:34.000Z</time>
      </trkpt>
      <trkpt lat="45.201" lon="6.20077">
        <ele>2122.9</ele>
        <time>2020-07-19T13:20:35.000Z</time>
      </trkpt>
      <trkpt lat="45.20095" lon="6.20079">
        <ele>2121.9</ele>
        <time>2020-07-19T13:20:36.000Z</time>
      </trkpt>
      <trkpt lat="45.20089" lon="6.20081">
        <ele>2121</ele>
        <time>2020-07-19T13:20:37.000Z</time>
      </trkpt>
      <trkpt lat="45.20083" lon="6.20083">
        <ele>2121</ele>
        <time>2020-07-19T13:20:38.000Z</time>
      </trkpt>
      <trkpt lat="45.20076" lon="6.20087">
        <ele>2119.9</ele>
        <time>2020-07-19T13:20:39.000Z</time>
      </trkpt>
      <trkpt lat="45.2007" lon="6.20091">
        <ele>2119</ele>
        <time>2020-07-19T13:20:40.000Z</time>
      </trkpt>
      <trkpt lat="45.20064" lon="6.20097">
        <ele>2119</ele>
        <time>2020-07-19T13:20:41.000Z</time>
      </trkpt>
      <trkpt lat="45.20059" lon="6.20102">
        <ele>2119</ele>
        <time>2020-07-19T13:20:42.000Z</time>
      </trkpt>
      <trkpt lat="45.20053" lon="6.20108">
        <ele>2117.9</ele>
        <time>2020-07-19T13:20:43.000Z</time>
      </trkpt>
      <trkpt lat="45.20047" lon="6.20113">
        <ele>2117</ele>
        <time>2020-07-19T13:20:44.000Z</time>
      </trkpt>
      <trkpt lat="45.20041" lon="6.20118">
        <ele>2117</ele>
        <time>2020-07-19T13:20:45.000Z</time>
      </trkpt>
      <trkpt lat="45.20037" lon="6.20124">
        <ele>2114.8</ele>
        <time>2020-07-19T13:20:46.000Z</time>
      </trkpt>
      <trkpt lat="45.20035" lon="6.20132">
        <ele>2112.8</ele>
        <time>2020-07-19T13:20:47.000Z</time>
      </trkpt>
      <trkpt lat="45.20035" lon="6.20141">
        <ele>2110.9</ele>
        <time>2020-07-19T13:20:48.000Z</time>
      </trkpt>
      <trkpt lat="45.20037" lon="6.20151">
        <ele>2110</ele>
        <time>2020-07-19T13:20:49.000Z</time>
      </trkpt>
      <trkpt lat="45.20039" lon="6.20161">
        <ele>2109.9</ele>
        <time>2020-07-19T13:20:50.000Z</time>
      </trkpt>
      <trkpt lat="45.20042" lon="6.2017">
        <ele>2109.2</ele>
        <time>2020-07-19T13:20:51.000Z</time>
      </trkpt>
      <trkpt lat="45.20044" lon="6.20178">
        <ele>2110.9</ele>
        <time>2020-07-19T13:20:52.000Z</time>
      </trkpt>
      <trkpt lat="45.20047" lon="6.20186">
        <ele>2110.2</ele>
        <time>2020-07-19T13:20:53.000Z</time>
      </trkpt>
      <trkpt lat="45.20051" lon="6.20194">
        <ele>2107.9</ele>
        <time>2020-07-19T13:20:54.000Z</time>
      </trkpt>
      <trkpt lat="45.20055" lon="6.20201">
        <ele>2106.9</ele>
        <time>2020-07-19T13:20:55.000Z</time>
      </trkpt>
      <trkpt lat="45.20059" lon="6.20208">
        <ele>2106</ele>
        <time>2020-07-19T13:20:56.000Z</time>
      </trkpt>
      <trkpt lat="45.20063" lon="6.20214">
        <ele>2106</ele>
        <time>2020-07-19T13:20:57.000Z</time>
      </trkpt>
      <trkpt lat="45.20067" lon="6.2022">
        <ele>2106</ele>
        <time>2020-07-19T13:20:58.000Z</time>
      </trkpt>
      <trkpt lat="45.20071" lon="6.20226">
        <ele>2106</ele>
        <time>2020-07-19T13:20:59.000Z</time>
      </trkpt>
      <trkpt lat="45.20075" lon="6.20231">
        <ele>2106</ele>
        <time>2020-07-19T13:21:00.000Z</time>
      </trkpt>
      <trkpt lat="45.20079" lon="6.20236">
        <ele>2106</ele>
        <time>2020-07-19T13:21:01.000Z</time>
      </trkpt>
      <trkpt lat="45.20083" lon="6.20241">
        <ele>2106</ele>
        <time>2020-07-19T13:21:02.000Z</time>
      </trkpt>
      <trkpt lat="45.20087" lon="6.20245">
        <ele>2106</ele>
        <time>2020-07-19T13:21:03.000Z</time>
      </trkpt>
      <trkpt lat="45.2009" lon="6.20248">
        <ele>2106</ele>
        <time>2020-07-19T13:21:04.000Z</time>
      </trkpt>
      <trkpt lat="45.20093" lon="6.20252">
        <ele>2106</ele>
        <time>2020-07-19T13:21:05.000Z</time>
      </trkpt>
      <trkpt lat="45.20095" lon="6.20254">
        <ele>2106</ele>
        <time>2020-07-19T13:21:06.000Z</time>
      </trkpt>
      <trkpt lat="45.20097" lon="6.20256">
        <ele>2106</ele>
        <time>2020-07-19T13:21:07.000Z</time>
      </trkpt>
      <trkpt lat="45.20098" lon="6.20258">
        <ele>2106</ele>
        <time>2020-07-19T13:21:08.000Z</time>
      </trkpt>
      <trkpt lat="45.201" lon="6.20261">
        <ele>2106</ele>
        <time>2020-07-19T13:21:10.000Z</time>
      </trkpt>
      <trkpt lat="45.20102" lon="6.20263">
        <ele>2106</ele>
        <time>2020-07-19T13:21:12.000Z</time>
      </trkpt>
      <trkpt lat="45.20103" lon="6.20265">
        <ele>2107</ele>
        <time>2020-07-19T13:21:14.000Z</time>
      </trkpt>
      <trkpt lat="45.20105" lon="6.20267">
        <ele>2107</ele>
        <time>2020-07-19T13:21:16.000Z</time>
      </trkpt>
      <trkpt lat="45.20106" lon="6.2027">
        <ele>2108</ele>
        <time>2020-07-19T13:21:18.000Z</time>
      </trkpt>
      <trkpt lat="45.20108" lon="6.20271">
        <ele>2108</ele>
        <time>2020-07-19T13:21:20.000Z</time>
      </trkpt>
      <trkpt lat="45.2011" lon="6.20273">
        <ele>2108</ele>
        <time>2020-07-19T13:21:22.000Z</time>
      </trkpt>
      <trkpt lat="45.20112" lon="6.20274">
        <ele>2108</ele>
        <time>2020-07-19T13:21:24.000Z</time>
      </trkpt>
      <trkpt lat="45.20114" lon="6.20277">
        <ele>2108</ele>
        <time>2020-07-19T13:21:26.000Z</time>
      </trkpt>
      <trkpt lat="45.20116" lon="6.20279">
        <ele>2108</ele>
        <time>2020-07-19T13:21:28.000Z</time>
      </trkpt>
      <trkpt lat="45.20118" lon="6.20281">
        <ele>2108.1</ele>
        <time>2020-07-19T13:21:30.000Z</time>
      </trkpt>
      <trkpt lat="45.2012" lon="6.20282">
        <ele>2109</ele>
        <time>2020-07-19T13:21:32.000Z</time>
      </trkpt>
      <trkpt lat="45.20122" lon="6.20284">
        <ele>2109</ele>
        <time>2020-07-19T13:21:34.000Z</time>
      </trkpt>
      <trkpt lat="45.20125" lon="6.20286">
        <ele>2109</ele>
        <time>2020-07-19T13:21:36.000Z</time>
      </trkpt>
      <trkpt lat="45.20127" lon="6.20288">
        <ele>2109</ele>
        <time>2020-07-19T13:21:38.000Z</time>
      </trkpt>
      <trkpt lat="45.20129" lon="6.2029">
        <ele>2109</ele>
        <time>2020-07-19T13:21:40.000Z</time>
      </trkpt>
      <trkpt lat="45.20132" lon="6.20292">
        <ele>2109.1</ele>
        <time>2020-07-19T13:21:42.000Z</time>
      </trkpt>
      <trkpt lat="45.20135" lon="6.20293">
        <ele>2110</ele>
        <time>2020-07-19T13:21:44.000Z</time>
      </trkpt>
      <trkpt lat="45.20137" lon="6.20294">
        <ele>2110</ele>
        <time>2020-07-19T13:21:46.000Z</time>
      </trkpt>
      <trkpt lat="45.2014" lon="6.20296">
        <ele>2110</ele>
        <time>2020-07-19T13:21:48.000Z</time>
      </trkpt>
      <trkpt lat="45.20142" lon="6.20297">
        <ele>2110</ele>
        <time>2020-07-19T13:21:50.000Z</time>
      </trkpt>
      <trkpt lat="45.20144" lon="6.20299">
        <ele>2111</ele>
        <time>2020-07-19T13:21:52.000Z</time>
      </trkpt>
      <trkpt lat="45.20146" lon="6.20301">
        <ele>2111</ele>
        <time>2020-07-19T13:21:54.000Z</time>
      </trkpt>
      <trkpt lat="45.20148" lon="6.20302">
        <ele>2111</ele>
        <time>2020-07-19T13:21:56.000Z</time>
      </trkpt>
      <trkpt lat="45.2015" lon="6.20303">
        <ele>2111</ele>
        <time>2020-07-19T13:21:58.000Z</time>
      </trkpt>
      <trkpt lat="45.20153" lon="6.20304">
        <ele>2111</ele>
        <time>2020-07-19T13:22:00.000Z</time>
      </trkpt>
      <trkpt lat="45.20155" lon="6.20306">
        <ele>2113</ele>
        <time>2020-07-19T13:22:02.000Z</time>
      </trkpt>
      <trkpt lat="45.20157" lon="6.20308">
        <ele>2113</ele>
        <time>2020-07-19T13:22:04.000Z</time>
      </trkpt>
      <trkpt lat="45.20159" lon="6.2031">
        <ele>2114</ele>
        <time>2020-07-19T13:22:06.000Z</time>
      </trkpt>
      <trkpt lat="45.20161" lon="6.20312">
        <ele>2114</ele>
        <time>2020-07-19T13:22:08.000Z</time>
      </trkpt>
      <trkpt lat="45.20162" lon="6.20314">
        <ele>2114</ele>
        <time>2020-07-19T13:22:10.000Z</time>
      </trkpt>
      <trkpt lat="45.20164" lon="6.20316">
        <ele>2114</ele>
        <time>2020-07-19T13:22:12.000Z</time>
      </trkpt>
      <trkpt lat="45.20165" lon="6.20318">
        <ele>2114</ele>
        <time>2020-07-19T13:22:14.000Z</time>
      </trkpt>
      <trkpt lat="45.20167" lon="6.2032">
        <ele>2114</ele>
        <time>2020-07-19T13:22:16.000Z</time>
      </trkpt>
      <trkpt lat="45.20169" lon="6.20323">
        <ele>2114</ele>
        <time>2020-07-19T13:22:19.000Z</time>
      </trkpt>
      <trkpt lat="45.2017" lon="6.20325">
        <ele>2114</ele>
        <time>2020-07-19T13:22:21.000Z</time>
      </trkpt>
      <trkpt lat="45.20171" lon="6.20327">
        <ele>2115</ele>
        <time>2020-07-19T13:22:23.000Z</time>
      </trkpt>
      <trkpt lat="45.20173" lon="6.2033">
        <ele>2115</ele>
        <time>2020-07-19T13:22:26.000Z</time>
      </trkpt>
      <trkpt lat="45.20175" lon="6.20332">
        <ele>2116</ele>
        <time>2020-07-19T13:22:28.000Z</time>
      </trkpt>
      <trkpt lat="45.20176" lon="6.20334">
        <ele>2116.1</ele>
        <time>2020-07-19T13:22:30.000Z</time>
      </trkpt>
      <trkpt lat="45.20177" lon="6.20337">
        <ele>2117</ele>
        <time>2020-07-19T13:22:32.000Z</time>
      </trkpt>
      <trkpt lat="45.20179" lon="6.2034">
        <ele>2118</ele>
        <time>2020-07-19T13:22:35.000Z</time>
      </trkpt>
      <trkpt lat="45.20179" lon="6.20343">
        <ele>2118</ele>
        <time>2020-07-19T13:22:38.000Z</time>
      </trkpt>
      <trkpt lat="45.20181" lon="6.20346">
        <ele>2118</ele>
        <time>2020-07-19T13:22:41.000Z</time>
      </trkpt>
      <trkpt lat="45.20183" lon="6.20349">
        <ele>2119</ele>
        <time>2020-07-19T13:22:44.000Z</time>
      </trkpt>
      <trkpt lat="45.20184" lon="6.20351">
        <ele>2119</ele>
        <time>2020-07-19T13:22:46.000Z</time>
      </trkpt>
      <trkpt lat="45.20186" lon="6.20353">
        <ele>2119.1</ele>
        <time>2020-07-19T13:22:48.000Z</time>
      </trkpt>
      <trkpt lat="45.20187" lon="6.20355">
        <ele>2120</ele>
        <time>2020-07-19T13:22:50.000Z</time>
      </trkpt>
      <trkpt lat="45.20188" lon="6.20357">
        <ele>2120</ele>
        <time>2020-07-19T13:22:52.000Z</time>
      </trkpt>
      <trkpt lat="45.20189" lon="6.20359">
        <ele>2120.1</ele>
        <time>2020-07-19T13:22:54.000Z</time>
      </trkpt>
      <trkpt lat="45.20191" lon="6.20361">
        <ele>2121</ele>
        <time>2020-07-19T13:22:56.000Z</time>
      </trkpt>
      <trkpt lat="45.20192" lon="6.20363">
        <ele>2121</ele>
        <time>2020-07-19T13:22:58.000Z</time>
      </trkpt>
      <trkpt lat="45.20194" lon="6.20364">
        <ele>2121</ele>
        <time>2020-07-19T13:23:00.000Z</time>
      </trkpt>
      <trkpt lat="45.20196" lon="6.20366">
        <ele>2121.1</ele>
        <time>2020-07-19T13:23:02.000Z</time>
      </trkpt>
      <trkpt lat="45.20197" lon="6.20368">
        <ele>2122.1</ele>
        <time>2020-07-19T13:23:04.000Z</time>
      </trkpt>
      <trkpt lat="45.20199" lon="6.20369">
        <ele>2123</ele>
        <time>2020-07-19T13:23:06.000Z</time>
      </trkpt>
      <trkpt lat="45.20201" lon="6.20372">
        <ele>2123</ele>
        <time>2020-07-19T13:23:09.000Z</time>
      </trkpt>
      <trkpt lat="45.20203" lon="6.20373">
        <ele>2123</ele>
        <time>2020-07-19T13:23:11.000Z</time>
      </trkpt>
      <trkpt lat="45.20204" lon="6.20374">
        <ele>2124</ele>
        <time>2020-07-19T13:23:13.000Z</time>
      </trkpt>
      <trkpt lat="45.20206" lon="6.20375">
        <ele>2124</ele>
        <time>2020-07-19T13:23:15.000Z</time>
      </trkpt>
      <trkpt lat="45.20208" lon="6.20377">
        <ele>2124</ele>
        <time>2020-07-19T13:23:17.000Z</time>
      </trkpt>
      <trkpt lat="45.2021" lon="6.20378">
        <ele>2124</ele>
        <time>2020-07-19T13:23:19.000Z</time>
      </trkpt>
      <trkpt lat="45.20211" lon="6.20379">
        <ele>2124</ele>
        <time>2020-07-19T13:23:21.000Z</time>
      </trkpt>
      <trkpt lat="45.20213" lon="6.2038">
        <ele>2125</ele>
        <time>2020-07-19T13:23:23.000Z</time>
      </trkpt>
      <trkpt lat="45.20215" lon="6.20383">
        <ele>2126</ele>
        <time>2020-07-19T13:23:26.000Z</time>
      </trkpt>
      <trkpt lat="45.20217" lon="6.20384">
        <ele>2126</ele>
        <time>2020-07-19T13:23:28.000Z</time>
      </trkpt>
      <trkpt lat="45.20218" lon="6.20386">
        <ele>2126</ele>
        <time>2020-07-19T13:23:30.000Z</time>
      </trkpt>
      <trkpt lat="45.20221" lon="6.20388">
        <ele>2125</ele>
        <time>2020-07-19T13:23:33.000Z</time>
      </trkpt>
      <trkpt lat="45.20223" lon="6.2039">
        <ele>2125</ele>
        <time>2020-07-19T13:23:36.000Z</time>
      </trkpt>
      <trkpt lat="45.20225" lon="6.20392">
        <ele>2126</ele>
        <time>2020-07-19T13:23:39.000Z</time>
      </trkpt>
      <trkpt lat="45.20227" lon="6.20394">
        <ele>2126</ele>
        <time>2020-07-19T13:23:42.000Z</time>
      </trkpt>
      <trkpt lat="45.20229" lon="6.20396">
        <ele>2126</ele>
        <time>2020-07-19T13:23:44.000Z</time>
      </trkpt>
      <trkpt lat="45.20231" lon="6.20398">
        <ele>2126</ele>
        <time>2020-07-19T13:23:47.000Z</time>
      </trkpt>
      <trkpt lat="45.20232" lon="6.20399">
        <ele>2127</ele>
        <time>2020-07-19T13:23:49.000Z</time>
      </trkpt>
      <trkpt lat="45.20235" lon="6.20401">
        <ele>2127.8</ele>
        <time>2020-07-19T13:23:52.000Z</time>
      </trkpt>
      <trkpt lat="45.20236" lon="6.20401">
        <ele>2127</ele>
        <time>2020-07-19T13:23:54.000Z</time>
      </trkpt>
      <trkpt lat="45.20239" lon="6.20402">
        <ele>2127</ele>
        <time>2020-07-19T13:23:57.000Z</time>
      </trkpt>
      <trkpt lat="45.20241" lon="6.20403">
        <ele>2127</ele>
        <time>2020-07-19T13:23:59.000Z</time>
      </trkpt>
      <trkpt lat="45.20243" lon="6.20404">
        <ele>2127</ele>
        <time>2020-07-19T13:24:02.000Z</time>
      </trkpt>
      <trkpt lat="45.20245" lon="6.20405">
        <ele>2127</ele>
        <time>2020-07-19T13:24:04.000Z</time>
      </trkpt>
      <trkpt lat="45.20247" lon="6.20406">
        <ele>2127.1</ele>
        <time>2020-07-19T13:24:06.000Z</time>
      </trkpt>
      <trkpt lat="45.20249" lon="6.20407">
        <ele>2128.1</ele>
        <time>2020-07-19T13:24:08.000Z</time>
      </trkpt>
      <trkpt lat="45.20251" lon="6.20409">
        <ele>2129</ele>
        <time>2020-07-19T13:24:10.000Z</time>
      </trkpt>
      <trkpt lat="45.20252" lon="6.20409">
        <ele>2129</ele>
        <time>2020-07-19T13:24:12.000Z</time>
      </trkpt>
      <trkpt lat="45.20254" lon="6.2041">
        <ele>2129</ele>
        <time>2020-07-19T13:24:14.000Z</time>
      </trkpt>
      <trkpt lat="45.20256" lon="6.20411">
        <ele>2129.1</ele>
        <time>2020-07-19T13:24:16.000Z</time>
      </trkpt>
      <trkpt lat="45.20258" lon="6.20412">
        <ele>2130</ele>
        <time>2020-07-19T13:24:18.000Z</time>
      </trkpt>
      <trkpt lat="45.20259" lon="6.20414">
        <ele>2129.9</ele>
        <time>2020-07-19T13:24:20.000Z</time>
      </trkpt>
      <trkpt lat="45.20261" lon="6.20415">
        <ele>2129</ele>
        <time>2020-07-19T13:24:22.000Z</time>
      </trkpt>
      <trkpt lat="45.20263" lon="6.20416">
        <ele>2129</ele>
        <time>2020-07-19T13:24:24.000Z</time>
      </trkpt>
      <trkpt lat="45.20265" lon="6.20417">
        <ele>2129.1</ele>
        <time>2020-07-19T13:24:26.000Z</time>
      </trkpt>
      <trkpt lat="45.20267" lon="6.20418">
        <ele>2130</ele>
        <time>2020-07-19T13:24:28.000Z</time>
      </trkpt>
      <trkpt lat="45.20268" lon="6.2042">
        <ele>2130.8</ele>
        <time>2020-07-19T13:24:30.000Z</time>
      </trkpt>
      <trkpt lat="45.20271" lon="6.20421">
        <ele>2131</ele>
        <time>2020-07-19T13:24:33.000Z</time>
      </trkpt>
      <trkpt lat="45.20273" lon="6.20422">
        <ele>2132</ele>
        <time>2020-07-19T13:24:35.000Z</time>
      </trkpt>
      <trkpt lat="45.20275" lon="6.20424">
        <ele>2132</ele>
        <time>2020-07-19T13:24:37.000Z</time>
      </trkpt>
      <trkpt lat="45.20276" lon="6.20426">
        <ele>2132</ele>
        <time>2020-07-19T13:24:39.000Z</time>
      </trkpt>
      <trkpt lat="45.20278" lon="6.20428">
        <ele>2132</ele>
        <time>2020-07-19T13:24:42.000Z</time>
      </trkpt>
      <trkpt lat="45.20279" lon="6.2043">
        <ele>2133</ele>
        <time>2020-07-19T13:24:44.000Z</time>
      </trkpt>
      <trkpt lat="45.20281" lon="6.20432">
        <ele>2133</ele>
        <time>2020-07-19T13:24:46.000Z</time>
      </trkpt>
      <trkpt lat="45.20282" lon="6.20434">
        <ele>2133</ele>
        <time>2020-07-19T13:24:48.000Z</time>
      </trkpt>
      <trkpt lat="45.20284" lon="6.20435">
        <ele>2133</ele>
        <time>2020-07-19T13:24:50.000Z</time>
      </trkpt>
      <trkpt lat="45.20285" lon="6.20437">
        <ele>2134</ele>
        <time>2020-07-19T13:24:52.000Z</time>
      </trkpt>
      <trkpt lat="45.20287" lon="6.20438">
        <ele>2133.9</ele>
        <time>2020-07-19T13:24:54.000Z</time>
      </trkpt>
      <trkpt lat="45.20289" lon="6.2044">
        <ele>2134</ele>
        <time>2020-07-19T13:24:56.000Z</time>
      </trkpt>
      <trkpt lat="45.2029" lon="6.20442">
        <ele>2134</ele>
        <time>2020-07-19T13:24:58.000Z</time>
      </trkpt>
      <trkpt lat="45.20292" lon="6.20443">
        <ele>2134</ele>
        <time>2020-07-19T13:25:00.000Z</time>
      </trkpt>
      <trkpt lat="45.20293" lon="6.20445">
        <ele>2134</ele>
        <time>2020-07-19T13:25:02.000Z</time>
      </trkpt>
      <trkpt lat="45.20295" lon="6.20447">
        <ele>2135</ele>
        <time>2020-07-19T13:25:04.000Z</time>
      </trkpt>
      <trkpt lat="45.20297" lon="6.20448">
        <ele>2135</ele>
        <time>2020-07-19T13:25:06.000Z</time>
      </trkpt>
      <trkpt lat="45.20298" lon="6.2045">
        <ele>2135</ele>
        <time>2020-07-19T13:25:08.000Z</time>
      </trkpt>
      <trkpt lat="45.203" lon="6.20451">
        <ele>2135</ele>
        <time>2020-07-19T13:25:10.000Z</time>
      </trkpt>
      <trkpt lat="45.20301" lon="6.20453">
        <ele>2135</ele>
        <time>2020-07-19T13:25:12.000Z</time>
      </trkpt>
      <trkpt lat="45.20303" lon="6.20454">
        <ele>2135</ele>
        <time>2020-07-19T13:25:14.000Z</time>
      </trkpt>
      <trkpt lat="45.20304" lon="6.20456">
        <ele>2135.1</ele>
        <time>2020-07-19T13:25:16.000Z</time>
      </trkpt>
      <trkpt lat="45.20306" lon="6.20458">
        <ele>2136</ele>
        <time>2020-07-19T13:25:18.000Z</time>
      </trkpt>
      <trkpt lat="45.20308" lon="6.20459">
        <ele>2136.1</ele>
        <time>2020-07-19T13:25:20.000Z</time>
      </trkpt>
      <trkpt lat="45.20309" lon="6.20461">
        <ele>2137</ele>
        <time>2020-07-19T13:25:22.000Z</time>
      </trkpt>
      <trkpt lat="45.20311" lon="6.20463">
        <ele>2137</ele>
        <time>2020-07-19T13:25:25.000Z</time>
      </trkpt>
      <trkpt lat="45.20313" lon="6.20465">
        <ele>2137</ele>
        <time>2020-07-19T13:25:27.000Z</time>
      </trkpt>
      <trkpt lat="45.20314" lon="6.20467">
        <ele>2137.1</ele>
        <time>2020-07-19T13:25:29.000Z</time>
      </trkpt>
      <trkpt lat="45.20316" lon="6.20468">
        <ele>2138</ele>
        <time>2020-07-19T13:25:31.000Z</time>
      </trkpt>
      <trkpt lat="45.20317" lon="6.2047">
        <ele>2138</ele>
        <time>2020-07-19T13:25:33.000Z</time>
      </trkpt>
      <trkpt lat="45.20319" lon="6.20472">
        <ele>2138</ele>
        <time>2020-07-19T13:25:35.000Z</time>
      </trkpt>
      <trkpt lat="45.2032" lon="6.20473">
        <ele>2138.1</ele>
        <time>2020-07-19T13:25:37.000Z</time>
      </trkpt>
      <trkpt lat="45.20323" lon="6.20474">
        <ele>2139</ele>
        <time>2020-07-19T13:25:40.000Z</time>
      </trkpt>
      <trkpt lat="45.20325" lon="6.20475">
        <ele>2139.1</ele>
        <time>2020-07-19T13:25:42.000Z</time>
      </trkpt>
      <trkpt lat="45.20327" lon="6.20476">
        <ele>2140</ele>
        <time>2020-07-19T13:25:44.000Z</time>
      </trkpt>
      <trkpt lat="45.20329" lon="6.20479">
        <ele>2140</ele>
        <time>2020-07-19T13:25:46.000Z</time>
      </trkpt>
      <trkpt lat="45.2033" lon="6.2048">
        <ele>2141</ele>
        <time>2020-07-19T13:25:48.000Z</time>
      </trkpt>
      <trkpt lat="45.20332" lon="6.20481">
        <ele>2140</ele>
        <time>2020-07-19T13:25:50.000Z</time>
      </trkpt>
      <trkpt lat="45.20334" lon="6.20483">
        <ele>2141</ele>
        <time>2020-07-19T13:25:52.000Z</time>
      </trkpt>
      <trkpt lat="45.20336" lon="6.20484">
        <ele>2141</ele>
        <time>2020-07-19T13:25:54.000Z</time>
      </trkpt>
      <trkpt lat="45.20338" lon="6.20485">
        <ele>2141</ele>
        <time>2020-07-19T13:25:56.000Z</time>
      </trkpt>
      <trkpt lat="45.2034" lon="6.20487">
        <ele>2142</ele>
        <time>2020-07-19T13:25:58.000Z</time>
      </trkpt>
      <trkpt lat="45.20342" lon="6.20488">
        <ele>2142</ele>
        <time>2020-07-19T13:26:00.000Z</time>
      </trkpt>
      <trkpt lat="45.20344" lon="6.2049">
        <ele>2142.1</ele>
        <time>2020-07-19T13:26:02.000Z</time>
      </trkpt>
      <trkpt lat="45.20346" lon="6.20491">
        <ele>2143</ele>
        <time>2020-07-19T13:26:04.000Z</time>
      </trkpt>
      <trkpt lat="45.20348" lon="6.20492">
        <ele>2143</ele>
        <time>2020-07-19T13:26:06.000Z</time>
      </trkpt>
      <trkpt lat="45.2035" lon="6.20493">
        <ele>2143</ele>
        <time>2020-07-19T13:26:08.000Z</time>
      </trkpt>
      <trkpt lat="45.20352" lon="6.20495">
        <ele>2143</ele>
        <time>2020-07-19T13:26:10.000Z</time>
      </trkpt>
      <trkpt lat="45.20354" lon="6.20496">
        <ele>2144</ele>
        <time>2020-07-19T13:26:12.000Z</time>
      </trkpt>
      <trkpt lat="45.20356" lon="6.20497">
        <ele>2144</ele>
        <time>2020-07-19T13:26:14.000Z</time>
      </trkpt>
      <trkpt lat="45.20358" lon="6.20498">
        <ele>2144</ele>
        <time>2020-07-19T13:26:16.000Z</time>
      </trkpt>
      <trkpt lat="45.2036" lon="6.20499">
        <ele>2145</ele>
        <time>2020-07-19T13:26:18.000Z</time>
      </trkpt>
      <trkpt lat="45.20362" lon="6.205">
        <ele>2145</ele>
        <time>2020-07-19T13:26:20.000Z</time>
      </trkpt>
      <trkpt lat="45.20364" lon="6.20501">
        <ele>2145</ele>
        <time>2020-07-19T13:26:22.000Z</time>
      </trkpt>
      <trkpt lat="45.20367" lon="6.20502">
        <ele>2145</ele>
        <time>2020-07-19T13:26:24.000Z</time>
      </trkpt>
      <trkpt lat="45.20369" lon="6.20502">
        <ele>2146</ele>
        <time>2020-07-19T13:26:26.000Z</time>
      </trkpt>
      <trkpt lat="45.20371" lon="6.20503">
        <ele>2146</ele>
        <time>2020-07-19T13:26:28.000Z</time>
      </trkpt>
      <trkpt lat="45.20373" lon="6.20503">
        <ele>2146</ele>
        <time>2020-07-19T13:26:30.000Z</time>
      </trkpt>
      <trkpt lat="45.20376" lon="6.20504">
        <ele>2146</ele>
        <time>2020-07-19T13:26:32.000Z</time>
      </trkpt>
      <trkpt lat="45.20378" lon="6.20504">
        <ele>2147</ele>
        <time>2020-07-19T13:26:34.000Z</time>
      </trkpt>
      <trkpt lat="45.2038" lon="6.20504">
        <ele>2148</ele>
        <time>2020-07-19T13:26:36.000Z</time>
      </trkpt>
      <trkpt lat="45.20383" lon="6.20504">
        <ele>2147</ele>
        <time>2020-07-19T13:26:38.000Z</time>
      </trkpt>
      <trkpt lat="45.20386" lon="6.20503">
        <ele>2147</ele>
        <time>2020-07-19T13:26:40.000Z</time>
      </trkpt>
      <trkpt lat="45.20388" lon="6.20503">
        <ele>2147</ele>
        <time>2020-07-19T13:26:42.000Z</time>
      </trkpt>
      <trkpt lat="45.20391" lon="6.20503">
        <ele>2148.1</ele>
        <time>2020-07-19T13:26:44.000Z</time>
      </trkpt>
      <trkpt lat="45.20394" lon="6.20504">
        <ele>2149</ele>
        <time>2020-07-19T13:26:46.000Z</time>
      </trkpt>
      <trkpt lat="45.20396" lon="6.20504">
        <ele>2149</ele>
        <time>2020-07-19T13:26:48.000Z</time>
      </trkpt>
      <trkpt lat="45.20398" lon="6.20504">
        <ele>2149</ele>
        <time>2020-07-19T13:26:50.000Z</time>
      </trkpt>
      <trkpt lat="45.20401" lon="6.20505">
        <ele>2149</ele>
        <time>2020-07-19T13:26:52.000Z</time>
      </trkpt>
      <trkpt lat="45.20403" lon="6.20505">
        <ele>2149</ele>
        <time>2020-07-19T13:26:54.000Z</time>
      </trkpt>
      <trkpt lat="45.20406" lon="6.20505">
        <ele>2149</ele>
        <time>2020-07-19T13:26:56.000Z</time>
      </trkpt>
      <trkpt lat="45.20408" lon="6.20506">
        <ele>2149.1</ele>
        <time>2020-07-19T13:26:58.000Z</time>
      </trkpt>
      <trkpt lat="45.2041" lon="6.20507">
        <ele>2151</ele>
        <time>2020-07-19T13:27:00.000Z</time>
      </trkpt>
      <trkpt lat="45.20413" lon="6.20507">
        <ele>2151</ele>
        <time>2020-07-19T13:27:02.000Z</time>
      </trkpt>
      <trkpt lat="45.20415" lon="6.20508">
        <ele>2151</ele>
        <time>2020-07-19T13:27:04.000Z</time>
      </trkpt>
      <trkpt lat="45.20418" lon="6.20509">
        <ele>2151</ele>
        <time>2020-07-19T13:27:06.000Z</time>
      </trkpt>
      <trkpt lat="45.20421" lon="6.20509">
        <ele>2151</ele>
        <time>2020-07-19T13:27:08.000Z</time>
      </trkpt>
      <trkpt lat="45.20424" lon="6.2051">
        <ele>2152</ele>
        <time>2020-07-19T13:27:10.000Z</time>
      </trkpt>
      <trkpt lat="45.20426" lon="6.20512">
        <ele>2152</ele>
        <time>2020-07-19T13:27:12.000Z</time>
      </trkpt>
      <trkpt lat="45.20429" lon="6.20512">
        <ele>2152</ele>
        <time>2020-07-19T13:27:14.000Z</time>
      </trkpt>
      <trkpt lat="45.20432" lon="6.20513">
        <ele>2152</ele>
        <time>2020-07-19T13:27:16.000Z</time>
      </trkpt>
      <trkpt lat="45.20435" lon="6.20515">
        <ele>2152</ele>
        <time>2020-07-19T13:27:18.000Z</time>
      </trkpt>
      <trkpt lat="45.20437" lon="6.20516">
        <ele>2152.1</ele>
        <time>2020-07-19T13:27:20.000Z</time>
      </trkpt>
      <trkpt lat="45.2044" lon="6.20517">
        <ele>2153</ele>
        <time>2020-07-19T13:27:22.000Z</time>
      </trkpt>
      <trkpt lat="45.20443" lon="6.20519">
        <ele>2153</ele>
        <time>2020-07-19T13:27:24.000Z</time>
      </trkpt>
      <trkpt lat="45.20445" lon="6.20521">
        <ele>2153</ele>
        <time>2020-07-19T13:27:26.000Z</time>
      </trkpt>
      <trkpt lat="45.20447" lon="6.20523">
        <ele>2153</ele>
        <time>2020-07-19T13:27:28.000Z</time>
      </trkpt>
      <trkpt lat="45.20449" lon="6.20525">
        <ele>2153</ele>
        <time>2020-07-19T13:27:30.000Z</time>
      </trkpt>
      <trkpt lat="45.20451" lon="6.20526">
        <ele>2153</ele>
        <time>2020-07-19T13:27:32.000Z</time>
      </trkpt>
      <trkpt lat="45.20453" lon="6.20528">
        <ele>2154</ele>
        <time>2020-07-19T13:27:34.000Z</time>
      </trkpt>
      <trkpt lat="45.20455" lon="6.2053">
        <ele>2154</ele>
        <time>2020-07-19T13:27:36.000Z</time>
      </trkpt>
      <trkpt lat="45.20457" lon="6.20532">
        <ele>2154</ele>
        <time>2020-07-19T13:27:38.000Z</time>
      </trkpt>
      <trkpt lat="45.20459" lon="6.20533">
        <ele>2154</ele>
        <time>2020-07-19T13:27:40.000Z</time>
      </trkpt>
      <trkpt lat="45.20461" lon="6.20535">
        <ele>2155</ele>
        <time>2020-07-19T13:27:42.000Z</time>
      </trkpt>
      <trkpt lat="45.20463" lon="6.20537">
        <ele>2156</ele>
        <time>2020-07-19T13:27:44.000Z</time>
      </trkpt>
      <trkpt lat="45.20465" lon="6.20539">
        <ele>2155.1</ele>
        <time>2020-07-19T13:27:46.000Z</time>
      </trkpt>
      <trkpt lat="45.20467" lon="6.20541">
        <ele>2156</ele>
        <time>2020-07-19T13:27:48.000Z</time>
      </trkpt>
      <trkpt lat="45.2047" lon="6.20543">
        <ele>2156</ele>
        <time>2020-07-19T13:27:50.000Z</time>
      </trkpt>
      <trkpt lat="45.20472" lon="6.20545">
        <ele>2157</ele>
        <time>2020-07-19T13:27:52.000Z</time>
      </trkpt>
      <trkpt lat="45.20474" lon="6.20547">
        <ele>2157.1</ele>
        <time>2020-07-19T13:27:54.000Z</time>
      </trkpt>
      <trkpt lat="45.20476" lon="6.20549">
        <ele>2158</ele>
        <time>2020-07-19T13:27:56.000Z</time>
      </trkpt>
      <trkpt lat="45.20479" lon="6.20551">
        <ele>2158.1</ele>
        <time>2020-07-19T13:27:58.000Z</time>
      </trkpt>
      <trkpt lat="45.20481" lon="6.20553">
        <ele>2159</ele>
        <time>2020-07-19T13:28:00.000Z</time>
      </trkpt>
      <trkpt lat="45.20483" lon="6.20555">
        <ele>2159</ele>
        <time>2020-07-19T13:28:02.000Z</time>
      </trkpt>
      <trkpt lat="45.20486" lon="6.20557">
        <ele>2159</ele>
        <time>2020-07-19T13:28:04.000Z</time>
      </trkpt>
      <trkpt lat="45.20488" lon="6.20559">
        <ele>2159</ele>
        <time>2020-07-19T13:28:06.000Z</time>
      </trkpt>
      <trkpt lat="45.20491" lon="6.20561">
        <ele>2159.1</ele>
        <time>2020-07-19T13:28:08.000Z</time>
      </trkpt>
      <trkpt lat="45.20493" lon="6.20563">
        <ele>2160</ele>
        <time>2020-07-19T13:28:10.000Z</time>
      </trkpt>
      <trkpt lat="45.20495" lon="6.20565">
        <ele>2161</ele>
        <time>2020-07-19T13:28:12.000Z</time>
      </trkpt>
      <trkpt lat="45.20498" lon="6.20567">
        <ele>2161</ele>
        <time>2020-07-19T13:28:14.000Z</time>
      </trkpt>
      <trkpt lat="45.205" lon="6.20569">
        <ele>2161</ele>
        <time>2020-07-19T13:28:16.000Z</time>
      </trkpt>
      <trkpt lat="45.20503" lon="6.20571">
        <ele>2161</ele>
        <time>2020-07-19T13:28:18.000Z</time>
      </trkpt>
      <trkpt lat="45.20505" lon="6.20573">
        <ele>2161</ele>
        <time>2020-07-19T13:28:20.000Z</time>
      </trkpt>
      <trkpt lat="45.20507" lon="6.20575">
        <ele>2162</ele>
        <time>2020-07-19T13:28:22.000Z</time>
      </trkpt>
      <trkpt lat="45.2051" lon="6.20578">
        <ele>2162</ele>
        <time>2020-07-19T13:28:24.000Z</time>
      </trkpt>
      <trkpt lat="45.20513" lon="6.2058">
        <ele>2162.1</ele>
        <time>2020-07-19T13:28:26.000Z</time>
      </trkpt>
      <trkpt lat="45.20515" lon="6.20582">
        <ele>2163</ele>
        <time>2020-07-19T13:28:28.000Z</time>
      </trkpt>
      <trkpt lat="45.20518" lon="6.20585">
        <ele>2163</ele>
        <time>2020-07-19T13:28:30.000Z</time>
      </trkpt>
      <trkpt lat="45.20521" lon="6.20587">
        <ele>2163</ele>
        <time>2020-07-19T13:28:32.000Z</time>
      </trkpt>
      <trkpt lat="45.20524" lon="6.20589">
        <ele>2163</ele>
        <time>2020-07-19T13:28:34.000Z</time>
      </trkpt>
      <trkpt lat="45.20527" lon="6.20591">
        <ele>2164</ele>
        <time>2020-07-19T13:28:36.000Z</time>
      </trkpt>
      <trkpt lat="45.2053" lon="6.20593">
        <ele>2164.1</ele>
        <time>2020-07-19T13:28:38.000Z</time>
      </trkpt>
      <trkpt lat="45.20533" lon="6.20596">
        <ele>2165</ele>
        <time>2020-07-19T13:28:40.000Z</time>
      </trkpt>
      <trkpt lat="45.20536" lon="6.20598">
        <ele>2165</ele>
        <time>2020-07-19T13:28:42.000Z</time>
      </trkpt>
      <trkpt lat="45.20538" lon="6.20599">
        <ele>2165</ele>
        <time>2020-07-19T13:28:43.000Z</time>
      </trkpt>
      <trkpt lat="45.2054" lon="6.206">
        <ele>2165</ele>
        <time>2020-07-19T13:28:44.000Z</time>
      </trkpt>
      <trkpt lat="45.20543" lon="6.20603">
        <ele>2165</ele>
        <time>2020-07-19T13:28:46.000Z</time>
      </trkpt>
      <trkpt lat="45.20545" lon="6.20605">
        <ele>2165.1</ele>
        <time>2020-07-19T13:28:48.000Z</time>
      </trkpt>
      <trkpt lat="45.20548" lon="6.20607">
        <ele>2166</ele>
        <time>2020-07-19T13:28:50.000Z</time>
      </trkpt>
      <trkpt lat="45.20551" lon="6.20609">
        <ele>2166</ele>
        <time>2020-07-19T13:28:52.000Z</time>
      </trkpt>
      <trkpt lat="45.20554" lon="6.20612">
        <ele>2166</ele>
        <time>2020-07-19T13:28:54.000Z</time>
      </trkpt>
      <trkpt lat="45.20557" lon="6.20614">
        <ele>2166</ele>
        <time>2020-07-19T13:28:56.000Z</time>
      </trkpt>
      <trkpt lat="45.2056" lon="6.20616">
        <ele>2166.1</ele>
        <time>2020-07-19T13:28:58.000Z</time>
      </trkpt>
      <trkpt lat="45.20562" lon="6.20618">
        <ele>2167</ele>
        <time>2020-07-19T13:29:00.000Z</time>
      </trkpt>
      <trkpt lat="45.20565" lon="6.20621">
        <ele>2167</ele>
        <time>2020-07-19T13:29:02.000Z</time>
      </trkpt>
      <trkpt lat="45.20568" lon="6.20624">
        <ele>2167.1</ele>
        <time>2020-07-19T13:29:04.000Z</time>
      </trkpt>
      <trkpt lat="45.20571" lon="6.20626">
        <ele>2168</ele>
        <time>2020-07-19T13:29:06.000Z</time>
      </trkpt>
      <trkpt lat="45.20573" lon="6.20629">
        <ele>2168</ele>
        <time>2020-07-19T13:29:08.000Z</time>
      </trkpt>
      <trkpt lat="45.20576" lon="6.20632">
        <ele>2168</ele>
        <time>2020-07-19T13:29:10.000Z</time>
      </trkpt>
      <trkpt lat="45.20578" lon="6.20635">
        <ele>2168</ele>
        <time>2020-07-19T13:29:12.000Z</time>
      </trkpt>
      <trkpt lat="45.20581" lon="6.20638">
        <ele>2169</ele>
        <time>2020-07-19T13:29:14.000Z</time>
      </trkpt>
      <trkpt lat="45.20583" lon="6.20641">
        <ele>2169</ele>
        <time>2020-07-19T13:29:16.000Z</time>
      </trkpt>
      <trkpt lat="45.20585" lon="6.20644">
        <ele>2170</ele>
        <time>2020-07-19T13:29:18.000Z</time>
      </trkpt>
      <trkpt lat="45.20588" lon="6.20648">
        <ele>2170</ele>
        <time>2020-07-19T13:29:20.000Z</time>
      </trkpt>
      <trkpt lat="45.2059" lon="6.20652">
        <ele>2170</ele>
        <time>2020-07-19T13:29:22.000Z</time>
      </trkpt>
      <trkpt lat="45.20593" lon="6.20655">
        <ele>2170</ele>
        <time>2020-07-19T13:29:24.000Z</time>
      </trkpt>
      <trkpt lat="45.20595" lon="6.20659">
        <ele>2170</ele>
        <time>2020-07-19T13:29:26.000Z</time>
      </trkpt>
      <trkpt lat="45.20596" lon="6.20661">
        <ele>2170</ele>
        <time>2020-07-19T13:29:27.000Z</time>
      </trkpt>
      <trkpt lat="45.20598" lon="6.20664">
        <ele>2170</ele>
        <time>2020-07-19T13:29:29.000Z</time>
      </trkpt>
      <trkpt lat="45.20601" lon="6.20668">
        <ele>2171</ele>
        <time>2020-07-19T13:29:31.000Z</time>
      </trkpt>
      <trkpt lat="45.20603" lon="6.20671">
        <ele>2171</ele>
        <time>2020-07-19T13:29:33.000Z</time>
      </trkpt>
      <trkpt lat="45.20604" lon="6.20674">
        <ele>2171</ele>
        <time>2020-07-19T13:29:35.000Z</time>
      </trkpt>
      <trkpt lat="45.20606" lon="6.20677">
        <ele>2171</ele>
        <time>2020-07-19T13:29:37.000Z</time>
      </trkpt>
      <trkpt lat="45.20608" lon="6.2068">
        <ele>2171</ele>
        <time>2020-07-19T13:29:39.000Z</time>
      </trkpt>
      <trkpt lat="45.2061" lon="6.20683">
        <ele>2171</ele>
        <time>2020-07-19T13:29:41.000Z</time>
      </trkpt>
      <trkpt lat="45.20611" lon="6.20686">
        <ele>2171.1</ele>
        <time>2020-07-19T13:29:43.000Z</time>
      </trkpt>
      <trkpt lat="45.20613" lon="6.20689">
        <ele>2172.2</ele>
        <time>2020-07-19T13:29:45.000Z</time>
      </trkpt>
      <trkpt lat="45.20615" lon="6.20693">
        <ele>2174</ele>
        <time>2020-07-19T13:29:47.000Z</time>
      </trkpt>
      <trkpt lat="45.20617" lon="6.20696">
        <ele>2174.1</ele>
        <time>2020-07-19T13:29:49.000Z</time>
      </trkpt>
      <trkpt lat="45.20619" lon="6.20699">
        <ele>2175.1</ele>
        <time>2020-07-19T13:29:51.000Z</time>
      </trkpt>
      <trkpt lat="45.2062" lon="6.20702">
        <ele>2176</ele>
        <time>2020-07-19T13:29:53.000Z</time>
      </trkpt>
      <trkpt lat="45.20622" lon="6.20705">
        <ele>2176</ele>
        <time>2020-07-19T13:29:55.000Z</time>
      </trkpt>
      <trkpt lat="45.20624" lon="6.20708">
        <ele>2176.1</ele>
        <time>2020-07-19T13:29:57.000Z</time>
      </trkpt>
      <trkpt lat="45.20626" lon="6.20711">
        <ele>2177</ele>
        <time>2020-07-19T13:29:59.000Z</time>
      </trkpt>
      <trkpt lat="45.20627" lon="6.20714">
        <ele>2177</ele>
        <time>2020-07-19T13:30:01.000Z</time>
      </trkpt>
      <trkpt lat="45.20629" lon="6.20716">
        <ele>2177</ele>
        <time>2020-07-19T13:30:03.000Z</time>
      </trkpt>
      <trkpt lat="45.20631" lon="6.20719">
        <ele>2178</ele>
        <time>2020-07-19T13:30:05.000Z</time>
      </trkpt>
      <trkpt lat="45.20633" lon="6.20722">
        <ele>2178.1</ele>
        <time>2020-07-19T13:30:07.000Z</time>
      </trkpt>
      <trkpt lat="45.20635" lon="6.20724">
        <ele>2179</ele>
        <time>2020-07-19T13:30:09.000Z</time>
      </trkpt>
      <trkpt lat="45.20637" lon="6.20727">
        <ele>2179</ele>
        <time>2020-07-19T13:30:11.000Z</time>
      </trkpt>
      <trkpt lat="45.20639" lon="6.20729">
        <ele>2179</ele>
        <time>2020-07-19T13:30:13.000Z</time>
      </trkpt>
      <trkpt lat="45.20641" lon="6.20732">
        <ele>2180</ele>
        <time>2020-07-19T13:30:15.000Z</time>
      </trkpt>
      <trkpt lat="45.20643" lon="6.20735">
        <ele>2180</ele>
        <time>2020-07-19T13:30:17.000Z</time>
      </trkpt>
      <trkpt lat="45.20645" lon="6.20737">
        <ele>2180</ele>
        <time>2020-07-19T13:30:19.000Z</time>
      </trkpt>
      <trkpt lat="45.20647" lon="6.2074">
        <ele>2180</ele>
        <time>2020-07-19T13:30:21.000Z</time>
      </trkpt>
      <trkpt lat="45.20649" lon="6.20743">
        <ele>2180</ele>
        <time>2020-07-19T13:30:23.000Z</time>
      </trkpt>
      <trkpt lat="45.20652" lon="6.20745">
        <ele>2181</ele>
        <time>2020-07-19T13:30:25.000Z</time>
      </trkpt>
      <trkpt lat="45.20654" lon="6.20748">
        <ele>2181</ele>
        <time>2020-07-19T13:30:27.000Z</time>
      </trkpt>
      <trkpt lat="45.20656" lon="6.2075">
        <ele>2181.1</ele>
        <time>2020-07-19T13:30:29.000Z</time>
      </trkpt>
      <trkpt lat="45.20659" lon="6.20753">
        <ele>2182</ele>
        <time>2020-07-19T13:30:31.000Z</time>
      </trkpt>
      <trkpt lat="45.20662" lon="6.20755">
        <ele>2182</ele>
        <time>2020-07-19T13:30:33.000Z</time>
      </trkpt>
      <trkpt lat="45.20664" lon="6.20758">
        <ele>2182</ele>
        <time>2020-07-19T13:30:35.000Z</time>
      </trkpt>
      <trkpt lat="45.20667" lon="6.2076">
        <ele>2182</ele>
        <time>2020-07-19T13:30:37.000Z</time>
      </trkpt>
      <trkpt lat="45.20669" lon="6.20762">
        <ele>2182</ele>
        <time>2020-07-19T13:30:39.000Z</time>
      </trkpt>
      <trkpt lat="45.20671" lon="6.20764">
        <ele>2182</ele>
        <time>2020-07-19T13:30:41.000Z</time>
      </trkpt>
      <trkpt lat="45.20674" lon="6.20766">
        <ele>2182</ele>
        <time>2020-07-19T13:30:43.000Z</time>
      </trkpt>
      <trkpt lat="45.20676" lon="6.20768">
        <ele>2183</ele>
        <time>2020-07-19T13:30:45.000Z</time>
      </trkpt>
      <trkpt lat="45.20679" lon="6.20771">
        <ele>2184</ele>
        <time>2020-07-19T13:30:47.000Z</time>
      </trkpt>
      <trkpt lat="45.20681" lon="6.20774">
        <ele>2184</ele>
        <time>2020-07-19T13:30:49.000Z</time>
      </trkpt>
      <trkpt lat="45.20683" lon="6.20776">
        <ele>2184</ele>
        <time>2020-07-19T13:30:50.000Z</time>
      </trkpt>
      <trkpt lat="45.20684" lon="6.20778">
        <ele>2185.1</ele>
        <time>2020-07-19T13:30:51.000Z</time>
      </trkpt>
      <trkpt lat="45.20686" lon="6.2078">
        <ele>2186</ele>
        <time>2020-07-19T13:30:52.000Z</time>
      </trkpt>
      <trkpt lat="45.20687" lon="6.20782">
        <ele>2186</ele>
        <time>2020-07-19T13:30:53.000Z</time>
      </trkpt>
      <trkpt lat="45.20688" lon="6.20784">
        <ele>2186</ele>
        <time>2020-07-19T13:30:54.000Z</time>
      </trkpt>
      <trkpt lat="45.2069" lon="6.20789">
        <ele>2187</ele>
        <time>2020-07-19T13:30:56.000Z</time>
      </trkpt>
      <trkpt lat="45.20691" lon="6.20793">
        <ele>2186.1</ele>
        <time>2020-07-19T13:30:58.000Z</time>
      </trkpt>
      <trkpt lat="45.2069" lon="6.20797">
        <ele>2187</ele>
        <time>2020-07-19T13:31:00.000Z</time>
      </trkpt>
      <trkpt lat="45.20688" lon="6.20801">
        <ele>2188</ele>
        <time>2020-07-19T13:31:02.000Z</time>
      </trkpt>
      <trkpt lat="45.20686" lon="6.20805">
        <ele>2188</ele>
        <time>2020-07-19T13:31:04.000Z</time>
      </trkpt>
      <trkpt lat="45.20685" lon="6.20808">
        <ele>2188</ele>
        <time>2020-07-19T13:31:05.000Z</time>
      </trkpt>
      <trkpt lat="45.20684" lon="6.2081">
        <ele>2188</ele>
        <time>2020-07-19T13:31:06.000Z</time>
      </trkpt>
      <trkpt lat="45.20683" lon="6.20812">
        <ele>2188</ele>
        <time>2020-07-19T13:31:07.000Z</time>
      </trkpt>
      <trkpt lat="45.20682" lon="6.20814">
        <ele>2188</ele>
        <time>2020-07-19T13:31:08.000Z</time>
      </trkpt>
      <trkpt lat="45.2068" lon="6.20815">
        <ele>2188</ele>
        <time>2020-07-19T13:31:09.000Z</time>
      </trkpt>
      <trkpt lat="45.20678" lon="6.20816">
        <ele>2188</ele>
        <time>2020-07-19T13:31:10.000Z</time>
      </trkpt>
      <trkpt lat="45.20675" lon="6.20818">
        <ele>2188.1</ele>
        <time>2020-07-19T13:31:12.000Z</time>
      </trkpt>
      <trkpt lat="45.20672" lon="6.2082">
        <ele>2189</ele>
        <time>2020-07-19T13:31:14.000Z</time>
      </trkpt>
      <trkpt lat="45.20669" lon="6.20819">
        <ele>2189</ele>
        <time>2020-07-19T13:31:16.000Z</time>
      </trkpt>
      <trkpt lat="45.20667" lon="6.20818">
        <ele>2189</ele>
        <time>2020-07-19T13:31:18.000Z</time>
      </trkpt>
      <trkpt lat="45.20665" lon="6.2082">
        <ele>2188</ele>
        <time>2020-07-19T13:31:26.000Z</time>
      </trkpt>
      <trkpt lat="45.20665" lon="6.20824">
        <ele>2187</ele>
        <time>2020-07-19T13:31:29.000Z</time>
      </trkpt>
      <trkpt lat="45.20665" lon="6.20827">
        <ele>2186</ele>
        <time>2020-07-19T13:32:07.000Z</time>
      </trkpt>
      <trkpt lat="45.20665" lon="6.2083">
        <ele>2186</ele>
        <time>2020-07-19T13:32:09.000Z</time>
      </trkpt>
      <trkpt lat="45.20665" lon="6.20833">
        <ele>2186.1</ele>
        <time>2020-07-19T13:32:13.000Z</time>
      </trkpt>
      <trkpt lat="45.20666" lon="6.20829">
        <ele>2187</ele>
        <time>2020-07-19T13:33:21.000Z</time>
      </trkpt>
      <trkpt lat="45.20665" lon="6.20826">
        <ele>2187</ele>
        <time>2020-07-19T13:33:24.000Z</time>
      </trkpt>
      <trkpt lat="45.20666" lon="6.20829">
        <ele>2186</ele>
        <time>2020-07-19T13:33:49.000Z</time>
      </trkpt>
      <trkpt lat="45.20666" lon="6.20826">
        <ele>2186</ele>
        <time>2020-07-19T13:34:00.000Z</time>
      </trkpt>
      <trkpt lat="45.20667" lon="6.20824">
        <ele>2186</ele>
        <time>2020-07-19T13:34:02.000Z</time>
      </trkpt>
      <trkpt lat="45.20667" lon="6.20827">
        <ele>2186</ele>
        <time>2020-07-19T13:34:22.000Z</time>
      </trkpt>
      <trkpt lat="45.20669" lon="6.20826">
        <ele>2188</ele>
        <time>2020-07-19T13:34:56.000Z</time>
      </trkpt>
      <trkpt lat="45.20667" lon="6.20827">
        <ele>2190</ele>
        <time>2020-07-19T13:45:26.000Z</time>
      </trkpt>
      <trkpt lat="45.20666" lon="6.20823">
        <ele>2190</ele>
        <time>2020-07-19T13:45:29.000Z</time>
      </trkpt>
      <trkpt lat="45.20668" lon="6.20822">
        <ele>2190</ele>
        <time>2020-07-19T13:45:31.000Z</time>
      </trkpt>
      <trkpt lat="45.20668" lon="6.20819">
        <ele>2190.2</ele>
        <time>2020-07-19T13:45:34.000Z</time>
      </trkpt>
      <trkpt lat="45.20667" lon="6.20817">
        <ele>2193.1</ele>
        <time>2020-07-19T13:45:38.000Z</time>
      </trkpt>
      <trkpt lat="45.2067" lon="6.20815">
        <ele>2194</ele>
        <time>2020-07-19T13:45:45.000Z</time>
      </trkpt>
      <trkpt lat="45.20674" lon="6.20815">
        <ele>2194</ele>
        <time>2020-07-19T13:45:47.000Z</time>
      </trkpt>
      <trkpt lat="45.20677" lon="6.20814">
        <ele>2194</ele>
        <time>2020-07-19T13:45:49.000Z</time>
      </trkpt>
      <trkpt lat="45.20679" lon="6.20814">
        <ele>2194</ele>
        <time>2020-07-19T13:45:50.000Z</time>
      </trkpt>
      <trkpt lat="45.20682" lon="6.20814">
        <ele>2194</ele>
        <time>2020-07-19T13:45:51.000Z</time>
      </trkpt>
      <trkpt lat="45.20684" lon="6.20812">
        <ele>2193.9</ele>
        <time>2020-07-19T13:45:52.000Z</time>
      </trkpt>
      <trkpt lat="45.20686" lon="6.2081">
        <ele>2193</ele>
        <time>2020-07-19T13:45:53.000Z</time>
      </trkpt>
      <trkpt lat="45.20689" lon="6.20807">
        <ele>2193</ele>
        <time>2020-07-19T13:45:54.000Z</time>
      </trkpt>
      <trkpt lat="45.20692" lon="6.20804">
        <ele>2193</ele>
        <time>2020-07-19T13:45:55.000Z</time>
      </trkpt>
      <trkpt lat="45.20695" lon="6.20801">
        <ele>2193</ele>
        <time>2020-07-19T13:45:56.000Z</time>
      </trkpt>
      <trkpt lat="45.20697" lon="6.20799">
        <ele>2192.9</ele>
        <time>2020-07-19T13:45:57.000Z</time>
      </trkpt>
      <trkpt lat="45.20699" lon="6.20796">
        <ele>2192</ele>
        <time>2020-07-19T13:45:58.000Z</time>
      </trkpt>
      <trkpt lat="45.20698" lon="6.20792">
        <ele>2191</ele>
        <time>2020-07-19T13:46:00.000Z</time>
      </trkpt>
      <trkpt lat="45.20695" lon="6.20793">
        <ele>2191</ele>
        <time>2020-07-19T13:46:02.000Z</time>
      </trkpt>
      <trkpt lat="45.20696" lon="6.20796">
        <ele>2191</ele>
        <time>2020-07-19T13:46:04.000Z</time>
      </trkpt>
      <trkpt lat="45.20699" lon="6.20796">
        <ele>2191</ele>
        <time>2020-07-19T13:46:06.000Z</time>
      </trkpt>
      <trkpt lat="45.20701" lon="6.20794">
        <ele>2191</ele>
        <time>2020-07-19T13:46:07.000Z</time>
      </trkpt>
      <trkpt lat="45.20704" lon="6.20793">
        <ele>2191</ele>
        <time>2020-07-19T13:46:08.000Z</time>
      </trkpt>
      <trkpt lat="45.20707" lon="6.20793">
        <ele>2191</ele>
        <time>2020-07-19T13:46:09.000Z</time>
      </trkpt>
      <trkpt lat="45.2071" lon="6.20793">
        <ele>2191</ele>
        <time>2020-07-19T13:46:10.000Z</time>
      </trkpt>
      <trkpt lat="45.20714" lon="6.20794">
        <ele>2191</ele>
        <time>2020-07-19T13:46:11.000Z</time>
      </trkpt>
      <trkpt lat="45.20716" lon="6.20795">
        <ele>2191</ele>
        <time>2020-07-19T13:46:12.000Z</time>
      </trkpt>
      <trkpt lat="45.20719" lon="6.20797">
        <ele>2191</ele>
        <time>2020-07-19T13:46:13.000Z</time>
      </trkpt>
      <trkpt lat="45.20721" lon="6.20798">
        <ele>2191</ele>
        <time>2020-07-19T13:46:14.000Z</time>
      </trkpt>
      <trkpt lat="45.20723" lon="6.208">
        <ele>2191</ele>
        <time>2020-07-19T13:46:15.000Z</time>
      </trkpt>
      <trkpt lat="45.20725" lon="6.20802">
        <ele>2191</ele>
        <time>2020-07-19T13:46:16.000Z</time>
      </trkpt>
      <trkpt lat="45.20728" lon="6.20804">
        <ele>2191</ele>
        <time>2020-07-19T13:46:17.000Z</time>
      </trkpt>
      <trkpt lat="45.2073" lon="6.20807">
        <ele>2191</ele>
        <time>2020-07-19T13:46:18.000Z</time>
      </trkpt>
      <trkpt lat="45.20733" lon="6.20809">
        <ele>2191</ele>
        <time>2020-07-19T13:46:19.000Z</time>
      </trkpt>
      <trkpt lat="45.20736" lon="6.20812">
        <ele>2191</ele>
        <time>2020-07-19T13:46:20.000Z</time>
      </trkpt>
      <trkpt lat="45.2074" lon="6.20814">
        <ele>2191</ele>
        <time>2020-07-19T13:46:21.000Z</time>
      </trkpt>
      <trkpt lat="45.20743" lon="6.20817">
        <ele>2190</ele>
        <time>2020-07-19T13:46:22.000Z</time>
      </trkpt>
      <trkpt lat="45.20746" lon="6.20821">
        <ele>2190</ele>
        <time>2020-07-19T13:46:23.000Z</time>
      </trkpt>
      <trkpt lat="45.20749" lon="6.20825">
        <ele>2189.9</ele>
        <time>2020-07-19T13:46:24.000Z</time>
      </trkpt>
      <trkpt lat="45.20752" lon="6.20829">
        <ele>2189</ele>
        <time>2020-07-19T13:46:25.000Z</time>
      </trkpt>
      <trkpt lat="45.20754" lon="6.20832">
        <ele>2189.1</ele>
        <time>2020-07-19T13:46:26.000Z</time>
      </trkpt>
      <trkpt lat="45.20756" lon="6.20834">
        <ele>2190</ele>
        <time>2020-07-19T13:46:27.000Z</time>
      </trkpt>
      <trkpt lat="45.20759" lon="6.20837">
        <ele>2190</ele>
        <time>2020-07-19T13:46:28.000Z</time>
      </trkpt>
      <trkpt lat="45.20763" lon="6.2084">
        <ele>2190</ele>
        <time>2020-07-19T13:46:29.000Z</time>
      </trkpt>
      <trkpt lat="45.20766" lon="6.20843">
        <ele>2189.9</ele>
        <time>2020-07-19T13:46:30.000Z</time>
      </trkpt>
      <trkpt lat="45.2077" lon="6.20846">
        <ele>2189</ele>
        <time>2020-07-19T13:46:31.000Z</time>
      </trkpt>
      <trkpt lat="45.20774" lon="6.20849">
        <ele>2189</ele>
        <time>2020-07-19T13:46:32.000Z</time>
      </trkpt>
      <trkpt lat="45.20777" lon="6.20852">
        <ele>2188.9</ele>
        <time>2020-07-19T13:46:33.000Z</time>
      </trkpt>
      <trkpt lat="45.20779" lon="6.20856">
        <ele>2187.9</ele>
        <time>2020-07-19T13:46:34.000Z</time>
      </trkpt>
      <trkpt lat="45.2078" lon="6.2086">
        <ele>2186.9</ele>
        <time>2020-07-19T13:46:35.000Z</time>
      </trkpt>
      <trkpt lat="45.20781" lon="6.20864">
        <ele>2186</ele>
        <time>2020-07-19T13:46:36.000Z</time>
      </trkpt>
      <trkpt lat="45.20782" lon="6.20869">
        <ele>2185.9</ele>
        <time>2020-07-19T13:46:37.000Z</time>
      </trkpt>
      <trkpt lat="45.20782" lon="6.20874">
        <ele>2184.9</ele>
        <time>2020-07-19T13:46:38.000Z</time>
      </trkpt>
      <trkpt lat="45.20784" lon="6.2088">
        <ele>2183.9</ele>
        <time>2020-07-19T13:46:39.000Z</time>
      </trkpt>
      <trkpt lat="45.20788" lon="6.20884">
        <ele>2183.2</ele>
        <time>2020-07-19T13:46:40.000Z</time>
      </trkpt>
      <trkpt lat="45.20792" lon="6.20887">
        <ele>2182</ele>
        <time>2020-07-19T13:46:41.000Z</time>
      </trkpt>
      <trkpt lat="45.20797" lon="6.20891">
        <ele>2182</ele>
        <time>2020-07-19T13:46:42.000Z</time>
      </trkpt>
      <trkpt lat="45.20803" lon="6.20895">
        <ele>2181.9</ele>
        <time>2020-07-19T13:46:43.000Z</time>
      </trkpt>
      <trkpt lat="45.20808" lon="6.20898">
        <ele>2181.2</ele>
        <time>2020-07-19T13:46:44.000Z</time>
      </trkpt>
      <trkpt lat="45.20813" lon="6.20902">
        <ele>2181</ele>
        <time>2020-07-19T13:46:45.000Z</time>
      </trkpt>
      <trkpt lat="45.20819" lon="6.20905">
        <ele>2180.9</ele>
        <time>2020-07-19T13:46:46.000Z</time>
      </trkpt>
      <trkpt lat="45.20826" lon="6.20908">
        <ele>2179.9</ele>
        <time>2020-07-19T13:46:47.000Z</time>
      </trkpt>
      <trkpt lat="45.20833" lon="6.20911">
        <ele>2179</ele>
        <time>2020-07-19T13:46:48.000Z</time>
      </trkpt>
      <trkpt lat="45.20839" lon="6.20914">
        <ele>2178.9</ele>
        <time>2020-07-19T13:46:49.000Z</time>
      </trkpt>
      <trkpt lat="45.20846" lon="6.20916">
        <ele>2177.9</ele>
        <time>2020-07-19T13:46:50.000Z</time>
      </trkpt>
      <trkpt lat="45.20853" lon="6.20919">
        <ele>2177.2</ele>
        <time>2020-07-19T13:46:51.000Z</time>
      </trkpt>
      <trkpt lat="45.2086" lon="6.20922">
        <ele>2176.9</ele>
        <time>2020-07-19T13:46:52.000Z</time>
      </trkpt>
      <trkpt lat="45.20867" lon="6.20925">
        <ele>2175.9</ele>
        <time>2020-07-19T13:46:53.000Z</time>
      </trkpt>
      <trkpt lat="45.20873" lon="6.20927">
        <ele>2175</ele>
        <time>2020-07-19T13:46:54.000Z</time>
      </trkpt>
      <trkpt lat="45.20879" lon="6.2093">
        <ele>2174.9</ele>
        <time>2020-07-19T13:46:55.000Z</time>
      </trkpt>
      <trkpt lat="45.20883" lon="6.20935">
        <ele>2173.9</ele>
        <time>2020-07-19T13:46:56.000Z</time>
      </trkpt>
      <trkpt lat="45.20885" lon="6.2094">
        <ele>2173</ele>
        <time>2020-07-19T13:46:57.000Z</time>
      </trkpt>
      <trkpt lat="45.20885" lon="6.20945">
        <ele>2172.9</ele>
        <time>2020-07-19T13:46:58.000Z</time>
      </trkpt>
      <trkpt lat="45.20885" lon="6.20948">
        <ele>2172.2</ele>
        <time>2020-07-19T13:46:59.000Z</time>
      </trkpt>
      <trkpt lat="45.20884" lon="6.20951">
        <ele>2170</ele>
        <time>2020-07-19T13:47:41.000Z</time>
      </trkpt>
      <trkpt lat="45.20886" lon="6.20953">
        <ele>2170</ele>
        <time>2020-07-19T13:47:42.000Z</time>
      </trkpt>
      <trkpt lat="45.20889" lon="6.20955">
        <ele>2170</ele>
        <time>2020-07-19T13:47:43.000Z</time>
      </trkpt>
      <trkpt lat="45.20893" lon="6.20956">
        <ele>2166.8</ele>
        <time>2020-07-19T13:47:44.000Z</time>
      </trkpt>
      <trkpt lat="45.20897" lon="6.20957">
        <ele>2164.9</ele>
        <time>2020-07-19T13:47:45.000Z</time>
      </trkpt>
      <trkpt lat="45.20901" lon="6.20959">
        <ele>2163.9</ele>
        <time>2020-07-19T13:47:46.000Z</time>
      </trkpt>
      <trkpt lat="45.20904" lon="6.20961">
        <ele>2162.9</ele>
        <time>2020-07-19T13:47:47.000Z</time>
      </trkpt>
      <trkpt lat="45.20906" lon="6.20964">
        <ele>2161.9</ele>
        <time>2020-07-19T13:47:48.000Z</time>
      </trkpt>
      <trkpt lat="45.20906" lon="6.20967">
        <ele>2160.9</ele>
        <time>2020-07-19T13:47:49.000Z</time>
      </trkpt>
      <trkpt lat="45.20906" lon="6.20971">
        <ele>2159.9</ele>
        <time>2020-07-19T13:47:50.000Z</time>
      </trkpt>
      <trkpt lat="45.20905" lon="6.20975">
        <ele>2158.8</ele>
        <time>2020-07-19T13:47:51.000Z</time>
      </trkpt>
      <trkpt lat="45.20905" lon="6.2098">
        <ele>2156.9</ele>
        <time>2020-07-19T13:47:52.000Z</time>
      </trkpt>
      <trkpt lat="45.20906" lon="6.20984">
        <ele>2155.9</ele>
        <time>2020-07-19T13:47:53.000Z</time>
      </trkpt>
      <trkpt lat="45.20909" lon="6.20989">
        <ele>2154.8</ele>
        <time>2020-07-19T13:47:54.000Z</time>
      </trkpt>
      <trkpt lat="45.20913" lon="6.20993">
        <ele>2152</ele>
        <time>2020-07-19T13:47:55.000Z</time>
      </trkpt>
      <trkpt lat="45.20917" lon="6.20998">
        <ele>2151.3</ele>
        <time>2020-07-19T13:47:56.000Z</time>
      </trkpt>
      <trkpt lat="45.20922" lon="6.21001">
        <ele>2150</ele>
        <time>2020-07-19T13:47:57.000Z</time>
      </trkpt>
      <trkpt lat="45.20926" lon="6.21001">
        <ele>2149.8</ele>
        <time>2020-07-19T13:47:58.000Z</time>
      </trkpt>
      <trkpt lat="45.2093" lon="6.20997">
        <ele>2147.9</ele>
        <time>2020-07-19T13:47:59.000Z</time>
      </trkpt>
      <trkpt lat="45.20935" lon="6.20993">
        <ele>2146.9</ele>
        <time>2020-07-19T13:48:00.000Z</time>
      </trkpt>
      <trkpt lat="45.20939" lon="6.20993">
        <ele>2145.8</ele>
        <time>2020-07-19T13:48:01.000Z</time>
      </trkpt>
      <trkpt lat="45.20943" lon="6.20995">
        <ele>2144</ele>
        <time>2020-07-19T13:48:02.000Z</time>
      </trkpt>
      <trkpt lat="45.20947" lon="6.20999">
        <ele>2143.8</ele>
        <time>2020-07-19T13:48:03.000Z</time>
      </trkpt>
      <trkpt lat="45.2095" lon="6.21002">
        <ele>2141.9</ele>
        <time>2020-07-19T13:48:04.000Z</time>
      </trkpt>
      <trkpt lat="45.20954" lon="6.21004">
        <ele>2140.8</ele>
        <time>2020-07-19T13:48:05.000Z</time>
      </trkpt>
      <trkpt lat="45.20958" lon="6.21005">
        <ele>2138.9</ele>
        <time>2020-07-19T13:48:06.000Z</time>
      </trkpt>
      <trkpt lat="45.20963" lon="6.21007">
        <ele>2138.2</ele>
        <time>2020-07-19T13:48:07.000Z</time>
      </trkpt>
      <trkpt lat="45.20967" lon="6.21011">
        <ele>2136.8</ele>
        <time>2020-07-19T13:48:08.000Z</time>
      </trkpt>
      <trkpt lat="45.2097" lon="6.21015">
        <ele>2134.9</ele>
        <time>2020-07-19T13:48:09.000Z</time>
      </trkpt>
      <trkpt lat="45.20972" lon="6.21019">
        <ele>2133.9</ele>
        <time>2020-07-19T13:48:10.000Z</time>
      </trkpt>
      <trkpt lat="45.20975" lon="6.21021">
        <ele>2133</ele>
        <time>2020-07-19T13:48:11.000Z</time>
      </trkpt>
      <trkpt lat="45.20979" lon="6.21023">
        <ele>2132.9</ele>
        <time>2020-07-19T13:48:12.000Z</time>
      </trkpt>
      <trkpt lat="45.20983" lon="6.21024">
        <ele>2131.9</ele>
        <time>2020-07-19T13:48:13.000Z</time>
      </trkpt>
      <trkpt lat="45.20987" lon="6.21024">
        <ele>2130.9</ele>
        <time>2020-07-19T13:48:14.000Z</time>
      </trkpt>
      <trkpt lat="45.20992" lon="6.21021">
        <ele>2130.2</ele>
        <time>2020-07-19T13:48:15.000Z</time>
      </trkpt>
      <trkpt lat="45.20997" lon="6.21018">
        <ele>2129</ele>
        <time>2020-07-19T13:48:16.000Z</time>
      </trkpt>
      <trkpt lat="45.21002" lon="6.21017">
        <ele>2128.9</ele>
        <time>2020-07-19T13:48:17.000Z</time>
      </trkpt>
      <trkpt lat="45.21006" lon="6.2102">
        <ele>2127.9</ele>
        <time>2020-07-19T13:48:18.000Z</time>
      </trkpt>
      <trkpt lat="45.21009" lon="6.21024">
        <ele>2127.2</ele>
        <time>2020-07-19T13:48:19.000Z</time>
      </trkpt>
      <trkpt lat="45.21011" lon="6.21029">
        <ele>2125.8</ele>
        <time>2020-07-19T13:48:20.000Z</time>
      </trkpt>
      <trkpt lat="45.21013" lon="6.21037">
        <ele>2123.8</ele>
        <time>2020-07-19T13:48:21.000Z</time>
      </trkpt>
      <trkpt lat="45.21015" lon="6.21046">
        <ele>2121.9</ele>
        <time>2020-07-19T13:48:22.000Z</time>
      </trkpt>
      <trkpt lat="45.21017" lon="6.21056">
        <ele>2120.9</ele>
        <time>2020-07-19T13:48:23.000Z</time>
      </trkpt>
      <trkpt lat="45.21018" lon="6.21066">
        <ele>2119.9</ele>
        <time>2020-07-19T13:48:24.000Z</time>
      </trkpt>
      <trkpt lat="45.21018" lon="6.21075">
        <ele>2119</ele>
        <time>2020-07-19T13:48:25.000Z</time>
      </trkpt>
      <trkpt lat="45.21018" lon="6.21082">
        <ele>2118.9</ele>
        <time>2020-07-19T13:48:26.000Z</time>
      </trkpt>
      <trkpt lat="45.21019" lon="6.2109">
        <ele>2118.2</ele>
        <time>2020-07-19T13:48:27.000Z</time>
      </trkpt>
      <trkpt lat="45.21021" lon="6.21098">
        <ele>2117.9</ele>
        <time>2020-07-19T13:48:28.000Z</time>
      </trkpt>
      <trkpt lat="45.21023" lon="6.21106">
        <ele>2116.9</ele>
        <time>2020-07-19T13:48:29.000Z</time>
      </trkpt>
      <trkpt lat="45.21023" lon="6.21114">
        <ele>2115.8</ele>
        <time>2020-07-19T13:48:30.000Z</time>
      </trkpt>
      <trkpt lat="45.21022" lon="6.21124">
        <ele>2112.8</ele>
        <time>2020-07-19T13:48:31.000Z</time>
      </trkpt>
      <trkpt lat="45.2102" lon="6.21134">
        <ele>2110.9</ele>
        <time>2020-07-19T13:48:32.000Z</time>
      </trkpt>
      <trkpt lat="45.21019" lon="6.21142">
        <ele>2109.9</ele>
        <time>2020-07-19T13:48:33.000Z</time>
      </trkpt>
      <trkpt lat="45.21018" lon="6.21149">
        <ele>2109.2</ele>
        <time>2020-07-19T13:48:34.000Z</time>
      </trkpt>
      <trkpt lat="45.21016" lon="6.21156">
        <ele>2108.9</ele>
        <time>2020-07-19T13:48:35.000Z</time>
      </trkpt>
      <trkpt lat="45.21014" lon="6.21163">
        <ele>2108.2</ele>
        <time>2020-07-19T13:48:36.000Z</time>
      </trkpt>
      <trkpt lat="45.21013" lon="6.21169">
        <ele>2106.9</ele>
        <time>2020-07-19T13:48:37.000Z</time>
      </trkpt>
      <trkpt lat="45.21014" lon="6.21174">
        <ele>2105.9</ele>
        <time>2020-07-19T13:48:38.000Z</time>
      </trkpt>
      <trkpt lat="45.21017" lon="6.21177">
        <ele>2105</ele>
        <time>2020-07-19T13:48:39.000Z</time>
      </trkpt>
      <trkpt lat="45.2102" lon="6.21181">
        <ele>2104.8</ele>
        <time>2020-07-19T13:48:40.000Z</time>
      </trkpt>
      <trkpt lat="45.21022" lon="6.21186">
        <ele>2102.9</ele>
        <time>2020-07-19T13:48:41.000Z</time>
      </trkpt>
      <trkpt lat="45.21022" lon="6.21191">
        <ele>2101.8</ele>
        <time>2020-07-19T13:48:42.000Z</time>
      </trkpt>
      <trkpt lat="45.21021" lon="6.21196">
        <ele>2099.8</ele>
        <time>2020-07-19T13:48:43.000Z</time>
      </trkpt>
      <trkpt lat="45.21019" lon="6.21201">
        <ele>2097.8</ele>
        <time>2020-07-19T13:48:44.000Z</time>
      </trkpt>
      <trkpt lat="45.21017" lon="6.21206">
        <ele>2095.9</ele>
        <time>2020-07-19T13:48:45.000Z</time>
      </trkpt>
      <trkpt lat="45.21014" lon="6.21212">
        <ele>2094.9</ele>
        <time>2020-07-19T13:48:46.000Z</time>
      </trkpt>
      <trkpt lat="45.21012" lon="6.21216">
        <ele>2093.9</ele>
        <time>2020-07-19T13:48:47.000Z</time>
      </trkpt>
      <trkpt lat="45.2101" lon="6.21221">
        <ele>2093.2</ele>
        <time>2020-07-19T13:48:48.000Z</time>
      </trkpt>
      <trkpt lat="45.21008" lon="6.21228">
        <ele>2090.8</ele>
        <time>2020-07-19T13:48:49.000Z</time>
      </trkpt>
      <trkpt lat="45.21005" lon="6.21235">
        <ele>2088.8</ele>
        <time>2020-07-19T13:48:50.000Z</time>
      </trkpt>
      <trkpt lat="45.21002" lon="6.2124">
        <ele>2086.9</ele>
        <time>2020-07-19T13:48:51.000Z</time>
      </trkpt>
      <trkpt lat="45.20999" lon="6.21245">
        <ele>2086</ele>
        <time>2020-07-19T13:48:52.000Z</time>
      </trkpt>
      <trkpt lat="45.20994" lon="6.21252">
        <ele>2086</ele>
        <time>2020-07-19T13:48:53.000Z</time>
      </trkpt>
      <trkpt lat="45.20989" lon="6.21261">
        <ele>2083.9</ele>
        <time>2020-07-19T13:48:54.000Z</time>
      </trkpt>
      <trkpt lat="45.20984" lon="6.21267">
        <ele>2082.9</ele>
        <time>2020-07-19T13:48:55.000Z</time>
      </trkpt>
      <trkpt lat="45.2098" lon="6.21273">
        <ele>2082.2</ele>
        <time>2020-07-19T13:48:56.000Z</time>
      </trkpt>
      <trkpt lat="45.20975" lon="6.21277">
        <ele>2082</ele>
        <time>2020-07-19T13:48:57.000Z</time>
      </trkpt>
      <trkpt lat="45.20972" lon="6.21282">
        <ele>2081.9</ele>
        <time>2020-07-19T13:48:58.000Z</time>
      </trkpt>
      <trkpt lat="45.20968" lon="6.21286">
        <ele>2080.9</ele>
        <time>2020-07-19T13:48:59.000Z</time>
      </trkpt>
      <trkpt lat="45.20965" lon="6.2129">
        <ele>2080</ele>
        <time>2020-07-19T13:49:00.000Z</time>
      </trkpt>
      <trkpt lat="45.20963" lon="6.21293">
        <ele>2079.9</ele>
        <time>2020-07-19T13:49:01.000Z</time>
      </trkpt>
      <trkpt lat="45.20961" lon="6.21295">
        <ele>2079</ele>
        <time>2020-07-19T13:49:03.000Z</time>
      </trkpt>
      <trkpt lat="45.20959" lon="6.21299">
        <ele>2079</ele>
        <time>2020-07-19T13:49:29.000Z</time>
      </trkpt>
      <trkpt lat="45.20959" lon="6.21302">
        <ele>2078.9</ele>
        <time>2020-07-19T13:49:30.000Z</time>
      </trkpt>
      <trkpt lat="45.20958" lon="6.21306">
        <ele>2077.3</ele>
        <time>2020-07-19T13:49:31.000Z</time>
      </trkpt>
      <trkpt lat="45.20957" lon="6.21313">
        <ele>2074.8</ele>
        <time>2020-07-19T13:49:32.000Z</time>
      </trkpt>
      <trkpt lat="45.20956" lon="6.2132">
        <ele>2071.8</ele>
        <time>2020-07-19T13:49:33.000Z</time>
      </trkpt>
      <trkpt lat="45.20953" lon="6.21327">
        <ele>2069.5</ele>
        <time>2020-07-19T13:49:34.000Z</time>
      </trkpt>
      <trkpt lat="45.20949" lon="6.21333">
        <ele>2066.8</ele>
        <time>2020-07-19T13:49:35.000Z</time>
      </trkpt>
      <trkpt lat="45.20945" lon="6.21336">
        <ele>2064.9</ele>
        <time>2020-07-19T13:49:36.000Z</time>
      </trkpt>
      <trkpt lat="45.2094" lon="6.21338">
        <ele>2064</ele>
        <time>2020-07-19T13:49:37.000Z</time>
      </trkpt>
      <trkpt lat="45.20935" lon="6.21339">
        <ele>2063.9</ele>
        <time>2020-07-19T13:49:38.000Z</time>
      </trkpt>
      <trkpt lat="45.2093" lon="6.21341">
        <ele>2062.8</ele>
        <time>2020-07-19T13:49:39.000Z</time>
      </trkpt>
      <trkpt lat="45.20926" lon="6.21344">
        <ele>2060.9</ele>
        <time>2020-07-19T13:49:40.000Z</time>
      </trkpt>
      <trkpt lat="45.20922" lon="6.21348">
        <ele>2059.9</ele>
        <time>2020-07-19T13:49:41.000Z</time>
      </trkpt>
      <trkpt lat="45.20919" lon="6.21354">
        <ele>2058.9</ele>
        <time>2020-07-19T13:49:42.000Z</time>
      </trkpt>
      <trkpt lat="45.20915" lon="6.21359">
        <ele>2057.9</ele>
        <time>2020-07-19T13:49:43.000Z</time>
      </trkpt>
      <trkpt lat="45.2091" lon="6.21362">
        <ele>2057.2</ele>
        <time>2020-07-19T13:49:44.000Z</time>
      </trkpt>
      <trkpt lat="45.20904" lon="6.21365">
        <ele>2055.8</ele>
        <time>2020-07-19T13:49:45.000Z</time>
      </trkpt>
      <trkpt lat="45.20898" lon="6.21367">
        <ele>2053.9</ele>
        <time>2020-07-19T13:49:46.000Z</time>
      </trkpt>
      <trkpt lat="45.20892" lon="6.21369">
        <ele>2053</ele>
        <time>2020-07-19T13:49:47.000Z</time>
      </trkpt>
      <trkpt lat="45.20885" lon="6.21371">
        <ele>2052.9</ele>
        <time>2020-07-19T13:49:48.000Z</time>
      </trkpt>
      <trkpt lat="45.2088" lon="6.21374">
        <ele>2051.9</ele>
        <time>2020-07-19T13:49:49.000Z</time>
      </trkpt>
      <trkpt lat="45.20877" lon="6.21378">
        <ele>2050.3</ele>
        <time>2020-07-19T13:49:50.000Z</time>
      </trkpt>
      <trkpt lat="45.20877" lon="6.21384">
        <ele>2048.9</ele>
        <time>2020-07-19T13:49:51.000Z</time>
      </trkpt>
      <trkpt lat="45.20878" lon="6.21391">
        <ele>2047.9</ele>
        <time>2020-07-19T13:49:52.000Z</time>
      </trkpt>
      <trkpt lat="45.20881" lon="6.21397">
        <ele>2047.2</ele>
        <time>2020-07-19T13:49:53.000Z</time>
      </trkpt>
      <trkpt lat="45.20884" lon="6.21401">
        <ele>2045.8</ele>
        <time>2020-07-19T13:49:54.000Z</time>
      </trkpt>
      <trkpt lat="45.20885" lon="6.21406">
        <ele>2043.9</ele>
        <time>2020-07-19T13:49:55.000Z</time>
      </trkpt>
      <trkpt lat="45.20882" lon="6.21409">
        <ele>2042.9</ele>
        <time>2020-07-19T13:49:56.000Z</time>
      </trkpt>
      <trkpt lat="45.20878" lon="6.21411">
        <ele>2041.9</ele>
        <time>2020-07-19T13:49:57.000Z</time>
      </trkpt>
      <trkpt lat="45.20873" lon="6.21413">
        <ele>2040.8</ele>
        <time>2020-07-19T13:49:58.000Z</time>
      </trkpt>
      <trkpt lat="45.2087" lon="6.21416">
        <ele>2038.9</ele>
        <time>2020-07-19T13:49:59.000Z</time>
      </trkpt>
      <trkpt lat="45.20867" lon="6.21419">
        <ele>2037.9</ele>
        <time>2020-07-19T13:50:00.000Z</time>
      </trkpt>
      <trkpt lat="45.20864" lon="6.21423">
        <ele>2036.7</ele>
        <time>2020-07-19T13:50:01.000Z</time>
      </trkpt>
      <trkpt lat="45.2086" lon="6.21428">
        <ele>2033</ele>
        <time>2020-07-19T13:50:02.000Z</time>
      </trkpt>
      <trkpt lat="45.20858" lon="6.21433">
        <ele>2032.9</ele>
        <time>2020-07-19T13:50:03.000Z</time>
      </trkpt>
      <trkpt lat="45.20855" lon="6.21436">
        <ele>2031.8</ele>
        <time>2020-07-19T13:50:04.000Z</time>
      </trkpt>
      <trkpt lat="45.20851" lon="6.21437">
        <ele>2029.9</ele>
        <time>2020-07-19T13:50:05.000Z</time>
      </trkpt>
      <trkpt lat="45.20847" lon="6.21436">
        <ele>2028.3</ele>
        <time>2020-07-19T13:50:06.000Z</time>
      </trkpt>
      <trkpt lat="45.20842" lon="6.21435">
        <ele>2026.9</ele>
        <time>2020-07-19T13:50:07.000Z</time>
      </trkpt>
      <trkpt lat="45.20836" lon="6.21433">
        <ele>2026</ele>
        <time>2020-07-19T13:50:08.000Z</time>
      </trkpt>
      <trkpt lat="45.20831" lon="6.21433">
        <ele>2026</ele>
        <time>2020-07-19T13:50:09.000Z</time>
      </trkpt>
      <trkpt lat="45.20827" lon="6.21433">
        <ele>2025</ele>
        <time>2020-07-19T13:50:10.000Z</time>
      </trkpt>
      <trkpt lat="45.20823" lon="6.21433">
        <ele>2024.9</ele>
        <time>2020-07-19T13:50:11.000Z</time>
      </trkpt>
      <trkpt lat="45.20819" lon="6.21435">
        <ele>2023.8</ele>
        <time>2020-07-19T13:50:12.000Z</time>
      </trkpt>
      <trkpt lat="45.20815" lon="6.21438">
        <ele>2021.8</ele>
        <time>2020-07-19T13:50:13.000Z</time>
      </trkpt>
      <trkpt lat="45.20811" lon="6.21442">
        <ele>2019.9</ele>
        <time>2020-07-19T13:50:14.000Z</time>
      </trkpt>
      <trkpt lat="45.2081" lon="6.21447">
        <ele>2018.8</ele>
        <time>2020-07-19T13:50:15.000Z</time>
      </trkpt>
      <trkpt lat="45.20811" lon="6.21452">
        <ele>2016.9</ele>
        <time>2020-07-19T13:50:16.000Z</time>
      </trkpt>
      <trkpt lat="45.20813" lon="6.21456">
        <ele>2016.2</ele>
        <time>2020-07-19T13:50:17.000Z</time>
      </trkpt>
      <trkpt lat="45.20816" lon="6.21461">
        <ele>2014.8</ele>
        <time>2020-07-19T13:50:18.000Z</time>
      </trkpt>
      <trkpt lat="45.20818" lon="6.21468">
        <ele>2012.9</ele>
        <time>2020-07-19T13:50:19.000Z</time>
      </trkpt>
      <trkpt lat="45.20816" lon="6.21477">
        <ele>2011.8</ele>
        <time>2020-07-19T13:50:20.000Z</time>
      </trkpt>
      <trkpt lat="45.20814" lon="6.21487">
        <ele>2008.8</ele>
        <time>2020-07-19T13:50:21.000Z</time>
      </trkpt>
      <trkpt lat="45.20814" lon="6.21497">
        <ele>2006.8</ele>
        <time>2020-07-19T13:50:22.000Z</time>
      </trkpt>
      <trkpt lat="45.20815" lon="6.21508">
        <ele>2004.9</ele>
        <time>2020-07-19T13:50:23.000Z</time>
      </trkpt>
      <trkpt lat="45.20817" lon="6.21517">
        <ele>2003.9</ele>
        <time>2020-07-19T13:50:24.000Z</time>
      </trkpt>
      <trkpt lat="45.2082" lon="6.21525">
        <ele>2003.2</ele>
        <time>2020-07-19T13:50:25.000Z</time>
      </trkpt>
      <trkpt lat="45.20822" lon="6.21534">
        <ele>2000.8</ele>
        <time>2020-07-19T13:50:26.000Z</time>
      </trkpt>
      <trkpt lat="45.20825" lon="6.21541">
        <ele>1997.9</ele>
        <time>2020-07-19T13:50:27.000Z</time>
      </trkpt>
      <trkpt lat="45.20829" lon="6.21546">
        <ele>1996.3</ele>
        <time>2020-07-19T13:50:28.000Z</time>
      </trkpt>
      <trkpt lat="45.20834" lon="6.21549">
        <ele>1994.8</ele>
        <time>2020-07-19T13:50:29.000Z</time>
      </trkpt>
      <trkpt lat="45.20839" lon="6.21554">
        <ele>1991.8</ele>
        <time>2020-07-19T13:50:30.000Z</time>
      </trkpt>
      <trkpt lat="45.20845" lon="6.21558">
        <ele>1989.9</ele>
        <time>2020-07-19T13:50:31.000Z</time>
      </trkpt>
      <trkpt lat="45.20853" lon="6.21562">
        <ele>1989.2</ele>
        <time>2020-07-19T13:50:32.000Z</time>
      </trkpt>
      <trkpt lat="45.2086" lon="6.21565">
        <ele>1989</ele>
        <time>2020-07-19T13:50:33.000Z</time>
      </trkpt>
      <trkpt lat="45.20866" lon="6.21567">
        <ele>1989</ele>
        <time>2020-07-19T13:50:34.000Z</time>
      </trkpt>
      <trkpt lat="45.20868" lon="6.21569">
        <ele>1989</ele>
        <time>2020-07-19T13:50:35.000Z</time>
      </trkpt>
      <trkpt lat="45.20869" lon="6.21572">
        <ele>1987.9</ele>
        <time>2020-07-19T13:51:09.000Z</time>
      </trkpt>
      <trkpt lat="45.20871" lon="6.21574">
        <ele>1986.9</ele>
        <time>2020-07-19T13:51:10.000Z</time>
      </trkpt>
      <trkpt lat="45.20872" lon="6.21578">
        <ele>1986</ele>
        <time>2020-07-19T13:51:11.000Z</time>
      </trkpt>
      <trkpt lat="45.20874" lon="6.21582">
        <ele>1985.9</ele>
        <time>2020-07-19T13:51:12.000Z</time>
      </trkpt>
      <trkpt lat="45.20875" lon="6.21588">
        <ele>1984.9</ele>
        <time>2020-07-19T13:51:13.000Z</time>
      </trkpt>
      <trkpt lat="45.20873" lon="6.21593">
        <ele>1983.9</ele>
        <time>2020-07-19T13:51:14.000Z</time>
      </trkpt>
      <trkpt lat="45.20869" lon="6.21598">
        <ele>1982.9</ele>
        <time>2020-07-19T13:51:15.000Z</time>
      </trkpt>
      <trkpt lat="45.20865" lon="6.21604">
        <ele>1980.9</ele>
        <time>2020-07-19T13:51:16.000Z</time>
      </trkpt>
      <trkpt lat="45.20859" lon="6.2161">
        <ele>1979.4</ele>
        <time>2020-07-19T13:51:17.000Z</time>
      </trkpt>
      <trkpt lat="45.20855" lon="6.21616">
        <ele>1976.9</ele>
        <time>2020-07-19T13:51:18.000Z</time>
      </trkpt>
      <trkpt lat="45.20853" lon="6.21622">
        <ele>1975.8</ele>
        <time>2020-07-19T13:51:19.000Z</time>
      </trkpt>
      <trkpt lat="45.20855" lon="6.21628">
        <ele>1973.8</ele>
        <time>2020-07-19T13:51:20.000Z</time>
      </trkpt>
      <trkpt lat="45.2086" lon="6.21632">
        <ele>1971.9</ele>
        <time>2020-07-19T13:51:21.000Z</time>
      </trkpt>
      <trkpt lat="45.20867" lon="6.21635">
        <ele>1970.9</ele>
        <time>2020-07-19T13:51:22.000Z</time>
      </trkpt>
      <trkpt lat="45.20873" lon="6.21636">
        <ele>1969.9</ele>
        <time>2020-07-19T13:51:23.000Z</time>
      </trkpt>
      <trkpt lat="45.2088" lon="6.21638">
        <ele>1969</ele>
        <time>2020-07-19T13:51:24.000Z</time>
      </trkpt>
      <trkpt lat="45.20886" lon="6.21641">
        <ele>1968.3</ele>
        <time>2020-07-19T13:51:25.000Z</time>
      </trkpt>
      <trkpt lat="45.20892" lon="6.21645">
        <ele>1966</ele>
        <time>2020-07-19T13:51:26.000Z</time>
      </trkpt>
      <trkpt lat="45.20897" lon="6.2165">
        <ele>1965.8</ele>
        <time>2020-07-19T13:51:27.000Z</time>
      </trkpt>
      <trkpt lat="45.209" lon="6.21657">
        <ele>1963.8</ele>
        <time>2020-07-19T13:51:28.000Z</time>
      </trkpt>
      <trkpt lat="45.209" lon="6.21665">
        <ele>1961.9</ele>
        <time>2020-07-19T13:51:29.000Z</time>
      </trkpt>
      <trkpt lat="45.20898" lon="6.21674">
        <ele>1960.9</ele>
        <time>2020-07-19T13:51:30.000Z</time>
      </trkpt>
      <trkpt lat="45.20897" lon="6.21682">
        <ele>1959.8</ele>
        <time>2020-07-19T13:51:31.000Z</time>
      </trkpt>
      <trkpt lat="45.20896" lon="6.21691">
        <ele>1957.8</ele>
        <time>2020-07-19T13:51:32.000Z</time>
      </trkpt>
      <trkpt lat="45.20894" lon="6.21699">
        <ele>1955.9</ele>
        <time>2020-07-19T13:51:33.000Z</time>
      </trkpt>
      <trkpt lat="45.20893" lon="6.21707">
        <ele>1954.4</ele>
        <time>2020-07-19T13:51:34.000Z</time>
      </trkpt>
      <trkpt lat="45.20891" lon="6.21716">
        <ele>1951.8</ele>
        <time>2020-07-19T13:51:35.000Z</time>
      </trkpt>
      <trkpt lat="45.20889" lon="6.21726">
        <ele>1948.9</ele>
        <time>2020-07-19T13:51:36.000Z</time>
      </trkpt>
      <trkpt lat="45.20888" lon="6.21736">
        <ele>1947.9</ele>
        <time>2020-07-19T13:51:37.000Z</time>
      </trkpt>
      <trkpt lat="45.20887" lon="6.21745">
        <ele>1947</ele>
        <time>2020-07-19T13:51:38.000Z</time>
      </trkpt>
      <trkpt lat="45.20887" lon="6.21751">
        <ele>1947</ele>
        <time>2020-07-19T13:51:39.000Z</time>
      </trkpt>
      <trkpt lat="45.20887" lon="6.21755">
        <ele>1947</ele>
        <time>2020-07-19T13:51:40.000Z</time>
      </trkpt>
      <trkpt lat="45.20887" lon="6.21758">
        <ele>1947</ele>
        <time>2020-07-19T13:51:41.000Z</time>
      </trkpt>
      <trkpt lat="45.20889" lon="6.21756">
        <ele>1945.1</ele>
        <time>2020-07-19T13:52:08.000Z</time>
      </trkpt>
      <trkpt lat="45.20891" lon="6.21758">
        <ele>1946</ele>
        <time>2020-07-19T13:52:10.000Z</time>
      </trkpt>
      <trkpt lat="45.20892" lon="6.21761">
        <ele>1946</ele>
        <time>2020-07-19T13:52:12.000Z</time>
      </trkpt>
      <trkpt lat="45.20894" lon="6.21763">
        <ele>1946</ele>
        <time>2020-07-19T13:52:13.000Z</time>
      </trkpt>
      <trkpt lat="45.20896" lon="6.21766">
        <ele>1946</ele>
        <time>2020-07-19T13:52:14.000Z</time>
      </trkpt>
      <trkpt lat="45.20899" lon="6.21771">
        <ele>1944.9</ele>
        <time>2020-07-19T13:52:15.000Z</time>
      </trkpt>
      <trkpt lat="45.20904" lon="6.21776">
        <ele>1943.9</ele>
        <time>2020-07-19T13:52:16.000Z</time>
      </trkpt>
      <trkpt lat="45.20909" lon="6.21782">
        <ele>1943</ele>
        <time>2020-07-19T13:52:17.000Z</time>
      </trkpt>
      <trkpt lat="45.20914" lon="6.21789">
        <ele>1942.9</ele>
        <time>2020-07-19T13:52:18.000Z</time>
      </trkpt>
      <trkpt lat="45.20916" lon="6.21796">
        <ele>1941.9</ele>
        <time>2020-07-19T13:52:19.000Z</time>
      </trkpt>
      <trkpt lat="45.20917" lon="6.21804">
        <ele>1941</ele>
        <time>2020-07-19T13:52:20.000Z</time>
      </trkpt>
      <trkpt lat="45.20917" lon="6.21812">
        <ele>1941</ele>
        <time>2020-07-19T13:52:21.000Z</time>
      </trkpt>
      <trkpt lat="45.20916" lon="6.21819">
        <ele>1941</ele>
        <time>2020-07-19T13:52:22.000Z</time>
      </trkpt>
      <trkpt lat="45.20915" lon="6.21826">
        <ele>1941</ele>
        <time>2020-07-19T13:52:23.000Z</time>
      </trkpt>
      <trkpt lat="45.20915" lon="6.21832">
        <ele>1939</ele>
        <time>2020-07-19T13:52:24.000Z</time>
      </trkpt>
      <trkpt lat="45.20916" lon="6.21837">
        <ele>1938.9</ele>
        <time>2020-07-19T13:52:25.000Z</time>
      </trkpt>
      <trkpt lat="45.20918" lon="6.21841">
        <ele>1937.9</ele>
        <time>2020-07-19T13:52:26.000Z</time>
      </trkpt>
      <trkpt lat="45.20919" lon="6.21845">
        <ele>1936.9</ele>
        <time>2020-07-19T13:52:27.000Z</time>
      </trkpt>
      <trkpt lat="45.20921" lon="6.21849">
        <ele>1935.9</ele>
        <time>2020-07-19T13:52:28.000Z</time>
      </trkpt>
      <trkpt lat="45.20923" lon="6.21852">
        <ele>1934.8</ele>
        <time>2020-07-19T13:52:29.000Z</time>
      </trkpt>
      <trkpt lat="45.20927" lon="6.21857">
        <ele>1932.9</ele>
        <time>2020-07-19T13:52:30.000Z</time>
      </trkpt>
      <trkpt lat="45.20931" lon="6.21862">
        <ele>1931.8</ele>
        <time>2020-07-19T13:52:31.000Z</time>
      </trkpt>
      <trkpt lat="45.20934" lon="6.21867">
        <ele>1929.9</ele>
        <time>2020-07-19T13:52:32.000Z</time>
      </trkpt>
      <trkpt lat="45.20937" lon="6.21872">
        <ele>1928.9</ele>
        <time>2020-07-19T13:52:33.000Z</time>
      </trkpt>
      <trkpt lat="45.20937" lon="6.21877">
        <ele>1927.9</ele>
        <time>2020-07-19T13:52:34.000Z</time>
      </trkpt>
      <trkpt lat="45.20936" lon="6.21881">
        <ele>1926.9</ele>
        <time>2020-07-19T13:52:35.000Z</time>
      </trkpt>
      <trkpt lat="45.20934" lon="6.21881">
        <ele>1925</ele>
        <time>2020-07-19T13:53:02.000Z</time>
      </trkpt>
      <trkpt lat="45.20931" lon="6.21885">
        <ele>1924.9</ele>
        <time>2020-07-19T13:53:04.000Z</time>
      </trkpt>
      <trkpt lat="45.2093" lon="6.21889">
        <ele>1923.9</ele>
        <time>2020-07-19T13:53:05.000Z</time>
      </trkpt>
      <trkpt lat="45.20929" lon="6.21894">
        <ele>1922.9</ele>
        <time>2020-07-19T13:53:06.000Z</time>
      </trkpt>
      <trkpt lat="45.20928" lon="6.219">
        <ele>1921.9</ele>
        <time>2020-07-19T13:53:07.000Z</time>
      </trkpt>
      <trkpt lat="45.20928" lon="6.21906">
        <ele>1920.9</ele>
        <time>2020-07-19T13:53:08.000Z</time>
      </trkpt>
      <trkpt lat="45.20927" lon="6.21912">
        <ele>1919.8</ele>
        <time>2020-07-19T13:53:09.000Z</time>
      </trkpt>
      <trkpt lat="45.20923" lon="6.21916">
        <ele>1917.9</ele>
        <time>2020-07-19T13:53:10.000Z</time>
      </trkpt>
      <trkpt lat="45.20918" lon="6.21918">
        <ele>1916.9</ele>
        <time>2020-07-19T13:53:11.000Z</time>
      </trkpt>
      <trkpt lat="45.20914" lon="6.21921">
        <ele>1915.9</ele>
        <time>2020-07-19T13:53:12.000Z</time>
      </trkpt>
      <trkpt lat="45.20913" lon="6.21925">
        <ele>1914.9</ele>
        <time>2020-07-19T13:53:13.000Z</time>
      </trkpt>
      <trkpt lat="45.20914" lon="6.21931">
        <ele>1913.9</ele>
        <time>2020-07-19T13:53:14.000Z</time>
      </trkpt>
      <trkpt lat="45.20916" lon="6.21937">
        <ele>1913.2</ele>
        <time>2020-07-19T13:53:15.000Z</time>
      </trkpt>
      <trkpt lat="45.20918" lon="6.21943">
        <ele>1910.9</ele>
        <time>2020-07-19T13:53:16.000Z</time>
      </trkpt>
      <trkpt lat="45.20919" lon="6.21948">
        <ele>1909.8</ele>
        <time>2020-07-19T13:53:17.000Z</time>
      </trkpt>
      <trkpt lat="45.2092" lon="6.21954">
        <ele>1907.9</ele>
        <time>2020-07-19T13:53:18.000Z</time>
      </trkpt>
      <trkpt lat="45.2092" lon="6.21959">
        <ele>1907.2</ele>
        <time>2020-07-19T13:53:19.000Z</time>
      </trkpt>
      <trkpt lat="45.20919" lon="6.21963">
        <ele>1905.8</ele>
        <time>2020-07-19T13:53:20.000Z</time>
      </trkpt>
      <trkpt lat="45.20918" lon="6.21967">
        <ele>1903.9</ele>
        <time>2020-07-19T13:53:21.000Z</time>
      </trkpt>
      <trkpt lat="45.2092" lon="6.2197">
        <ele>1902.9</ele>
        <time>2020-07-19T13:53:22.000Z</time>
      </trkpt>
      <trkpt lat="45.20924" lon="6.21972">
        <ele>1901.9</ele>
        <time>2020-07-19T13:53:23.000Z</time>
      </trkpt>
      <trkpt lat="45.20928" lon="6.21973">
        <ele>1901</ele>
        <time>2020-07-19T13:53:24.000Z</time>
      </trkpt>
      <trkpt lat="45.20932" lon="6.21976">
        <ele>1900.9</ele>
        <time>2020-07-19T13:53:25.000Z</time>
      </trkpt>
      <trkpt lat="45.20935" lon="6.2198">
        <ele>1899.9</ele>
        <time>2020-07-19T13:53:26.000Z</time>
      </trkpt>
      <trkpt lat="45.20935" lon="6.21985">
        <ele>1899</ele>
        <time>2020-07-19T13:53:27.000Z</time>
      </trkpt>
      <trkpt lat="45.20933" lon="6.21989">
        <ele>1898.9</ele>
        <time>2020-07-19T13:53:28.000Z</time>
      </trkpt>
      <trkpt lat="45.20931" lon="6.21994">
        <ele>1898.2</ele>
        <time>2020-07-19T13:53:29.000Z</time>
      </trkpt>
      <trkpt lat="45.2093" lon="6.21998">
        <ele>1895.9</ele>
        <time>2020-07-19T13:53:30.000Z</time>
      </trkpt>
      <trkpt lat="45.20931" lon="6.22003">
        <ele>1894.9</ele>
        <time>2020-07-19T13:53:31.000Z</time>
      </trkpt>
      <trkpt lat="45.20933" lon="6.22008">
        <ele>1893.9</ele>
        <time>2020-07-19T13:53:32.000Z</time>
      </trkpt>
      <trkpt lat="45.20934" lon="6.22013">
        <ele>1892.9</ele>
        <time>2020-07-19T13:53:33.000Z</time>
      </trkpt>
      <trkpt lat="45.20935" lon="6.22019">
        <ele>1891.8</ele>
        <time>2020-07-19T13:53:34.000Z</time>
      </trkpt>
      <trkpt lat="45.20937" lon="6.22026">
        <ele>1890</ele>
        <time>2020-07-19T13:53:35.000Z</time>
      </trkpt>
      <trkpt lat="45.20939" lon="6.22031">
        <ele>1889.9</ele>
        <time>2020-07-19T13:53:36.000Z</time>
      </trkpt>
      <trkpt lat="45.20941" lon="6.22036">
        <ele>1888.9</ele>
        <time>2020-07-19T13:53:37.000Z</time>
      </trkpt>
      <trkpt lat="45.20941" lon="6.2204">
        <ele>1888.2</ele>
        <time>2020-07-19T13:53:38.000Z</time>
      </trkpt>
      <trkpt lat="45.20939" lon="6.22045">
        <ele>1886.8</ele>
        <time>2020-07-19T13:53:39.000Z</time>
      </trkpt>
      <trkpt lat="45.20937" lon="6.2205">
        <ele>1884.9</ele>
        <time>2020-07-19T13:53:40.000Z</time>
      </trkpt>
      <trkpt lat="45.20937" lon="6.22056">
        <ele>1884.2</ele>
        <time>2020-07-19T13:53:41.000Z</time>
      </trkpt>
      <trkpt lat="45.20939" lon="6.22061">
        <ele>1882.9</ele>
        <time>2020-07-19T13:53:42.000Z</time>
      </trkpt>
      <trkpt lat="45.20941" lon="6.22066">
        <ele>1881.9</ele>
        <time>2020-07-19T13:53:43.000Z</time>
      </trkpt>
      <trkpt lat="45.20942" lon="6.22071">
        <ele>1880.9</ele>
        <time>2020-07-19T13:53:44.000Z</time>
      </trkpt>
      <trkpt lat="45.20941" lon="6.22075">
        <ele>1879.9</ele>
        <time>2020-07-19T13:53:45.000Z</time>
      </trkpt>
      <trkpt lat="45.20937" lon="6.22077">
        <ele>1878.8</ele>
        <time>2020-07-19T13:53:46.000Z</time>
      </trkpt>
      <trkpt lat="45.20932" lon="6.2208">
        <ele>1876.9</ele>
        <time>2020-07-19T13:53:47.000Z</time>
      </trkpt>
      <trkpt lat="45.2093" lon="6.22082">
        <ele>1875.9</ele>
        <time>2020-07-19T13:53:48.000Z</time>
      </trkpt>
      <trkpt lat="45.20929" lon="6.22087">
        <ele>1874.9</ele>
        <time>2020-07-19T13:53:49.000Z</time>
      </trkpt>
      <trkpt lat="45.20928" lon="6.22093">
        <ele>1873.9</ele>
        <time>2020-07-19T13:53:50.000Z</time>
      </trkpt>
      <trkpt lat="45.20926" lon="6.22099">
        <ele>1872.9</ele>
        <time>2020-07-19T13:53:51.000Z</time>
      </trkpt>
      <trkpt lat="45.20924" lon="6.22104">
        <ele>1871.9</ele>
        <time>2020-07-19T13:53:52.000Z</time>
      </trkpt>
      <trkpt lat="45.20923" lon="6.22108">
        <ele>1870.9</ele>
        <time>2020-07-19T13:53:53.000Z</time>
      </trkpt>
      <trkpt lat="45.20922" lon="6.22113">
        <ele>1869.3</ele>
        <time>2020-07-19T13:53:54.000Z</time>
      </trkpt>
      <trkpt lat="45.2092" lon="6.22117">
        <ele>1867.9</ele>
        <time>2020-07-19T13:53:55.000Z</time>
      </trkpt>
      <trkpt lat="45.20917" lon="6.2212">
        <ele>1866.9</ele>
        <time>2020-07-19T13:53:56.000Z</time>
      </trkpt>
      <trkpt lat="45.20917" lon="6.22124">
        <ele>1866.2</ele>
        <time>2020-07-19T13:53:57.000Z</time>
      </trkpt>
      <trkpt lat="45.20918" lon="6.22128">
        <ele>1864.9</ele>
        <time>2020-07-19T13:53:58.000Z</time>
      </trkpt>
      <trkpt lat="45.20919" lon="6.22132">
        <ele>1863.9</ele>
        <time>2020-07-19T13:53:59.000Z</time>
      </trkpt>
      <trkpt lat="45.2092" lon="6.22138">
        <ele>1862.9</ele>
        <time>2020-07-19T13:54:00.000Z</time>
      </trkpt>
      <trkpt lat="45.20921" lon="6.22142">
        <ele>1861.1</ele>
        <time>2020-07-19T13:54:01.000Z</time>
      </trkpt>
      <trkpt lat="45.20924" lon="6.22145">
        <ele>1859</ele>
        <time>2020-07-19T13:54:02.000Z</time>
      </trkpt>
      <trkpt lat="45.20926" lon="6.22148">
        <ele>1858.9</ele>
        <time>2020-07-19T13:54:03.000Z</time>
      </trkpt>
      <trkpt lat="45.20929" lon="6.2215">
        <ele>1857.8</ele>
        <time>2020-07-19T13:54:04.000Z</time>
      </trkpt>
      <trkpt lat="45.20931" lon="6.22153">
        <ele>1855.9</ele>
        <time>2020-07-19T13:54:05.000Z</time>
      </trkpt>
      <trkpt lat="45.20934" lon="6.22158">
        <ele>1854.8</ele>
        <time>2020-07-19T13:54:06.000Z</time>
      </trkpt>
      <trkpt lat="45.20937" lon="6.22161">
        <ele>1852.9</ele>
        <time>2020-07-19T13:54:07.000Z</time>
      </trkpt>
      <trkpt lat="45.20941" lon="6.22163">
        <ele>1852</ele>
        <time>2020-07-19T13:54:08.000Z</time>
      </trkpt>
      <trkpt lat="45.20944" lon="6.22167">
        <ele>1852</ele>
        <time>2020-07-19T13:54:09.000Z</time>
      </trkpt>
      <trkpt lat="45.20948" lon="6.22171">
        <ele>1850.9</ele>
        <time>2020-07-19T13:54:10.000Z</time>
      </trkpt>
      <trkpt lat="45.20953" lon="6.22175">
        <ele>1849.9</ele>
        <time>2020-07-19T13:54:11.000Z</time>
      </trkpt>
      <trkpt lat="45.20958" lon="6.22178">
        <ele>1849</ele>
        <time>2020-07-19T13:54:12.000Z</time>
      </trkpt>
      <trkpt lat="45.20964" lon="6.22182">
        <ele>1849</ele>
        <time>2020-07-19T13:54:13.000Z</time>
      </trkpt>
      <trkpt lat="45.2097" lon="6.22185">
        <ele>1848.9</ele>
        <time>2020-07-19T13:54:14.000Z</time>
      </trkpt>
      <trkpt lat="45.20973" lon="6.22186">
        <ele>1847.9</ele>
        <time>2020-07-19T13:54:15.000Z</time>
      </trkpt>
      <trkpt lat="45.20976" lon="6.22186">
        <ele>1847.2</ele>
        <time>2020-07-19T13:54:16.000Z</time>
      </trkpt>
      <trkpt lat="45.20979" lon="6.22187">
        <ele>1845.9</ele>
        <time>2020-07-19T13:54:17.000Z</time>
      </trkpt>
      <trkpt lat="45.20982" lon="6.22189">
        <ele>1844.8</ele>
        <time>2020-07-19T13:54:18.000Z</time>
      </trkpt>
      <trkpt lat="45.20985" lon="6.22192">
        <ele>1842.9</ele>
        <time>2020-07-19T13:54:19.000Z</time>
      </trkpt>
      <trkpt lat="45.20988" lon="6.22195">
        <ele>1842.2</ele>
        <time>2020-07-19T13:54:20.000Z</time>
      </trkpt>
      <trkpt lat="45.20992" lon="6.22197">
        <ele>1841</ele>
        <time>2020-07-19T13:54:21.000Z</time>
      </trkpt>
      <trkpt lat="45.20996" lon="6.22197">
        <ele>1840.9</ele>
        <time>2020-07-19T13:54:22.000Z</time>
      </trkpt>
      <trkpt lat="45.21001" lon="6.22197">
        <ele>1840</ele>
        <time>2020-07-19T13:54:23.000Z</time>
      </trkpt>
      <trkpt lat="45.21005" lon="6.22198">
        <ele>1839.9</ele>
        <time>2020-07-19T13:54:24.000Z</time>
      </trkpt>
      <trkpt lat="45.21009" lon="6.222">
        <ele>1838.9</ele>
        <time>2020-07-19T13:54:25.000Z</time>
      </trkpt>
      <trkpt lat="45.21011" lon="6.22202">
        <ele>1838</ele>
        <time>2020-07-19T13:54:26.000Z</time>
      </trkpt>
      <trkpt lat="45.21011" lon="6.22204">
        <ele>1837.9</ele>
        <time>2020-07-19T13:54:27.000Z</time>
      </trkpt>
      <trkpt lat="45.2101" lon="6.22207">
        <ele>1836.9</ele>
        <time>2020-07-19T13:54:28.000Z</time>
      </trkpt>
      <trkpt lat="45.21008" lon="6.2221">
        <ele>1835.9</ele>
        <time>2020-07-19T13:54:29.000Z</time>
      </trkpt>
      <trkpt lat="45.21005" lon="6.22213">
        <ele>1834.9</ele>
        <time>2020-07-19T13:54:30.000Z</time>
      </trkpt>
      <trkpt lat="45.21004" lon="6.22217">
        <ele>1833.9</ele>
        <time>2020-07-19T13:54:31.000Z</time>
      </trkpt>
      <trkpt lat="45.21004" lon="6.2222">
        <ele>1832.9</ele>
        <time>2020-07-19T13:54:32.000Z</time>
      </trkpt>
      <trkpt lat="45.21006" lon="6.22222">
        <ele>1831.9</ele>
        <time>2020-07-19T13:54:33.000Z</time>
      </trkpt>
      <trkpt lat="45.21009" lon="6.22224">
        <ele>1831</ele>
        <time>2020-07-19T13:54:34.000Z</time>
      </trkpt>
      <trkpt lat="45.21011" lon="6.22227">
        <ele>1830.3</ele>
        <time>2020-07-19T13:54:35.000Z</time>
      </trkpt>
      <trkpt lat="45.21011" lon="6.22232">
        <ele>1828.8</ele>
        <time>2020-07-19T13:54:36.000Z</time>
      </trkpt>
      <trkpt lat="45.21012" lon="6.22238">
        <ele>1826.9</ele>
        <time>2020-07-19T13:54:37.000Z</time>
      </trkpt>
      <trkpt lat="45.21012" lon="6.22244">
        <ele>1825.9</ele>
        <time>2020-07-19T13:54:38.000Z</time>
      </trkpt>
      <trkpt lat="45.21011" lon="6.2225">
        <ele>1825</ele>
        <time>2020-07-19T13:54:39.000Z</time>
      </trkpt>
      <trkpt lat="45.21009" lon="6.22256">
        <ele>1824.9</ele>
        <time>2020-07-19T13:54:40.000Z</time>
      </trkpt>
      <trkpt lat="45.21007" lon="6.2226">
        <ele>1823.9</ele>
        <time>2020-07-19T13:54:41.000Z</time>
      </trkpt>
      <trkpt lat="45.21005" lon="6.22265">
        <ele>1822.9</ele>
        <time>2020-07-19T13:54:42.000Z</time>
      </trkpt>
      <trkpt lat="45.21004" lon="6.2227">
        <ele>1821.9</ele>
        <time>2020-07-19T13:54:43.000Z</time>
      </trkpt>
      <trkpt lat="45.21003" lon="6.22274">
        <ele>1820.8</ele>
        <time>2020-07-19T13:54:44.000Z</time>
      </trkpt>
      <trkpt lat="45.21002" lon="6.22278">
        <ele>1818.9</ele>
        <time>2020-07-19T13:54:45.000Z</time>
      </trkpt>
      <trkpt lat="45.21" lon="6.22282">
        <ele>1818</ele>
        <time>2020-07-19T13:54:46.000Z</time>
      </trkpt>
      <trkpt lat="45.20997" lon="6.22286">
        <ele>1817.9</ele>
        <time>2020-07-19T13:54:47.000Z</time>
      </trkpt>
      <trkpt lat="45.20995" lon="6.2229">
        <ele>1816.9</ele>
        <time>2020-07-19T13:54:48.000Z</time>
      </trkpt>
      <trkpt lat="45.20997" lon="6.22287">
        <ele>1814.9</ele>
        <time>2020-07-19T13:54:52.000Z</time>
      </trkpt>
      <trkpt lat="45.20996" lon="6.22284">
        <ele>1814</ele>
        <time>2020-07-19T13:54:54.000Z</time>
      </trkpt>
      <trkpt lat="45.20997" lon="6.22282">
        <ele>1813</ele>
        <time>2020-07-19T13:55:02.000Z</time>
      </trkpt>
      <trkpt lat="45.20998" lon="6.22279">
        <ele>1813</ele>
        <time>2020-07-19T13:55:09.000Z</time>
      </trkpt>
      <trkpt lat="45.20999" lon="6.22277">
        <ele>1813</ele>
        <time>2020-07-19T13:55:12.000Z</time>
      </trkpt>
      <trkpt lat="45.21002" lon="6.22275">
        <ele>1813</ele>
        <time>2020-07-19T13:55:53.000Z</time>
      </trkpt>
      <trkpt lat="45.21004" lon="6.22274">
        <ele>1813</ele>
        <time>2020-07-19T13:55:54.000Z</time>
      </trkpt>
      <trkpt lat="45.21007" lon="6.22273">
        <ele>1813</ele>
        <time>2020-07-19T13:55:55.000Z</time>
      </trkpt>
      <trkpt lat="45.2101" lon="6.22273">
        <ele>1813</ele>
        <time>2020-07-19T13:55:56.000Z</time>
      </trkpt>
      <trkpt lat="45.21013" lon="6.22272">
        <ele>1813</ele>
        <time>2020-07-19T13:55:57.000Z</time>
      </trkpt>
      <trkpt lat="45.21017" lon="6.22271">
        <ele>1813</ele>
        <time>2020-07-19T13:55:58.000Z</time>
      </trkpt>
      <trkpt lat="45.21021" lon="6.22268">
        <ele>1812.9</ele>
        <time>2020-07-19T13:55:59.000Z</time>
      </trkpt>
      <trkpt lat="45.21025" lon="6.22265">
        <ele>1812</ele>
        <time>2020-07-19T13:56:00.000Z</time>
      </trkpt>
      <trkpt lat="45.21029" lon="6.22262">
        <ele>1812</ele>
        <time>2020-07-19T13:56:01.000Z</time>
      </trkpt>
      <trkpt lat="45.21032" lon="6.22258">
        <ele>1812</ele>
        <time>2020-07-19T13:56:02.000Z</time>
      </trkpt>
      <trkpt lat="45.21036" lon="6.22255">
        <ele>1812</ele>
        <time>2020-07-19T13:56:03.000Z</time>
      </trkpt>
      <trkpt lat="45.21041" lon="6.22251">
        <ele>1811</ele>
        <time>2020-07-19T13:56:04.000Z</time>
      </trkpt>
      <trkpt lat="45.21046" lon="6.22247">
        <ele>1810.9</ele>
        <time>2020-07-19T13:56:05.000Z</time>
      </trkpt>
      <trkpt lat="45.21051" lon="6.22243">
        <ele>1810</ele>
        <time>2020-07-19T13:56:06.000Z</time>
      </trkpt>
      <trkpt lat="45.21057" lon="6.22239">
        <ele>1809.9</ele>
        <time>2020-07-19T13:56:07.000Z</time>
      </trkpt>
      <trkpt lat="45.21063" lon="6.22235">
        <ele>1808.9</ele>
        <time>2020-07-19T13:56:08.000Z</time>
      </trkpt>
      <trkpt lat="45.21069" lon="6.2223">
        <ele>1808</ele>
        <time>2020-07-19T13:56:09.000Z</time>
      </trkpt>
      <trkpt lat="45.21075" lon="6.22225">
        <ele>1808</ele>
        <time>2020-07-19T13:56:10.000Z</time>
      </trkpt>
      <trkpt lat="45.21081" lon="6.22221">
        <ele>1808</ele>
        <time>2020-07-19T13:56:11.000Z</time>
      </trkpt>
      <trkpt lat="45.21088" lon="6.22216">
        <ele>1807</ele>
        <time>2020-07-19T13:56:12.000Z</time>
      </trkpt>
      <trkpt lat="45.21094" lon="6.22211">
        <ele>1806.9</ele>
        <time>2020-07-19T13:56:13.000Z</time>
      </trkpt>
      <trkpt lat="45.21101" lon="6.22205">
        <ele>1806</ele>
        <time>2020-07-19T13:56:14.000Z</time>
      </trkpt>
      <trkpt lat="45.21107" lon="6.22198">
        <ele>1805.9</ele>
        <time>2020-07-19T13:56:15.000Z</time>
      </trkpt>
      <trkpt lat="45.21113" lon="6.2219">
        <ele>1805</ele>
        <time>2020-07-19T13:56:16.000Z</time>
      </trkpt>
      <trkpt lat="45.21118" lon="6.22183">
        <ele>1805</ele>
        <time>2020-07-19T13:56:17.000Z</time>
      </trkpt>
      <trkpt lat="45.21123" lon="6.22176">
        <ele>1804</ele>
        <time>2020-07-19T13:56:18.000Z</time>
      </trkpt>
      <trkpt lat="45.21127" lon="6.2217">
        <ele>1803.9</ele>
        <time>2020-07-19T13:56:19.000Z</time>
      </trkpt>
      <trkpt lat="45.21132" lon="6.22164">
        <ele>1802.9</ele>
        <time>2020-07-19T13:56:20.000Z</time>
      </trkpt>
      <trkpt lat="45.21137" lon="6.22159">
        <ele>1801.9</ele>
        <time>2020-07-19T13:56:21.000Z</time>
      </trkpt>
      <trkpt lat="45.21144" lon="6.22155">
        <ele>1800.9</ele>
        <time>2020-07-19T13:56:22.000Z</time>
      </trkpt>
      <trkpt lat="45.2115" lon="6.22152">
        <ele>1799.9</ele>
        <time>2020-07-19T13:56:23.000Z</time>
      </trkpt>
      <trkpt lat="45.21156" lon="6.22148">
        <ele>1798.9</ele>
        <time>2020-07-19T13:56:24.000Z</time>
      </trkpt>
      <trkpt lat="45.21162" lon="6.22144">
        <ele>1798.2</ele>
        <time>2020-07-19T13:56:25.000Z</time>
      </trkpt>
      <trkpt lat="45.21167" lon="6.22138">
        <ele>1796.9</ele>
        <time>2020-07-19T13:56:26.000Z</time>
      </trkpt>
      <trkpt lat="45.21172" lon="6.22132">
        <ele>1796</ele>
        <time>2020-07-19T13:56:27.000Z</time>
      </trkpt>
      <trkpt lat="45.21177" lon="6.22126">
        <ele>1795.9</ele>
        <time>2020-07-19T13:56:28.000Z</time>
      </trkpt>
      <trkpt lat="45.21183" lon="6.2212">
        <ele>1795.2</ele>
        <time>2020-07-19T13:56:29.000Z</time>
      </trkpt>
      <trkpt lat="45.2119" lon="6.22115">
        <ele>1794.9</ele>
        <time>2020-07-19T13:56:30.000Z</time>
      </trkpt>
      <trkpt lat="45.21197" lon="6.22111">
        <ele>1793.9</ele>
        <time>2020-07-19T13:56:31.000Z</time>
      </trkpt>
      <trkpt lat="45.21205" lon="6.22109">
        <ele>1792.4</ele>
        <time>2020-07-19T13:56:32.000Z</time>
      </trkpt>
      <trkpt lat="45.21213" lon="6.22107">
        <ele>1790.8</ele>
        <time>2020-07-19T13:56:33.000Z</time>
      </trkpt>
      <trkpt lat="45.21223" lon="6.22106">
        <ele>1787.9</ele>
        <time>2020-07-19T13:56:34.000Z</time>
      </trkpt>
      <trkpt lat="45.21233" lon="6.22106">
        <ele>1786.9</ele>
        <time>2020-07-19T13:56:35.000Z</time>
      </trkpt>
      <trkpt lat="45.21244" lon="6.22106">
        <ele>1785.9</ele>
        <time>2020-07-19T13:56:36.000Z</time>
      </trkpt>
      <trkpt lat="45.21254" lon="6.22106">
        <ele>1785.2</ele>
        <time>2020-07-19T13:56:37.000Z</time>
      </trkpt>
      <trkpt lat="45.21264" lon="6.22105">
        <ele>1783.9</ele>
        <time>2020-07-19T13:56:38.000Z</time>
      </trkpt>
      <trkpt lat="45.21275" lon="6.22104">
        <ele>1782.9</ele>
        <time>2020-07-19T13:56:39.000Z</time>
      </trkpt>
      <trkpt lat="45.21286" lon="6.22102">
        <ele>1781.9</ele>
        <time>2020-07-19T13:56:40.000Z</time>
      </trkpt>
      <trkpt lat="45.21296" lon="6.22099">
        <ele>1780.9</ele>
        <time>2020-07-19T13:56:41.000Z</time>
      </trkpt>
      <trkpt lat="45.21307" lon="6.22097">
        <ele>1780.2</ele>
        <time>2020-07-19T13:56:42.000Z</time>
      </trkpt>
      <trkpt lat="45.21315" lon="6.22094">
        <ele>1780</ele>
        <time>2020-07-19T13:56:43.000Z</time>
      </trkpt>
      <trkpt lat="45.21323" lon="6.22092">
        <ele>1780</ele>
        <time>2020-07-19T13:56:44.000Z</time>
      </trkpt>
      <trkpt lat="45.21328" lon="6.22092">
        <ele>1780</ele>
        <time>2020-07-19T13:56:45.000Z</time>
      </trkpt>
      <trkpt lat="45.21331" lon="6.22094">
        <ele>1779.9</ele>
        <time>2020-07-19T13:56:46.000Z</time>
      </trkpt>
      <trkpt lat="45.21333" lon="6.22096">
        <ele>1779</ele>
        <time>2020-07-19T13:56:47.000Z</time>
      </trkpt>
      <trkpt lat="45.21334" lon="6.22099">
        <ele>1779</ele>
        <time>2020-07-19T13:56:48.000Z</time>
      </trkpt>
      <trkpt lat="45.21334" lon="6.22101">
        <ele>1778</ele>
        <time>2020-07-19T13:56:49.000Z</time>
      </trkpt>
      <trkpt lat="45.21335" lon="6.22104">
        <ele>1777.9</ele>
        <time>2020-07-19T13:56:50.000Z</time>
      </trkpt>
      <trkpt lat="45.21335" lon="6.22107">
        <ele>1777</ele>
        <time>2020-07-19T13:56:51.000Z</time>
      </trkpt>
      <trkpt lat="45.21334" lon="6.22111">
        <ele>1776</ele>
        <time>2020-07-19T13:56:53.000Z</time>
      </trkpt>
      <trkpt lat="45.21333" lon="6.22113">
        <ele>1776</ele>
        <time>2020-07-19T13:56:55.000Z</time>
      </trkpt>
      <trkpt lat="45.21332" lon="6.22119">
        <ele>1774.9</ele>
        <time>2020-07-19T13:56:57.000Z</time>
      </trkpt>
      <trkpt lat="45.21331" lon="6.22122">
        <ele>1774</ele>
        <time>2020-07-19T13:56:58.000Z</time>
      </trkpt>
      <trkpt lat="45.2133" lon="6.22125">
        <ele>1773</ele>
        <time>2020-07-19T13:57:00.000Z</time>
      </trkpt>
      <trkpt lat="45.21331" lon="6.22129">
        <ele>1772</ele>
        <time>2020-07-19T13:57:02.000Z</time>
      </trkpt>
      <trkpt lat="45.21332" lon="6.22133">
        <ele>1772</ele>
        <time>2020-07-19T13:57:03.000Z</time>
      </trkpt>
      <trkpt lat="45.21335" lon="6.22138">
        <ele>1771.9</ele>
        <time>2020-07-19T13:57:04.000Z</time>
      </trkpt>
      <trkpt lat="45.21339" lon="6.22141">
        <ele>1771</ele>
        <time>2020-07-19T13:57:05.000Z</time>
      </trkpt>
      <trkpt lat="45.21344" lon="6.2214">
        <ele>1771</ele>
        <time>2020-07-19T13:57:06.000Z</time>
      </trkpt>
      <trkpt lat="45.2135" lon="6.22138">
        <ele>1771</ele>
        <time>2020-07-19T13:57:07.000Z</time>
      </trkpt>
      <trkpt lat="45.21355" lon="6.22136">
        <ele>1771</ele>
        <time>2020-07-19T13:57:08.000Z</time>
      </trkpt>
      <trkpt lat="45.2136" lon="6.22135">
        <ele>1770.9</ele>
        <time>2020-07-19T13:57:09.000Z</time>
      </trkpt>
      <trkpt lat="45.21364" lon="6.22135">
        <ele>1770</ele>
        <time>2020-07-19T13:57:10.000Z</time>
      </trkpt>
      <trkpt lat="45.21369" lon="6.22135">
        <ele>1769.9</ele>
        <time>2020-07-19T13:57:11.000Z</time>
      </trkpt>
      <trkpt lat="45.21373" lon="6.22136">
        <ele>1769.2</ele>
        <time>2020-07-19T13:57:12.000Z</time>
      </trkpt>
      <trkpt lat="45.21375" lon="6.22137">
        <ele>1767.9</ele>
        <time>2020-07-19T13:57:13.000Z</time>
      </trkpt>
      <trkpt lat="45.21377" lon="6.22139">
        <ele>1766.9</ele>
        <time>2020-07-19T13:57:14.000Z</time>
      </trkpt>
      <trkpt lat="45.21377" lon="6.22145">
        <ele>1764.9</ele>
        <time>2020-07-19T13:57:16.000Z</time>
      </trkpt>
      <trkpt lat="45.21377" lon="6.2215">
        <ele>1763.9</ele>
        <time>2020-07-19T13:57:17.000Z</time>
      </trkpt>
      <trkpt lat="45.21375" lon="6.22154">
        <ele>1762.9</ele>
        <time>2020-07-19T13:57:18.000Z</time>
      </trkpt>
      <trkpt lat="45.21374" lon="6.22157">
        <ele>1761.9</ele>
        <time>2020-07-19T13:57:19.000Z</time>
      </trkpt>
      <trkpt lat="45.21372" lon="6.22157">
        <ele>1758</ele>
        <time>2020-07-19T13:57:35.000Z</time>
      </trkpt>
      <trkpt lat="45.2137" lon="6.22156">
        <ele>1758</ele>
        <time>2020-07-19T13:57:37.000Z</time>
      </trkpt>
      <trkpt lat="45.21366" lon="6.22158">
        <ele>1758</ele>
        <time>2020-07-19T13:58:35.000Z</time>
      </trkpt>
      <trkpt lat="45.21364" lon="6.22159">
        <ele>1758</ele>
        <time>2020-07-19T13:58:36.000Z</time>
      </trkpt>
      <trkpt lat="45.21362" lon="6.22161">
        <ele>1758</ele>
        <time>2020-07-19T13:58:37.000Z</time>
      </trkpt>
      <trkpt lat="45.2136" lon="6.22163">
        <ele>1758</ele>
        <time>2020-07-19T13:58:38.000Z</time>
      </trkpt>
      <trkpt lat="45.21357" lon="6.22165">
        <ele>1758</ele>
        <time>2020-07-19T13:58:39.000Z</time>
      </trkpt>
      <trkpt lat="45.21355" lon="6.22168">
        <ele>1757.9</ele>
        <time>2020-07-19T13:58:40.000Z</time>
      </trkpt>
      <trkpt lat="45.21352" lon="6.22171">
        <ele>1756.9</ele>
        <time>2020-07-19T13:58:41.000Z</time>
      </trkpt>
      <trkpt lat="45.21348" lon="6.22175">
        <ele>1756.2</ele>
        <time>2020-07-19T13:58:42.000Z</time>
      </trkpt>
      <trkpt lat="45.21345" lon="6.22179">
        <ele>1755.2</ele>
        <time>2020-07-19T13:58:43.000Z</time>
      </trkpt>
      <trkpt lat="45.21342" lon="6.22184">
        <ele>1752.9</ele>
        <time>2020-07-19T13:58:44.000Z</time>
      </trkpt>
      <trkpt lat="45.2134" lon="6.22189">
        <ele>1751.9</ele>
        <time>2020-07-19T13:58:45.000Z</time>
      </trkpt>
      <trkpt lat="45.21337" lon="6.22194">
        <ele>1750.9</ele>
        <time>2020-07-19T13:58:46.000Z</time>
      </trkpt>
      <trkpt lat="45.21333" lon="6.22197">
        <ele>1749.9</ele>
        <time>2020-07-19T13:58:47.000Z</time>
      </trkpt>
      <trkpt lat="45.21329" lon="6.22199">
        <ele>1749</ele>
        <time>2020-07-19T13:58:48.000Z</time>
      </trkpt>
      <trkpt lat="45.21327" lon="6.22202">
        <ele>1748.9</ele>
        <time>2020-07-19T13:58:49.000Z</time>
      </trkpt>
      <trkpt lat="45.21326" lon="6.22205">
        <ele>1747.9</ele>
        <time>2020-07-19T13:58:50.000Z</time>
      </trkpt>
      <trkpt lat="45.21325" lon="6.22209">
        <ele>1746.9</ele>
        <time>2020-07-19T13:58:51.000Z</time>
      </trkpt>
      <trkpt lat="45.21323" lon="6.22212">
        <ele>1745.8</ele>
        <time>2020-07-19T13:58:52.000Z</time>
      </trkpt>
      <trkpt lat="45.2132" lon="6.22215">
        <ele>1743.9</ele>
        <time>2020-07-19T13:58:53.000Z</time>
      </trkpt>
      <trkpt lat="45.21317" lon="6.22218">
        <ele>1743</ele>
        <time>2020-07-19T13:58:54.000Z</time>
      </trkpt>
      <trkpt lat="45.21313" lon="6.22221">
        <ele>1743</ele>
        <time>2020-07-19T13:58:55.000Z</time>
      </trkpt>
      <trkpt lat="45.21309" lon="6.22224">
        <ele>1743</ele>
        <time>2020-07-19T13:58:56.000Z</time>
      </trkpt>
      <trkpt lat="45.21307" lon="6.22226">
        <ele>1742.9</ele>
        <time>2020-07-19T13:58:57.000Z</time>
      </trkpt>
      <trkpt lat="45.21306" lon="6.2223">
        <ele>1741.9</ele>
        <time>2020-07-19T13:58:58.000Z</time>
      </trkpt>
      <trkpt lat="45.21307" lon="6.22233">
        <ele>1740.9</ele>
        <time>2020-07-19T13:58:59.000Z</time>
      </trkpt>
      <trkpt lat="45.21307" lon="6.22238">
        <ele>1739.9</ele>
        <time>2020-07-19T13:59:00.000Z</time>
      </trkpt>
      <trkpt lat="45.21306" lon="6.22242">
        <ele>1739.2</ele>
        <time>2020-07-19T13:59:01.000Z</time>
      </trkpt>
      <trkpt lat="45.21304" lon="6.22245">
        <ele>1736.9</ele>
        <time>2020-07-19T13:59:02.000Z</time>
      </trkpt>
      <trkpt lat="45.21301" lon="6.2225">
        <ele>1735.9</ele>
        <time>2020-07-19T13:59:03.000Z</time>
      </trkpt>
      <trkpt lat="45.21296" lon="6.22256">
        <ele>1734.9</ele>
        <time>2020-07-19T13:59:04.000Z</time>
      </trkpt>
      <trkpt lat="45.21292" lon="6.22259">
        <ele>1734</ele>
        <time>2020-07-19T13:59:05.000Z</time>
      </trkpt>
      <trkpt lat="45.21288" lon="6.22263">
        <ele>1733.9</ele>
        <time>2020-07-19T13:59:06.000Z</time>
      </trkpt>
      <trkpt lat="45.21284" lon="6.22269">
        <ele>1732.9</ele>
        <time>2020-07-19T13:59:07.000Z</time>
      </trkpt>
      <trkpt lat="45.2128" lon="6.22274">
        <ele>1732.2</ele>
        <time>2020-07-19T13:59:08.000Z</time>
      </trkpt>
      <trkpt lat="45.21275" lon="6.22279">
        <ele>1730.9</ele>
        <time>2020-07-19T13:59:09.000Z</time>
      </trkpt>
      <trkpt lat="45.21271" lon="6.22282">
        <ele>1730</ele>
        <time>2020-07-19T13:59:10.000Z</time>
      </trkpt>
      <trkpt lat="45.21267" lon="6.22284">
        <ele>1730</ele>
        <time>2020-07-19T13:59:11.000Z</time>
      </trkpt>
      <trkpt lat="45.21263" lon="6.22287">
        <ele>1729.9</ele>
        <time>2020-07-19T13:59:12.000Z</time>
      </trkpt>
      <trkpt lat="45.2126" lon="6.22289">
        <ele>1728.9</ele>
        <time>2020-07-19T13:59:13.000Z</time>
      </trkpt>
      <trkpt lat="45.21258" lon="6.22292">
        <ele>1728</ele>
        <time>2020-07-19T13:59:14.000Z</time>
      </trkpt>
      <trkpt lat="45.21255" lon="6.22297">
        <ele>1727.9</ele>
        <time>2020-07-19T13:59:15.000Z</time>
      </trkpt>
      <trkpt lat="45.21252" lon="6.22301">
        <ele>1726.9</ele>
        <time>2020-07-19T13:59:16.000Z</time>
      </trkpt>
      <trkpt lat="45.2125" lon="6.22305">
        <ele>1725.9</ele>
        <time>2020-07-19T13:59:17.000Z</time>
      </trkpt>
      <trkpt lat="45.21248" lon="6.2231">
        <ele>1724.9</ele>
        <time>2020-07-19T13:59:18.000Z</time>
      </trkpt>
      <trkpt lat="45.21249" lon="6.22313">
        <ele>1724</ele>
        <time>2020-07-19T13:59:19.000Z</time>
      </trkpt>
      <trkpt lat="45.21251" lon="6.22317">
        <ele>1723.3</ele>
        <time>2020-07-19T13:59:20.000Z</time>
      </trkpt>
      <trkpt lat="45.21254" lon="6.2232">
        <ele>1721.8</ele>
        <time>2020-07-19T13:59:21.000Z</time>
      </trkpt>
      <trkpt lat="45.21257" lon="6.22324">
        <ele>1719.9</ele>
        <time>2020-07-19T13:59:22.000Z</time>
      </trkpt>
      <trkpt lat="45.21258" lon="6.22329">
        <ele>1718.8</ele>
        <time>2020-07-19T13:59:23.000Z</time>
      </trkpt>
      <trkpt lat="45.2126" lon="6.22334">
        <ele>1716.9</ele>
        <time>2020-07-19T13:59:24.000Z</time>
      </trkpt>
      <trkpt lat="45.21264" lon="6.2234">
        <ele>1715.9</ele>
        <time>2020-07-19T13:59:25.000Z</time>
      </trkpt>
      <trkpt lat="45.21273" lon="6.22348">
        <ele>1711.9</ele>
        <time>2020-07-19T13:59:28.000Z</time>
      </trkpt>
      <trkpt lat="45.21275" lon="6.22349">
        <ele>1710.9</ele>
        <time>2020-07-19T13:59:29.000Z</time>
      </trkpt>
      <trkpt lat="45.21277" lon="6.22349">
        <ele>1710</ele>
        <time>2020-07-19T13:59:31.000Z</time>
      </trkpt>
      <trkpt lat="45.21278" lon="6.22346">
        <ele>1709</ele>
        <time>2020-07-19T13:59:35.000Z</time>
      </trkpt>
      <trkpt lat="45.21278" lon="6.22344">
        <ele>1708</ele>
        <time>2020-07-19T14:00:19.000Z</time>
      </trkpt>
      <trkpt lat="45.21277" lon="6.22342">
        <ele>1708</ele>
        <time>2020-07-19T14:00:38.000Z</time>
      </trkpt>
      <trkpt lat="45.2128" lon="6.22346">
        <ele>1707</ele>
        <time>2020-07-19T14:02:20.000Z</time>
      </trkpt>
      <trkpt lat="45.21282" lon="6.22349">
        <ele>1706.9</ele>
        <time>2020-07-19T14:02:21.000Z</time>
      </trkpt>
      <trkpt lat="45.21285" lon="6.22353">
        <ele>1706.2</ele>
        <time>2020-07-19T14:02:22.000Z</time>
      </trkpt>
      <trkpt lat="45.21287" lon="6.22357">
        <ele>1704.9</ele>
        <time>2020-07-19T14:02:23.000Z</time>
      </trkpt>
      <trkpt lat="45.2129" lon="6.22361">
        <ele>1703.9</ele>
        <time>2020-07-19T14:02:24.000Z</time>
      </trkpt>
      <trkpt lat="45.21293" lon="6.22365">
        <ele>1702.9</ele>
        <time>2020-07-19T14:02:25.000Z</time>
      </trkpt>
      <trkpt lat="45.21296" lon="6.2237">
        <ele>1701.9</ele>
        <time>2020-07-19T14:02:26.000Z</time>
      </trkpt>
      <trkpt lat="45.21299" lon="6.22374">
        <ele>1700.9</ele>
        <time>2020-07-19T14:02:27.000Z</time>
      </trkpt>
      <trkpt lat="45.21301" lon="6.22377">
        <ele>1699.9</ele>
        <time>2020-07-19T14:02:28.000Z</time>
      </trkpt>
      <trkpt lat="45.21304" lon="6.2238">
        <ele>1699</ele>
        <time>2020-07-19T14:02:36.000Z</time>
      </trkpt>
      <trkpt lat="45.21305" lon="6.22383">
        <ele>1698.9</ele>
        <time>2020-07-19T14:02:37.000Z</time>
      </trkpt>
      <trkpt lat="45.21307" lon="6.22386">
        <ele>1698</ele>
        <time>2020-07-19T14:02:38.000Z</time>
      </trkpt>
      <trkpt lat="45.2131" lon="6.22389">
        <ele>1697.9</ele>
        <time>2020-07-19T14:02:39.000Z</time>
      </trkpt>
      <trkpt lat="45.21313" lon="6.22393">
        <ele>1696.9</ele>
        <time>2020-07-19T14:02:40.000Z</time>
      </trkpt>
      <trkpt lat="45.21316" lon="6.22398">
        <ele>1695.9</ele>
        <time>2020-07-19T14:02:41.000Z</time>
      </trkpt>
      <trkpt lat="45.21319" lon="6.22402">
        <ele>1695.2</ele>
        <time>2020-07-19T14:02:42.000Z</time>
      </trkpt>
      <trkpt lat="45.21323" lon="6.22406">
        <ele>1694</ele>
        <time>2020-07-19T14:02:43.000Z</time>
      </trkpt>
      <trkpt lat="45.21326" lon="6.2241">
        <ele>1693.9</ele>
        <time>2020-07-19T14:02:44.000Z</time>
      </trkpt>
      <trkpt lat="45.2133" lon="6.22414">
        <ele>1693</ele>
        <time>2020-07-19T14:02:45.000Z</time>
      </trkpt>
      <trkpt lat="45.21334" lon="6.22418">
        <ele>1692.9</ele>
        <time>2020-07-19T14:02:46.000Z</time>
      </trkpt>
      <trkpt lat="45.21338" lon="6.22422">
        <ele>1692</ele>
        <time>2020-07-19T14:02:47.000Z</time>
      </trkpt>
      <trkpt lat="45.21342" lon="6.22426">
        <ele>1691.9</ele>
        <time>2020-07-19T14:02:48.000Z</time>
      </trkpt>
      <trkpt lat="45.21347" lon="6.22431">
        <ele>1690.3</ele>
        <time>2020-07-19T14:02:49.000Z</time>
      </trkpt>
      <trkpt lat="45.21352" lon="6.22436">
        <ele>1688.9</ele>
        <time>2020-07-19T14:02:50.000Z</time>
      </trkpt>
      <trkpt lat="45.21356" lon="6.2244">
        <ele>1688.1</ele>
        <time>2020-07-19T14:02:51.000Z</time>
      </trkpt>
      <trkpt lat="45.21361" lon="6.22444">
        <ele>1687.2</ele>
        <time>2020-07-19T14:02:52.000Z</time>
      </trkpt>
      <trkpt lat="45.21366" lon="6.22448">
        <ele>1686.9</ele>
        <time>2020-07-19T14:02:53.000Z</time>
      </trkpt>
      <trkpt lat="45.2137" lon="6.22452">
        <ele>1685.8</ele>
        <time>2020-07-19T14:02:54.000Z</time>
      </trkpt>
      <trkpt lat="45.21373" lon="6.22456">
        <ele>1683.9</ele>
        <time>2020-07-19T14:02:55.000Z</time>
      </trkpt>
      <trkpt lat="45.21375" lon="6.22458">
        <ele>1682.9</ele>
        <time>2020-07-19T14:02:56.000Z</time>
      </trkpt>
      <trkpt lat="45.21378" lon="6.2246">
        <ele>1681.9</ele>
        <time>2020-07-19T14:02:57.000Z</time>
      </trkpt>
      <trkpt lat="45.2138" lon="6.22463">
        <ele>1680.9</ele>
        <time>2020-07-19T14:02:58.000Z</time>
      </trkpt>
      <trkpt lat="45.21383" lon="6.22467">
        <ele>1680</ele>
        <time>2020-07-19T14:02:59.000Z</time>
      </trkpt>
      <trkpt lat="45.21387" lon="6.22471">
        <ele>1680</ele>
        <time>2020-07-19T14:03:00.000Z</time>
      </trkpt>
      <trkpt lat="45.2139" lon="6.22475">
        <ele>1679.9</ele>
        <time>2020-07-19T14:03:01.000Z</time>
      </trkpt>
      <trkpt lat="45.21394" lon="6.22479">
        <ele>1679</ele>
        <time>2020-07-19T14:03:02.000Z</time>
      </trkpt>
      <trkpt lat="45.21398" lon="6.22483">
        <ele>1679</ele>
        <time>2020-07-19T14:03:03.000Z</time>
      </trkpt>
      <trkpt lat="45.21402" lon="6.22487">
        <ele>1678.9</ele>
        <time>2020-07-19T14:03:04.000Z</time>
      </trkpt>
      <trkpt lat="45.21406" lon="6.22492">
        <ele>1677.9</ele>
        <time>2020-07-19T14:03:05.000Z</time>
      </trkpt>
      <trkpt lat="45.2141" lon="6.22497">
        <ele>1676.9</ele>
        <time>2020-07-19T14:03:06.000Z</time>
      </trkpt>
      <trkpt lat="45.21415" lon="6.22502">
        <ele>1675.9</ele>
        <time>2020-07-19T14:03:07.000Z</time>
      </trkpt>
      <trkpt lat="45.2142" lon="6.22508">
        <ele>1675.2</ele>
        <time>2020-07-19T14:03:08.000Z</time>
      </trkpt>
      <trkpt lat="45.21424" lon="6.22513">
        <ele>1673.9</ele>
        <time>2020-07-19T14:03:09.000Z</time>
      </trkpt>
      <trkpt lat="45.21429" lon="6.22519">
        <ele>1672.9</ele>
        <time>2020-07-19T14:03:10.000Z</time>
      </trkpt>
      <trkpt lat="45.21434" lon="6.22525">
        <ele>1672</ele>
        <time>2020-07-19T14:03:11.000Z</time>
      </trkpt>
      <trkpt lat="45.21438" lon="6.2253">
        <ele>1672</ele>
        <time>2020-07-19T14:03:12.000Z</time>
      </trkpt>
      <trkpt lat="45.21442" lon="6.22535">
        <ele>1671.9</ele>
        <time>2020-07-19T14:03:13.000Z</time>
      </trkpt>
      <trkpt lat="45.21447" lon="6.2254">
        <ele>1670.9</ele>
        <time>2020-07-19T14:03:14.000Z</time>
      </trkpt>
      <trkpt lat="45.21451" lon="6.22545">
        <ele>1670</ele>
        <time>2020-07-19T14:03:15.000Z</time>
      </trkpt>
      <trkpt lat="45.21455" lon="6.2255">
        <ele>1670</ele>
        <time>2020-07-19T14:03:16.000Z</time>
      </trkpt>
      <trkpt lat="45.21459" lon="6.22554">
        <ele>1669.9</ele>
        <time>2020-07-19T14:03:17.000Z</time>
      </trkpt>
      <trkpt lat="45.21463" lon="6.22558">
        <ele>1669</ele>
        <time>2020-07-19T14:03:18.000Z</time>
      </trkpt>
      <trkpt lat="45.21468" lon="6.22561">
        <ele>1669</ele>
        <time>2020-07-19T14:03:19.000Z</time>
      </trkpt>
      <trkpt lat="45.21472" lon="6.22564">
        <ele>1669</ele>
        <time>2020-07-19T14:03:20.000Z</time>
      </trkpt>
      <trkpt lat="45.21476" lon="6.22567">
        <ele>1669</ele>
        <time>2020-07-19T14:03:21.000Z</time>
      </trkpt>
      <trkpt lat="45.21481" lon="6.22571">
        <ele>1669</ele>
        <time>2020-07-19T14:03:22.000Z</time>
      </trkpt>
      <trkpt lat="45.21486" lon="6.22574">
        <ele>1667.9</ele>
        <time>2020-07-19T14:03:23.000Z</time>
      </trkpt>
      <trkpt lat="45.21491" lon="6.22576">
        <ele>1666.9</ele>
        <time>2020-07-19T14:03:24.000Z</time>
      </trkpt>
      <trkpt lat="45.21496" lon="6.22577">
        <ele>1666</ele>
        <time>2020-07-19T14:03:25.000Z</time>
      </trkpt>
      <trkpt lat="45.215" lon="6.22577">
        <ele>1666</ele>
        <time>2020-07-19T14:03:26.000Z</time>
      </trkpt>
      <trkpt lat="45.21504" lon="6.22578">
        <ele>1666</ele>
        <time>2020-07-19T14:03:27.000Z</time>
      </trkpt>
      <trkpt lat="45.21507" lon="6.22578">
        <ele>1666</ele>
        <time>2020-07-19T14:03:28.000Z</time>
      </trkpt>
      <trkpt lat="45.21506" lon="6.22576">
        <ele>1664</ele>
        <time>2020-07-19T14:03:47.000Z</time>
      </trkpt>
      <trkpt lat="45.21507" lon="6.22579">
        <ele>1661</ele>
        <time>2020-07-19T14:05:34.000Z</time>
      </trkpt>
      <trkpt lat="45.21506" lon="6.22576">
        <ele>1661</ele>
        <time>2020-07-19T14:05:41.000Z</time>
      </trkpt>
      <trkpt lat="45.21509" lon="6.2258">
        <ele>1659</ele>
        <time>2020-07-19T14:06:32.000Z</time>
      </trkpt>
      <trkpt lat="45.21511" lon="6.22583">
        <ele>1658.9</ele>
        <time>2020-07-19T14:06:33.000Z</time>
      </trkpt>
      <trkpt lat="45.21513" lon="6.22587">
        <ele>1658</ele>
        <time>2020-07-19T14:06:34.000Z</time>
      </trkpt>
      <trkpt lat="45.21515" lon="6.2259">
        <ele>1658</ele>
        <time>2020-07-19T14:06:35.000Z</time>
      </trkpt>
      <trkpt lat="45.21518" lon="6.22594">
        <ele>1658</ele>
        <time>2020-07-19T14:06:36.000Z</time>
      </trkpt>
      <trkpt lat="45.2152" lon="6.22598">
        <ele>1658</ele>
        <time>2020-07-19T14:06:37.000Z</time>
      </trkpt>
      <trkpt lat="45.21523" lon="6.22601">
        <ele>1659</ele>
        <time>2020-07-19T14:06:38.000Z</time>
      </trkpt>
      <trkpt lat="45.21525" lon="6.22605">
        <ele>1659</ele>
        <time>2020-07-19T14:06:39.000Z</time>
      </trkpt>
      <trkpt lat="45.21528" lon="6.22609">
        <ele>1659</ele>
        <time>2020-07-19T14:06:40.000Z</time>
      </trkpt>
      <trkpt lat="45.21531" lon="6.22613">
        <ele>1659</ele>
        <time>2020-07-19T14:06:41.000Z</time>
      </trkpt>
      <trkpt lat="45.21534" lon="6.22616">
        <ele>1659</ele>
        <time>2020-07-19T14:06:42.000Z</time>
      </trkpt>
      <trkpt lat="45.21538" lon="6.22619">
        <ele>1659</ele>
        <time>2020-07-19T14:06:43.000Z</time>
      </trkpt>
      <trkpt lat="45.21541" lon="6.22622">
        <ele>1659</ele>
        <time>2020-07-19T14:06:44.000Z</time>
      </trkpt>
      <trkpt lat="45.21545" lon="6.22624">
        <ele>1659</ele>
        <time>2020-07-19T14:06:45.000Z</time>
      </trkpt>
      <trkpt lat="45.2155" lon="6.22625">
        <ele>1658.9</ele>
        <time>2020-07-19T14:06:46.000Z</time>
      </trkpt>
      <trkpt lat="45.21554" lon="6.22626">
        <ele>1658</ele>
        <time>2020-07-19T14:06:47.000Z</time>
      </trkpt>
      <trkpt lat="45.21559" lon="6.22626">
        <ele>1658</ele>
        <time>2020-07-19T14:06:48.000Z</time>
      </trkpt>
      <trkpt lat="45.21565" lon="6.22627">
        <ele>1657.9</ele>
        <time>2020-07-19T14:06:49.000Z</time>
      </trkpt>
      <trkpt lat="45.2157" lon="6.22627">
        <ele>1656.9</ele>
        <time>2020-07-19T14:06:50.000Z</time>
      </trkpt>
      <trkpt lat="45.21576" lon="6.22627">
        <ele>1656</ele>
        <time>2020-07-19T14:06:51.000Z</time>
      </trkpt>
      <trkpt lat="45.21582" lon="6.22627">
        <ele>1655.9</ele>
        <time>2020-07-19T14:06:52.000Z</time>
      </trkpt>
      <trkpt lat="45.21589" lon="6.22627">
        <ele>1655</ele>
        <time>2020-07-19T14:06:53.000Z</time>
      </trkpt>
      <trkpt lat="45.21595" lon="6.22626">
        <ele>1655</ele>
        <time>2020-07-19T14:06:54.000Z</time>
      </trkpt>
      <trkpt lat="45.21601" lon="6.22623">
        <ele>1655</ele>
        <time>2020-07-19T14:06:55.000Z</time>
      </trkpt>
      <trkpt lat="45.21607" lon="6.2262">
        <ele>1654.3</ele>
        <time>2020-07-19T14:06:56.000Z</time>
      </trkpt>
      <trkpt lat="45.21613" lon="6.22617">
        <ele>1654</ele>
        <time>2020-07-19T14:06:57.000Z</time>
      </trkpt>
      <trkpt lat="45.21618" lon="6.22613">
        <ele>1654</ele>
        <time>2020-07-19T14:06:58.000Z</time>
      </trkpt>
      <trkpt lat="45.21625" lon="6.22608">
        <ele>1654</ele>
        <time>2020-07-19T14:06:59.000Z</time>
      </trkpt>
      <trkpt lat="45.21631" lon="6.22604">
        <ele>1653.9</ele>
        <time>2020-07-19T14:07:00.000Z</time>
      </trkpt>
      <trkpt lat="45.21638" lon="6.22599">
        <ele>1652.9</ele>
        <time>2020-07-19T14:07:01.000Z</time>
      </trkpt>
      <trkpt lat="45.21645" lon="6.22593">
        <ele>1652</ele>
        <time>2020-07-19T14:07:02.000Z</time>
      </trkpt>
      <trkpt lat="45.21652" lon="6.22588">
        <ele>1652</ele>
        <time>2020-07-19T14:07:03.000Z</time>
      </trkpt>
      <trkpt lat="45.21658" lon="6.22581">
        <ele>1652</ele>
        <time>2020-07-19T14:07:04.000Z</time>
      </trkpt>
      <trkpt lat="45.21665" lon="6.22575">
        <ele>1651.9</ele>
        <time>2020-07-19T14:07:05.000Z</time>
      </trkpt>
      <trkpt lat="45.21671" lon="6.22568">
        <ele>1651</ele>
        <time>2020-07-19T14:07:06.000Z</time>
      </trkpt>
      <trkpt lat="45.21678" lon="6.22562">
        <ele>1651</ele>
        <time>2020-07-19T14:07:07.000Z</time>
      </trkpt>
      <trkpt lat="45.21686" lon="6.22555">
        <ele>1651</ele>
        <time>2020-07-19T14:07:08.000Z</time>
      </trkpt>
      <trkpt lat="45.21693" lon="6.22548">
        <ele>1651</ele>
        <time>2020-07-19T14:07:09.000Z</time>
      </trkpt>
      <trkpt lat="45.21701" lon="6.22544">
        <ele>1649.9</ele>
        <time>2020-07-19T14:07:10.000Z</time>
      </trkpt>
      <trkpt lat="45.2171" lon="6.2254">
        <ele>1649</ele>
        <time>2020-07-19T14:07:11.000Z</time>
      </trkpt>
      <trkpt lat="45.21718" lon="6.22536">
        <ele>1649</ele>
        <time>2020-07-19T14:07:12.000Z</time>
      </trkpt>
      <trkpt lat="45.21727" lon="6.22532">
        <ele>1648.9</ele>
        <time>2020-07-19T14:07:13.000Z</time>
      </trkpt>
      <trkpt lat="45.21736" lon="6.22529">
        <ele>1648.2</ele>
        <time>2020-07-19T14:07:14.000Z</time>
      </trkpt>
      <trkpt lat="45.21745" lon="6.22526">
        <ele>1648</ele>
        <time>2020-07-19T14:07:15.000Z</time>
      </trkpt>
      <trkpt lat="45.21754" lon="6.22522">
        <ele>1646.9</ele>
        <time>2020-07-19T14:07:16.000Z</time>
      </trkpt>
      <trkpt lat="45.21763" lon="6.22518">
        <ele>1646</ele>
        <time>2020-07-19T14:07:17.000Z</time>
      </trkpt>
      <trkpt lat="45.21773" lon="6.22515">
        <ele>1646</ele>
        <time>2020-07-19T14:07:18.000Z</time>
      </trkpt>
      <trkpt lat="45.21782" lon="6.22511">
        <ele>1645.9</ele>
        <time>2020-07-19T14:07:19.000Z</time>
      </trkpt>
      <trkpt lat="45.21791" lon="6.22509">
        <ele>1645.2</ele>
        <time>2020-07-19T14:07:20.000Z</time>
      </trkpt>
      <trkpt lat="45.218" lon="6.22506">
        <ele>1644</ele>
        <time>2020-07-19T14:07:21.000Z</time>
      </trkpt>
      <trkpt lat="45.21809" lon="6.22503">
        <ele>1644</ele>
        <time>2020-07-19T14:07:22.000Z</time>
      </trkpt>
      <trkpt lat="45.21817" lon="6.22499">
        <ele>1643.9</ele>
        <time>2020-07-19T14:07:23.000Z</time>
      </trkpt>
      <trkpt lat="45.21825" lon="6.22493">
        <ele>1643</ele>
        <time>2020-07-19T14:07:24.000Z</time>
      </trkpt>
      <trkpt lat="45.21833" lon="6.22486">
        <ele>1643</ele>
        <time>2020-07-19T14:07:25.000Z</time>
      </trkpt>
      <trkpt lat="45.2184" lon="6.22477">
        <ele>1641.9</ele>
        <time>2020-07-19T14:07:26.000Z</time>
      </trkpt>
      <trkpt lat="45.21847" lon="6.22466">
        <ele>1640.9</ele>
        <time>2020-07-19T14:07:27.000Z</time>
      </trkpt>
      <trkpt lat="45.21855" lon="6.22457">
        <ele>1639.9</ele>
        <time>2020-07-19T14:07:28.000Z</time>
      </trkpt>
      <trkpt lat="45.21863" lon="6.22447">
        <ele>1638.9</ele>
        <time>2020-07-19T14:07:29.000Z</time>
      </trkpt>
      <trkpt lat="45.21872" lon="6.22439">
        <ele>1637.4</ele>
        <time>2020-07-19T14:07:30.000Z</time>
      </trkpt>
      <trkpt lat="45.2188" lon="6.22431">
        <ele>1634.9</ele>
        <time>2020-07-19T14:07:31.000Z</time>
      </trkpt>
      <trkpt lat="45.21889" lon="6.22422">
        <ele>1633.9</ele>
        <time>2020-07-19T14:07:32.000Z</time>
      </trkpt>
      <trkpt lat="45.21896" lon="6.22411">
        <ele>1633</ele>
        <time>2020-07-19T14:07:33.000Z</time>
      </trkpt>
      <trkpt lat="45.21903" lon="6.224">
        <ele>1633</ele>
        <time>2020-07-19T14:07:34.000Z</time>
      </trkpt>
      <trkpt lat="45.21909" lon="6.22387">
        <ele>1633</ele>
        <time>2020-07-19T14:07:35.000Z</time>
      </trkpt>
      <trkpt lat="45.21915" lon="6.22375">
        <ele>1631.9</ele>
        <time>2020-07-19T14:07:36.000Z</time>
      </trkpt>
      <trkpt lat="45.2192" lon="6.22364">
        <ele>1630.9</ele>
        <time>2020-07-19T14:07:37.000Z</time>
      </trkpt>
      <trkpt lat="45.21926" lon="6.22355">
        <ele>1629.8</ele>
        <time>2020-07-19T14:07:38.000Z</time>
      </trkpt>
      <trkpt lat="45.21933" lon="6.22349">
        <ele>1627.9</ele>
        <time>2020-07-19T14:07:39.000Z</time>
      </trkpt>
      <trkpt lat="45.21941" lon="6.22345">
        <ele>1627.2</ele>
        <time>2020-07-19T14:07:40.000Z</time>
      </trkpt>
      <trkpt lat="45.21949" lon="6.22341">
        <ele>1625.9</ele>
        <time>2020-07-19T14:07:41.000Z</time>
      </trkpt>
      <trkpt lat="45.21957" lon="6.22337">
        <ele>1624.9</ele>
        <time>2020-07-19T14:07:42.000Z</time>
      </trkpt>
      <trkpt lat="45.21965" lon="6.22332">
        <ele>1623.9</ele>
        <time>2020-07-19T14:07:43.000Z</time>
      </trkpt>
      <trkpt lat="45.21973" lon="6.22327">
        <ele>1622.8</ele>
        <time>2020-07-19T14:07:44.000Z</time>
      </trkpt>
      <trkpt lat="45.21982" lon="6.22322">
        <ele>1620.9</ele>
        <time>2020-07-19T14:07:45.000Z</time>
      </trkpt>
      <trkpt lat="45.21989" lon="6.22316">
        <ele>1620.2</ele>
        <time>2020-07-19T14:07:46.000Z</time>
      </trkpt>
      <trkpt lat="45.21996" lon="6.22311">
        <ele>1619.2</ele>
        <time>2020-07-19T14:07:47.000Z</time>
      </trkpt>
      <trkpt lat="45.22002" lon="6.22306">
        <ele>1617.9</ele>
        <time>2020-07-19T14:07:48.000Z</time>
      </trkpt>
      <trkpt lat="45.22008" lon="6.22302">
        <ele>1616.9</ele>
        <time>2020-07-19T14:07:49.000Z</time>
      </trkpt>
      <trkpt lat="45.22013" lon="6.22299">
        <ele>1615.9</ele>
        <time>2020-07-19T14:07:50.000Z</time>
      </trkpt>
      <trkpt lat="45.22018" lon="6.223">
        <ele>1615</ele>
        <time>2020-07-19T14:07:51.000Z</time>
      </trkpt>
      <trkpt lat="45.22022" lon="6.22304">
        <ele>1614.9</ele>
        <time>2020-07-19T14:07:52.000Z</time>
      </trkpt>
      <trkpt lat="45.22025" lon="6.2231">
        <ele>1614.2</ele>
        <time>2020-07-19T14:07:53.000Z</time>
      </trkpt>
      <trkpt lat="45.22027" lon="6.22317">
        <ele>1613.9</ele>
        <time>2020-07-19T14:07:54.000Z</time>
      </trkpt>
      <trkpt lat="45.2203" lon="6.22323">
        <ele>1613.2</ele>
        <time>2020-07-19T14:07:55.000Z</time>
      </trkpt>
      <trkpt lat="45.22033" lon="6.22326">
        <ele>1612</ele>
        <time>2020-07-19T14:07:56.000Z</time>
      </trkpt>
    </trkseg>
  </trk>
</gpx>